Wetterdaten: Freitag, 13.07.2018
Datum Zeit Temp. A. Pool Temp. Temp. 5cm Feuchte A. Luftdruck Regen Wind Richtung Richtung Sonnenschein ET UV Solar Taupunkt Windchill Windben Empfang
13.07.2018 00:00 15,8 C 23,3 C 13,9 C 78 % 1016,4 hPa 0,0 l/m 5,6 km/h (1 Bft) S-SW 193 0 min 0,000 mm 0,0 UV-I 0 W/m 12,0 C 15,8 C 6,4 km/h (2 Bft) 96,15 %
13.07.2018 00:02 15,7 C 23,3 C 13,9 C 78 % 1016,5 hPa 0,0 l/m 6,4 km/h (2 Bft) S-SW 193 0 min 0,000 mm 0,0 UV-I 0 W/m 11,9 C 15,7 C 6,4 km/h (2 Bft) 100,00 %
13.07.2018 00:03 15,7 C 23,3 C 13,9 C 79 % 1016,5 hPa 0,0 l/m 5,3 km/h (1 Bft) S-SW 196 0 min 0,000 mm 0,0 UV-I 0 W/m 12,1 C 15,7 C 6,4 km/h (2 Bft) 100,00 %
13.07.2018 00:04 15,7 C 23,3 C 13,9 C 79 % 1016,5 hPa 0,0 l/m 5,1 km/h (1 Bft) S-SW 196 0 min 0,000 mm 0,0 UV-I 0 W/m 12,1 C 15,7 C 6,4 km/h (2 Bft) 91,30 %
13.07.2018 00:05 15,8 C 23,3 C 13,9 C 78 % 1016,5 hPa 0,0 l/m 3,5 km/h (1 Bft) S-SW 196 0 min 0,000 mm 0,0 UV-I 0 W/m 12,0 C 15,8 C 4,8 km/h (1 Bft) 96,30 %
13.07.2018 00:06 15,8 C 23,3 C 13,9 C 78 % 1016,5 hPa 0,0 l/m 3,8 km/h (1 Bft) S-SW 196 0 min 0,000 mm 0,0 UV-I 0 W/m 12,0 C 15,8 C 6,4 km/h (2 Bft) 92,86 %
13.07.2018 00:07 15,8 C 23,3 C 13,9 C 78 % 1016,5 hPa 0,0 l/m 5,3 km/h (1 Bft) S-SW 196 0 min 0,000 mm 0,0 UV-I 0 W/m 12,0 C 15,8 C 6,4 km/h (2 Bft) 96,30 %
13.07.2018 00:08 15,8 C 23,3 C 13,9 C 78 % 1016,5 hPa 0,0 l/m 3,7 km/h (1 Bft) S-SW 196 0 min 0,000 mm 0,0 UV-I 0 W/m 12,0 C 15,8 C 4,8 km/h (1 Bft) 94,44 %
13.07.2018 00:09 15,8 C 23,3 C 13,9 C 78 % 1016,5 hPa 0,0 l/m 3,6 km/h (1 Bft) S-SW 196 0 min 0,000 mm 0,0 UV-I 0 W/m 12,0 C 15,8 C 4,8 km/h (1 Bft) 93,10 %
13.07.2018 00:10 15,7 C 23,3 C 13,9 C 78 % 1016,5 hPa 0,0 l/m 3,1 km/h (1 Bft) S-SW 196 0 min 0,000 mm 0,0 UV-I 0 W/m 11,9 C 15,7 C 4,8 km/h (1 Bft) 100,00 %
13.07.2018 00:11 15,7 C 23,3 C 13,9 C 79 % 1016,5 hPa 0,0 l/m 4,0 km/h (1 Bft) S-SW 206 0 min 0,000 mm 0,0 UV-I 0 W/m 12,1 C 15,7 C 4,8 km/h (1 Bft) 96,15 %
13.07.2018 00:12 15,6 C 23,3 C 13,9 C 79 % 1016,5 hPa 0,0 l/m 3,5 km/h (1 Bft) S-SW 206 0 min 0,000 mm 0,0 UV-I 0 W/m 12,0 C 15,6 C 4,8 km/h (1 Bft) 100,00 %
13.07.2018 00:13 15,5 C 23,3 C 13,9 C 80 % 1016,5 hPa 0,0 l/m 3,9 km/h (1 Bft) S-SW 206 0 min 0,000 mm 0,0 UV-I 0 W/m 12,1 C 15,5 C 4,8 km/h (1 Bft) 96,55 %
13.07.2018 00:14 15,4 C 23,3 C 13,9 C 80 % 1016,5 hPa 0,0 l/m 4,3 km/h (1 Bft) S-SW 205 0 min 0,000 mm 0,0 UV-I 0 W/m 12,0 C 15,4 C 6,4 km/h (2 Bft) 100,00 %
13.07.2018 00:15 15,3 C 23,3 C 13,9 C 81 % 1016,5 hPa 0,0 l/m 4,4 km/h (1 Bft) S-SW 206 0 min 0,000 mm 0,0 UV-I 0 W/m 12,1 C 15,3 C 6,4 km/h (2 Bft) 93,33 %
13.07.2018 00:16 15,2 C 23,3 C 13,9 C 81 % 1016,5 hPa 0,0 l/m 3,9 km/h (1 Bft) S-SW 206 0 min 0,000 mm 0,0 UV-I 0 W/m 12,0 C 15,2 C 4,8 km/h (1 Bft) 100,00 %
13.07.2018 00:17 15,2 C 23,3 C 13,9 C 81 % 1016,5 hPa 0,0 l/m 4,3 km/h (1 Bft) S-SW 206 0 min 0,000 mm 0,0 UV-I 0 W/m 12,0 C 15,2 C 4,8 km/h (1 Bft) 92,31 %
13.07.2018 00:18 15,2 C 23,3 C 13,3 C 82 % 1016,6 hPa 0,0 l/m 3,2 km/h (1 Bft) S-SW 206 0 min 0,000 mm 0,0 UV-I 0 W/m 12,1 C 15,2 C 4,8 km/h (1 Bft) 100,00 %
13.07.2018 00:19 15,1 C 22,8 C 13,3 C 82 % 1016,6 hPa 0,0 l/m 3,3 km/h (1 Bft) S-SW 206 0 min 0,000 mm 0,0 UV-I 0 W/m 12,0 C 15,1 C 4,8 km/h (1 Bft) 90,91 %
13.07.2018 00:20 15,1 C 23,3 C 13,3 C 82 % 1016,6 hPa 0,0 l/m 3,6 km/h (1 Bft) S-SW 206 0 min 0,000 mm 0,0 UV-I 0 W/m 12,0 C 15,1 C 4,8 km/h (1 Bft) 100,00 %
13.07.2018 00:21 15,1 C 22,8 C 13,3 C 82 % 1016,6 hPa 0,0 l/m 3,7 km/h (1 Bft) S-SW 206 0 min 0,000 mm 0,0 UV-I 0 W/m 12,0 C 15,1 C 4,8 km/h (1 Bft) 96,15 %
13.07.2018 00:22 15,0 C 22,8 C 13,3 C 82 % 1016,7 hPa 0,0 l/m 3,1 km/h (1 Bft) S-SW 206 0 min 0,000 mm 0,0 UV-I 0 W/m 12,0 C 15,0 C 4,8 km/h (1 Bft) 100,00 %
13.07.2018 00:23 14,9 C 22,8 C 13,3 C 82 % 1016,7 hPa 0,0 l/m 4,0 km/h (1 Bft) S-SW 206 0 min 0,000 mm 0,0 UV-I 0 W/m 11,9 C 14,9 C 4,8 km/h (1 Bft) 97,37 %
13.07.2018 00:24 14,9 C 22,8 C 12,8 C 83 % 1016,6 hPa 0,0 l/m 5,3 km/h (1 Bft) S-SW 207 0 min 0,000 mm 0,0 UV-I 0 W/m 12,0 C 14,9 C 6,4 km/h (2 Bft) 96,30 %
13.07.2018 00:25 14,9 C 22,8 C 12,8 C 83 % 1016,7 hPa 0,0 l/m 4,3 km/h (1 Bft) S-SW 207 0 min 0,000 mm 0,0 UV-I 0 W/m 12,0 C 14,9 C 6,4 km/h (2 Bft) 100,00 %
13.07.2018 00:26 14,9 C 22,8 C 12,8 C 83 % 1016,7 hPa 0,0 l/m 3,5 km/h (1 Bft) S-SW 207 0 min 0,000 mm 0,0 UV-I 0 W/m 12,0 C 14,9 C 4,8 km/h (1 Bft) 100,00 %
13.07.2018 00:27 14,9 C 22,8 C 12,8 C 83 % 1016,7 hPa 0,0 l/m 3,8 km/h (1 Bft) S-SW 205 0 min 0,000 mm 0,0 UV-I 0 W/m 12,0 C 14,9 C 4,8 km/h (1 Bft) 100,00 %
13.07.2018 00:28 14,9 C 22,8 C 12,8 C 83 % 1016,7 hPa 0,0 l/m 3,8 km/h (1 Bft) S-SW 207 0 min 0,000 mm 0,0 UV-I 0 W/m 12,0 C 14,9 C 4,8 km/h (1 Bft) 100,00 %
13.07.2018 00:29 14,9 C 22,8 C 12,8 C 83 % 1016,7 hPa 0,0 l/m 4,4 km/h (1 Bft) S-SW 208 0 min 0,000 mm 0,0 UV-I 0 W/m 12,0 C 14,9 C 6,4 km/h (2 Bft) 100,00 %
13.07.2018 00:30 14,8 C 22,8 C 12,8 C 83 % 1016,8 hPa 0,0 l/m 5,5 km/h (1 Bft) S-SW 207 0 min 0,000 mm 0,0 UV-I 0 W/m 11,9 C 14,8 C 8,0 km/h (2 Bft) 100,00 %
13.07.2018 00:31 14,9 C 22,8 C 13,3 C 83 % 1016,8 hPa 0,0 l/m 5,9 km/h (2 Bft) S-SW 207 0 min 0,000 mm 0,0 UV-I 0 W/m 12,0 C 14,9 C 8,0 km/h (2 Bft) 100,00 %
13.07.2018 00:32 14,9 C 22,8 C 13,3 C 83 % 1016,7 hPa 0,0 l/m 5,9 km/h (2 Bft) S-SW 207 0 min 0,000 mm 0,0 UV-I 0 W/m 12,0 C 14,9 C 6,4 km/h (2 Bft) 96,15 %
13.07.2018 00:33 14,9 C 22,8 C 13,3 C 83 % 1016,7 hPa 0,0 l/m 5,4 km/h (1 Bft) S-SW 209 0 min 0,000 mm 0,0 UV-I 0 W/m 12,0 C 14,9 C 6,4 km/h (2 Bft) 100,00 %
13.07.2018 00:34 14,9 C 22,8 C 13,3 C 83 % 1016,7 hPa 0,0 l/m 5,4 km/h (1 Bft) S-SW 204 0 min 0,000 mm 0,0 UV-I 0 W/m 12,0 C 14,9 C 6,4 km/h (2 Bft) 95,65 %
13.07.2018 00:35 14,9 C 22,8 C 13,3 C 83 % 1016,8 hPa 0,0 l/m 4,8 km/h (1 Bft) S-SW 204 0 min 0,000 mm 0,0 UV-I 0 W/m 12,0 C 14,9 C 6,4 km/h (2 Bft) 100,00 %
13.07.2018 00:36 14,9 C 22,8 C 13,9 C 82 % 1016,7 hPa 0,0 l/m 5,1 km/h (1 Bft) S-SW 204 0 min 0,000 mm 0,0 UV-I 0 W/m 11,9 C 14,9 C 6,4 km/h (2 Bft) 100,00 %
13.07.2018 00:37 14,9 C 22,8 C 13,9 C 82 % 1016,7 hPa 0,0 l/m 4,8 km/h (1 Bft) S-SW 204 0 min 0,000 mm 0,0 UV-I 0 W/m 11,9 C 14,9 C 8,0 km/h (2 Bft) 100,00 %
13.07.2018 00:38 14,9 C 22,8 C 13,9 C 82 % 1016,7 hPa 0,0 l/m 4,3 km/h (1 Bft) S-SW 204 0 min 0,000 mm 0,0 UV-I 0 W/m 11,9 C 14,9 C 4,8 km/h (1 Bft) 100,00 %
13.07.2018 00:39 14,9 C 22,8 C 13,9 C 82 % 1016,7 hPa 0,0 l/m 3,4 km/h (1 Bft) S-SW 204 0 min 0,000 mm 0,0 UV-I 0 W/m 11,9 C 14,9 C 6,4 km/h (2 Bft) 96,30 %
13.07.2018 00:40 14,9 C 22,8 C 13,9 C 82 % 1016,7 hPa 0,0 l/m 4,7 km/h (1 Bft) S-SW 204 0 min 0,000 mm 0,0 UV-I 0 W/m 11,9 C 14,9 C 6,4 km/h (2 Bft) 100,00 %
13.07.2018 00:41 14,9 C 22,8 C 13,9 C 82 % 1016,7 hPa 0,0 l/m 5,2 km/h (1 Bft) S-SW 203 0 min 0,000 mm 0,0 UV-I 0 W/m 11,9 C 14,9 C 6,4 km/h (2 Bft) 100,00 %
13.07.2018 00:42 14,9 C 22,8 C 13,9 C 82 % 1016,7 hPa 0,0 l/m 4,6 km/h (1 Bft) S-SW 203 0 min 0,000 mm 0,0 UV-I 0 W/m 11,9 C 14,9 C 6,4 km/h (2 Bft) 100,00 %
13.07.2018 00:43 14,9 C 22,8 C 13,9 C 82 % 1016,7 hPa 0,0 l/m 5,1 km/h (1 Bft) S-SW 196 0 min 0,000 mm 0,0 UV-I 0 W/m 11,9 C 14,9 C 6,4 km/h (2 Bft) 100,00 %
13.07.2018 00:44 15,0 C 22,8 C 13,9 C 82 % 1016,8 hPa 0,0 l/m 5,4 km/h (1 Bft) S-SW 196 0 min 0,000 mm 0,0 UV-I 0 W/m 12,0 C 15,0 C 6,4 km/h (2 Bft) 100,00 %
13.07.2018 00:45 15,0 C 22,8 C 13,9 C 82 % 1016,7 hPa 0,0 l/m 5,2 km/h (1 Bft) S-SW 198 0 min 0,000 mm 0,0 UV-I 0 W/m 12,0 C 15,0 C 6,4 km/h (2 Bft) 100,00 %
13.07.2018 00:46 15,0 C 22,8 C 13,9 C 82 % 1016,7 hPa 0,0 l/m 4,8 km/h (1 Bft) S-SW 198 0 min 0,000 mm 0,0 UV-I 0 W/m 12,0 C 15,0 C 6,4 km/h (2 Bft) 95,65 %
13.07.2018 00:47 15,1 C 22,8 C 13,9 C 82 % 1016,8 hPa 0,0 l/m 4,6 km/h (1 Bft) S-SW 202 0 min 0,000 mm 0,0 UV-I 0 W/m 12,0 C 15,1 C 4,8 km/h (1 Bft) 100,00 %
13.07.2018 00:48 15,1 C 22,8 C 13,9 C 82 % 1016,8 hPa 0,0 l/m 4,2 km/h (1 Bft) S-SW 209 0 min 0,000 mm 0,0 UV-I 0 W/m 12,0 C 15,1 C 4,8 km/h (1 Bft) 100,00 %
13.07.2018 00:49 15,1 C 22,8 C 13,3 C 82 % 1016,8 hPa 0,0 l/m 4,4 km/h (1 Bft) SW 227 0 min 0,000 mm 0,0 UV-I 0 W/m 12,0 C 15,1 C 4,8 km/h (1 Bft) 100,00 %
13.07.2018 00:50 15,1 C 22,8 C 13,3 C 82 % 1016,8 hPa 0,0 l/m 4,5 km/h (1 Bft) S-SW 205 0 min 0,000 mm 0,0 UV-I 0 W/m 12,0 C 15,1 C 6,4 km/h (2 Bft) 100,00 %
13.07.2018 00:51 15,1 C 22,8 C 13,3 C 82 % 1016,8 hPa 0,0 l/m 4,5 km/h (1 Bft) S-SW 205 0 min 0,000 mm 0,0 UV-I 0 W/m 12,0 C 15,1 C 6,4 km/h (2 Bft) 100,00 %
13.07.2018 00:52 15,1 C 22,8 C 13,3 C 82 % 1016,8 hPa 0,0 l/m 3,8 km/h (1 Bft) S-SW 205 0 min 0,000 mm 0,0 UV-I 0 W/m 12,0 C 15,1 C 4,8 km/h (1 Bft) 100,00 %
13.07.2018 00:53 15,0 C 22,8 C 13,3 C 82 % 1016,8 hPa 0,0 l/m 5,0 km/h (1 Bft) S-SW 205 0 min 0,000 mm 0,0 UV-I 0 W/m 12,0 C 15,0 C 6,4 km/h (2 Bft) 100,00 %
13.07.2018 00:54 15,0 C 22,8 C 13,3 C 82 % 1016,8 hPa 0,0 l/m 5,6 km/h (1 Bft) S-SW 206 0 min 0,000 mm 0,0 UV-I 0 W/m 12,0 C 15,0 C 6,4 km/h (2 Bft) 100,00 %
13.07.2018 00:55 15,0 C 22,8 C 13,3 C 82 % 1016,7 hPa 0,0 l/m 5,4 km/h (1 Bft) S-SW 208 0 min 0,000 mm 0,0 UV-I 0 W/m 12,0 C 15,0 C 6,4 km/h (2 Bft) 100,00 %
13.07.2018 00:56 14,9 C 22,8 C 13,3 C 82 % 1016,8 hPa 0,0 l/m 5,1 km/h (1 Bft) SW 215 0 min 0,000 mm 0,0 UV-I 0 W/m 11,9 C 14,9 C 8,0 km/h (2 Bft) 100,00 %
13.07.2018 00:57 14,9 C 22,8 C 13,3 C 83 % 1016,8 hPa 0,0 l/m 5,2 km/h (1 Bft) S-SW 207 0 min 0,000 mm 0,0 UV-I 0 W/m 12,0 C 14,9 C 6,4 km/h (2 Bft) 91,30 %
13.07.2018 00:58 14,8 C 22,8 C 13,9 C 83 % 1016,8 hPa 0,0 l/m 4,4 km/h (1 Bft) S-SW 207 0 min 0,000 mm 0,0 UV-I 0 W/m 11,9 C 14,8 C 6,4 km/h (2 Bft) 100,00 %
13.07.2018 00:59 14,8 C 22,8 C 13,9 C 83 % 1016,8 hPa 0,0 l/m 5,8 km/h (2 Bft) S-SW 207 0 min 0,000 mm 0,0 UV-I 0 W/m 11,9 C 14,8 C 8,0 km/h (2 Bft) 100,00 %
13.07.2018 01:00 14,8 C 22,8 C 13,9 C 83 % 1016,8 hPa 0,0 l/m 5,2 km/h (1 Bft) S-SW 207 0 min 0,025 mm 0,0 UV-I 0 W/m 11,9 C 14,8 C 8,0 km/h (2 Bft) 100,00 %
13.07.2018 01:01 14,8 C 22,8 C 13,9 C 83 % 1016,8 hPa 0,0 l/m 6,2 km/h (2 Bft) S-SW 209 0 min 0,000 mm 0,0 UV-I 0 W/m 11,9 C 14,8 C 8,0 km/h (2 Bft) 95,65 %
13.07.2018 01:02 14,8 C 22,8 C 13,9 C 83 % 1016,8 hPa 0,0 l/m 5,5 km/h (1 Bft) S-SW 209 0 min 0,000 mm 0,0 UV-I 0 W/m 11,9 C 14,8 C 6,4 km/h (2 Bft) 100,00 %
13.07.2018 01:03 14,7 C 22,8 C 13,9 C 83 % 1016,8 hPa 0,0 l/m 5,6 km/h (1 Bft) S-SW 198 0 min 0,000 mm 0,0 UV-I 0 W/m 11,8 C 14,7 C 6,4 km/h (2 Bft) 95,65 %
13.07.2018 01:04 14,7 C 22,8 C 13,9 C 84 % 1016,8 hPa 0,0 l/m 4,3 km/h (1 Bft) S-SW 207 0 min 0,000 mm 0,0 UV-I 0 W/m 12,0 C 14,7 C 6,4 km/h (2 Bft) 100,00 %
13.07.2018 01:05 14,7 C 22,8 C 13,9 C 84 % 1016,8 hPa 0,0 l/m 5,4 km/h (1 Bft) S-SW 206 0 min 0,000 mm 0,0 UV-I 0 W/m 12,0 C 14,7 C 8,0 km/h (2 Bft) 100,00 %
13.07.2018 01:06 14,7 C 22,8 C 13,9 C 84 % 1016,8 hPa 0,0 l/m 5,8 km/h (2 Bft) S-SW 206 0 min 0,000 mm 0,0 UV-I 0 W/m 12,0 C 14,7 C 8,0 km/h (2 Bft) 100,00 %
13.07.2018 01:07 14,7 C 22,8 C 13,9 C 84 % 1016,8 hPa 0,0 l/m 6,1 km/h (2 Bft) S-SW 209 0 min 0,000 mm 0,0 UV-I 0 W/m 12,0 C 14,7 C 8,0 km/h (2 Bft) 100,00 %
13.07.2018 01:08 14,7 C 22,8 C 13,9 C 84 % 1016,8 hPa 0,0 l/m 6,0 km/h (2 Bft) SW 214 0 min 0,000 mm 0,0 UV-I 0 W/m 12,0 C 14,7 C 9,7 km/h (2 Bft) 100,00 %
13.07.2018 01:09 14,7 C 22,8 C 13,9 C 84 % 1016,8 hPa 0,0 l/m 5,4 km/h (1 Bft) S-SW 202 0 min 0,000 mm 0,0 UV-I 0 W/m 12,0 C 14,7 C 8,0 km/h (2 Bft) 100,00 %
13.07.2018 01:10 14,7 C 22,8 C 13,9 C 84 % 1016,8 hPa 0,0 l/m 6,4 km/h (2 Bft) S-SW 211 0 min 0,000 mm 0,0 UV-I 0 W/m 12,0 C 14,7 C 9,7 km/h (2 Bft) 97,56 %
13.07.2018 01:11 14,7 C 22,8 C 13,9 C 84 % 1016,8 hPa 0,0 l/m 6,8 km/h (2 Bft) S-SW 209 0 min 0,000 mm 0,0 UV-I 0 W/m 12,0 C 14,5 C 9,7 km/h (2 Bft) 100,00 %
13.07.2018 01:12 14,7 C 22,8 C 13,9 C 84 % 1016,7 hPa 0,0 l/m 5,7 km/h (1 Bft) S-SW 209 0 min 0,000 mm 0,0 UV-I 0 W/m 12,0 C 14,7 C 8,0 km/h (2 Bft) 100,00 %
13.07.2018 01:13 14,7 C 22,8 C 13,9 C 84 % 1016,8 hPa 0,0 l/m 4,8 km/h (1 Bft) S-SW 205 0 min 0,000 mm 0,0 UV-I 0 W/m 12,0 C 14,7 C 6,4 km/h (2 Bft) 95,83 %
13.07.2018 01:14 14,8 C 22,8 C 13,9 C 83 % 1016,8 hPa 0,0 l/m 5,7 km/h (1 Bft) S-SW 211 0 min 0,000 mm 0,0 UV-I 0 W/m 11,9 C 14,8 C 8,0 km/h (2 Bft) 100,00 %
13.07.2018 01:15 14,7 C 22,8 C 13,9 C 83 % 1016,7 hPa 0,0 l/m 5,9 km/h (2 Bft) S-SW 211 0 min 0,000 mm 0,0 UV-I 0 W/m 11,8 C 14,7 C 8,0 km/h (2 Bft) 100,00 %
13.07.2018 01:16 14,8 C 22,8 C 13,9 C 83 % 1016,8 hPa 0,0 l/m 5,5 km/h (1 Bft) S-SW 212 0 min 0,000 mm 0,0 UV-I 0 W/m 11,9 C 14,8 C 6,4 km/h (2 Bft) 100,00 %
13.07.2018 01:17 14,8 C 22,8 C 13,9 C 83 % 1016,8 hPa 0,0 l/m 5,2 km/h (1 Bft) S-SW 212 0 min 0,000 mm 0,0 UV-I 0 W/m 11,9 C 14,8 C 6,4 km/h (2 Bft) 100,00 %
13.07.2018 01:18 14,8 C 22,8 C 13,9 C 83 % 1016,7 hPa 0,0 l/m 5,3 km/h (1 Bft) S-SW 211 0 min 0,000 mm 0,0 UV-I 0 W/m 11,9 C 14,8 C 6,4 km/h (2 Bft) 96,55 %
13.07.2018 01:19 14,8 C 22,8 C 13,9 C 83 % 1016,7 hPa 0,0 l/m 5,9 km/h (2 Bft) S-SW 203 0 min 0,000 mm 0,0 UV-I 0 W/m 11,9 C 14,8 C 8,0 km/h (2 Bft) 100,00 %
13.07.2018 01:20 14,7 C 22,8 C 13,9 C 83 % 1016,7 hPa 0,0 l/m 6,1 km/h (2 Bft) S-SW 204 0 min 0,000 mm 0,0 UV-I 0 W/m 11,8 C 14,7 C 8,0 km/h (2 Bft) 100,00 %
13.07.2018 01:21 14,8 C 22,8 C 13,9 C 83 % 1016,7 hPa 0,0 l/m 6,1 km/h (2 Bft) S-SW 206 0 min 0,000 mm 0,0 UV-I 0 W/m 11,9 C 14,8 C 8,0 km/h (2 Bft) 95,83 %
13.07.2018 01:22 14,8 C 22,8 C 13,9 C 83 % 1016,7 hPa 0,0 l/m 6,0 km/h (2 Bft) SW 217 0 min 0,000 mm 0,0 UV-I 0 W/m 11,9 C 14,8 C 6,4 km/h (2 Bft) 96,15 %
13.07.2018 01:23 14,8 C 22,8 C 13,9 C 83 % 1016,7 hPa 0,0 l/m 5,8 km/h (2 Bft) S-SW 211 0 min 0,000 mm 0,0 UV-I 0 W/m 11,9 C 14,8 C 6,4 km/h (2 Bft) 100,00 %
13.07.2018 01:24 14,8 C 22,8 C 13,9 C 83 % 1016,7 hPa 0,0 l/m 6,6 km/h (2 Bft) SW 215 0 min 0,000 mm 0,0 UV-I 0 W/m 11,9 C 14,7 C 8,0 km/h (2 Bft) 100,00 %
13.07.2018 01:25 14,8 C 22,8 C 13,9 C 83 % 1016,7 hPa 0,0 l/m 6,6 km/h (2 Bft) SW 219 0 min 0,000 mm 0,0 UV-I 0 W/m 11,9 C 14,7 C 8,0 km/h (2 Bft) 100,00 %
13.07.2018 01:26 14,8 C 22,8 C 13,9 C 83 % 1016,7 hPa 0,0 l/m 6,2 km/h (2 Bft) S-SW 209 0 min 0,000 mm 0,0 UV-I 0 W/m 11,9 C 14,8 C 8,0 km/h (2 Bft) 86,96 %
13.07.2018 01:27 14,8 C 22,8 C 13,9 C 83 % 1016,7 hPa 0,0 l/m 6,1 km/h (2 Bft) S-SW 211 0 min 0,000 mm 0,0 UV-I 0 W/m 11,9 C 14,8 C 8,0 km/h (2 Bft) 100,00 %
13.07.2018 01:28 14,8 C 22,8 C 13,9 C 83 % 1016,7 hPa 0,0 l/m 5,7 km/h (1 Bft) S-SW 198 0 min 0,000 mm 0,0 UV-I 0 W/m 11,9 C 14,8 C 8,0 km/h (2 Bft) 91,67 %
13.07.2018 01:29 14,8 C 22,8 C 13,9 C 83 % 1016,7 hPa 0,0 l/m 5,6 km/h (1 Bft) S-SW 202 0 min 0,000 mm 0,0 UV-I 0 W/m 11,9 C 14,8 C 6,4 km/h (2 Bft) 100,00 %
13.07.2018 01:30 14,8 C 22,8 C 13,9 C 83 % 1016,7 hPa 0,0 l/m 5,7 km/h (1 Bft) S-SW 211 0 min 0,000 mm 0,0 UV-I 0 W/m 11,9 C 14,8 C 6,4 km/h (2 Bft) 96,30 %
13.07.2018 01:31 14,8 C 22,8 C 13,9 C 83 % 1016,7 hPa 0,0 l/m 6,1 km/h (2 Bft) S-SW 209 0 min 0,000 mm 0,0 UV-I 0 W/m 11,9 C 14,8 C 6,4 km/h (2 Bft) 100,00 %
13.07.2018 01:32 14,8 C 22,8 C 13,9 C 83 % 1016,7 hPa 0,0 l/m 5,3 km/h (1 Bft) S-SW 211 0 min 0,000 mm 0,0 UV-I 0 W/m 11,9 C 14,8 C 6,4 km/h (2 Bft) 92,59 %
13.07.2018 01:33 14,8 C 22,8 C 13,9 C 83 % 1016,7 hPa 0,0 l/m 6,4 km/h (2 Bft) SW 222 0 min 0,000 mm 0,0 UV-I 0 W/m 11,9 C 14,8 C 8,0 km/h (2 Bft) 86,96 %
13.07.2018 01:34 14,8 C 22,8 C 13,9 C 83 % 1016,7 hPa 0,0 l/m 6,9 km/h (2 Bft) S-SW 209 0 min 0,000 mm 0,0 UV-I 0 W/m 11,9 C 14,5 C 8,0 km/h (2 Bft) 100,00 %
13.07.2018 01:35 14,8 C 22,8 C 13,9 C 83 % 1016,7 hPa 0,0 l/m 5,3 km/h (1 Bft) SW 218 0 min 0,000 mm 0,0 UV-I 0 W/m 11,9 C 14,8 C 6,4 km/h (2 Bft) 95,65 %
13.07.2018 01:36 14,8 C 22,8 C 13,3 C 83 % 1016,7 hPa 0,0 l/m 5,9 km/h (2 Bft) S-SW 209 0 min 0,000 mm 0,0 UV-I 0 W/m 11,9 C 14,8 C 8,0 km/h (2 Bft) 100,00 %
13.07.2018 01:37 14,7 C 22,8 C 13,3 C 83 % 1016,7 hPa 0,0 l/m 6,8 km/h (2 Bft) S-SW 209 0 min 0,000 mm 0,0 UV-I 0 W/m 11,8 C 14,5 C 9,7 km/h (2 Bft) 93,10 %
13.07.2018 01:38 14,7 C 22,8 C 13,3 C 83 % 1016,7 hPa 0,0 l/m 5,1 km/h (1 Bft) S-SW 208 0 min 0,000 mm 0,0 UV-I 0 W/m 11,8 C 14,7 C 6,4 km/h (2 Bft) 100,00 %
13.07.2018 01:39 14,7 C 22,8 C 13,3 C 84 % 1016,7 hPa 0,0 l/m 5,9 km/h (2 Bft) SW 221 0 min 0,000 mm 0,0 UV-I 0 W/m 12,0 C 14,7 C 6,4 km/h (2 Bft) 88,46 %
13.07.2018 01:40 14,6 C 22,8 C 13,3 C 84 % 1016,7 hPa 0,0 l/m 5,6 km/h (1 Bft) S-SW 207 0 min 0,000 mm 0,0 UV-I 0 W/m 11,9 C 14,6 C 8,0 km/h (2 Bft) 91,67 %
13.07.2018 01:41 14,6 C 22,8 C 13,3 C 84 % 1016,7 hPa 0,0 l/m 6,1 km/h (2 Bft) S-SW 213 0 min 0,000 mm 0,0 UV-I 0 W/m 11,9 C 14,6 C 8,0 km/h (2 Bft) 85,71 %
13.07.2018 01:42 14,6 C 22,8 C 13,3 C 84 % 1016,7 hPa 0,0 l/m 5,4 km/h (1 Bft) S-SW 207 0 min 0,000 mm 0,0 UV-I 0 W/m 11,9 C 14,6 C 6,4 km/h (2 Bft) 100,00 %
13.07.2018 01:43 14,5 C 22,8 C 13,3 C 84 % 1016,7 hPa 0,0 l/m 5,0 km/h (1 Bft) S-SW 207 0 min 0,000 mm 0,0 UV-I 0 W/m 11,8 C 14,5 C 6,4 km/h (2 Bft) 88,46 %
13.07.2018 01:44 14,4 C 22,8 C 13,3 C 84 % 1016,7 hPa 0,0 l/m 5,9 km/h (2 Bft) S-SW 213 0 min 0,000 mm 0,0 UV-I 0 W/m 11,7 C 14,4 C 8,0 km/h (2 Bft) 88,89 %
13.07.2018 01:45 14,4 C 22,8 C 13,3 C 85 % 1016,7 hPa 0,0 l/m 5,8 km/h (2 Bft) S-SW 210 0 min 0,000 mm 0,0 UV-I 0 W/m 11,9 C 14,4 C 8,0 km/h (2 Bft) 100,00 %
13.07.2018 01:46 14,4 C 22,8 C 13,3 C 85 % 1016,7 hPa 0,0 l/m 5,5 km/h (1 Bft) SW 215 0 min 0,000 mm 0,0 UV-I 0 W/m 11,9 C 14,4 C 8,0 km/h (2 Bft) 92,31 %
13.07.2018 01:47 14,4 C 22,8 C 13,3 C 85 % 1016,6 hPa 0,0 l/m 6,4 km/h (2 Bft) S-SW 212 0 min 0,000 mm 0,0 UV-I 0 W/m 11,9 C 14,4 C 8,0 km/h (2 Bft) 95,83 %
13.07.2018 01:48 14,4 C 22,8 C 13,3 C 85 % 1016,7 hPa 0,0 l/m 6,4 km/h (2 Bft) S-SW 209 0 min 0,000 mm 0,0 UV-I 0 W/m 11,9 C 14,4 C 8,0 km/h (2 Bft) 96,55 %
13.07.2018 01:49 14,4 C 22,8 C 13,3 C 85 % 1016,7 hPa 0,0 l/m 6,8 km/h (2 Bft) S-SW 211 0 min 0,000 mm 0,0 UV-I 0 W/m 11,9 C 14,2 C 8,0 km/h (2 Bft) 100,00 %
13.07.2018 01:50 14,3 C 22,8 C 13,3 C 85 % 1016,7 hPa 0,0 l/m 6,8 km/h (2 Bft) S-SW 203 0 min 0,000 mm 0,0 UV-I 0 W/m 11,8 C 14,1 C 8,0 km/h (2 Bft) 87,50 %
13.07.2018 01:51 14,3 C 22,8 C 13,3 C 85 % 1016,7 hPa 0,0 l/m 6,6 km/h (2 Bft) S-SW 210 0 min 0,000 mm 0,0 UV-I 0 W/m 11,8 C 14,2 C 8,0 km/h (2 Bft) 100,00 %
13.07.2018 01:52 14,3 C 22,8 C 13,3 C 85 % 1016,7 hPa 0,0 l/m 7,2 km/h (2 Bft) SW 215 0 min 0,000 mm 0,0 UV-I 0 W/m 11,8 C 13,8 C 9,7 km/h (2 Bft) 94,29 %
13.07.2018 01:53 14,3 C 22,8 C 13,3 C 85 % 1016,7 hPa 0,0 l/m 6,2 km/h (2 Bft) SW 215 0 min 0,000 mm 0,0 UV-I 0 W/m 11,8 C 14,3 C 8,0 km/h (2 Bft) 91,67 %
13.07.2018 01:54 14,3 C 22,8 C 13,3 C 85 % 1016,7 hPa 0,0 l/m 6,8 km/h (2 Bft) S-SW 213 0 min 0,000 mm 0,0 UV-I 0 W/m 11,8 C 14,1 C 8,0 km/h (2 Bft) 92,59 %
13.07.2018 01:55 14,3 C 22,8 C 13,3 C 85 % 1016,7 hPa 0,0 l/m 6,4 km/h (2 Bft) S-SW 208 0 min 0,000 mm 0,0 UV-I 0 W/m 11,8 C 14,3 C 9,7 km/h (2 Bft) 93,33 %
13.07.2018 01:56 14,3 C 22,8 C 13,3 C 85 % 1016,7 hPa 0,0 l/m 6,3 km/h (2 Bft) S-SW 207 0 min 0,000 mm 0,0 UV-I 0 W/m 11,8 C 14,3 C 8,0 km/h (2 Bft) 100,00 %
13.07.2018 01:57 14,3 C 22,8 C 13,3 C 85 % 1016,7 hPa 0,0 l/m 5,5 km/h (1 Bft) S-SW 205 0 min 0,000 mm 0,0 UV-I 0 W/m 11,8 C 14,3 C 6,4 km/h (2 Bft) 92,59 %
13.07.2018 01:58 14,3 C 22,8 C 13,3 C 85 % 1016,7 hPa 0,0 l/m 5,7 km/h (1 Bft) S-SW 205 0 min 0,000 mm 0,0 UV-I 0 W/m 11,8 C 14,3 C 6,4 km/h (2 Bft) 100,00 %
13.07.2018 01:59 14,3 C 22,8 C 13,3 C 85 % 1016,7 hPa 0,0 l/m 6,2 km/h (2 Bft) S-SW 206 0 min 0,000 mm 0,0 UV-I 0 W/m 11,8 C 14,3 C 8,0 km/h (2 Bft) 92,59 %
13.07.2018 02:00 14,4 C 22,8 C 13,3 C 85 % 1016,7 hPa 0,0 l/m 5,8 km/h (2 Bft) S-SW 213 0 min 0,026 mm 0,0 UV-I 0 W/m 11,9 C 14,4 C 8,0 km/h (2 Bft) 100,00 %
13.07.2018 02:01 14,4 C 22,8 C 13,3 C 85 % 1016,7 hPa 0,0 l/m 6,6 km/h (2 Bft) S-SW 204 0 min 0,000 mm 0,0 UV-I 0 W/m 11,9 C 14,3 C 9,7 km/h (2 Bft) 91,67 %
13.07.2018 02:02 14,4 C 22,8 C 13,3 C 85 % 1016,7 hPa 0,0 l/m 8,1 km/h (2 Bft) S-SW 213 0 min 0,000 mm 0,0 UV-I 0 W/m 11,9 C 13,4 C 9,7 km/h (2 Bft) 95,65 %
13.07.2018 02:03 14,4 C 22,8 C 13,9 C 85 % 1016,7 hPa 0,0 l/m 8,7 km/h (2 Bft) S-SW 207 0 min 0,000 mm 0,0 UV-I 0 W/m 11,9 C 13,1 C 11,3 km/h (2 Bft) 95,83 %
13.07.2018 02:04 14,5 C 22,8 C 13,9 C 85 % 1016,7 hPa 0,0 l/m 5,6 km/h (1 Bft) S-SW 212 0 min 0,000 mm 0,0 UV-I 0 W/m 12,0 C 14,5 C 8,0 km/h (2 Bft) 88,46 %
13.07.2018 02:05 14,6 C 22,8 C 13,9 C 85 % 1016,7 hPa 0,0 l/m 7,3 km/h (2 Bft) S-SW 211 0 min 0,000 mm 0,0 UV-I 0 W/m 12,1 C 14,1 C 8,0 km/h (2 Bft) 100,00 %
13.07.2018 02:06 14,6 C 22,8 C 13,9 C 85 % 1016,7 hPa 0,0 l/m 7,3 km/h (2 Bft) S-SW 205 0 min 0,000 mm 0,0 UV-I 0 W/m 12,1 C 14,1 C 9,7 km/h (2 Bft) 96,30 %
13.07.2018 02:07 14,6 C 22,8 C 13,9 C 84 % 1016,7 hPa 0,0 l/m 6,6 km/h (2 Bft) SW 215 0 min 0,000 mm 0,0 UV-I 0 W/m 11,9 C 14,5 C 8,0 km/h (2 Bft) 96,55 %
13.07.2018 02:08 14,6 C 22,8 C 13,9 C 84 % 1016,7 hPa 0,0 l/m 5,7 km/h (1 Bft) S-SW 205 0 min 0,000 mm 0,0 UV-I 0 W/m 11,9 C 14,6 C 8,0 km/h (2 Bft) 97,21 %
13.07.2018 02:09 14,6 C 22,8 C 13,9 C 84 % 1016,8 hPa 0,0 l/m 6,6 km/h (2 Bft) S-SW 193 0 min 0,000 mm 0,0 UV-I 0 W/m 11,9 C 14,5 C 9,7 km/h (2 Bft) 95,45 %
13.07.2018 02:10 14,6 C 22,8 C 13,9 C 84 % 1016,8 hPa 0,0 l/m 7,0 km/h (2 Bft) S-SW 202 0 min 0,000 mm 0,0 UV-I 0 W/m 11,9 C 14,3 C 9,7 km/h (2 Bft) 92,59 %
13.07.2018 02:11 14,6 C 22,8 C 13,9 C 84 % 1016,8 hPa 0,0 l/m 7,6 km/h (2 Bft) S-SW 204 0 min 0,000 mm 0,0 UV-I 0 W/m 11,9 C 13,9 C 9,7 km/h (2 Bft) 100,00 %
13.07.2018 02:12 14,6 C 22,8 C 13,9 C 84 % 1016,8 hPa 0,0 l/m 8,1 km/h (2 Bft) S-SW 205 0 min 0,000 mm 0,0 UV-I 0 W/m 11,9 C 13,6 C 9,7 km/h (2 Bft) 92,59 %
13.07.2018 02:13 14,7 C 22,8 C 13,9 C 84 % 1016,7 hPa 0,0 l/m 7,0 km/h (2 Bft) S-SW 212 0 min 0,000 mm 0,0 UV-I 0 W/m 12,0 C 14,4 C 8,0 km/h (2 Bft) 95,65 %
13.07.2018 02:14 14,6 C 22,8 C 13,9 C 84 % 1016,7 hPa 0,0 l/m 6,1 km/h (2 Bft) SW 219 0 min 0,000 mm 0,0 UV-I 0 W/m 11,9 C 14,6 C 9,7 km/h (2 Bft) 95,83 %
13.07.2018 02:15 14,6 C 22,8 C 13,9 C 84 % 1016,7 hPa 0,0 l/m 6,8 km/h (2 Bft) S-SW 199 0 min 0,000 mm 0,0 UV-I 0 W/m 11,9 C 14,4 C 8,0 km/h (2 Bft) 100,00 %
13.07.2018 02:16 14,6 C 22,8 C 13,9 C 84 % 1016,7 hPa 0,0 l/m 6,6 km/h (2 Bft) S-SW 207 0 min 0,000 mm 0,0 UV-I 0 W/m 11,9 C 14,5 C 8,0 km/h (2 Bft) 96,30 %
13.07.2018 02:17 14,6 C 22,8 C 13,9 C 84 % 1016,7 hPa 0,0 l/m 7,1 km/h (2 Bft) S-SW 213 0 min 0,000 mm 0,0 UV-I 0 W/m 11,9 C 14,2 C 9,7 km/h (2 Bft) 100,00 %
13.07.2018 02:18 14,6 C 22,8 C 13,9 C 84 % 1016,7 hPa 0,0 l/m 7,1 km/h (2 Bft) S-SW 212 0 min 0,000 mm 0,0 UV-I 0 W/m 11,9 C 14,2 C 8,0 km/h (2 Bft) 96,30 %
13.07.2018 02:19 14,5 C 22,8 C 13,9 C 84 % 1016,7 hPa 0,0 l/m 6,2 km/h (2 Bft) S-SW 207 0 min 0,000 mm 0,0 UV-I 0 W/m 11,8 C 14,5 C 8,0 km/h (2 Bft) 95,65 %
13.07.2018 02:20 14,4 C 22,8 C 13,9 C 84 % 1016,7 hPa 0,0 l/m 6,9 km/h (2 Bft) SW 214 0 min 0,000 mm 0,0 UV-I 0 W/m 11,7 C 14,1 C 9,7 km/h (2 Bft) 100,00 %
13.07.2018 02:21 14,4 C 22,8 C 13,9 C 85 % 1016,7 hPa 0,0 l/m 6,5 km/h (2 Bft) SW 215 0 min 0,000 mm 0,0 UV-I 0 W/m 11,9 C 14,4 C 8,0 km/h (2 Bft) 96,15 %
13.07.2018 02:22 14,4 C 22,8 C 13,3 C 85 % 1016,7 hPa 0,0 l/m 6,0 km/h (2 Bft) SW 217 0 min 0,000 mm 0,0 UV-I 0 W/m 11,9 C 14,4 C 6,4 km/h (2 Bft) 94,12 %
13.07.2018 02:23 14,4 C 22,8 C 13,3 C 85 % 1016,7 hPa 0,0 l/m 7,0 km/h (2 Bft) S-SW 202 0 min 0,000 mm 0,0 UV-I 0 W/m 11,9 C 14,1 C 8,0 km/h (2 Bft) 93,33 %
13.07.2018 02:24 14,4 C 22,8 C 13,3 C 85 % 1016,7 hPa 0,0 l/m 7,1 km/h (2 Bft) S-SW 213 0 min 0,000 mm 0,0 UV-I 0 W/m 11,9 C 14,0 C 9,7 km/h (2 Bft) 100,00 %
13.07.2018 02:25 14,3 C 22,8 C 13,3 C 85 % 1016,7 hPa 0,0 l/m 5,5 km/h (1 Bft) S-SW 205 0 min 0,000 mm 0,0 UV-I 0 W/m 11,8 C 14,3 C 8,0 km/h (2 Bft) 92,31 %
13.07.2018 02:26 14,3 C 22,8 C 13,3 C 85 % 1016,7 hPa 0,0 l/m 6,2 km/h (2 Bft) S-SW 209 0 min 0,000 mm 0,0 UV-I 0 W/m 11,8 C 14,3 C 8,0 km/h (2 Bft) 95,83 %
13.07.2018 02:27 14,3 C 22,8 C 13,3 C 85 % 1016,7 hPa 0,0 l/m 7,4 km/h (2 Bft) S-SW 211 0 min 0,000 mm 0,0 UV-I 0 W/m 11,8 C 13,7 C 9,7 km/h (2 Bft) 100,00 %
13.07.2018 02:28 14,3 C 22,8 C 13,3 C 85 % 1016,7 hPa 0,0 l/m 6,7 km/h (2 Bft) S-SW 212 0 min 0,000 mm 0,0 UV-I 0 W/m 11,8 C 14,1 C 9,7 km/h (2 Bft) 96,55 %
13.07.2018 02:29 14,3 C 22,8 C 13,3 C 85 % 1016,7 hPa 0,0 l/m 7,0 km/h (2 Bft) S-SW 200 0 min 0,000 mm 0,0 UV-I 0 W/m 11,8 C 13,9 C 11,3 km/h (2 Bft) 100,00 %
13.07.2018 02:30 14,3 C 22,8 C 13,3 C 85 % 1016,7 hPa 0,0 l/m 6,2 km/h (2 Bft) SW 215 0 min 0,000 mm 0,0 UV-I 0 W/m 11,8 C 14,3 C 8,0 km/h (2 Bft) 95,65 %
13.07.2018 02:31 14,3 C 22,8 C 13,3 C 85 % 1016,8 hPa 0,0 l/m 5,8 km/h (2 Bft) S-SW 202 0 min 0,000 mm 0,0 UV-I 0 W/m 11,8 C 14,3 C 8,0 km/h (2 Bft) 100,00 %
13.07.2018 02:32 14,3 C 22,8 C 13,3 C 85 % 1016,8 hPa 0,0 l/m 6,2 km/h (2 Bft) S-SW 202 0 min 0,000 mm 0,0 UV-I 0 W/m 11,8 C 14,3 C 8,0 km/h (2 Bft) 95,65 %
13.07.2018 02:33 14,3 C 22,8 C 13,3 C 85 % 1016,7 hPa 0,0 l/m 6,8 km/h (2 Bft) S-SW 211 0 min 0,000 mm 0,0 UV-I 0 W/m 11,8 C 14,1 C 8,0 km/h (2 Bft) 100,00 %
13.07.2018 02:34 14,3 C 22,8 C 13,3 C 85 % 1016,8 hPa 0,0 l/m 6,4 km/h (2 Bft) S-SW 206 0 min 0,000 mm 0,0 UV-I 0 W/m 11,8 C 14,3 C 8,0 km/h (2 Bft) 100,00 %
13.07.2018 02:35 14,3 C 22,8 C 13,3 C 85 % 1016,8 hPa 0,0 l/m 6,8 km/h (2 Bft) S-SW 208 0 min 0,000 mm 0,0 UV-I 0 W/m 11,8 C 14,1 C 9,7 km/h (2 Bft) 100,00 %
13.07.2018 02:36 14,3 C 22,8 C 13,3 C 85 % 1016,8 hPa 0,0 l/m 7,2 km/h (2 Bft) SW 216 0 min 0,000 mm 0,0 UV-I 0 W/m 11,8 C 13,8 C 9,7 km/h (2 Bft) 100,00 %
13.07.2018 02:37 14,3 C 22,8 C 13,3 C 85 % 1016,7 hPa 0,0 l/m 6,4 km/h (2 Bft) S-SW 212 0 min 0,000 mm 0,0 UV-I 0 W/m 11,8 C 14,3 C 8,0 km/h (2 Bft) 100,00 %
13.07.2018 02:38 14,2 C 22,8 C 13,3 C 85 % 1016,7 hPa 0,0 l/m 6,4 km/h (2 Bft) S-SW 198 0 min 0,000 mm 0,0 UV-I 0 W/m 11,7 C 14,2 C 8,0 km/h (2 Bft) 100,00 %
13.07.2018 02:39 14,3 C 22,8 C 13,3 C 85 % 1016,7 hPa 0,0 l/m 6,6 km/h (2 Bft) S-SW 201 0 min 0,000 mm 0,0 UV-I 0 W/m 11,8 C 14,2 C 8,0 km/h (2 Bft) 100,00 %
13.07.2018 02:40 14,3 C 22,8 C 13,3 C 85 % 1016,7 hPa 0,0 l/m 7,2 km/h (2 Bft) S-SW 198 0 min 0,000 mm 0,0 UV-I 0 W/m 11,8 C 13,8 C 9,7 km/h (2 Bft) 95,65 %
13.07.2018 02:41 14,3 C 22,8 C 13,3 C 85 % 1016,7 hPa 0,0 l/m 7,4 km/h (2 Bft) S-SW 213 0 min 0,000 mm 0,0 UV-I 0 W/m 11,8 C 13,7 C 11,3 km/h (2 Bft) 100,00 %
13.07.2018 02:42 14,3 C 22,8 C 13,3 C 85 % 1016,7 hPa 0,0 l/m 8,9 km/h (2 Bft) S-SW 213 0 min 0,000 mm 0,0 UV-I 0 W/m 11,8 C 12,9 C 11,3 km/h (2 Bft) 100,00 %
13.07.2018 02:43 14,4 C 22,8 C 13,3 C 85 % 1016,7 hPa 0,0 l/m 7,5 km/h (2 Bft) S-SW 204 0 min 0,000 mm 0,0 UV-I 0 W/m 11,9 C 13,8 C 9,7 km/h (2 Bft) 100,00 %
13.07.2018 02:44 14,4 C 22,8 C 13,3 C 85 % 1016,7 hPa 0,0 l/m 7,0 km/h (2 Bft) S-SW 208 0 min 0,000 mm 0,0 UV-I 0 W/m 11,9 C 14,1 C 9,7 km/h (2 Bft) 100,00 %
13.07.2018 02:45 14,4 C 22,8 C 13,3 C 85 % 1016,8 hPa 0,0 l/m 8,3 km/h (2 Bft) SW 215 0 min 0,000 mm 0,0 UV-I 0 W/m 11,9 C 13,3 C 12,9 km/h (3 Bft) 100,00 %
13.07.2018 02:46 14,4 C 22,8 C 13,3 C 85 % 1016,8 hPa 0,0 l/m 8,1 km/h (2 Bft) SW 216 0 min 0,000 mm 0,0 UV-I 0 W/m 11,9 C 13,4 C 11,3 km/h (2 Bft) 91,67 %
13.07.2018 02:47 14,4 C 22,8 C 13,3 C 85 % 1016,8 hPa 0,0 l/m 5,6 km/h (1 Bft) S-SW 205 0 min 0,000 mm 0,0 UV-I 0 W/m 11,9 C 14,4 C 8,0 km/h (2 Bft) 100,00 %
13.07.2018 02:48 14,4 C 22,8 C 13,3 C 85 % 1016,8 hPa 0,0 l/m 6,1 km/h (2 Bft) SW 223 0 min 0,000 mm 0,0 UV-I 0 W/m 11,9 C 14,4 C 9,7 km/h (2 Bft) 96,30 %
13.07.2018 02:49 14,4 C 22,8 C 13,3 C 85 % 1016,8 hPa 0,0 l/m 6,3 km/h (2 Bft) SW 218 0 min 0,000 mm 0,0 UV-I 0 W/m 11,9 C 14,4 C 8,0 km/h (2 Bft) 100,00 %
13.07.2018 02:50 14,4 C 22,8 C 13,3 C 85 % 1016,8 hPa 0,0 l/m 6,9 km/h (2 Bft) SW 218 0 min 0,000 mm 0,0 UV-I 0 W/m 11,9 C 14,1 C 9,7 km/h (2 Bft) 96,30 %
13.07.2018 02:51 14,4 C 22,8 C 13,3 C 85 % 1016,8 hPa 0,0 l/m 8,2 km/h (2 Bft) SW 221 0 min 0,000 mm 0,0 UV-I 0 W/m 11,9 C 13,4 C 11,3 km/h (2 Bft) 100,00 %
13.07.2018 02:52 14,4 C 22,8 C 13,3 C 86 % 1016,8 hPa 0,0 l/m 7,9 km/h (2 Bft) S-SW 207 0 min 0,000 mm 0,0 UV-I 0 W/m 12,1 C 13,5 C 9,7 km/h (2 Bft) 96,30 %
13.07.2018 02:53 14,4 C 22,8 C 13,3 C 85 % 1016,8 hPa 0,0 l/m 5,9 km/h (2 Bft) SW 221 0 min 0,000 mm 0,0 UV-I 0 W/m 11,9 C 14,4 C 8,0 km/h (2 Bft) 94,12 %
13.07.2018 02:54 14,3 C 22,8 C 13,3 C 85 % 1016,8 hPa 0,0 l/m 6,5 km/h (2 Bft) SW 219 0 min 0,000 mm 0,0 UV-I 0 W/m 11,8 C 14,3 C 8,0 km/h (2 Bft) 92,59 %
13.07.2018 02:55 14,3 C 22,8 C 12,8 C 85 % 1016,8 hPa 0,0 l/m 7,4 km/h (2 Bft) S-SW 211 0 min 0,000 mm 0,0 UV-I 0 W/m 11,8 C 13,7 C 9,7 km/h (2 Bft) 100,00 %
13.07.2018 02:56 14,3 C 22,8 C 12,8 C 85 % 1016,8 hPa 0,0 l/m 5,7 km/h (1 Bft) SW 219 0 min 0,000 mm 0,0 UV-I 0 W/m 11,8 C 14,3 C 8,0 km/h (2 Bft) 96,67 %
13.07.2018 02:57 14,3 C 22,8 C 12,8 C 86 % 1016,8 hPa 0,0 l/m 5,1 km/h (1 Bft) S-SW 213 0 min 0,000 mm 0,0 UV-I 0 W/m 12,0 C 14,3 C 8,0 km/h (2 Bft) 95,65 %
13.07.2018 02:58 14,2 C 22,8 C 12,8 C 86 % 1016,8 hPa 0,0 l/m 6,3 km/h (2 Bft) S-SW 208 0 min 0,000 mm 0,0 UV-I 0 W/m 11,9 C 14,2 C 9,7 km/h (2 Bft) 96,30 %
13.07.2018 02:59 14,2 C 22,8 C 12,8 C 86 % 1016,8 hPa 0,0 l/m 7,3 km/h (2 Bft) S-SW 209 0 min 0,000 mm 0,0 UV-I 0 W/m 11,9 C 13,7 C 11,3 km/h (2 Bft) 92,86 %
13.07.2018 03:00 14,2 C 22,8 C 12,8 C 86 % 1016,8 hPa 0,0 l/m 6,1 km/h (2 Bft) SW 221 0 min 0,000 mm 0,0 UV-I 0 W/m 11,9 C 14,2 C 8,0 km/h (2 Bft) 100,00 %
13.07.2018 03:01 14,2 C 22,8 C 12,8 C 86 % 1016,8 hPa 0,0 l/m 5,4 km/h (1 Bft) SW 217 0 min 0,025 mm 0,0 UV-I 0 W/m 11,9 C 14,2 C 6,4 km/h (2 Bft) 96,55 %
13.07.2018 03:02 14,2 C 22,8 C 12,8 C 86 % 1016,8 hPa 0,0 l/m 6,6 km/h (2 Bft) SW 219 0 min 0,000 mm 0,0 UV-I 0 W/m 11,9 C 14,1 C 11,3 km/h (2 Bft) 100,00 %
13.07.2018 03:03 14,2 C 22,8 C 12,8 C 86 % 1016,8 hPa 0,0 l/m 5,3 km/h (1 Bft) S-SW 201 0 min 0,000 mm 0,0 UV-I 0 W/m 11,9 C 14,2 C 6,4 km/h (2 Bft) 89,66 %
13.07.2018 03:04 14,2 C 22,8 C 12,8 C 86 % 1016,8 hPa 0,0 l/m 5,2 km/h (1 Bft) SW 217 0 min 0,000 mm 0,0 UV-I 0 W/m 11,9 C 14,2 C 6,4 km/h (2 Bft) 100,00 %
13.07.2018 03:05 14,1 C 22,8 C 12,8 C 86 % 1016,9 hPa 0,0 l/m 4,5 km/h (1 Bft) SW 215 0 min 0,000 mm 0,0 UV-I 0 W/m 11,8 C 14,1 C 6,4 km/h (2 Bft) 96,15 %
13.07.2018 03:06 14,1 C 22,8 C 12,8 C 87 % 1016,9 hPa 0,0 l/m 5,8 km/h (2 Bft) SW 236 0 min 0,000 mm 0,0 UV-I 0 W/m 12,0 C 14,1 C 8,0 km/h (2 Bft) 100,00 %
13.07.2018 03:07 14,1 C 22,8 C 12,8 C 86 % 1016,8 hPa 0,0 l/m 4,3 km/h (1 Bft) SW 231 0 min 0,000 mm 0,0 UV-I 0 W/m 11,8 C 14,1 C 8,0 km/h (2 Bft) 96,67 %
13.07.2018 03:08 14,1 C 22,8 C 12,8 C 86 % 1016,9 hPa 0,0 l/m 5,1 km/h (1 Bft) SW 221 0 min 0,000 mm 0,0 UV-I 0 W/m 11,8 C 14,1 C 6,4 km/h (2 Bft) 100,00 %
13.07.2018 03:09 14,1 C 22,8 C 12,8 C 86 % 1016,9 hPa 0,0 l/m 6,0 km/h (2 Bft) S-SW 211 0 min 0,000 mm 0,0 UV-I 0 W/m 11,8 C 14,1 C 8,0 km/h (2 Bft) 96,30 %
13.07.2018 03:10 14,1 C 22,8 C 12,8 C 86 % 1016,8 hPa 0,0 l/m 4,7 km/h (1 Bft) S-SW 213 0 min 0,000 mm 0,0 UV-I 0 W/m 11,8 C 14,1 C 8,0 km/h (2 Bft) 92,31 %
13.07.2018 03:11 14,1 C 22,8 C 12,8 C 86 % 1016,8 hPa 0,0 l/m 5,7 km/h (1 Bft) SW 225 0 min 0,000 mm 0,0 UV-I 0 W/m 11,8 C 14,1 C 6,4 km/h (2 Bft) 100,00 %
13.07.2018 03:12 14,1 C 22,8 C 12,8 C 86 % 1016,9 hPa 0,0 l/m 4,5 km/h (1 Bft) SW 221 0 min 0,000 mm 0,0 UV-I 0 W/m 11,8 C 14,1 C 6,4 km/h (2 Bft) 96,15 %
13.07.2018 03:13 14,0 C 22,8 C 12,8 C 86 % 1016,9 hPa 0,0 l/m 5,3 km/h (1 Bft) S-SW 209 0 min 0,000 mm 0,0 UV-I 0 W/m 11,7 C 14,0 C 8,0 km/h (2 Bft) 100,00 %
13.07.2018 03:14 14,0 C 22,8 C 12,8 C 87 % 1016,8 hPa 0,0 l/m 5,0 km/h (1 Bft) S-SW 213 0 min 0,000 mm 0,0 UV-I 0 W/m 11,9 C 14,0 C 8,0 km/h (2 Bft) 100,00 %
13.07.2018 03:15 13,9 C 22,8 C 12,8 C 87 % 1016,8 hPa 0,0 l/m 5,7 km/h (1 Bft) SW 219 0 min 0,000 mm 0,0 UV-I 0 W/m 11,8 C 13,9 C 6,4 km/h (2 Bft) 100,00 %
13.07.2018 03:16 13,9 C 22,8 C 12,8 C 87 % 1016,8 hPa 0,0 l/m 5,8 km/h (2 Bft) S-SW 211 0 min 0,000 mm 0,0 UV-I 0 W/m 11,8 C 13,9 C 8,0 km/h (2 Bft) 95,65 %
13.07.2018 03:17 13,9 C 22,8 C 12,8 C 87 % 1016,8 hPa 0,0 l/m 6,7 km/h (2 Bft) SW 214 0 min 0,000 mm 0,0 UV-I 0 W/m 11,8 C 13,7 C 8,0 km/h (2 Bft) 100,00 %
13.07.2018 03:18 13,9 C 22,8 C 12,8 C 87 % 1016,8 hPa 0,0 l/m 6,1 km/h (2 Bft) SW 227 0 min 0,000 mm 0,0 UV-I 0 W/m 11,8 C 13,9 C 8,0 km/h (2 Bft) 96,15 %
13.07.2018 03:19 13,9 C 22,8 C 12,8 C 87 % 1016,8 hPa 0,0 l/m 5,7 km/h (1 Bft) S-SW 213 0 min 0,000 mm 0,0 UV-I 0 W/m 11,8 C 13,9 C 8,0 km/h (2 Bft) 100,00 %
13.07.2018 03:20 13,9 C 22,8 C 12,8 C 87 % 1016,8 hPa 0,0 l/m 5,9 km/h (2 Bft) S-SW 211 0 min 0,000 mm 0,0 UV-I 0 W/m 11,8 C 13,9 C 6,4 km/h (2 Bft) 100,00 %
13.07.2018 03:21 13,9 C 22,8 C 12,8 C 87 % 1016,8 hPa 0,0 l/m 4,5 km/h (1 Bft) S-SW 211 0 min 0,000 mm 0,0 UV-I 0 W/m 11,8 C 13,9 C 6,4 km/h (2 Bft) 100,00 %
13.07.2018 03:22 13,9 C 22,8 C 12,8 C 87 % 1016,8 hPa 0,0 l/m 5,3 km/h (1 Bft) S-SW 211 0 min 0,000 mm 0,0 UV-I 0 W/m 11,8 C 13,9 C 6,4 km/h (2 Bft) 100,00 %
13.07.2018 03:23 13,9 C 22,8 C 12,8 C 87 % 1016,8 hPa 0,0 l/m 4,0 km/h (1 Bft) S-SW 211 0 min 0,000 mm 0,0 UV-I 0 W/m 11,8 C 13,9 C 4,8 km/h (1 Bft) 100,00 %
13.07.2018 03:25 13,9 C 22,8 C 12,2 C 87 % 1016,8 hPa 0,0 l/m 4,1 km/h (1 Bft) SW 226 0 min 0,000 mm 0,0 UV-I 0 W/m 11,8 C 13,9 C 6,4 km/h (2 Bft) 96,43 %
13.07.2018 03:26 13,9 C 22,8 C 12,2 C 87 % 1016,8 hPa 0,0 l/m 4,3 km/h (1 Bft) SW 227 0 min 0,000 mm 0,0 UV-I 0 W/m 11,8 C 13,9 C 4,8 km/h (1 Bft) 100,00 %
13.07.2018 03:27 13,9 C 22,8 C 12,2 C 87 % 1016,8 hPa 0,0 l/m 4,1 km/h (1 Bft) S-SW 205 0 min 0,000 mm 0,0 UV-I 0 W/m 11,8 C 13,9 C 6,4 km/h (2 Bft) 100,00 %
13.07.2018 03:28 13,9 C 22,8 C 12,2 C 87 % 1016,8 hPa 0,0 l/m 4,2 km/h (1 Bft) SW 235 0 min 0,000 mm 0,0 UV-I 0 W/m 11,8 C 13,9 C 4,8 km/h (1 Bft) 100,00 %
13.07.2018 03:29 13,9 C 22,8 C 12,2 C 87 % 1016,8 hPa 0,0 l/m 2,7 km/h (1 Bft) SW 235 0 min 0,000 mm 0,0 UV-I 0 W/m 11,8 C 13,9 C 4,8 km/h (1 Bft) 100,00 %
13.07.2018 03:30 14,0 C 22,8 C 12,2 C 87 % 1016,8 hPa 0,0 l/m 2,0 km/h (1 Bft) SW 235 0 min 0,000 mm 0,0 UV-I 0 W/m 11,9 C 14,0 C 3,2 km/h (1 Bft) 100,00 %
13.07.2018 03:31 14,0 C 22,8 C 12,2 C 87 % 1016,8 hPa 0,0 l/m 2,2 km/h (1 Bft) SW 235 0 min 0,000 mm 0,0 UV-I 0 W/m 11,9 C 14,0 C 3,2 km/h (1 Bft) 96,15 %
13.07.2018 03:32 13,9 C 22,8 C 12,2 C 86 % 1016,8 hPa 0,0 l/m 0,7 km/h (0 Bft) SW 235 0 min 0,000 mm 0,0 UV-I 0 W/m 11,6 C 13,9 C 1,6 km/h (1 Bft) 95,83 %
13.07.2018 03:33 13,8 C 22,8 C 12,2 C 87 % 1016,8 hPa 0,0 l/m 1,5 km/h (1 Bft) SW 235 0 min 0,000 mm 0,0 UV-I 0 W/m 11,7 C 13,8 C 1,6 km/h (1 Bft) 100,00 %
13.07.2018 03:34 13,8 C 22,8 C 12,2 C 87 % 1016,8 hPa 0,0 l/m 0,7 km/h (0 Bft) SW 235 0 min 0,000 mm 0,0 UV-I 0 W/m 11,7 C 13,8 C 1,6 km/h (1 Bft) 97,56 %
13.07.2018 03:35 13,7 C 22,8 C 12,2 C 87 % 1016,8 hPa 0,0 l/m 1,1 km/h (1 Bft) SW 235 0 min 0,000 mm 0,0 UV-I 0 W/m 11,6 C 13,7 C 1,6 km/h (1 Bft) 100,00 %
13.07.2018 03:36 13,6 C 22,8 C 11,7 C 88 % 1016,9 hPa 0,0 l/m 2,6 km/h (1 Bft) SW 235 0 min 0,000 mm 0,0 UV-I 0 W/m 11,6 C 13,6 C 3,2 km/h (1 Bft) 100,00 %
13.07.2018 03:37 13,5 C 22,8 C 11,7 C 88 % 1016,8 hPa 0,0 l/m 2,8 km/h (1 Bft) SW 235 0 min 0,000 mm 0,0 UV-I 0 W/m 11,6 C 13,5 C 4,8 km/h (1 Bft) 100,00 %
13.07.2018 03:38 13,4 C 22,8 C 11,7 C 89 % 1016,8 hPa 0,0 l/m 3,0 km/h (1 Bft) SW 235 0 min 0,000 mm 0,0 UV-I 0 W/m 11,6 C 13,4 C 3,2 km/h (1 Bft) 100,00 %
13.07.2018 03:39 13,4 C 22,8 C 11,7 C 89 % 1016,8 hPa 0,0 l/m 3,6 km/h (1 Bft) SW 235 0 min 0,000 mm 0,0 UV-I 0 W/m 11,6 C 13,4 C 4,8 km/h (1 Bft) 100,00 %
13.07.2018 03:40 13,4 C 22,8 C 11,7 C 89 % 1016,8 hPa 0,0 l/m 4,2 km/h (1 Bft) SW 235 0 min 0,000 mm 0,0 UV-I 0 W/m 11,6 C 13,4 C 4,8 km/h (1 Bft) 100,00 %
13.07.2018 03:41 13,4 C 22,8 C 11,7 C 89 % 1016,8 hPa 0,0 l/m 4,2 km/h (1 Bft) SW 236 0 min 0,000 mm 0,0 UV-I 0 W/m 11,6 C 13,4 C 4,8 km/h (1 Bft) 100,00 %
13.07.2018 03:42 13,4 C 22,8 C 11,7 C 89 % 1016,8 hPa 0,0 l/m 4,0 km/h (1 Bft) SW 236 0 min 0,000 mm 0,0 UV-I 0 W/m 11,6 C 13,4 C 6,4 km/h (2 Bft) 100,00 %
13.07.2018 03:43 13,4 C 22,8 C 11,7 C 89 % 1016,8 hPa 0,0 l/m 4,9 km/h (1 Bft) W-SW 238 0 min 0,000 mm 0,0 UV-I 0 W/m 11,6 C 13,4 C 6,4 km/h (2 Bft) 95,83 %
13.07.2018 03:44 13,4 C 22,8 C 11,7 C 89 % 1016,8 hPa 0,0 l/m 5,8 km/h (2 Bft) SW 235 0 min 0,000 mm 0,0 UV-I 0 W/m 11,6 C 13,4 C 8,0 km/h (2 Bft) 96,55 %
13.07.2018 03:45 13,4 C 22,8 C 11,7 C 89 % 1016,8 hPa 0,0 l/m 6,0 km/h (2 Bft) W-SW 253 0 min 0,000 mm 0,0 UV-I 0 W/m 11,6 C 13,4 C 11,3 km/h (2 Bft) 95,65 %
13.07.2018 03:46 13,4 C 22,8 C 11,7 C 89 % 1016,7 hPa 0,0 l/m 6,2 km/h (2 Bft) SW 234 0 min 0,000 mm 0,0 UV-I 0 W/m 11,6 C 13,4 C 8,0 km/h (2 Bft) 92,59 %
13.07.2018 03:47 13,4 C 22,8 C 11,7 C 89 % 1016,7 hPa 0,0 l/m 5,5 km/h (1 Bft) SW 231 0 min 0,000 mm 0,0 UV-I 0 W/m 11,6 C 13,4 C 6,4 km/h (2 Bft) 95,65 %
13.07.2018 03:48 13,4 C 22,8 C 11,7 C 89 % 1016,7 hPa 0,0 l/m 5,8 km/h (2 Bft) SW 217 0 min 0,000 mm 0,0 UV-I 0 W/m 11,6 C 13,4 C 8,0 km/h (2 Bft) 94,44 %
13.07.2018 03:49 13,4 C 22,8 C 11,7 C 89 % 1016,7 hPa 0,0 l/m 6,6 km/h (2 Bft) SW 225 0 min 0,000 mm 0,0 UV-I 0 W/m 11,6 C 13,3 C 8,0 km/h (2 Bft) 100,00 %
13.07.2018 03:50 13,5 C 22,8 C 12,2 C 89 % 1016,7 hPa 0,0 l/m 6,3 km/h (2 Bft) W-SW 237 0 min 0,000 mm 0,0 UV-I 0 W/m 11,7 C 13,5 C 8,0 km/h (2 Bft) 95,65 %
13.07.2018 03:51 13,6 C 22,8 C 12,2 C 89 % 1016,7 hPa 0,0 l/m 7,3 km/h (2 Bft) SW 225 0 min 0,000 mm 0,0 UV-I 0 W/m 11,8 C 13,0 C 11,3 km/h (2 Bft) 96,30 %
13.07.2018 03:52 13,6 C 22,8 C 12,2 C 88 % 1016,7 hPa 0,0 l/m 6,6 km/h (2 Bft) SW 227 0 min 0,000 mm 0,0 UV-I 0 W/m 11,6 C 13,5 C 9,7 km/h (2 Bft) 95,65 %
13.07.2018 03:53 13,6 C 22,8 C 12,2 C 88 % 1016,7 hPa 0,0 l/m 6,9 km/h (2 Bft) SW 220 0 min 0,000 mm 0,0 UV-I 0 W/m 11,6 C 13,3 C 9,7 km/h (2 Bft) 100,00 %
13.07.2018 03:54 13,6 C 22,8 C 12,2 C 88 % 1016,7 hPa 0,0 l/m 7,8 km/h (2 Bft) SW 225 0 min 0,000 mm 0,0 UV-I 0 W/m 11,6 C 12,7 C 9,7 km/h (2 Bft) 96,15 %
13.07.2018 03:55 13,6 C 22,8 C 12,2 C 88 % 1016,7 hPa 0,0 l/m 8,9 km/h (2 Bft) SW 219 0 min 0,000 mm 0,0 UV-I 0 W/m 11,6 C 12,1 C 11,3 km/h (2 Bft) 96,30 %
13.07.2018 03:56 13,6 C 22,8 C 12,2 C 88 % 1016,7 hPa 0,0 l/m 8,2 km/h (2 Bft) S-SW 210 0 min 0,000 mm 0,0 UV-I 0 W/m 11,6 C 12,5 C 11,3 km/h (2 Bft) 100,00 %
13.07.2018 03:57 13,6 C 22,8 C 12,2 C 88 % 1016,7 hPa 0,0 l/m 7,6 km/h (2 Bft) SW 224 0 min 0,000 mm 0,0 UV-I 0 W/m 11,6 C 12,9 C 11,3 km/h (2 Bft) 100,00 %
13.07.2018 03:58 13,6 C 22,8 C 12,2 C 88 % 1016,7 hPa 0,0 l/m 7,8 km/h (2 Bft) SW 232 0 min 0,000 mm 0,0 UV-I 0 W/m 11,6 C 12,7 C 11,3 km/h (2 Bft) 96,55 %
13.07.2018 03:59 13,6 C 22,8 C 12,2 C 88 % 1016,7 hPa 0,0 l/m 6,0 km/h (2 Bft) SW 229 0 min 0,000 mm 0,0 UV-I 0 W/m 11,6 C 13,6 C 9,7 km/h (2 Bft) 96,30 %
13.07.2018 04:00 13,6 C 22,8 C 12,2 C 88 % 1016,7 hPa 0,0 l/m 7,1 km/h (2 Bft) S-SW 202 0 min 0,000 mm 0,0 UV-I 0 W/m 11,6 C 13,2 C 11,3 km/h (2 Bft) 100,00 %
13.07.2018 04:03 13,6 C 22,8 C 12,2 C 87 % 1016,7 hPa 0,0 l/m 6,5 km/h (2 Bft) SW 219 0 min 0,000 mm 0,0 UV-I 0 W/m 11,5 C 13,6 C 8,0 km/h (2 Bft) 90,91 %
13.07.2018 04:04 13,6 C 22,8 C 12,2 C 87 % 1016,7 hPa 0,0 l/m 8,1 km/h (2 Bft) S-SW 210 0 min 0,000 mm 0,0 UV-I 0 W/m 11,5 C 12,6 C 9,7 km/h (2 Bft) 100,00 %
13.07.2018 04:05 13,6 C 22,8 C 12,2 C 87 % 1016,7 hPa 0,0 l/m 9,2 km/h (2 Bft) S-SW 209 0 min 0,000 mm 0,0 UV-I 0 W/m 11,5 C 12,0 C 11,3 km/h (2 Bft) 95,65 %
13.07.2018 04:06 13,6 C 22,8 C 12,2 C 87 % 1016,7 hPa 0,0 l/m 6,0 km/h (2 Bft) SW 219 0 min 0,000 mm 0,0 UV-I 0 W/m 11,5 C 13,6 C 9,7 km/h (2 Bft) 100,00 %
13.07.2018 04:07 13,6 C 22,8 C 12,2 C 87 % 1016,8 hPa 0,0 l/m 5,2 km/h (1 Bft) W-SW 245 0 min 0,000 mm 0,0 UV-I 0 W/m 11,5 C 13,6 C 8,0 km/h (2 Bft) 100,00 %
13.07.2018 04:09 13,7 C 22,8 C 12,2 C 87 % 1016,7 hPa 0,0 l/m 6,4 km/h (2 Bft) S-SW 212 0 min 0,000 mm 0,0 UV-I 0 W/m 11,6 C 13,7 C 9,7 km/h (2 Bft) 98,00 %
13.07.2018 04:10 13,6 C 22,8 C 12,2 C 87 % 1016,7 hPa 0,0 l/m 8,3 km/h (2 Bft) SW 219 0 min 0,000 mm 0,0 UV-I 0 W/m 11,5 C 12,5 C 11,3 km/h (2 Bft) 91,67 %
13.07.2018 04:11 13,6 C 22,8 C 12,2 C 87 % 1016,7 hPa 0,0 l/m 6,8 km/h (2 Bft) SW 222 0 min 0,000 mm 0,0 UV-I 0 W/m 11,5 C 13,4 C 9,7 km/h (2 Bft) 100,00 %
13.07.2018 04:12 13,6 C 22,8 C 12,2 C 87 % 1016,7 hPa 0,0 l/m 5,6 km/h (1 Bft) SW 217 0 min 0,000 mm 0,0 UV-I 0 W/m 11,5 C 13,6 C 8,0 km/h (2 Bft) 92,59 %
13.07.2018 04:14 13,6 C 22,8 C 12,2 C 87 % 1016,7 hPa 0,0 l/m 5,9 km/h (2 Bft) SW 217 0 min 0,000 mm 0,0 UV-I 0 W/m 11,5 C 13,6 C 8,0 km/h (2 Bft) 96,23 %
13.07.2018 04:15 13,6 C 22,8 C 12,2 C 87 % 1016,7 hPa 0,0 l/m 6,2 km/h (2 Bft) SW 219 0 min 0,000 mm 0,0 UV-I 0 W/m 11,5 C 13,6 C 9,7 km/h (2 Bft) 91,30 %
13.07.2018 04:16 13,6 C 22,2 C 12,2 C 87 % 1016,7 hPa 0,0 l/m 6,4 km/h (2 Bft) SW 219 0 min 0,000 mm 0,0 UV-I 0 W/m 11,5 C 13,6 C 8,0 km/h (2 Bft) 100,00 %
13.07.2018 04:17 13,6 C 22,8 C 12,2 C 87 % 1016,7 hPa 0,0 l/m 6,2 km/h (2 Bft) SW 215 0 min 0,000 mm 0,0 UV-I 0 W/m 11,5 C 13,6 C 8,0 km/h (2 Bft) 96,82 %
13.07.2018 04:19 13,6 C 22,2 C 12,2 C 87 % 1016,7 hPa 0,0 l/m 6,0 km/h (2 Bft) SW 220 0 min 0,000 mm 0,0 UV-I 0 W/m 11,5 C 13,6 C 8,0 km/h (2 Bft) 92,19 %
13.07.2018 04:20 13,5 C 22,2 C 12,2 C 87 % 1016,7 hPa 0,0 l/m 5,5 km/h (1 Bft) SW 228 0 min 0,000 mm 0,0 UV-I 0 W/m 11,4 C 13,5 C 8,0 km/h (2 Bft) 95,83 %
13.07.2018 04:21 13,5 C 22,2 C 12,2 C 87 % 1016,7 hPa 0,0 l/m 5,8 km/h (2 Bft) SW 236 0 min 0,000 mm 0,0 UV-I 0 W/m 11,4 C 13,5 C 8,0 km/h (2 Bft) 92,31 %
13.07.2018 04:22 13,6 C 22,2 C 12,2 C 88 % 1016,8 hPa 0,0 l/m 4,6 km/h (1 Bft) SW 230 0 min 0,000 mm 0,0 UV-I 0 W/m 11,6 C 13,6 C 6,4 km/h (2 Bft) 100,00 %
13.07.2018 04:23 13,6 C 22,2 C 12,2 C 88 % 1016,8 hPa 0,0 l/m 4,3 km/h (1 Bft) SW 232 0 min 0,000 mm 0,0 UV-I 0 W/m 11,6 C 13,6 C 4,8 km/h (1 Bft) 94,44 %
13.07.2018 04:25 13,5 C 22,2 C 12,2 C 87 % 1016,8 hPa 0,0 l/m 4,2 km/h (1 Bft) N 355 0 min 0,000 mm 0,0 UV-I 0 W/m 11,4 C 13,5 C 6,4 km/h (2 Bft) 93,62 %
13.07.2018 04:26 13,3 C 22,2 C 12,2 C 87 % 1016,9 hPa 0,0 l/m 7,0 km/h (2 Bft) N 5 0 min 0,000 mm 0,0 UV-I 0 W/m 11,2 C 12,9 C 8,0 km/h (2 Bft) 93,10 %
13.07.2018 04:27 13,0 C 22,2 C 12,2 C 87 % 1016,9 hPa 0,0 l/m 6,6 km/h (2 Bft) N 10 0 min 0,000 mm 0,0 UV-I 0 W/m 10,9 C 12,9 C 8,0 km/h (2 Bft) 91,67 %
13.07.2018 04:28 12,8 C 22,2 C 11,7 C 88 % 1016,9 hPa 0,0 l/m 5,8 km/h (2 Bft) N 9 0 min 0,000 mm 0,0 UV-I 0 W/m 10,9 C 12,8 C 6,4 km/h (2 Bft) 100,00 %
13.07.2018 04:29 12,7 C 22,2 C 11,7 C 89 % 1016,9 hPa 0,0 l/m 5,0 km/h (1 Bft) N 9 0 min 0,000 mm 0,0 UV-I 0 W/m 10,9 C 12,7 C 6,4 km/h (2 Bft) 95,83 %
13.07.2018 04:30 12,6 C 22,2 C 11,7 C 90 % 1016,9 hPa 0,0 l/m 3,7 km/h (1 Bft) N 9 0 min 0,000 mm 0,0 UV-I 0 W/m 11,0 C 12,6 C 4,8 km/h (1 Bft) 100,00 %
13.07.2018 04:31 12,6 C 22,2 C 11,7 C 90 % 1016,9 hPa 0,0 l/m 3,0 km/h (1 Bft) N 9 0 min 0,000 mm 0,0 UV-I 0 W/m 11,0 C 12,6 C 4,8 km/h (1 Bft) 95,83 %
13.07.2018 04:32 12,6 C 22,2 C 11,7 C 91 % 1016,9 hPa 0,0 l/m 1,9 km/h (1 Bft) N 9 0 min 0,000 mm 0,0 UV-I 0 W/m 11,2 C 12,6 C 3,2 km/h (1 Bft) 92,31 %
13.07.2018 04:34 12,7 C 22,2 C 11,1 C 91 % 1016,9 hPa 0,0 l/m 1,6 km/h (1 Bft) N 9 0 min 0,000 mm 0,0 UV-I 0 W/m 11,3 C 12,7 C 3,2 km/h (1 Bft) 98,00 %
13.07.2018 04:35 12,8 C 22,2 C 11,1 C 91 % 1016,9 hPa 0,0 l/m 1,8 km/h (1 Bft) N 9 0 min 0,000 mm 0,0 UV-I 0 W/m 11,4 C 12,8 C 3,2 km/h (1 Bft) 100,00 %
13.07.2018 04:36 12,8 C 22,2 C 11,1 C 91 % 1016,9 hPa 0,0 l/m 1,8 km/h (1 Bft) N 9 0 min 0,000 mm 0,0 UV-I 0 W/m 11,4 C 12,8 C 3,2 km/h (1 Bft) 95,65 %
13.07.2018 04:37 12,9 C 22,2 C 11,1 C 91 % 1016,9 hPa 0,0 l/m 2,7 km/h (1 Bft) N 9 0 min 0,000 mm 0,0 UV-I 0 W/m 11,5 C 12,9 C 3,2 km/h (1 Bft) 96,30 %
13.07.2018 04:39 12,9 C 22,2 C 10,6 C 91 % 1016,9 hPa 0,0 l/m 1,5 km/h (1 Bft) N 9 0 min 0,000 mm 0,0 UV-I 0 W/m 11,5 C 12,9 C 3,2 km/h (1 Bft) 97,87 %
13.07.2018 04:40 13,0 C 22,2 C 10,6 C 90 % 1016,9 hPa 0,0 l/m 1,6 km/h (1 Bft) N 9 0 min 0,000 mm 0,0 UV-I 0 W/m 11,4 C 13,0 C 3,2 km/h (1 Bft) 96,15 %
13.07.2018 04:41 13,1 C 22,2 C 10,6 C 90 % 1016,9 hPa 0,0 l/m 1,1 km/h (1 Bft) N 9 0 min 0,000 mm 0,0 UV-I 0 W/m 11,5 C 13,1 C 3,2 km/h (1 Bft) 100,00 %
13.07.2018 04:42 13,1 C 22,2 C 10,6 C 90 % 1016,9 hPa 0,0 l/m 1,6 km/h (1 Bft) N 9 0 min 0,000 mm 0,0 UV-I 0 W/m 11,5 C 13,1 C 1,6 km/h (1 Bft) 100,00 %
13.07.2018 04:44 13,1 C 22,2 C 11,1 C 90 % 1016,9 hPa 0,0 l/m 2,6 km/h (1 Bft) N 9 0 min 0,000 mm 0,0 UV-I 0 W/m 11,5 C 13,1 C 4,8 km/h (1 Bft) 98,11 %
13.07.2018 04:45 13,1 C 22,2 C 11,1 C 90 % 1017,0 hPa 0,0 l/m 3,2 km/h (1 Bft) N 9 0 min 0,000 mm 0,0 UV-I 0 W/m 11,5 C 13,1 C 4,8 km/h (1 Bft) 100,00 %
13.07.2018 04:46 13,1 C 22,2 C 11,1 C 90 % 1017,0 hPa 0,0 l/m 2,9 km/h (1 Bft) N-NW 334 0 min 0,000 mm 0,0 UV-I 0 W/m 11,5 C 13,1 C 4,8 km/h (1 Bft) 100,00 %
13.07.2018 04:47 13,1 C 22,2 C 11,1 C 90 % 1017,0 hPa 0,0 l/m 2,3 km/h (1 Bft) N-NW 333 0 min 0,000 mm 0,0 UV-I 0 W/m 11,5 C 13,1 C 4,8 km/h (1 Bft) 100,00 %
13.07.2018 04:49 13,1 C 22,2 C 11,1 C 90 % 1017,0 hPa 0,0 l/m 2,3 km/h (1 Bft) N-NW 333 0 min 0,000 mm 0,0 UV-I 0 W/m 11,5 C 13,1 C 3,2 km/h (1 Bft) 96,61 %
13.07.2018 04:50 13,1 C 22,2 C 11,1 C 90 % 1017,0 hPa 0,0 l/m 1,9 km/h (1 Bft) N-NW 333 0 min 0,000 mm 0,0 UV-I 0 W/m 11,5 C 13,1 C 3,2 km/h (1 Bft) 100,00 %
13.07.2018 04:51 13,1 C 22,2 C 11,1 C 90 % 1017,0 hPa 0,0 l/m 2,7 km/h (1 Bft) N-NW 333 0 min 0,000 mm 0,0 UV-I 0 W/m 11,5 C 13,1 C 4,8 km/h (1 Bft) 100,00 %
13.07.2018 04:52 13,1 C 22,2 C 11,1 C 90 % 1016,9 hPa 0,0 l/m 3,1 km/h (1 Bft) N-NW 333 0 min 0,000 mm 0,0 UV-I 0 W/m 11,5 C 13,1 C 4,8 km/h (1 Bft) 100,00 %
13.07.2018 04:54 13,0 C 22,2 C 11,1 C 90 % 1016,9 hPa 0,0 l/m 3,7 km/h (1 Bft) W 262 0 min 0,000 mm 0,0 UV-I 0 W/m 11,4 C 13,0 C 4,8 km/h (1 Bft) 100,00 %
13.07.2018 04:55 12,9 C 22,2 C 11,1 C 89 % 1017,0 hPa 0,0 l/m 4,2 km/h (1 Bft) W 261 0 min 0,000 mm 0,0 UV-I 0 W/m 11,1 C 12,9 C 4,8 km/h (1 Bft) 100,00 %
13.07.2018 04:56 12,8 C 22,2 C 11,1 C 89 % 1017,0 hPa 0,0 l/m 4,8 km/h (1 Bft) W-SW 252 0 min 0,000 mm 0,0 UV-I 0 W/m 11,0 C 12,8 C 6,4 km/h (2 Bft) 100,00 %
13.07.2018 04:57 12,8 C 22,2 C 11,1 C 90 % 1016,9 hPa 0,0 l/m 5,0 km/h (1 Bft) SW 230 0 min 0,000 mm 0,0 UV-I 0 W/m 11,2 C 12,8 C 6,4 km/h (2 Bft) 100,00 %
13.07.2018 04:58 12,7 C 22,2 C 11,7 C 90 % 1016,9 hPa 0,0 l/m 4,8 km/h (1 Bft) SW 229 0 min 0,000 mm 0,0 UV-I 0 W/m 11,1 C 12,7 C 6,4 km/h (2 Bft) 95,83 %
13.07.2018 04:59 12,7 C 22,2 C 11,7 C 90 % 1016,9 hPa 0,0 l/m 4,1 km/h (1 Bft) SW 229 0 min 0,000 mm 0,0 UV-I 0 W/m 11,1 C 12,7 C 4,8 km/h (1 Bft) 100,00 %
13.07.2018 05:00 12,7 C 22,2 C 11,7 C 90 % 1016,9 hPa 0,0 l/m 4,2 km/h (1 Bft) SW 229 0 min 0,000 mm 0,0 UV-I 0 W/m 11,1 C 12,7 C 4,8 km/h (1 Bft) 95,65 %
13.07.2018 05:01 12,7 C 22,2 C 11,7 C 90 % 1016,9 hPa 0,0 l/m 4,1 km/h (1 Bft) SW 227 0 min 0,000 mm 0,0 UV-I 5 W/m 11,1 C 12,7 C 6,4 km/h (2 Bft) 100,00 %
13.07.2018 05:02 12,7 C 22,2 C 11,7 C 90 % 1017,0 hPa 0,0 l/m 4,2 km/h (1 Bft) SW 226 0 min 0,000 mm 0,0 UV-I 5 W/m 11,1 C 12,7 C 6,4 km/h (2 Bft) 96,15 %
13.07.2018 05:03 12,7 C 22,2 C 11,1 C 90 % 1016,9 hPa 0,0 l/m 3,1 km/h (1 Bft) SW 226 0 min 0,000 mm 0,0 UV-I 5 W/m 11,1 C 12,7 C 4,8 km/h (1 Bft) 96,15 %
13.07.2018 05:04 12,7 C 22,2 C 11,1 C 90 % 1017,0 hPa 0,0 l/m 3,1 km/h (1 Bft) SW 227 0 min 0,000 mm 0,0 UV-I 5 W/m 11,1 C 12,7 C 4,8 km/h (1 Bft) 100,00 %
13.07.2018 05:05 12,6 C 22,2 C 11,1 C 90 % 1017,0 hPa 0,0 l/m 2,7 km/h (1 Bft) SW 233 0 min 0,000 mm 0,0 UV-I 5 W/m 11,0 C 12,6 C 4,8 km/h (1 Bft) 95,83 %
13.07.2018 05:06 12,6 C 22,2 C 11,1 C 90 % 1017,0 hPa 0,0 l/m 2,6 km/h (1 Bft) SW 233 0 min 0,000 mm 0,0 UV-I 5 W/m 11,0 C 12,6 C 3,2 km/h (1 Bft) 100,00 %
13.07.2018 05:07 12,6 C 22,2 C 11,1 C 90 % 1017,0 hPa 0,0 l/m 3,0 km/h (1 Bft) SW 233 0 min 0,000 mm 0,0 UV-I 5 W/m 11,0 C 12,6 C 4,8 km/h (1 Bft) 91,67 %
13.07.2018 05:08 12,5 C 22,2 C 11,1 C 90 % 1017,0 hPa 0,0 l/m 2,6 km/h (1 Bft) SW 233 0 min 0,000 mm 0,0 UV-I 5 W/m 10,9 C 12,5 C 3,2 km/h (1 Bft) 100,00 %
13.07.2018 05:09 12,5 C 22,2 C 11,1 C 91 % 1017,0 hPa 0,0 l/m 2,8 km/h (1 Bft) SW 233 0 min 0,000 mm 0,0 UV-I 5 W/m 11,1 C 12,5 C 4,8 km/h (1 Bft) 96,30 %
13.07.2018 05:10 12,5 C 22,2 C 11,1 C 91 % 1017,0 hPa 0,0 l/m 3,7 km/h (1 Bft) SW 233 0 min 0,000 mm 0,0 UV-I 6 W/m 11,1 C 12,5 C 4,8 km/h (1 Bft) 90,91 %
13.07.2018 05:11 12,6 C 22,2 C 11,1 C 91 % 1017,0 hPa 0,0 l/m 4,8 km/h (1 Bft) SW 232 0 min 0,000 mm 0,0 UV-I 7 W/m 11,2 C 12,6 C 6,4 km/h (2 Bft) 97,44 %
13.07.2018 05:12 12,6 C 22,2 C 11,1 C 91 % 1017,0 hPa 0,0 l/m 4,1 km/h (1 Bft) SW 232 0 min 0,000 mm 0,0 UV-I 7 W/m 11,2 C 12,6 C 4,8 km/h (1 Bft) 100,00 %
13.07.2018 05:13 12,6 C 22,2 C 11,1 C 91 % 1017,0 hPa 0,0 l/m 3,6 km/h (1 Bft) SW 232 0 min 0,000 mm 0,0 UV-I 7 W/m 11,2 C 12,6 C 4,8 km/h (1 Bft) 95,83 %
13.07.2018 05:14 12,6 C 22,2 C 11,1 C 91 % 1017,0 hPa 0,0 l/m 5,4 km/h (1 Bft) SW 222 0 min 0,000 mm 0,0 UV-I 7 W/m 11,2 C 12,6 C 6,4 km/h (2 Bft) 95,65 %
13.07.2018 05:15 12,6 C 22,2 C 11,1 C 91 % 1017,0 hPa 0,0 l/m 5,9 km/h (2 Bft) SW 218 0 min 0,000 mm 0,0 UV-I 7 W/m 11,2 C 12,6 C 8,0 km/h (2 Bft) 100,00 %
13.07.2018 05:16 12,6 C 22,2 C 11,1 C 91 % 1017,0 hPa 0,0 l/m 4,9 km/h (1 Bft) SW 229 0 min 0,000 mm 0,0 UV-I 7 W/m 11,2 C 12,6 C 6,4 km/h (2 Bft) 91,67 %
13.07.2018 05:17 12,7 C 22,2 C 11,1 C 91 % 1017,0 hPa 0,0 l/m 5,0 km/h (1 Bft) SW 229 0 min 0,000 mm 0,0 UV-I 9 W/m 11,3 C 12,7 C 6,4 km/h (2 Bft) 96,15 %
13.07.2018 05:18 12,7 C 22,2 C 11,7 C 91 % 1017,0 hPa 0,0 l/m 4,6 km/h (1 Bft) SW 229 0 min 0,000 mm 0,0 UV-I 9 W/m 11,3 C 12,7 C 6,4 km/h (2 Bft) 96,15 %
13.07.2018 05:19 12,7 C 22,2 C 11,7 C 91 % 1017,0 hPa 0,0 l/m 4,1 km/h (1 Bft) SW 229 0 min 0,000 mm 0,0 UV-I 9 W/m 11,3 C 12,7 C 6,4 km/h (2 Bft) 100,00 %
13.07.2018 05:20 12,6 C 22,2 C 11,7 C 91 % 1017,0 hPa 0,0 l/m 6,0 km/h (2 Bft) SW 223 0 min 0,000 mm 0,0 UV-I 9 W/m 11,2 C 12,6 C 8,0 km/h (2 Bft) 97,03 %
13.07.2018 05:21 12,6 C 22,2 C 11,7 C 91 % 1017,0 hPa 0,0 l/m 4,8 km/h (1 Bft) SW 224 0 min 0,000 mm 0,0 UV-I 9 W/m 11,2 C 12,6 C 6,4 km/h (2 Bft) 97,73 %
13.07.2018 05:22 12,6 C 22,2 C 11,7 C 91 % 1017,0 hPa 0,0 l/m 5,8 km/h (2 Bft) SW 219 0 min 0,000 mm 0,0 UV-I 10 W/m 11,2 C 12,6 C 8,0 km/h (2 Bft) 95,83 %
13.07.2018 05:23 12,6 C 22,2 C 11,7 C 91 % 1017,1 hPa 0,0 l/m 6,4 km/h (2 Bft) SW 219 0 min 0,000 mm 0,0 UV-I 11 W/m 11,2 C 12,6 C 6,4 km/h (2 Bft) 100,00 %
13.07.2018 05:24 12,6 C 22,2 C 11,7 C 91 % 1017,1 hPa 0,0 l/m 7,0 km/h (2 Bft) SW 222 0 min 0,000 mm 0,0 UV-I 11 W/m 11,2 C 12,2 C 8,0 km/h (2 Bft) 92,59 %
13.07.2018 05:25 12,6 C 22,2 C 11,7 C 91 % 1017,1 hPa 0,0 l/m 5,5 km/h (1 Bft) SW 221 0 min 0,000 mm 0,0 UV-I 11 W/m 11,2 C 12,6 C 6,4 km/h (2 Bft) 100,00 %
13.07.2018 05:26 12,6 C 22,2 C 11,7 C 91 % 1017,1 hPa 0,0 l/m 4,4 km/h (1 Bft) SW 225 0 min 0,000 mm 0,0 UV-I 11 W/m 11,2 C 12,6 C 6,4 km/h (2 Bft) 93,33 %
13.07.2018 05:27 12,6 C 22,2 C 11,7 C 91 % 1017,1 hPa 0,0 l/m 5,5 km/h (1 Bft) SW 225 0 min 0,000 mm 0,0 UV-I 12 W/m 11,2 C 12,6 C 6,4 km/h (2 Bft) 100,00 %
13.07.2018 05:28 12,5 C 22,2 C 11,7 C 91 % 1017,1 hPa 0,0 l/m 5,7 km/h (1 Bft) SW 225 0 min 0,000 mm 0,0 UV-I 12 W/m 11,1 C 12,5 C 6,4 km/h (2 Bft) 95,83 %
13.07.2018 05:29 12,5 C 22,2 C 11,7 C 91 % 1017,1 hPa 0,0 l/m 5,3 km/h (1 Bft) SW 223 0 min 0,000 mm 0,0 UV-I 12 W/m 11,1 C 12,5 C 6,4 km/h (2 Bft) 100,00 %
13.07.2018 05:30 12,5 C 22,2 C 11,7 C 91 % 1017,1 hPa 0,0 l/m 6,4 km/h (2 Bft) SW 215 1 min 0,000 mm 0,0 UV-I 12 W/m 11,1 C 12,5 C 8,0 km/h (2 Bft) 96,30 %
13.07.2018 05:31 12,4 C 22,2 C 11,7 C 91 % 1017,1 hPa 0,0 l/m 5,7 km/h (1 Bft) SW 222 1 min 0,000 mm 0,0 UV-I 14 W/m 11,0 C 12,4 C 8,0 km/h (2 Bft) 96,15 %
13.07.2018 05:32 12,4 C 22,2 C 11,7 C 91 % 1017,1 hPa 0,0 l/m 5,6 km/h (1 Bft) SW 222 1 min 0,000 mm 0,0 UV-I 14 W/m 11,0 C 12,4 C 6,4 km/h (2 Bft) 100,00 %
13.07.2018 05:33 12,4 C 22,2 C 11,7 C 91 % 1017,1 hPa 0,0 l/m 6,1 km/h (2 Bft) SW 223 1 min 0,000 mm 0,0 UV-I 14 W/m 11,0 C 12,4 C 8,0 km/h (2 Bft) 92,86 %
13.07.2018 05:34 12,4 C 22,2 C 11,7 C 91 % 1017,2 hPa 0,0 l/m 4,8 km/h (1 Bft) SW 219 1 min 0,000 mm 0,0 UV-I 16 W/m 11,0 C 12,4 C 6,4 km/h (2 Bft) 96,30 %
13.07.2018 05:35 12,4 C 22,2 C 11,7 C 91 % 1017,1 hPa 0,0 l/m 5,7 km/h (1 Bft) S-SW 213 1 min 0,000 mm 0,0 UV-I 18 W/m 11,0 C 12,4 C 6,4 km/h (2 Bft) 96,15 %
13.07.2018 05:36 12,4 C 22,2 C 11,7 C 92 % 1017,2 hPa 0,0 l/m 6,3 km/h (2 Bft) SW 216 1 min 0,000 mm 0,0 UV-I 19 W/m 11,1 C 12,4 C 8,0 km/h (2 Bft) 95,83 %
13.07.2018 05:37 12,3 C 22,2 C 11,7 C 92 % 1017,1 hPa 0,0 l/m 6,0 km/h (2 Bft) SW 217 1 min 0,000 mm 0,0 UV-I 22 W/m 11,0 C 12,3 C 8,0 km/h (2 Bft) 95,65 %
13.07.2018 05:38 12,3 C 22,2 C 11,7 C 92 % 1017,1 hPa 0,0 l/m 5,7 km/h (1 Bft) SW 217 1 min 0,000 mm 0,0 UV-I 24 W/m 11,0 C 12,3 C 6,4 km/h (2 Bft) 96,30 %
13.07.2018 05:39 12,4 C 22,2 C 12,2 C 92 % 1017,2 hPa 0,0 l/m 5,1 km/h (1 Bft) SW 223 1 min 0,000 mm 0,0 UV-I 25 W/m 11,1 C 12,4 C 6,4 km/h (2 Bft) 100,00 %
13.07.2018 05:40 12,4 C 22,2 C 12,2 C 92 % 1017,2 hPa 0,0 l/m 5,4 km/h (1 Bft) SW 220 1 min 0,000 mm 0,0 UV-I 25 W/m 11,1 C 12,4 C 6,4 km/h (2 Bft) 92,86 %
13.07.2018 05:41 12,4 C 22,2 C 12,2 C 92 % 1017,2 hPa 0,0 l/m 5,9 km/h (2 Bft) SW 225 1 min 0,000 mm 0,0 UV-I 26 W/m 11,1 C 12,4 C 8,0 km/h (2 Bft) 94,87 %
13.07.2018 05:42 12,5 C 22,2 C 11,7 C 92 % 1017,2 hPa 0,0 l/m 6,1 km/h (2 Bft) SW 219 1 min 0,000 mm 0,0 UV-I 26 W/m 11,2 C 12,5 C 8,0 km/h (2 Bft) 92,31 %
13.07.2018 05:43 12,6 C 22,2 C 11,7 C 92 % 1017,2 hPa 0,0 l/m 6,1 km/h (2 Bft) S-SW 209 0 min 0,000 mm 0,0 UV-I 25 W/m 11,3 C 12,6 C 8,0 km/h (2 Bft) 95,83 %
13.07.2018 05:44 12,6 C 22,2 C 12,2 C 92 % 1017,2 hPa 0,0 l/m 6,3 km/h (2 Bft) SW 217 0 min 0,000 mm 0,0 UV-I 22 W/m 11,3 C 12,6 C 8,0 km/h (2 Bft) 92,86 %
13.07.2018 05:45 12,6 C 22,2 C 12,2 C 91 % 1017,2 hPa 0,0 l/m 5,9 km/h (2 Bft) S-SW 211 0 min 0,000 mm 0,0 UV-I 21 W/m 11,2 C 12,6 C 8,0 km/h (2 Bft) 96,30 %
13.07.2018 05:46 12,7 C 22,2 C 12,2 C 91 % 1017,2 hPa 0,0 l/m 6,2 km/h (2 Bft) S-SW 200 0 min 0,000 mm 0,0 UV-I 21 W/m 11,3 C 12,7 C 8,0 km/h (2 Bft) 96,15 %
13.07.2018 05:47 12,7 C 22,2 C 12,2 C 91 % 1017,2 hPa 0,0 l/m 6,1 km/h (2 Bft) S-SW 211 0 min 0,000 mm 0,0 UV-I 23 W/m 11,3 C 12,7 C 9,7 km/h (2 Bft) 95,83 %
13.07.2018 05:48 12,7 C 22,2 C 12,2 C 91 % 1017,2 hPa 0,0 l/m 6,5 km/h (2 Bft) SW 214 0 min 0,000 mm 0,0 UV-I 23 W/m 11,3 C 12,7 C 8,0 km/h (2 Bft) 92,31 %
13.07.2018 05:49 12,7 C 22,2 C 12,2 C 91 % 1017,2 hPa 0,0 l/m 6,4 km/h (2 Bft) SW 234 0 min 0,000 mm 0,0 UV-I 24 W/m 11,3 C 12,7 C 8,0 km/h (2 Bft) 91,67 %
13.07.2018 05:50 12,7 C 22,2 C 12,2 C 91 % 1017,2 hPa 0,0 l/m 5,3 km/h (1 Bft) SW 217 0 min 0,000 mm 0,0 UV-I 25 W/m 11,3 C 12,7 C 6,4 km/h (2 Bft) 92,86 %
13.07.2018 05:51 12,7 C 22,2 C 12,2 C 91 % 1017,2 hPa 0,0 l/m 6,7 km/h (2 Bft) SW 221 0 min 0,000 mm 0,0 UV-I 25 W/m 11,3 C 12,5 C 9,7 km/h (2 Bft) 95,83 %
13.07.2018 05:52 12,7 C 22,2 C 12,2 C 91 % 1017,2 hPa 0,0 l/m 5,9 km/h (2 Bft) SW 218 0 min 0,000 mm 0,0 UV-I 26 W/m 11,3 C 12,7 C 8,0 km/h (2 Bft) 91,30 %
13.07.2018 05:53 12,6 C 22,2 C 12,2 C 91 % 1017,2 hPa 0,0 l/m 7,1 km/h (2 Bft) SW 226 0 min 0,000 mm 0,0 UV-I 26 W/m 11,2 C 12,2 C 9,7 km/h (2 Bft) 95,83 %
13.07.2018 05:54 12,6 C 22,2 C 12,2 C 91 % 1017,2 hPa 0,0 l/m 6,9 km/h (2 Bft) SW 224 0 min 0,000 mm 0,0 UV-I 29 W/m 11,2 C 12,3 C 8,0 km/h (2 Bft) 95,65 %
13.07.2018 05:55 12,6 C 22,2 C 12,2 C 91 % 1017,2 hPa 0,0 l/m 7,8 km/h (2 Bft) S-SW 213 0 min 0,000 mm 0,0 UV-I 33 W/m 11,2 C 11,7 C 9,7 km/h (2 Bft) 95,83 %
13.07.2018 05:56 12,6 C 22,2 C 12,2 C 91 % 1017,2 hPa 0,0 l/m 6,9 km/h (2 Bft) S-SW 211 0 min 0,000 mm 0,0 UV-I 38 W/m 11,2 C 12,3 C 9,7 km/h (2 Bft) 91,67 %
13.07.2018 05:57 12,6 C 22,2 C 12,2 C 91 % 1017,2 hPa 0,0 l/m 5,9 km/h (2 Bft) S-SW 208 0 min 0,000 mm 0,0 UV-I 45 W/m 11,2 C 12,6 C 8,0 km/h (2 Bft) 97,56 %
13.07.2018 05:58 12,6 C 22,2 C 12,2 C 91 % 1017,2 hPa 0,0 l/m 6,8 km/h (2 Bft) SW 217 0 min 0,000 mm 0,0 UV-I 47 W/m 11,2 C 12,4 C 9,7 km/h (2 Bft) 100,00 %
13.07.2018 05:59 12,6 C 22,2 C 12,2 C 91 % 1017,2 hPa 0,0 l/m 8,9 km/h (2 Bft) SW 220 0 min 0,000 mm 0,0 UV-I 46 W/m 11,2 C 11,1 C 12,9 km/h (3 Bft) 94,44 %
13.07.2018 06:00 12,7 C 22,2 C 12,2 C 91 % 1017,2 hPa 0,0 l/m 6,8 km/h (2 Bft) SW 228 0 min 0,026 mm 0,0 UV-I 41 W/m 11,3 C 12,5 C 8,0 km/h (2 Bft) 96,15 %
13.07.2018 06:01 12,7 C 22,2 C 12,2 C 91 % 1017,2 hPa 0,0 l/m 6,0 km/h (2 Bft) SW 225 0 min 0,000 mm 0,0 UV-I 34 W/m 11,3 C 12,7 C 8,0 km/h (2 Bft) 95,83 %
13.07.2018 06:02 12,7 C 22,2 C 12,2 C 91 % 1017,2 hPa 0,0 l/m 6,1 km/h (2 Bft) SW 227 0 min 0,000 mm 0,0 UV-I 34 W/m 11,3 C 12,7 C 8,0 km/h (2 Bft) 100,00 %
13.07.2018 06:03 12,7 C 22,2 C 12,2 C 91 % 1017,2 hPa 0,0 l/m 7,4 km/h (2 Bft) SW 225 0 min 0,000 mm 0,0 UV-I 32 W/m 11,3 C 12,1 C 9,7 km/h (2 Bft) 92,86 %
13.07.2018 06:04 12,8 C 22,2 C 12,2 C 91 % 1017,2 hPa 0,0 l/m 6,4 km/h (2 Bft) SW 221 0 min 0,000 mm 0,0 UV-I 34 W/m 11,4 C 12,8 C 9,7 km/h (2 Bft) 96,43 %
13.07.2018 06:05 12,9 C 22,2 C 12,2 C 91 % 1017,2 hPa 0,0 l/m 6,4 km/h (2 Bft) S-SW 209 0 min 0,000 mm 0,0 UV-I 35 W/m 11,5 C 12,9 C 8,0 km/h (2 Bft) 96,55 %
13.07.2018 06:06 12,9 C 22,2 C 12,2 C 91 % 1017,2 hPa 0,0 l/m 6,0 km/h (2 Bft) W-SW 247 0 min 0,000 mm 0,0 UV-I 36 W/m 11,5 C 12,9 C 8,0 km/h (2 Bft) 100,00 %
13.07.2018 06:07 12,9 C 22,2 C 12,2 C 91 % 1017,3 hPa 0,0 l/m 6,2 km/h (2 Bft) W-SW 243 0 min 0,000 mm 0,0 UV-I 52 W/m 11,5 C 12,9 C 8,0 km/h (2 Bft) 96,15 %
13.07.2018 06:08 13,0 C 22,2 C 12,8 C 91 % 1017,3 hPa 0,0 l/m 4,6 km/h (1 Bft) SW 225 1 min 0,000 mm 0,0 UV-I 62 W/m 11,6 C 13,0 C 6,4 km/h (2 Bft) 96,30 %
13.07.2018 06:09 13,1 C 22,2 C 12,8 C 91 % 1017,3 hPa 0,0 l/m 5,0 km/h (1 Bft) SW 227 1 min 0,000 mm 0,0 UV-I 63 W/m 11,7 C 13,1 C 6,4 km/h (2 Bft) 96,55 %
13.07.2018 06:10 13,0 C 22,2 C 12,8 C 90 % 1017,3 hPa 0,0 l/m 5,2 km/h (1 Bft) SW 229 0 min 0,000 mm 0,0 UV-I 63 W/m 11,4 C 13,0 C 6,4 km/h (2 Bft) 95,83 %
13.07.2018 06:11 13,1 C 22,2 C 12,8 C 90 % 1017,3 hPa 0,0 l/m 6,0 km/h (2 Bft) W-SW 249 1 min 0,000 mm 0,0 UV-I 67 W/m 11,5 C 13,1 C 8,0 km/h (2 Bft) 100,00 %
13.07.2018 06:12 13,1 C 22,2 C 12,8 C 90 % 1017,3 hPa 0,0 l/m 5,5 km/h (1 Bft) W-SW 246 1 min 0,000 mm 0,0 UV-I 70 W/m 11,5 C 13,1 C 6,4 km/h (2 Bft) 96,15 %
13.07.2018 06:13 13,1 C 22,2 C 12,8 C 90 % 1017,3 hPa 0,0 l/m 5,2 km/h (1 Bft) W-SW 246 1 min 0,000 mm 0,0 UV-I 72 W/m 11,5 C 13,1 C 6,4 km/h (2 Bft) 95,83 %
13.07.2018 06:14 13,1 C 22,2 C 12,8 C 90 % 1017,3 hPa 0,0 l/m 5,5 km/h (1 Bft) SW 228 1 min 0,000 mm 0,0 UV-I 77 W/m 11,5 C 13,1 C 8,0 km/h (2 Bft) 93,10 %
13.07.2018 06:15 13,1 C 22,2 C 12,8 C 90 % 1017,3 hPa 0,0 l/m 3,8 km/h (1 Bft) SW 229 1 min 0,000 mm 0,0 UV-I 78 W/m 11,5 C 13,1 C 6,4 km/h (2 Bft) 96,15 %
13.07.2018 06:16 13,1 C 22,2 C 12,8 C 90 % 1017,3 hPa 0,0 l/m 2,2 km/h (1 Bft) SW 229 1 min 0,000 mm 0,0 UV-I 82 W/m 11,5 C 13,1 C 3,2 km/h (1 Bft) 100,00 %
13.07.2018 06:17 13,1 C 22,2 C 12,8 C 90 % 1017,4 hPa 0,0 l/m 3,3 km/h (1 Bft) W-SW 245 1 min 0,000 mm 0,0 UV-I 84 W/m 11,5 C 13,1 C 4,8 km/h (1 Bft) 91,67 %
13.07.2018 06:18 13,1 C 22,2 C 12,8 C 90 % 1017,4 hPa 0,0 l/m 3,2 km/h (1 Bft) W-SW 244 1 min 0,000 mm 0,0 UV-I 86 W/m 11,5 C 13,1 C 4,8 km/h (1 Bft) 100,00 %
13.07.2018 06:19 13,2 C 22,2 C 12,8 C 90 % 1017,4 hPa 0,0 l/m 3,5 km/h (1 Bft) W-SW 244 1 min 0,000 mm 0,0 UV-I 89 W/m 11,6 C 13,2 C 4,8 km/h (1 Bft) 96,30 %
13.07.2018 06:20 13,2 C 22,2 C 12,8 C 90 % 1017,3 hPa 0,0 l/m 4,4 km/h (1 Bft) W-SW 244 1 min 0,000 mm 0,0 UV-I 92 W/m 11,6 C 13,2 C 4,8 km/h (1 Bft) 96,15 %
13.07.2018 06:21 13,2 C 22,2 C 12,8 C 90 % 1017,3 hPa 0,0 l/m 3,1 km/h (1 Bft) W-SW 244 1 min 0,000 mm 0,0 UV-I 94 W/m 11,6 C 13,2 C 4,8 km/h (1 Bft) 100,00 %
13.07.2018 06:22 13,2 C 22,2 C 12,8 C 90 % 1017,3 hPa 0,0 l/m 5,0 km/h (1 Bft) SW 220 1 min 0,000 mm 0,0 UV-I 97 W/m 11,6 C 13,2 C 6,4 km/h (2 Bft) 100,00 %
13.07.2018 06:23 13,2 C 22,2 C 12,8 C 90 % 1017,4 hPa 0,0 l/m 4,2 km/h (1 Bft) SW 221 1 min 0,000 mm 0,0 UV-I 100 W/m 11,6 C 13,2 C 4,8 km/h (1 Bft) 95,83 %
13.07.2018 06:24 13,3 C 22,2 C 12,8 C 90 % 1017,4 hPa 0,0 l/m 4,9 km/h (1 Bft) SW 221 1 min 0,000 mm 0,0 UV-I 103 W/m 11,7 C 13,3 C 6,4 km/h (2 Bft) 96,15 %
13.07.2018 06:25 13,3 C 22,2 C 12,8 C 90 % 1017,4 hPa 0,0 l/m 4,5 km/h (1 Bft) SW 224 1 min 0,000 mm 0,0 UV-I 104 W/m 11,7 C 13,3 C 6,4 km/h (2 Bft) 100,00 %
13.07.2018 06:26 13,3 C 22,2 C 12,8 C 90 % 1017,4 hPa 0,0 l/m 6,1 km/h (2 Bft) S-SW 211 1 min 0,000 mm 0,0 UV-I 106 W/m 11,7 C 13,3 C 8,0 km/h (2 Bft) 100,00 %
13.07.2018 06:27 13,4 C 22,2 C 13,3 C 90 % 1017,4 hPa 0,0 l/m 7,9 km/h (2 Bft) SW 215 1 min 0,000 mm 0,0 UV-I 108 W/m 11,8 C 12,5 C 9,7 km/h (2 Bft) 100,00 %
13.07.2018 06:28 13,4 C 22,2 C 13,3 C 90 % 1017,4 hPa 0,0 l/m 7,5 km/h (2 Bft) SW 217 1 min 0,000 mm 0,0 UV-I 111 W/m 11,8 C 12,7 C 9,7 km/h (2 Bft) 100,00 %
13.07.2018 06:29 13,4 C 22,2 C 13,3 C 90 % 1017,4 hPa 0,0 l/m 6,6 km/h (2 Bft) SW 232 1 min 0,000 mm 0,0 UV-I 114 W/m 11,8 C 13,3 C 9,7 km/h (2 Bft) 100,00 %
13.07.2018 06:30 13,5 C 22,2 C 13,3 C 90 % 1017,4 hPa 0,0 l/m 6,0 km/h (2 Bft) SW 215 1 min 0,000 mm 0,0 UV-I 116 W/m 11,9 C 13,5 C 8,0 km/h (2 Bft) 92,86 %
13.07.2018 06:31 13,5 C 22,2 C 13,3 C 90 % 1017,4 hPa 0,0 l/m 5,6 km/h (1 Bft) W-SW 238 1 min 0,000 mm 0,0 UV-I 118 W/m 11,9 C 13,5 C 8,0 km/h (2 Bft) 100,00 %
13.07.2018 06:32 13,6 C 22,2 C 13,3 C 90 % 1017,4 hPa 0,0 l/m 6,2 km/h (2 Bft) SW 225 1 min 0,000 mm 0,0 UV-I 121 W/m 12,0 C 13,6 C 8,0 km/h (2 Bft) 100,00 %
13.07.2018 06:33 13,6 C 22,2 C 13,3 C 90 % 1017,4 hPa 0,0 l/m 6,1 km/h (2 Bft) SW 220 1 min 0,000 mm 0,0 UV-I 121 W/m 12,0 C 13,6 C 8,0 km/h (2 Bft) 96,30 %
13.07.2018 06:34 13,6 C 22,2 C 13,3 C 90 % 1017,4 hPa 0,0 l/m 6,2 km/h (2 Bft) SW 223 1 min 0,000 mm 0,0 UV-I 123 W/m 12,0 C 13,6 C 8,0 km/h (2 Bft) 100,00 %
13.07.2018 06:35 13,7 C 22,2 C 13,3 C 90 % 1017,4 hPa 0,0 l/m 5,8 km/h (2 Bft) SW 236 1 min 0,000 mm 0,0 UV-I 127 W/m 12,1 C 13,7 C 8,0 km/h (2 Bft) 100,00 %
13.07.2018 06:36 13,7 C 22,2 C 13,3 C 89 % 1017,4 hPa 0,0 l/m 4,4 km/h (1 Bft) SW 223 1 min 0,000 mm 0,0 UV-I 129 W/m 11,9 C 13,7 C 6,4 km/h (2 Bft) 100,00 %
13.07.2018 06:37 13,7 C 22,2 C 13,3 C 90 % 1017,4 hPa 0,0 l/m 3,9 km/h (1 Bft) SW 233 1 min 0,000 mm 0,0 UV-I 131 W/m 12,1 C 13,7 C 4,8 km/h (1 Bft) 100,00 %
13.07.2018 06:38 13,7 C 22,2 C 13,3 C 90 % 1017,5 hPa 0,0 l/m 4,7 km/h (1 Bft) W-SW 238 1 min 0,000 mm 0,0 UV-I 133 W/m 12,1 C 13,7 C 8,0 km/h (2 Bft) 100,00 %
13.07.2018 06:39 13,7 C 22,2 C 13,3 C 89 % 1017,5 hPa 0,0 l/m 5,7 km/h (1 Bft) SW 234 1 min 0,000 mm 0,0 UV-I 135 W/m 11,9 C 13,7 C 6,4 km/h (2 Bft) 100,00 %
13.07.2018 06:40 13,8 C 22,2 C 13,3 C 89 % 1017,5 hPa 0,0 l/m 4,6 km/h (1 Bft) SW 235 1 min 0,000 mm 0,0 UV-I 137 W/m 12,0 C 13,8 C 6,4 km/h (2 Bft) 100,00 %
13.07.2018 06:41 13,8 C 22,2 C 13,3 C 89 % 1017,5 hPa 0,0 l/m 2,7 km/h (1 Bft) SW 235 1 min 0,000 mm 0,0 UV-I 139 W/m 12,0 C 13,8 C 3,2 km/h (1 Bft) 100,00 %
13.07.2018 06:42 13,8 C 22,2 C 13,3 C 89 % 1017,4 hPa 0,0 l/m 4,1 km/h (1 Bft) W-SW 254 1 min 0,000 mm 0,0 UV-I 142 W/m 12,0 C 13,8 C 6,4 km/h (2 Bft) 100,00 %
13.07.2018 06:43 13,8 C 22,2 C 13,3 C 89 % 1017,5 hPa 0,0 l/m 3,2 km/h (1 Bft) W-SW 254 1 min 0,000 mm 0,0 UV-I 145 W/m 12,0 C 13,8 C 4,8 km/h (1 Bft) 100,00 %
13.07.2018 06:44 13,8 C 22,2 C 13,3 C 89 % 1017,5 hPa 0,0 l/m 3,8 km/h (1 Bft) W-SW 248 1 min 0,000 mm 0,0 UV-I 147 W/m 12,0 C 13,8 C 4,8 km/h (1 Bft) 100,00 %
13.07.2018 06:45 13,9 C 22,2 C 13,9 C 89 % 1017,5 hPa 0,0 l/m 3,7 km/h (1 Bft) W-SW 248 1 min 0,000 mm 0,0 UV-I 149 W/m 12,1 C 13,9 C 4,8 km/h (1 Bft) 100,00 %
13.07.2018 06:46 13,9 C 22,2 C 13,9 C 89 % 1017,5 hPa 0,0 l/m 2,9 km/h (1 Bft) W-SW 247 1 min 0,000 mm 0,0 UV-I 153 W/m 12,1 C 13,9 C 4,8 km/h (1 Bft) 100,00 %
13.07.2018 06:47 13,9 C 22,2 C 13,9 C 89 % 1017,5 hPa 0,0 l/m 3,8 km/h (1 Bft) W-SW 246 1 min 0,000 mm 0,0 UV-I 156 W/m 12,1 C 13,9 C 4,8 km/h (1 Bft) 100,00 %
13.07.2018 06:48 13,9 C 22,2 C 13,9 C 89 % 1017,4 hPa 0,0 l/m 4,3 km/h (1 Bft) SW 215 1 min 0,000 mm 0,0 UV-I 159 W/m 12,1 C 13,9 C 6,4 km/h (2 Bft) 100,00 %
13.07.2018 06:49 14,0 C 22,2 C 13,9 C 89 % 1017,5 hPa 0,0 l/m 6,5 km/h (2 Bft) SW 218 1 min 0,000 mm 0,0 UV-I 161 W/m 12,2 C 14,0 C 8,0 km/h (2 Bft) 95,65 %
13.07.2018 06:50 14,1 C 22,2 C 13,9 C 89 % 1017,5 hPa 0,0 l/m 6,6 km/h (2 Bft) SW 232 1 min 0,000 mm 0,0 UV-I 163 W/m 12,3 C 14,0 C 8,0 km/h (2 Bft) 100,00 %
13.07.2018 06:51 14,2 C 22,2 C 13,9 C 89 % 1017,4 hPa 0,0 l/m 5,2 km/h (1 Bft) SW 215 1 min 0,000 mm 0,0 UV-I 166 W/m 12,4 C 14,2 C 6,4 km/h (2 Bft) 100,00 %
13.07.2018 06:52 14,2 C 22,2 C 13,9 C 89 % 1017,5 hPa 0,0 l/m 4,7 km/h (1 Bft) S-SW 209 1 min 0,000 mm 0,0 UV-I 169 W/m 12,4 C 14,2 C 8,0 km/h (2 Bft) 93,33 %
13.07.2018 06:53 14,3 C 22,2 C 13,9 C 89 % 1017,5 hPa 0,0 l/m 6,2 km/h (2 Bft) W-SW 241 1 min 0,000 mm 0,0 UV-I 172 W/m 12,5 C 14,3 C 8,0 km/h (2 Bft) 100,00 %
13.07.2018 06:54 14,4 C 22,2 C 14,4 C 89 % 1017,5 hPa 0,0 l/m 4,6 km/h (1 Bft) SW 216 1 min 0,000 mm 0,0 UV-I 175 W/m 12,6 C 14,4 C 6,4 km/h (2 Bft) 100,00 %
13.07.2018 06:55 14,4 C 22,2 C 14,4 C 88 % 1017,5 hPa 0,0 l/m 4,7 km/h (1 Bft) SW 229 1 min 0,000 mm 0,0 UV-I 177 W/m 12,4 C 14,4 C 6,4 km/h (2 Bft) 100,00 %
13.07.2018 06:56 14,5 C 22,2 C 14,4 C 88 % 1017,5 hPa 0,0 l/m 5,6 km/h (1 Bft) W-SW 239 1 min 0,000 mm 0,0 UV-I 179 W/m 12,5 C 14,5 C 8,0 km/h (2 Bft) 86,96 %
13.07.2018 06:57 14,6 C 22,2 C 14,4 C 88 % 1017,5 hPa 0,0 l/m 5,8 km/h (2 Bft) SW 235 1 min 0,000 mm 0,0 UV-I 180 W/m 12,6 C 14,6 C 8,0 km/h (2 Bft) 96,30 %
13.07.2018 06:58 14,6 C 22,2 C 14,4 C 88 % 1017,5 hPa 0,0 l/m 5,9 km/h (2 Bft) SW 233 1 min 0,000 mm 0,0 UV-I 185 W/m 12,6 C 14,6 C 8,0 km/h (2 Bft) 96,55 %
13.07.2018 06:59 14,7 C 22,2 C 14,4 C 87 % 1017,5 hPa 0,0 l/m 6,8 km/h (2 Bft) S-SW 210 1 min 0,000 mm 0,0 UV-I 186 W/m 12,6 C 14,5 C 9,7 km/h (2 Bft) 100,00 %
13.07.2018 07:00 14,7 C 22,2 C 14,4 C 87 % 1017,5 hPa 0,0 l/m 7,3 km/h (2 Bft) SW 225 1 min 0,076 mm 0,0 UV-I 189 W/m 12,6 C 14,2 C 11,3 km/h (2 Bft) 96,15 %
13.07.2018 07:01 14,8 C 22,2 C 14,4 C 87 % 1017,5 hPa 0,0 l/m 7,2 km/h (2 Bft) SW 214 1 min 0,000 mm 0,0 UV-I 192 W/m 12,7 C 14,3 C 9,7 km/h (2 Bft) 100,00 %
13.07.2018 07:02 14,8 C 22,2 C 14,4 C 87 % 1017,5 hPa 0,0 l/m 6,7 km/h (2 Bft) SW 224 1 min 0,000 mm 0,0 UV-I 194 W/m 12,7 C 14,6 C 9,7 km/h (2 Bft) 92,31 %
13.07.2018 07:03 14,8 C 22,2 C 14,4 C 87 % 1017,5 hPa 0,0 l/m 6,4 km/h (2 Bft) S-SW 212 1 min 0,000 mm 0,0 UV-I 197 W/m 12,7 C 14,8 C 8,0 km/h (2 Bft) 96,30 %
13.07.2018 07:04 14,9 C 22,2 C 14,4 C 87 % 1017,5 hPa 0,0 l/m 6,8 km/h (2 Bft) S-SW 207 1 min 0,000 mm 0,0 UV-I 201 W/m 12,8 C 14,7 C 8,0 km/h (2 Bft) 85,71 %
13.07.2018 07:05 14,9 C 22,2 C 15,0 C 87 % 1017,5 hPa 0,0 l/m 8,3 km/h (2 Bft) SW 214 1 min 0,000 mm 0,0 UV-I 204 W/m 12,8 C 13,8 C 9,7 km/h (2 Bft) 95,83 %
13.07.2018 07:06 14,9 C 22,2 C 15,0 C 86 % 1017,5 hPa 0,0 l/m 8,4 km/h (2 Bft) S-SW 207 1 min 0,000 mm 0,0 UV-I 206 W/m 12,6 C 13,8 C 9,7 km/h (2 Bft) 100,00 %
13.07.2018 07:07 15,1 C 22,2 C 15,0 C 86 % 1017,5 hPa 0,0 l/m 5,5 km/h (1 Bft) SW 223 1 min 0,000 mm 0,0 UV-I 209 W/m 12,8 C 15,1 C 8,0 km/h (2 Bft) 94,44 %
13.07.2018 07:08 15,1 C 22,2 C 15,0 C 86 % 1017,5 hPa 0,0 l/m 6,6 km/h (2 Bft) SW 221 1 min 0,000 mm 0,0 UV-I 212 W/m 12,8 C 15,0 C 9,7 km/h (2 Bft) 100,00 %
13.07.2018 07:09 15,2 C 22,2 C 15,0 C 86 % 1017,5 hPa 0,0 l/m 6,8 km/h (2 Bft) S-SW 208 1 min 0,000 mm 0,0 UV-I 216 W/m 12,9 C 15,0 C 9,7 km/h (2 Bft) 95,83 %
13.07.2018 07:10 15,3 C 22,2 C 15,0 C 86 % 1017,5 hPa 0,0 l/m 8,9 km/h (2 Bft) SW 223 1 min 0,000 mm 0,0 UV-I 218 W/m 13,0 C 14,0 C 11,3 km/h (2 Bft) 100,00 %
13.07.2018 07:11 15,3 C 22,2 C 15,0 C 86 % 1017,5 hPa 0,0 l/m 9,1 km/h (2 Bft) S-SW 211 1 min 0,000 mm 0,0 UV-I 219 W/m 13,0 C 13,9 C 12,9 km/h (3 Bft) 96,30 %
13.07.2018 07:12 15,3 C 22,2 C 15,0 C 85 % 1017,5 hPa 0,0 l/m 8,6 km/h (2 Bft) S-SW 203 1 min 0,000 mm 0,0 UV-I 220 W/m 12,8 C 14,1 C 12,9 km/h (3 Bft) 100,00 %
13.07.2018 07:13 15,4 C 22,2 C 15,0 C 85 % 1017,5 hPa 0,0 l/m 7,0 km/h (2 Bft) SW 222 1 min 0,000 mm 0,0 UV-I 221 W/m 12,9 C 15,1 C 11,3 km/h (2 Bft) 91,67 %
13.07.2018 07:14 15,4 C 22,2 C 15,0 C 85 % 1017,5 hPa 0,0 l/m 8,3 km/h (2 Bft) S-SW 213 1 min 0,000 mm 0,0 UV-I 226 W/m 12,9 C 14,4 C 12,9 km/h (3 Bft) 100,00 %
13.07.2018 07:15 15,4 C 22,2 C 15,6 C 85 % 1017,5 hPa 0,0 l/m 8,7 km/h (2 Bft) SW 214 1 min 0,000 mm 0,3 UV-I 230 W/m 12,9 C 14,2 C 12,9 km/h (3 Bft) 95,65 %
13.07.2018 07:16 15,4 C 22,2 C 15,6 C 84 % 1017,5 hPa 0,0 l/m 7,6 km/h (2 Bft) SW 231 1 min 0,000 mm 0,5 UV-I 234 W/m 12,7 C 14,7 C 12,9 km/h (3 Bft) 100,00 %
13.07.2018 07:17 15,5 C 22,2 C 15,6 C 84 % 1017,5 hPa 0,0 l/m 8,0 km/h (2 Bft) SW 221 1 min 0,000 mm 0,5 UV-I 240 W/m 12,8 C 14,6 C 14,5 km/h (3 Bft) 96,55 %
13.07.2018 07:18 15,6 C 22,2 C 15,6 C 84 % 1017,5 hPa 0,0 l/m 10,3 km/h (2 Bft) SW 231 1 min 0,000 mm 0,5 UV-I 245 W/m 12,9 C 13,7 C 14,5 km/h (3 Bft) 100,00 %
13.07.2018 07:19 15,7 C 22,2 C 15,6 C 85 % 1017,5 hPa 0,0 l/m 8,8 km/h (2 Bft) S-SW 210 1 min 0,000 mm 0,5 UV-I 245 W/m 13,2 C 14,4 C 12,9 km/h (3 Bft) 100,00 %
13.07.2018 07:20 15,7 C 22,2 C 15,6 C 84 % 1017,5 hPa 0,0 l/m 8,9 km/h (2 Bft) SW 215 1 min 0,000 mm 0,5 UV-I 247 W/m 13,0 C 14,4 C 12,9 km/h (3 Bft) 100,00 %
13.07.2018 07:21 15,7 C 22,2 C 15,6 C 84 % 1017,5 hPa 0,0 l/m 8,6 km/h (2 Bft) W-SW 245 1 min 0,000 mm 0,5 UV-I 250 W/m 13,0 C 14,5 C 11,3 km/h (2 Bft) 100,00 %
13.07.2018 07:22 15,8 C 22,2 C 15,6 C 84 % 1017,5 hPa 0,0 l/m 8,0 km/h (2 Bft) W-SW 242 1 min 0,000 mm 0,5 UV-I 252 W/m 13,1 C 14,9 C 9,7 km/h (2 Bft) 96,30 %
13.07.2018 07:23 15,8 C 22,2 C 15,6 C 84 % 1017,6 hPa 0,0 l/m 6,0 km/h (2 Bft) SW 225 1 min 0,000 mm 0,5 UV-I 255 W/m 13,1 C 15,8 C 9,7 km/h (2 Bft) 100,00 %
13.07.2018 07:24 15,9 C 22,2 C 15,6 C 83 % 1017,5 hPa 0,0 l/m 8,9 km/h (2 Bft) SW 217 1 min 0,000 mm 0,5 UV-I 257 W/m 13,0 C 14,6 C 11,3 km/h (2 Bft) 100,00 %
13.07.2018 07:25 16,0 C 22,2 C 15,6 C 83 % 1017,5 hPa 0,0 l/m 6,9 km/h (2 Bft) W-SW 250 1 min 0,000 mm 0,5 UV-I 259 W/m 13,1 C 15,7 C 9,7 km/h (2 Bft) 100,00 %
13.07.2018 07:26 16,1 C 22,2 C 16,1 C 83 % 1017,5 hPa 0,0 l/m 9,5 km/h (2 Bft) W-SW 249 1 min 0,000 mm 0,5 UV-I 261 W/m 13,2 C 14,6 C 12,9 km/h (3 Bft) 100,00 %
13.07.2018 07:27 16,1 C 22,2 C 16,1 C 83 % 1017,5 hPa 0,0 l/m 8,1 km/h (2 Bft) W-SW 241 1 min 0,000 mm 0,6 UV-I 265 W/m 13,2 C 15,2 C 12,9 km/h (3 Bft) 100,00 %
13.07.2018 07:28 16,2 C 22,2 C 16,1 C 83 % 1017,5 hPa 0,0 l/m 10,0 km/h (2 Bft) W-SW 243 1 min 0,000 mm 0,6 UV-I 266 W/m 13,3 C 14,4 C 14,5 km/h (3 Bft) 100,00 %
13.07.2018 07:29 16,2 C 22,2 C 16,1 C 83 % 1017,5 hPa 0,0 l/m 9,8 km/h (2 Bft) S-SW 212 1 min 0,000 mm 0,6 UV-I 269 W/m 13,3 C 14,5 C 14,5 km/h (3 Bft) 91,30 %
13.07.2018 07:30 16,2 C 22,2 C 16,1 C 83 % 1017,5 hPa 0,0 l/m 9,2 km/h (2 Bft) W-SW 251 1 min 0,000 mm 0,6 UV-I 249 W/m 13,3 C 14,8 C 17,7 km/h (3 Bft) 100,00 %
13.07.2018 07:31 16,3 C 22,2 C 16,1 C 82 % 1017,5 hPa 0,0 l/m 10,3 km/h (2 Bft) W 264 0 min 0,000 mm 0,6 UV-I 175 W/m 13,2 C 14,4 C 14,5 km/h (3 Bft) 100,00 %
13.07.2018 07:32 16,3 C 22,2 C 16,1 C 82 % 1017,5 hPa 0,0 l/m 11,5 km/h (2 Bft) W 268 0 min 0,000 mm 0,5 UV-I 113 W/m 13,2 C 14,0 C 16,1 km/h (3 Bft) 100,00 %
13.07.2018 07:33 16,2 C 22,2 C 16,1 C 82 % 1017,5 hPa 0,0 l/m 11,8 km/h (2 Bft) SW 234 0 min 0,000 mm 0,6 UV-I 139 W/m 13,1 C 13,7 C 14,5 km/h (3 Bft) 100,00 %
13.07.2018 07:34 16,2 C 22,2 C 16,1 C 82 % 1017,5 hPa 0,0 l/m 11,2 km/h (2 Bft) S-SW 205 0 min 0,000 mm 0,6 UV-I 141 W/m 13,1 C 14,0 C 16,1 km/h (3 Bft) 100,00 %
13.07.2018 07:35 16,2 C 22,2 C 16,1 C 82 % 1017,5 hPa 0,0 l/m 7,3 km/h (2 Bft) S-SW 211 0 min 0,000 mm 0,6 UV-I 117 W/m 13,1 C 15,7 C 9,7 km/h (2 Bft) 100,00 %
13.07.2018 07:36 16,2 C 22,2 C 16,1 C 82 % 1017,5 hPa 0,0 l/m 10,3 km/h (2 Bft) W-SW 244 0 min 0,000 mm 0,6 UV-I 89 W/m 13,1 C 14,3 C 12,9 km/h (3 Bft) 96,15 %
13.07.2018 07:38 16,1 C 22,2 C 16,1 C 82 % 1017,5 hPa 0,0 l/m 10,4 km/h (2 Bft) SW 215 0 min 0,000 mm 0,6 UV-I 90 W/m 13,0 C 14,2 C 14,5 km/h (3 Bft) 98,00 %
13.07.2018 07:39 16,1 C 22,2 C 16,1 C 82 % 1017,5 hPa 0,0 l/m 11,2 km/h (2 Bft) W-SW 250 0 min 0,000 mm 0,6 UV-I 93 W/m 13,0 C 13,8 C 14,5 km/h (3 Bft) 100,00 %
13.07.2018 07:40 16,1 C 22,2 C 16,1 C 82 % 1017,5 hPa 0,0 l/m 9,1 km/h (2 Bft) SW 229 0 min 0,000 mm 0,6 UV-I 99 W/m 13,0 C 14,7 C 14,5 km/h (3 Bft) 100,00 %
13.07.2018 07:41 16,1 C 22,2 C 16,1 C 82 % 1017,5 hPa 0,0 l/m 9,5 km/h (2 Bft) SW 215 0 min 0,000 mm 0,6 UV-I 133 W/m 13,0 C 14,6 C 12,9 km/h (3 Bft) 100,00 %
13.07.2018 07:42 16,1 C 22,2 C 16,1 C 82 % 1017,5 hPa 0,0 l/m 11,1 km/h (2 Bft) W-SW 240 0 min 0,000 mm 0,6 UV-I 130 W/m 13,0 C 13,9 C 14,5 km/h (3 Bft) 100,00 %
13.07.2018 07:43 16,1 C 22,2 C 16,1 C 82 % 1017,5 hPa 0,0 l/m 9,7 km/h (2 Bft) S-SW 211 0 min 0,000 mm 0,6 UV-I 99 W/m 13,0 C 14,5 C 14,5 km/h (3 Bft) 100,00 %
13.07.2018 07:44 16,2 C 22,2 C 16,1 C 82 % 1017,5 hPa 0,0 l/m 7,7 km/h (2 Bft) W-SW 244 0 min 0,000 mm 0,6 UV-I 100 W/m 13,1 C 15,5 C 11,3 km/h (2 Bft) 95,65 %
13.07.2018 07:45 16,2 C 22,2 C 16,1 C 82 % 1017,5 hPa 0,0 l/m 9,8 km/h (2 Bft) SW 225 0 min 0,000 mm 0,6 UV-I 106 W/m 13,1 C 14,5 C 14,5 km/h (3 Bft) 100,00 %
13.07.2018 07:46 16,2 C 22,2 C 16,1 C 82 % 1017,4 hPa 0,0 l/m 7,2 km/h (2 Bft) W-SW 240 0 min 0,000 mm 0,6 UV-I 113 W/m 13,1 C 15,8 C 9,7 km/h (2 Bft) 100,00 %
13.07.2018 07:47 16,2 C 22,2 C 16,1 C 83 % 1017,5 hPa 0,0 l/m 10,5 km/h (2 Bft) W-SW 246 0 min 0,000 mm 0,6 UV-I 117 W/m 13,3 C 14,2 C 19,3 km/h (3 Bft) 100,00 %
13.07.2018 07:48 16,2 C 22,2 C 16,1 C 82 % 1017,4 hPa 0,0 l/m 10,5 km/h (2 Bft) SW 227 0 min 0,000 mm 0,6 UV-I 120 W/m 13,1 C 14,2 C 17,7 km/h (3 Bft) 96,15 %
13.07.2018 07:49 16,2 C 22,2 C 16,7 C 82 % 1017,4 hPa 0,0 l/m 8,5 km/h (2 Bft) SW 227 0 min 0,000 mm 0,7 UV-I 129 W/m 13,1 C 15,1 C 16,1 km/h (3 Bft) 100,00 %
13.07.2018 07:50 16,2 C 22,2 C 16,7 C 82 % 1017,4 hPa 0,0 l/m 10,9 km/h (2 Bft) SW 223 0 min 0,000 mm 0,8 UV-I 134 W/m 13,1 C 14,1 C 14,5 km/h (3 Bft) 100,00 %
13.07.2018 07:51 16,3 C 22,2 C 16,7 C 83 % 1017,4 hPa 0,0 l/m 9,5 km/h (2 Bft) SW 231 0 min 0,000 mm 0,7 UV-I 142 W/m 13,4 C 14,8 C 14,5 km/h (3 Bft) 100,00 %
13.07.2018 07:52 16,3 C 22,2 C 16,7 C 82 % 1017,5 hPa 0,0 l/m 10,5 km/h (2 Bft) W 277 0 min 0,000 mm 0,7 UV-I 174 W/m 13,2 C 14,3 C 16,1 km/h (3 Bft) 100,00 %
13.07.2018 07:53 16,4 C 22,2 C 16,7 C 82 % 1017,5 hPa 0,0 l/m 11,0 km/h (2 Bft) SW 227 0 min 0,000 mm 0,7 UV-I 174 W/m 13,3 C 14,3 C 14,5 km/h (3 Bft) 100,00 %
13.07.2018 07:54 16,4 C 22,2 C 16,7 C 82 % 1017,4 hPa 0,0 l/m 10,7 km/h (2 Bft) W-SW 242 0 min 0,000 mm 0,7 UV-I 143 W/m 13,3 C 14,4 C 14,5 km/h (3 Bft) 100,00 %
13.07.2018 07:55 16,4 C 22,2 C 16,7 C 82 % 1017,4 hPa 0,0 l/m 9,9 km/h (2 Bft) S-SW 207 0 min 0,000 mm 0,7 UV-I 123 W/m 13,3 C 14,7 C 14,5 km/h (3 Bft) 100,00 %
13.07.2018 07:56 16,4 C 22,2 C 16,7 C 82 % 1017,4 hPa 0,0 l/m 11,5 km/h (2 Bft) SW 226 0 min 0,000 mm 0,7 UV-I 120 W/m 13,3 C 14,1 C 17,7 km/h (3 Bft) 100,00 %
13.07.2018 07:57 16,4 C 22,2 C 16,7 C 82 % 1017,5 hPa 0,0 l/m 7,9 km/h (2 Bft) SW 232 0 min 0,000 mm 0,7 UV-I 116 W/m 13,3 C 15,6 C 12,9 km/h (3 Bft) 91,30 %
13.07.2018 07:58 16,4 C 22,2 C 16,7 C 82 % 1017,4 hPa 0,0 l/m 7,9 km/h (2 Bft) W-SW 240 0 min 0,000 mm 0,7 UV-I 114 W/m 13,3 C 15,6 C 12,9 km/h (3 Bft) 100,00 %
13.07.2018 07:59 16,4 C 22,2 C 16,7 C 82 % 1017,5 hPa 0,0 l/m 7,8 km/h (2 Bft) W-SW 242 0 min 0,000 mm 0,7 UV-I 113 W/m 13,3 C 15,7 C 12,9 km/h (3 Bft) 95,65 %
13.07.2018 08:00 16,4 C 22,2 C 16,7 C 82 % 1017,5 hPa 0,0 l/m 6,6 km/h (2 Bft) W-SW 245 0 min 0,127 mm 0,8 UV-I 118 W/m 13,3 C 16,3 C 11,3 km/h (2 Bft) 95,83 %
13.07.2018 08:01 16,4 C 22,2 C 16,7 C 82 % 1017,5 hPa 0,0 l/m 6,2 km/h (2 Bft) W-SW 242 0 min 0,000 mm 0,8 UV-I 120 W/m 13,3 C 16,4 C 9,7 km/h (2 Bft) 91,30 %
13.07.2018 08:02 16,4 C 22,2 C 17,2 C 82 % 1017,5 hPa 0,0 l/m 7,7 km/h (2 Bft) SW 227 0 min 0,000 mm 0,8 UV-I 128 W/m 13,3 C 15,7 C 11,3 km/h (2 Bft) 100,00 %
13.07.2018 08:03 16,4 C 22,2 C 17,2 C 82 % 1017,5 hPa 0,0 l/m 9,9 km/h (2 Bft) SW 236 0 min 0,000 mm 0,9 UV-I 130 W/m 13,3 C 14,7 C 14,5 km/h (3 Bft) 92,31 %
13.07.2018 08:04 16,5 C 22,2 C 17,2 C 82 % 1017,5 hPa 0,0 l/m 8,9 km/h (2 Bft) W-SW 239 0 min 0,000 mm 0,9 UV-I 173 W/m 13,4 C 15,3 C 12,9 km/h (3 Bft) 100,00 %
13.07.2018 08:05 16,6 C 22,2 C 17,2 C 82 % 1017,5 hPa 0,0 l/m 6,1 km/h (2 Bft) W 259 1 min 0,000 mm 0,9 UV-I 271 W/m 13,5 C 16,6 C 9,7 km/h (2 Bft) 92,31 %
13.07.2018 08:06 16,7 C 22,2 C 17,8 C 83 % 1017,6 hPa 0,0 l/m 9,3 km/h (2 Bft) W 263 1 min 0,000 mm 1,0 UV-I 368 W/m 13,8 C 15,3 C 12,9 km/h (3 Bft) 96,30 %
13.07.2018 08:08 16,9 C 22,2 C 18,3 C 82 % 1017,5 hPa 0,0 l/m 8,6 km/h (2 Bft) W 279 2 min 0,000 mm 1,0 UV-I 404 W/m 13,8 C 15,8 C 12,9 km/h (3 Bft) 96,23 %
13.07.2018 08:09 17,0 C 22,2 C 18,3 C 81 % 1017,5 hPa 0,0 l/m 6,4 km/h (2 Bft) W-NW 287 1 min 0,000 mm 1,0 UV-I 369 W/m 13,7 C 17,0 C 9,7 km/h (2 Bft) 100,00 %
13.07.2018 08:10 17,1 C 22,2 C 18,3 C 81 % 1017,5 hPa 0,0 l/m 9,0 km/h (2 Bft) W 271 0 min 0,000 mm 0,9 UV-I 207 W/m 13,8 C 15,9 C 11,3 km/h (2 Bft) 88,46 %
13.07.2018 08:11 17,1 C 22,2 C 18,3 C 81 % 1017,5 hPa 0,0 l/m 7,2 km/h (2 Bft) W-SW 244 1 min 0,000 mm 1,0 UV-I 279 W/m 13,8 C 16,7 C 11,3 km/h (2 Bft) 100,00 %
13.07.2018 08:12 17,2 C 22,2 C 18,3 C 81 % 1017,5 hPa 0,0 l/m 5,4 km/h (1 Bft) W-NW 300 1 min 0,000 mm 1,0 UV-I 285 W/m 13,9 C 17,2 C 9,7 km/h (2 Bft) 92,31 %
13.07.2018 08:13 17,2 C 22,2 C 18,3 C 81 % 1017,5 hPa 0,0 l/m 9,1 km/h (2 Bft) W-SW 250 0 min 0,000 mm 1,0 UV-I 213 W/m 13,9 C 15,9 C 11,3 km/h (2 Bft) 95,83 %
13.07.2018 08:14 17,2 C 22,2 C 18,9 C 81 % 1017,5 hPa 0,0 l/m 7,4 km/h (2 Bft) W 259 0 min 0,000 mm 1,1 UV-I 211 W/m 13,9 C 16,7 C 11,3 km/h (2 Bft) 86,96 %
13.07.2018 08:15 17,3 C 22,2 C 18,9 C 81 % 1017,5 hPa 0,0 l/m 9,6 km/h (2 Bft) W 269 1 min 0,000 mm 1,1 UV-I 386 W/m 14,0 C 15,8 C 14,5 km/h (3 Bft) 91,67 %
13.07.2018 08:16 17,3 C 22,2 C 19,4 C 81 % 1017,5 hPa 0,0 l/m 7,7 km/h (2 Bft) W-SW 250 1 min 0,000 mm 1,1 UV-I 406 W/m 14,0 C 16,7 C 9,7 km/h (2 Bft) 100,00 %
13.07.2018 08:17 17,4 C 22,2 C 20,0 C 79 % 1017,5 hPa 0,0 l/m 8,8 km/h (2 Bft) W-SW 242 1 min 0,000 mm 1,2 UV-I 427 W/m 13,7 C 16,3 C 12,9 km/h (3 Bft) 95,83 %
13.07.2018 08:18 17,6 C 22,2 C 20,6 C 80 % 1017,5 hPa 0,0 l/m 7,6 km/h (2 Bft) W-SW 258 1 min 0,000 mm 1,2 UV-I 409 W/m 14,1 C 17,0 C 9,7 km/h (2 Bft) 91,30 %
13.07.2018 08:19 17,7 C 22,2 C 21,1 C 80 % 1017,5 hPa 0,0 l/m 10,1 km/h (2 Bft) SW 229 1 min 0,000 mm 1,2 UV-I 396 W/m 14,2 C 16,1 C 14,5 km/h (3 Bft) 91,67 %
13.07.2018 08:20 17,8 C 22,2 C 21,1 C 79 % 1017,5 hPa 0,0 l/m 6,9 km/h (2 Bft) SW 234 1 min 0,000 mm 1,2 UV-I 404 W/m 14,1 C 17,6 C 9,7 km/h (2 Bft) 96,55 %
13.07.2018 08:21 17,9 C 22,2 C 21,7 C 79 % 1017,5 hPa 0,0 l/m 10,9 km/h (2 Bft) W-SW 253 1 min 0,000 mm 1,2 UV-I 327 W/m 14,2 C 16,0 C 14,5 km/h (3 Bft) 83,33 %
13.07.2018 08:22 18,0 C 22,2 C 22,2 C 78 % 1017,6 hPa 0,0 l/m 10,4 km/h (2 Bft) W-SW 250 1 min 0,000 mm 1,3 UV-I 376 W/m 14,1 C 16,3 C 14,5 km/h (3 Bft) 96,88 %
13.07.2018 08:23 18,1 C 22,2 C 22,8 C 77 % 1017,6 hPa 0,0 l/m 8,0 km/h (2 Bft) W 259 1 min 0,000 mm 1,3 UV-I 440 W/m 14,0 C 17,4 C 9,7 km/h (2 Bft) 86,67 %
13.07.2018 08:24 18,1 C 22,2 C 23,3 C 78 % 1017,5 hPa 0,0 l/m 7,7 km/h (2 Bft) W 268 1 min 0,000 mm 1,3 UV-I 442 W/m 14,2 C 17,5 C 11,3 km/h (2 Bft) 93,10 %
13.07.2018 08:25 18,2 C 22,2 C 23,9 C 78 % 1017,5 hPa 0,0 l/m 7,8 km/h (2 Bft) SW 234 1 min 0,000 mm 1,3 UV-I 445 W/m 14,3 C 17,6 C 11,3 km/h (2 Bft) 91,67 %
13.07.2018 08:26 18,3 C 22,2 C 23,9 C 77 % 1017,6 hPa 0,0 l/m 8,1 km/h (2 Bft) W-SW 238 1 min 0,000 mm 1,3 UV-I 352 W/m 14,2 C 17,5 C 11,3 km/h (2 Bft) 96,15 %
13.07.2018 08:27 18,3 C 22,2 C 23,9 C 77 % 1017,6 hPa 0,0 l/m 10,4 km/h (2 Bft) SW 233 1 min 0,000 mm 1,3 UV-I 395 W/m 14,2 C 16,6 C 14,5 km/h (3 Bft) 92,59 %
13.07.2018 08:28 18,4 C 22,2 C 24,4 C 76 % 1017,6 hPa 0,0 l/m 6,8 km/h (2 Bft) W-SW 238 1 min 0,000 mm 1,3 UV-I 460 W/m 14,1 C 18,2 C 11,3 km/h (2 Bft) 95,65 %
13.07.2018 08:29 18,5 C 22,2 C 25,0 C 76 % 1017,6 hPa 0,0 l/m 6,1 km/h (2 Bft) W-SW 239 1 min 0,000 mm 1,3 UV-I 445 W/m 14,2 C 18,5 C 12,9 km/h (3 Bft) 95,83 %
13.07.2018 08:30 18,6 C 22,2 C 24,4 C 75 % 1017,6 hPa 0,0 l/m 10,7 km/h (2 Bft) W 263 1 min 0,000 mm 1,3 UV-I 436 W/m 14,1 C 16,8 C 14,5 km/h (3 Bft) 91,67 %
13.07.2018 08:31 18,6 C 22,2 C 23,9 C 75 % 1017,6 hPa 0,0 l/m 7,2 km/h (2 Bft) W-SW 246 0 min 0,000 mm 1,1 UV-I 211 W/m 14,1 C 18,2 C 8,0 km/h (2 Bft) 93,10 %
13.07.2018 08:32 18,6 C 22,2 C 23,3 C 75 % 1017,6 hPa 0,0 l/m 8,4 km/h (2 Bft) S-SW 202 0 min 0,000 mm 1,2 UV-I 170 W/m 14,1 C 17,7 C 14,5 km/h (3 Bft) 96,30 %
13.07.2018 08:33 18,6 C 22,2 C 22,8 C 75 % 1017,6 hPa 0,0 l/m 8,6 km/h (2 Bft) SW 216 0 min 0,000 mm 1,2 UV-I 210 W/m 14,1 C 17,6 C 12,9 km/h (3 Bft) 96,15 %
13.07.2018 08:34 18,6 C 22,2 C 22,2 C 75 % 1017,6 hPa 0,0 l/m 6,8 km/h (2 Bft) SW 223 0 min 0,000 mm 1,1 UV-I 166 W/m 14,1 C 18,4 C 11,3 km/h (2 Bft) 93,33 %
13.07.2018 08:35 18,6 C 22,2 C 22,2 C 76 % 1017,6 hPa 0,0 l/m 8,8 km/h (2 Bft) SW 227 0 min 0,000 mm 1,2 UV-I 176 W/m 14,3 C 17,6 C 11,3 km/h (2 Bft) 96,15 %
13.07.2018 08:36 18,6 C 22,2 C 21,7 C 76 % 1017,6 hPa 0,0 l/m 6,8 km/h (2 Bft) W-SW 250 0 min 0,000 mm 1,1 UV-I 183 W/m 14,3 C 18,4 C 9,7 km/h (2 Bft) 96,30 %
13.07.2018 08:38 18,6 C 22,2 C 21,1 C 75 % 1017,7 hPa 0,0 l/m 9,6 km/h (2 Bft) S-SW 201 0 min 0,000 mm 1,1 UV-I 182 W/m 14,1 C 17,2 C 14,5 km/h (3 Bft) 92,00 %
13.07.2018 08:39 18,6 C 22,2 C 21,1 C 75 % 1017,7 hPa 0,0 l/m 12,3 km/h (3 Bft) W-SW 242 0 min 0,000 mm 1,1 UV-I 183 W/m 14,1 C 16,3 C 14,5 km/h (3 Bft) 95,65 %
13.07.2018 08:40 18,6 C 22,2 C 20,6 C 75 % 1017,6 hPa 0,0 l/m 10,0 km/h (2 Bft) SW 221 0 min 0,000 mm 1,1 UV-I 183 W/m 14,1 C 17,1 C 14,5 km/h (3 Bft) 95,83 %
13.07.2018 08:41 18,7 C 22,2 C 20,6 C 74 % 1017,7 hPa 0,0 l/m 10,1 km/h (2 Bft) S 185 0 min 0,000 mm 1,1 UV-I 196 W/m 14,0 C 17,2 C 16,1 km/h (3 Bft) 95,65 %
13.07.2018 08:42 18,7 C 22,2 C 20,6 C 74 % 1017,6 hPa 0,0 l/m 12,8 km/h (3 Bft) W-SW 257 0 min 0,000 mm 1,1 UV-I 210 W/m 14,0 C 16,3 C 17,7 km/h (3 Bft) 100,00 %
13.07.2018 08:43 18,7 C 22,2 C 20,6 C 73 % 1017,6 hPa 0,0 l/m 14,1 km/h (3 Bft) SW 229 0 min 0,000 mm 1,2 UV-I 223 W/m 13,8 C 15,9 C 17,7 km/h (3 Bft) 96,55 %
13.07.2018 08:44 18,7 C 22,2 C 20,6 C 73 % 1017,6 hPa 0,0 l/m 13,7 km/h (3 Bft) SW 236 0 min 0,000 mm 1,2 UV-I 229 W/m 13,8 C 16,0 C 19,3 km/h (3 Bft) 100,00 %
13.07.2018 08:45 18,7 C 22,2 C 20,6 C 73 % 1017,7 hPa 0,0 l/m 13,0 km/h (3 Bft) SW 225 0 min 0,000 mm 1,2 UV-I 233 W/m 13,8 C 16,2 C 17,7 km/h (3 Bft) 96,30 %
13.07.2018 08:46 18,7 C 22,2 C 20,6 C 73 % 1017,6 hPa 0,0 l/m 14,0 km/h (3 Bft) W-SW 258 0 min 0,000 mm 1,2 UV-I 238 W/m 13,8 C 15,9 C 17,7 km/h (3 Bft) 100,00 %
13.07.2018 08:47 18,7 C 22,2 C 20,6 C 73 % 1017,6 hPa 0,0 l/m 15,1 km/h (3 Bft) W-SW 246 0 min 0,000 mm 1,3 UV-I 246 W/m 13,8 C 15,6 C 20,9 km/h (4 Bft) 96,15 %
13.07.2018 08:48 18,8 C 22,2 C 20,6 C 72 % 1017,6 hPa 0,0 l/m 12,3 km/h (3 Bft) SW 235 0 min 0,000 mm 1,3 UV-I 252 W/m 13,6 C 16,6 C 16,1 km/h (3 Bft) 100,00 %
13.07.2018 08:49 18,8 C 22,2 C 21,1 C 72 % 1017,6 hPa 0,0 l/m 8,9 km/h (2 Bft) W-SW 238 0 min 0,000 mm 1,3 UV-I 262 W/m 13,6 C 17,7 C 14,5 km/h (3 Bft) 96,67 %
13.07.2018 08:50 18,8 C 22,2 C 21,1 C 73 % 1017,7 hPa 0,0 l/m 11,2 km/h (2 Bft) W-SW 253 0 min 0,000 mm 1,4 UV-I 268 W/m 13,9 C 16,9 C 12,9 km/h (3 Bft) 83,33 %
13.07.2018 08:51 18,8 C 22,2 C 21,1 C 72 % 1017,6 hPa 0,0 l/m 11,0 km/h (2 Bft) W-SW 240 0 min 0,000 mm 1,4 UV-I 261 W/m 13,6 C 17,0 C 16,1 km/h (3 Bft) 93,10 %
13.07.2018 08:52 18,9 C 22,2 C 21,7 C 72 % 1017,6 hPa 0,0 l/m 8,4 km/h (2 Bft) W-SW 243 0 min 0,000 mm 1,5 UV-I 250 W/m 13,7 C 18,0 C 14,5 km/h (3 Bft) 96,55 %
13.07.2018 08:53 18,9 C 22,2 C 21,7 C 72 % 1017,6 hPa 0,0 l/m 8,7 km/h (2 Bft) SW 221 0 min 0,000 mm 1,5 UV-I 250 W/m 13,7 C 17,9 C 16,1 km/h (3 Bft) 100,00 %
13.07.2018 08:54 19,0 C 22,2 C 21,7 C 73 % 1017,6 hPa 0,0 l/m 9,3 km/h (2 Bft) S-SW 205 0 min 0,000 mm 1,4 UV-I 250 W/m 14,0 C 17,8 C 12,9 km/h (3 Bft) 95,65 %
13.07.2018 08:55 19,1 C 22,2 C 22,8 C 72 % 1017,6 hPa 0,0 l/m 8,4 km/h (2 Bft) SW 229 1 min 0,000 mm 1,7 UV-I 385 W/m 13,9 C 18,2 C 14,5 km/h (3 Bft) 100,00 %
13.07.2018 08:56 19,1 C 22,2 C 22,8 C 72 % 1017,6 hPa 0,0 l/m 10,6 km/h (2 Bft) W 279 1 min 0,000 mm 1,5 UV-I 383 W/m 13,9 C 17,4 C 14,5 km/h (3 Bft) 100,00 %
13.07.2018 08:57 19,2 C 22,2 C 22,8 C 73 % 1017,7 hPa 0,0 l/m 8,9 km/h (2 Bft) S-SW 213 0 min 0,000 mm 1,5 UV-I 274 W/m 14,2 C 18,2 C 14,5 km/h (3 Bft) 96,55 %
13.07.2018 08:58 19,3 C 22,2 C 23,3 C 72 % 1017,6 hPa 0,0 l/m 11,8 km/h (2 Bft) W-SW 240 1 min 0,000 mm 1,8 UV-I 314 W/m 14,1 C 17,3 C 17,7 km/h (3 Bft) 100,00 %
13.07.2018 08:59 19,3 C 22,2 C 23,9 C 72 % 1017,6 hPa 0,0 l/m 9,4 km/h (2 Bft) SW 216 1 min 0,000 mm 1,7 UV-I 394 W/m 14,1 C 18,1 C 14,5 km/h (3 Bft) 100,00 %
13.07.2018 09:00 19,4 C 22,2 C 23,9 C 71 % 1017,6 hPa 0,0 l/m 13,4 km/h (3 Bft) SW 234 1 min 0,203 mm 1,7 UV-I 330 W/m 14,0 C 16,9 C 16,1 km/h (3 Bft) 100,00 %
13.07.2018 09:01 19,4 C 22,2 C 23,9 C 71 % 1017,6 hPa 0,0 l/m 10,7 km/h (2 Bft) S-SW 213 0 min 0,000 mm 1,6 UV-I 286 W/m 14,0 C 17,7 C 14,5 km/h (3 Bft) 100,00 %
13.07.2018 09:02 19,5 C 22,2 C 23,9 C 71 % 1017,6 hPa 0,0 l/m 6,4 km/h (2 Bft) W-SW 254 0 min 0,000 mm 1,9 UV-I 285 W/m 14,1 C 19,5 C 9,7 km/h (2 Bft) 100,00 %
13.07.2018 09:03 19,7 C 22,2 C 24,4 C 72 % 1017,6 hPa 0,0 l/m 8,0 km/h (2 Bft) S-SW 209 0 min 0,000 mm 1,6 UV-I 279 W/m 14,5 C 19,0 C 11,3 km/h (2 Bft) 100,00 %
13.07.2018 09:04 19,7 C 22,2 C 24,4 C 71 % 1017,6 hPa 0,0 l/m 5,8 km/h (2 Bft) W-SW 244 0 min 0,000 mm 1,6 UV-I 283 W/m 14,3 C 19,7 C 8,0 km/h (2 Bft) 100,00 %
13.07.2018 09:05 19,7 C 22,2 C 23,9 C 70 % 1017,6 hPa 0,0 l/m 10,9 km/h (2 Bft) W-SW 238 1 min 0,000 mm 1,6 UV-I 322 W/m 14,1 C 18,0 C 14,5 km/h (3 Bft) 100,00 %
13.07.2018 09:06 19,8 C 22,2 C 23,9 C 70 % 1017,6 hPa 0,0 l/m 5,6 km/h (1 Bft) S-SW 213 0 min 0,000 mm 1,6 UV-I 294 W/m 14,2 C 19,8 C 9,7 km/h (2 Bft) 100,00 %
13.07.2018 09:07 19,8 C 22,2 C 23,9 C 71 % 1017,6 hPa 0,0 l/m 7,8 km/h (2 Bft) W 262 0 min 0,000 mm 1,6 UV-I 281 W/m 14,4 C 19,2 C 11,3 km/h (2 Bft) 100,00 %
13.07.2018 09:08 19,8 C 22,2 C 23,9 C 71 % 1017,7 hPa 0,0 l/m 14,8 km/h (3 Bft) W-SW 249 0 min 0,000 mm 1,6 UV-I 283 W/m 14,4 C 17,1 C 19,3 km/h (3 Bft) 100,00 %
13.07.2018 09:09 19,9 C 22,2 C 23,3 C 69 % 1017,6 hPa 0,0 l/m 9,7 km/h (2 Bft) W-SW 250 0 min 0,000 mm 1,6 UV-I 289 W/m 14,0 C 18,6 C 14,5 km/h (3 Bft) 100,00 %
13.07.2018 09:10 19,9 C 22,2 C 23,3 C 69 % 1017,7 hPa 0,0 l/m 7,5 km/h (2 Bft) W-SW 246 0 min 0,000 mm 1,7 UV-I 298 W/m 14,0 C 19,4 C 11,3 km/h (2 Bft) 96,30 %
13.07.2018 09:11 19,9 C 22,2 C 23,9 C 70 % 1017,7 hPa 0,0 l/m 5,9 km/h (2 Bft) W-SW 247 1 min 0,000 mm 1,9 UV-I 347 W/m 14,3 C 19,9 C 9,7 km/h (2 Bft) 100,00 %
13.07.2018 09:13 19,9 C 22,2 C 24,4 C 69 % 1017,7 hPa 0,0 l/m 11,8 km/h (2 Bft) W-SW 249 2 min 0,000 mm 1,9 UV-I 460 W/m 14,0 C 18,0 C 16,1 km/h (3 Bft) 100,00 %
13.07.2018 09:14 20,0 C 22,2 C 24,4 C 68 % 1017,7 hPa 0,0 l/m 9,4 km/h (2 Bft) W-SW 246 1 min 0,000 mm 1,8 UV-I 429 W/m 13,9 C 18,8 C 11,3 km/h (2 Bft) 100,00 %
13.07.2018 09:15 20,1 C 22,2 C 24,4 C 69 % 1017,7 hPa 0,0 l/m 7,2 km/h (2 Bft) W-SW 246 1 min 0,000 mm 1,8 UV-I 330 W/m 14,2 C 19,8 C 14,5 km/h (3 Bft) 100,00 %
13.07.2018 09:16 20,1 C 22,2 C 24,4 C 69 % 1017,7 hPa 0,0 l/m 11,7 km/h (2 Bft) W 259 1 min 0,000 mm 1,9 UV-I 389 W/m 14,2 C 18,2 C 17,7 km/h (3 Bft) 100,00 %
13.07.2018 09:17 20,2 C 22,2 C 25,0 C 69 % 1017,7 hPa 0,0 l/m 6,7 km/h (2 Bft) W 267 1 min 0,000 mm 1,9 UV-I 353 W/m 14,3 C 20,1 C 11,3 km/h (2 Bft) 100,00 %
13.07.2018 09:18 20,2 C 22,2 C 25,0 C 68 % 1017,8 hPa 0,0 l/m 10,5 km/h (2 Bft) W-SW 257 1 min 0,000 mm 2,0 UV-I 338 W/m 14,1 C 18,7 C 11,3 km/h (2 Bft) 100,00 %
13.07.2018 09:19 20,3 C 22,2 C 24,4 C 67 % 1017,7 hPa 0,0 l/m 9,9 km/h (2 Bft) W 260 1 min 0,000 mm 1,9 UV-I 330 W/m 14,0 C 19,0 C 14,5 km/h (3 Bft) 100,00 %
13.07.2018 09:20 20,3 C 22,2 C 25,0 C 67 % 1017,7 hPa 0,0 l/m 12,0 km/h (2 Bft) W 275 1 min 0,000 mm 2,0 UV-I 334 W/m 14,0 C 18,4 C 16,1 km/h (3 Bft) 100,00 %
13.07.2018 09:21 20,3 C 22,2 C 24,4 C 67 % 1017,7 hPa 0,0 l/m 10,9 km/h (2 Bft) W 271 1 min 0,000 mm 2,0 UV-I 338 W/m 14,0 C 18,7 C 14,5 km/h (3 Bft) 100,00 %
13.07.2018 09:22 20,3 C 22,2 C 24,4 C 66 % 1017,7 hPa 0,0 l/m 12,0 km/h (2 Bft) W-SW 256 1 min 0,000 mm 2,0 UV-I 354 W/m 13,7 C 18,4 C 16,1 km/h (3 Bft) 100,00 %
13.07.2018 09:23 20,4 C 22,2 C 25,0 C 67 % 1017,7 hPa 0,0 l/m 6,6 km/h (2 Bft) W-SW 250 1 min 0,000 mm 2,0 UV-I 360 W/m 14,1 C 20,3 C 11,3 km/h (2 Bft) 100,00 %
13.07.2018 09:24 20,4 C 22,2 C 25,0 C 67 % 1017,7 hPa 0,0 l/m 9,4 km/h (2 Bft) W-SW 238 1 min 0,000 mm 2,1 UV-I 371 W/m 14,1 C 19,3 C 17,7 km/h (3 Bft) 100,00 %
13.07.2018 09:25 20,6 C 22,2 C 25,0 C 67 % 1017,7 hPa 0,0 l/m 8,6 km/h (2 Bft) W 269 1 min 0,000 mm 2,1 UV-I 377 W/m 14,3 C 19,8 C 14,5 km/h (3 Bft) 100,00 %
13.07.2018 09:26 20,6 C 22,2 C 25,0 C 67 % 1017,7 hPa 0,0 l/m 9,7 km/h (2 Bft) W-SW 257 1 min 0,000 mm 2,1 UV-I 392 W/m 14,3 C 19,4 C 12,9 km/h (3 Bft) 100,00 %
13.07.2018 09:27 20,7 C 22,2 C 25,6 C 66 % 1017,7 hPa 0,0 l/m 7,4 km/h (2 Bft) W-SW 250 1 min 0,000 mm 2,3 UV-I 413 W/m 14,1 C 20,3 C 12,9 km/h (3 Bft) 100,00 %
13.07.2018 09:28 20,8 C 22,2 C 26,7 C 66 % 1017,8 hPa 0,0 l/m 10,6 km/h (2 Bft) W 263 1 min 0,000 mm 2,4 UV-I 413 W/m 14,2 C 19,3 C 16,1 km/h (3 Bft) 100,00 %
13.07.2018 09:29 20,8 C 22,2 C 27,8 C 64 % 1017,8 hPa 0,0 l/m 9,5 km/h (2 Bft) W-SW 250 1 min 0,000 mm 2,6 UV-I 413 W/m 13,7 C 19,7 C 12,9 km/h (3 Bft) 100,00 %
13.07.2018 09:30 20,9 C 22,2 C 28,3 C 64 % 1017,8 hPa 0,0 l/m 4,3 km/h (1 Bft) W-NW 286 1 min 0,000 mm 2,4 UV-I 413 W/m 13,8 C 20,9 C 9,7 km/h (2 Bft) 100,00 %
13.07.2018 09:31 21,0 C 22,2 C 27,8 C 64 % 1017,8 hPa 0,0 l/m 7,1 km/h (2 Bft) W 267 1 min 0,000 mm 2,1 UV-I 397 W/m 13,9 C 20,7 C 11,3 km/h (2 Bft) 100,00 %
13.07.2018 09:32 21,0 C 22,2 C 27,2 C 65 % 1017,8 hPa 0,0 l/m 4,3 km/h (1 Bft) SW 231 0 min 0,000 mm 2,1 UV-I 345 W/m 14,2 C 21,0 C 6,4 km/h (2 Bft) 100,00 %
13.07.2018 09:33 20,9 C 22,2 C 27,2 C 64 % 1017,8 hPa 0,0 l/m 5,5 km/h (1 Bft) N-NW 346 1 min 0,000 mm 2,3 UV-I 359 W/m 13,8 C 20,9 C 9,7 km/h (2 Bft) 100,00 %
13.07.2018 09:34 20,9 C 22,2 C 26,7 C 65 % 1017,8 hPa 0,0 l/m 6,4 km/h (2 Bft) W 259 1 min 0,000 mm 2,2 UV-I 349 W/m 14,1 C 20,9 C 9,7 km/h (2 Bft) 100,00 %
13.07.2018 09:35 20,9 C 22,2 C 26,7 C 63 % 1017,8 hPa 0,0 l/m 7,5 km/h (2 Bft) W-SW 257 0 min 0,000 mm 2,1 UV-I 345 W/m 13,6 C 20,5 C 11,3 km/h (2 Bft) 95,83 %
13.07.2018 09:36 20,8 C 22,2 C 26,7 C 63 % 1017,8 hPa 0,0 l/m 6,4 km/h (2 Bft) W-NW 299 1 min 0,000 mm 2,2 UV-I 415 W/m 13,5 C 20,8 C 11,3 km/h (2 Bft) 100,00 %
13.07.2018 09:37 20,8 C 22,2 C 26,7 C 65 % 1017,8 hPa 0,0 l/m 4,0 km/h (1 Bft) W-SW 248 1 min 0,000 mm 2,3 UV-I 455 W/m 14,0 C 20,8 C 8,0 km/h (2 Bft) 100,00 %
13.07.2018 09:38 20,9 C 22,2 C 27,8 C 65 % 1017,8 hPa 0,0 l/m 6,5 km/h (2 Bft) W 265 1 min 0,000 mm 2,7 UV-I 555 W/m 14,1 C 20,9 C 9,7 km/h (2 Bft) 100,00 %
13.07.2018 09:39 20,9 C 22,2 C 28,9 C 64 % 1017,7 hPa 0,0 l/m 6,2 km/h (2 Bft) W 277 1 min 0,000 mm 2,9 UV-I 786 W/m 13,8 C 20,9 C 9,7 km/h (2 Bft) 100,00 %
13.07.2018 09:40 21,1 C 22,2 C 30,0 C 65 % 1017,7 hPa 0,0 l/m 5,8 km/h (2 Bft) W-NW 292 1 min 0,000 mm 3,0 UV-I 777 W/m 14,3 C 21,1 C 9,7 km/h (2 Bft) 100,00 %
13.07.2018 09:41 21,2 C 22,2 C 31,1 C 64 % 1017,7 hPa 0,0 l/m 7,6 km/h (2 Bft) W 262 1 min 0,000 mm 3,0 UV-I 762 W/m 14,1 C 20,8 C 12,9 km/h (3 Bft) 100,00 %
13.07.2018 09:42 21,3 C 22,2 C 31,7 C 66 % 1017,7 hPa 0,0 l/m 8,9 km/h (2 Bft) W 261 1 min 0,000 mm 3,1 UV-I 750 W/m 14,7 C 20,4 C 14,5 km/h (3 Bft) 96,67 %
13.07.2018 09:43 21,3 C 22,2 C 32,2 C 64 % 1017,7 hPa 0,0 l/m 12,0 km/h (2 Bft) W 265 1 min 0,000 mm 3,1 UV-I 743 W/m 14,2 C 19,5 C 14,5 km/h (3 Bft) 100,00 %
13.07.2018 09:44 21,4 C 22,2 C 32,2 C 62 % 1017,7 hPa 0,0 l/m 6,9 km/h (2 Bft) W-SW 254 1 min 0,000 mm 3,1 UV-I 741 W/m 13,8 C 21,2 C 9,7 km/h (2 Bft) 100,00 %
13.07.2018 09:45 21,5 C 22,2 C 32,8 C 65 % 1017,7 hPa 0,0 l/m 7,6 km/h (2 Bft) W-NW 290 1 min 0,000 mm 3,1 UV-I 743 W/m 14,6 C 21,1 C 11,3 km/h (2 Bft) 100,00 %
13.07.2018 09:46 21,5 C 22,2 C 32,8 C 61 % 1017,7 hPa 0,0 l/m 3,1 km/h (1 Bft) SW 234 1 min 0,000 mm 3,0 UV-I 703 W/m 13,7 C 21,5 C 4,8 km/h (1 Bft) 100,00 %
13.07.2018 09:47 21,5 C 22,2 C 33,3 C 62 % 1017,7 hPa 0,0 l/m 5,7 km/h (1 Bft) W 269 1 min 0,000 mm 3,1 UV-I 722 W/m 13,9 C 21,5 C 9,7 km/h (2 Bft) 100,00 %
13.07.2018 09:48 21,6 C 22,2 C 33,3 C 64 % 1017,7 hPa 0,0 l/m 8,9 km/h (2 Bft) W-NW 284 1 min 0,000 mm 3,2 UV-I 751 W/m 14,5 C 20,7 C 11,3 km/h (2 Bft) 95,83 %
13.07.2018 09:49 21,7 C 22,2 C 33,3 C 63 % 1017,7 hPa 0,0 l/m 12,5 km/h (3 Bft) W 278 1 min 0,000 mm 3,2 UV-I 746 W/m 14,3 C 19,9 C 17,7 km/h (3 Bft) 96,15 %
13.07.2018 09:50 21,7 C 22,2 C 32,2 C 62 % 1017,7 hPa 0,0 l/m 13,2 km/h (3 Bft) S-SW 205 1 min 0,000 mm 3,2 UV-I 731 W/m 14,1 C 19,7 C 19,3 km/h (3 Bft) 95,83 %
13.07.2018 09:51 21,6 C 22,2 C 32,2 C 63 % 1017,7 hPa 0,0 l/m 11,7 km/h (2 Bft) S-SW 201 1 min 0,000 mm 3,2 UV-I 733 W/m 14,2 C 19,9 C 16,1 km/h (3 Bft) 96,15 %
13.07.2018 09:52 21,7 C 22,2 C 32,2 C 61 % 1017,7 hPa 0,0 l/m 12,7 km/h (3 Bft) W 279 1 min 0,000 mm 3,3 UV-I 739 W/m 13,8 C 19,8 C 16,1 km/h (3 Bft) 95,83 %
13.07.2018 09:53 21,6 C 22,2 C 32,2 C 61 % 1017,7 hPa 0,0 l/m 7,4 km/h (2 Bft) W 275 1 min 0,000 mm 3,3 UV-I 744 W/m 13,7 C 21,2 C 11,3 km/h (2 Bft) 96,15 %
13.07.2018 09:54 21,4 C 22,2 C 32,8 C 62 % 1017,7 hPa 0,0 l/m 6,6 km/h (2 Bft) NW 305 1 min 0,000 mm 3,3 UV-I 746 W/m 13,8 C 21,3 C 11,3 km/h (2 Bft) 95,83 %
13.07.2018 09:55 21,6 C 22,2 C 33,3 C 63 % 1017,7 hPa 0,0 l/m 5,9 km/h (2 Bft) W 281 1 min 0,000 mm 3,3 UV-I 752 W/m 14,2 C 21,6 C 11,3 km/h (2 Bft) 95,65 %
13.07.2018 09:56 21,6 C 22,2 C 33,9 C 63 % 1017,7 hPa 0,0 l/m 10,6 km/h (2 Bft) W-SW 248 1 min 0,000 mm 3,2 UV-I 749 W/m 14,2 C 20,2 C 14,5 km/h (3 Bft) 95,83 %
13.07.2018 09:57 21,7 C 22,2 C 33,9 C 63 % 1017,7 hPa 0,0 l/m 9,9 km/h (2 Bft) W 266 1 min 0,000 mm 3,3 UV-I 752 W/m 14,3 C 20,5 C 12,9 km/h (3 Bft) 91,30 %
13.07.2018 09:58 21,7 C 22,2 C 33,3 C 63 % 1017,6 hPa 0,0 l/m 8,8 km/h (2 Bft) NW 304 1 min 0,000 mm 3,1 UV-I 752 W/m 14,3 C 20,9 C 14,5 km/h (3 Bft) 95,83 %
13.07.2018 09:59 21,7 C 22,2 C 33,3 C 62 % 1017,7 hPa 0,0 l/m 9,8 km/h (2 Bft) W-SW 258 1 min 0,000 mm 3,3 UV-I 752 W/m 14,1 C 20,6 C 14,5 km/h (3 Bft) 91,30 %
13.07.2018 10:00 21,7 C 22,2 C 32,8 C 64 % 1017,7 hPa 0,0 l/m 11,5 km/h (2 Bft) W-SW 244 1 min 0,356 mm 3,3 UV-I 809 W/m 14,6 C 20,1 C 16,1 km/h (3 Bft) 100,00 %
13.07.2018 10:02 21,8 C 22,2 C 33,3 C 62 % 1017,6 hPa 0,0 l/m 7,5 km/h (2 Bft) W-SW 250 2 min 0,000 mm 3,3 UV-I 809 W/m 14,2 C 21,4 C 14,5 km/h (3 Bft) 92,86 %
13.07.2018 10:03 21,8 C 22,2 C 33,3 C 62 % 1017,6 hPa 0,0 l/m 9,5 km/h (2 Bft) W 270 1 min 0,000 mm 3,3 UV-I 792 W/m 14,2 C 20,8 C 14,5 km/h (3 Bft) 95,83 %
13.07.2018 10:04 21,8 C 22,8 C 33,3 C 62 % 1017,7 hPa 0,0 l/m 9,4 km/h (2 Bft) W 259 1 min 0,000 mm 3,3 UV-I 780 W/m 14,2 C 20,8 C 16,1 km/h (3 Bft) 95,65 %
13.07.2018 10:05 21,9 C 22,2 C 32,8 C 62 % 1017,6 hPa 0,0 l/m 12,2 km/h (2 Bft) W-SW 250 1 min 0,000 mm 3,0 UV-I 780 W/m 14,3 C 20,2 C 16,1 km/h (3 Bft) 93,33 %
13.07.2018 10:06 21,8 C 22,2 C 32,2 C 61 % 1017,7 hPa 0,0 l/m 6,8 km/h (2 Bft) W-NW 292 1 min 0,000 mm 2,6 UV-I 780 W/m 13,9 C 21,7 C 14,5 km/h (3 Bft) 96,15 %
13.07.2018 10:07 21,7 C 22,2 C 31,1 C 61 % 1017,6 hPa 0,0 l/m 9,6 km/h (2 Bft) W 275 1 min 0,000 mm 2,1 UV-I 577 W/m 13,8 C 20,6 C 16,1 km/h (3 Bft) 96,30 %
13.07.2018 10:08 21,6 C 22,2 C 29,4 C 61 % 1017,6 hPa 0,0 l/m 11,0 km/h (2 Bft) W 277 0 min 0,000 mm 2,1 UV-I 273 W/m 13,7 C 20,1 C 17,7 km/h (3 Bft) 92,31 %
13.07.2018 10:09 21,5 C 22,2 C 28,3 C 62 % 1017,6 hPa 0,0 l/m 4,9 km/h (1 Bft) SW 235 0 min 0,000 mm 2,1 UV-I 274 W/m 13,9 C 21,5 C 6,4 km/h (2 Bft) 100,00 %
13.07.2018 10:10 21,4 C 22,2 C 27,8 C 62 % 1017,6 hPa 0,0 l/m 10,5 km/h (2 Bft) W 263 0 min 0,000 mm 2,0 UV-I 274 W/m 13,8 C 20,0 C 16,1 km/h (3 Bft) 85,71 %
13.07.2018 10:11 21,4 C 22,2 C 27,2 C 63 % 1017,6 hPa 0,0 l/m 10,9 km/h (2 Bft) W 269 0 min 0,000 mm 2,0 UV-I 272 W/m 14,1 C 19,9 C 14,5 km/h (3 Bft) 100,00 %
13.07.2018 10:12 21,4 C 22,2 C 26,7 C 63 % 1017,6 hPa 0,0 l/m 10,2 km/h (2 Bft) NW 305 0 min 0,000 mm 2,0 UV-I 273 W/m 14,1 C 20,1 C 16,1 km/h (3 Bft) 93,10 %
13.07.2018 10:13 21,4 C 22,2 C 26,1 C 64 % 1017,6 hPa 0,0 l/m 8,1 km/h (2 Bft) W 275 0 min 0,000 mm 2,0 UV-I 275 W/m 14,3 C 20,8 C 14,5 km/h (3 Bft) 100,00 %
13.07.2018 10:14 21,4 C 22,2 C 26,1 C 63 % 1017,6 hPa 0,0 l/m 5,8 km/h (2 Bft) N-NW 342 0 min 0,000 mm 2,1 UV-I 290 W/m 14,1 C 21,4 C 9,7 km/h (2 Bft) 94,12 %
13.07.2018 10:15 21,3 C 22,2 C 25,6 C 63 % 1017,6 hPa 0,0 l/m 5,3 km/h (1 Bft) W-NW 298 0 min 0,000 mm 2,1 UV-I 281 W/m 14,0 C 21,3 C 9,7 km/h (2 Bft) 96,30 %
13.07.2018 10:16 21,3 C 22,2 C 25,6 C 63 % 1017,6 hPa 0,0 l/m 7,0 km/h (2 Bft) N-NO 24 0 min 0,000 mm 2,2 UV-I 289 W/m 14,0 C 21,1 C 14,5 km/h (3 Bft) 100,00 %
13.07.2018 10:18 21,3 C 22,2 C 25,0 C 65 % 1017,6 hPa 0,0 l/m 3,8 km/h (1 Bft) N 11 0 min 0,000 mm 2,2 UV-I 300 W/m 14,4 C 21,3 C 8,0 km/h (2 Bft) 95,24 %
13.07.2018 10:19 21,4 C 22,2 C 25,0 C 65 % 1017,6 hPa 0,0 l/m 5,9 km/h (2 Bft) N-NO 18 0 min 0,000 mm 2,2 UV-I 308 W/m 14,5 C 21,4 C 11,3 km/h (2 Bft) 92,31 %
13.07.2018 10:20 21,4 C 22,2 C 25,0 C 64 % 1017,6 hPa 0,0 l/m 9,6 km/h (2 Bft) N-NW 348 0 min 0,000 mm 2,2 UV-I 318 W/m 14,3 C 20,3 C 12,9 km/h (3 Bft) 100,00 %
13.07.2018 10:21 21,3 C 22,2 C 25,0 C 67 % 1017,7 hPa 0,0 l/m 6,8 km/h (2 Bft) N-NO 27 0 min 0,000 mm 2,3 UV-I 333 W/m 14,9 C 21,2 C 8,0 km/h (2 Bft) 95,83 %
13.07.2018 10:22 21,3 C 22,2 C 25,0 C 68 % 1017,6 hPa 0,0 l/m 7,7 km/h (2 Bft) N-NO 21 0 min 0,000 mm 2,3 UV-I 348 W/m 15,1 C 20,8 C 12,9 km/h (3 Bft) 100,00 %
13.07.2018 10:23 21,3 C 22,2 C 25,0 C 69 % 1017,7 hPa 0,0 l/m 12,7 km/h (3 Bft) N 9 0 min 0,000 mm 2,3 UV-I 360 W/m 15,4 C 19,4 C 16,1 km/h (3 Bft) 95,83 %
13.07.2018 10:24 21,2 C 22,2 C 25,0 C 69 % 1017,7 hPa 0,0 l/m 10,7 km/h (2 Bft) N-NO 15 0 min 0,000 mm 2,3 UV-I 365 W/m 15,3 C 19,8 C 14,5 km/h (3 Bft) 100,00 %
13.07.2018 10:25 21,2 C 22,2 C 25,0 C 69 % 1017,7 hPa 0,0 l/m 8,0 km/h (2 Bft) N-NO 25 0 min 0,000 mm 2,3 UV-I 360 W/m 15,3 C 20,6 C 11,3 km/h (2 Bft) 100,00 %
13.07.2018 10:26 21,2 C 22,2 C 25,0 C 69 % 1017,7 hPa 0,0 l/m 7,3 km/h (2 Bft) N-NO 24 0 min 0,000 mm 2,2 UV-I 285 W/m 15,3 C 20,9 C 9,7 km/h (2 Bft) 96,30 %
13.07.2018 10:27 21,2 C 22,2 C 25,0 C 69 % 1017,7 hPa 0,0 l/m 6,6 km/h (2 Bft) N 5 0 min 0,000 mm 2,2 UV-I 244 W/m 15,3 C 21,1 C 9,7 km/h (2 Bft) 95,65 %
13.07.2018 10:28 21,1 C 22,2 C 25,0 C 68 % 1017,8 hPa 0,0 l/m 6,6 km/h (2 Bft) NW 317 0 min 0,000 mm 2,1 UV-I 310 W/m 15,0 C 21,0 C 9,7 km/h (2 Bft) 96,30 %
13.07.2018 10:29 21,0 C 22,2 C 25,0 C 68 % 1017,7 hPa 0,0 l/m 7,6 km/h (2 Bft) NW 311 0 min 0,000 mm 2,0 UV-I 311 W/m 14,9 C 20,5 C 9,7 km/h (2 Bft) 100,00 %
13.07.2018 10:30 20,8 C 22,2 C 25,0 C 68 % 1017,8 hPa 0,0 l/m 8,0 km/h (2 Bft) N-NO 30 0 min 0,000 mm 2,0 UV-I 300 W/m 14,7 C 20,2 C 12,9 km/h (3 Bft) 100,00 %
13.07.2018 10:31 20,7 C 22,2 C 24,4 C 69 % 1017,8 hPa 0,0 l/m 6,6 km/h (2 Bft) N-NO 13 0 min 0,000 mm 1,9 UV-I 292 W/m 14,8 C 20,6 C 12,9 km/h (3 Bft) 100,00 %
13.07.2018 10:32 20,6 C 22,2 C 24,4 C 70 % 1017,8 hPa 0,0 l/m 6,6 km/h (2 Bft) N 350 0 min 0,000 mm 1,9 UV-I 285 W/m 14,9 C 20,5 C 8,0 km/h (2 Bft) 100,00 %
13.07.2018 10:33 20,6 C 22,2 C 24,4 C 70 % 1017,8 hPa 0,0 l/m 4,4 km/h (1 Bft) N 355 0 min 0,000 mm 1,8 UV-I 278 W/m 14,9 C 20,6 C 6,4 km/h (2 Bft) 100,00 %
13.07.2018 10:34 20,6 C 22,2 C 24,4 C 70 % 1017,8 hPa 0,0 l/m 4,1 km/h (1 Bft) N-NO 16 0 min 0,000 mm 1,8 UV-I 270 W/m 14,9 C 20,6 C 8,0 km/h (2 Bft) 95,83 %
13.07.2018 10:35 20,6 C 22,2 C 24,4 C 70 % 1017,8 hPa 0,0 l/m 5,6 km/h (1 Bft) N 355 0 min 0,000 mm 1,8 UV-I 264 W/m 14,9 C 20,6 C 8,0 km/h (2 Bft) 100,00 %
13.07.2018 10:36 20,6 C 22,2 C 23,9 C 70 % 1017,8 hPa 0,0 l/m 9,3 km/h (2 Bft) N 9 0 min 0,000 mm 1,7 UV-I 257 W/m 14,9 C 19,5 C 14,5 km/h (3 Bft) 100,00 %
13.07.2018 10:37 20,5 C 22,2 C 23,9 C 70 % 1017,8 hPa 0,0 l/m 7,0 km/h (2 Bft) N-NW 347 0 min 0,000 mm 1,7 UV-I 253 W/m 14,8 C 20,3 C 8,0 km/h (2 Bft) 100,00 %
13.07.2018 10:38 20,4 C 22,2 C 23,9 C 69 % 1017,9 hPa 0,0 l/m 6,4 km/h (2 Bft) N 355 0 min 0,000 mm 1,7 UV-I 249 W/m 14,5 C 20,4 C 9,7 km/h (2 Bft) 100,00 %
13.07.2018 10:39 20,4 C 22,2 C 23,9 C 70 % 1017,8 hPa 0,0 l/m 6,3 km/h (2 Bft) N 11 0 min 0,000 mm 1,7 UV-I 247 W/m 14,7 C 20,4 C 8,0 km/h (2 Bft) 100,00 %
13.07.2018 10:40 20,4 C 22,2 C 23,9 C 70 % 1017,8 hPa 0,0 l/m 6,5 km/h (2 Bft) N-NO 19 0 min 0,000 mm 1,7 UV-I 246 W/m 14,7 C 20,4 C 8,0 km/h (2 Bft) 100,00 %
13.07.2018 10:41 20,4 C 22,2 C 23,3 C 70 % 1017,9 hPa 0,0 l/m 7,2 km/h (2 Bft) N-NO 20 0 min 0,000 mm 1,7 UV-I 248 W/m 14,7 C 20,1 C 8,0 km/h (2 Bft) 100,00 %
13.07.2018 10:42 20,4 C 22,2 C 23,3 C 70 % 1017,9 hPa 0,0 l/m 9,3 km/h (2 Bft) N-NO 18 0 min 0,000 mm 1,7 UV-I 251 W/m 14,7 C 19,3 C 12,9 km/h (3 Bft) 100,00 %
13.07.2018 10:43 20,5 C 22,2 C 23,3 C 70 % 1017,8 hPa 0,0 l/m 8,1 km/h (2 Bft) N-NO 23 0 min 0,000 mm 1,7 UV-I 257 W/m 14,8 C 19,8 C 11,3 km/h (2 Bft) 100,00 %
13.07.2018 10:44 20,5 C 22,2 C 23,3 C 70 % 1017,8 hPa 0,0 l/m 6,4 km/h (2 Bft) N-NO 27 0 min 0,000 mm 1,8 UV-I 265 W/m 14,8 C 20,5 C 8,0 km/h (2 Bft) 100,00 %
13.07.2018 10:45 20,5 C 22,2 C 23,3 C 70 % 1017,8 hPa 0,0 l/m 6,7 km/h (2 Bft) N-NO 15 0 min 0,000 mm 1,9 UV-I 272 W/m 14,8 C 20,4 C 8,0 km/h (2 Bft) 100,00 %
13.07.2018 10:46 20,6 C 22,2 C 23,3 C 70 % 1017,9 hPa 0,0 l/m 6,4 km/h (2 Bft) N-NO 20 0 min 0,000 mm 2,0 UV-I 278 W/m 14,9 C 20,6 C 8,0 km/h (2 Bft) 100,00 %
13.07.2018 10:47 20,6 C 22,2 C 23,3 C 70 % 1017,8 hPa 0,0 l/m 7,9 km/h (2 Bft) N-NO 29 0 min 0,000 mm 2,0 UV-I 286 W/m 14,9 C 20,0 C 11,3 km/h (2 Bft) 100,00 %
13.07.2018 10:48 20,6 C 22,2 C 23,9 C 70 % 1017,8 hPa 0,0 l/m 6,6 km/h (2 Bft) N-NO 23 0 min 0,000 mm 2,0 UV-I 289 W/m 14,9 C 20,5 C 8,0 km/h (2 Bft) 100,00 %
13.07.2018 10:49 20,6 C 22,2 C 23,9 C 70 % 1017,8 hPa 0,0 l/m 5,2 km/h (1 Bft) N-NO 15 0 min 0,000 mm 2,1 UV-I 292 W/m 14,9 C 20,6 C 6,4 km/h (2 Bft) 100,00 %
13.07.2018 10:50 20,6 C 22,2 C 23,9 C 69 % 1017,8 hPa 0,0 l/m 5,2 km/h (1 Bft) N-NO 15 0 min 0,000 mm 2,1 UV-I 292 W/m 14,7 C 20,6 C 6,4 km/h (2 Bft) 96,15 %
13.07.2018 10:51 20,6 C 22,2 C 23,9 C 70 % 1017,9 hPa 0,0 l/m 3,8 km/h (1 Bft) N 5 0 min 0,000 mm 2,2 UV-I 305 W/m 14,9 C 20,6 C 4,8 km/h (1 Bft) 95,83 %
13.07.2018 10:52 20,6 C 22,2 C 24,4 C 70 % 1017,9 hPa 0,0 l/m 5,1 km/h (1 Bft) N 10 0 min 0,000 mm 2,2 UV-I 317 W/m 14,9 C 20,6 C 6,4 km/h (2 Bft) 91,30 %
13.07.2018 10:53 20,7 C 22,2 C 24,4 C 70 % 1017,8 hPa 0,0 l/m 4,6 km/h (1 Bft) N-NO 14 0 min 0,000 mm 2,2 UV-I 324 W/m 15,0 C 20,7 C 6,4 km/h (2 Bft) 100,00 %
13.07.2018 10:54 20,7 C 22,2 C 25,0 C 70 % 1017,8 hPa 0,0 l/m 4,0 km/h (1 Bft) N-NO 12 0 min 0,000 mm 2,3 UV-I 330 W/m 15,0 C 20,7 C 6,4 km/h (2 Bft) 100,00 %
13.07.2018 10:55 20,7 C 22,2 C 25,0 C 69 % 1017,9 hPa 0,0 l/m 5,0 km/h (1 Bft) NW 314 0 min 0,000 mm 2,3 UV-I 333 W/m 14,8 C 20,7 C 6,4 km/h (2 Bft) 100,00 %
13.07.2018 10:56 20,8 C 22,2 C 25,6 C 68 % 1017,9 hPa 0,0 l/m 3,0 km/h (1 Bft) NW 311 0 min 0,000 mm 2,4 UV-I 340 W/m 14,7 C 20,8 C 4,8 km/h (1 Bft) 100,00 %
13.07.2018 10:58 20,8 C 22,2 C 26,1 C 69 % 1017,9 hPa 0,0 l/m 5,0 km/h (1 Bft) NW 322 0 min 0,000 mm 2,5 UV-I 361 W/m 14,9 C 20,8 C 6,4 km/h (2 Bft) 100,00 %
13.07.2018 10:59 20,8 C 22,2 C 26,1 C 67 % 1017,9 hPa 0,0 l/m 7,2 km/h (2 Bft) NW 307 0 min 0,000 mm 2,7 UV-I 396 W/m 14,4 C 20,5 C 8,0 km/h (2 Bft) 91,67 %
13.07.2018 11:00 20,8 C 22,2 C 26,1 C 67 % 1017,9 hPa 0,0 l/m 5,8 km/h (2 Bft) NW 309 0 min 0,000 mm 2,7 UV-I 391 W/m 14,4 C 20,8 C 8,0 km/h (2 Bft) 100,00 %
13.07.2018 11:02 20,7 C 22,2 C 26,1 C 67 % 1017,9 hPa 0,0 l/m 2,4 km/h (1 Bft) NW 309 0 min 0,228 mm 2,7 UV-I 390 W/m 14,3 C 20,7 C 4,8 km/h (1 Bft) 100,00 %
13.07.2018 11:03 20,7 C 22,2 C 26,7 C 67 % 1017,9 hPa 0,0 l/m 3,8 km/h (1 Bft) NW 325 0 min 0,000 mm 2,8 UV-I 392 W/m 14,3 C 20,7 C 6,4 km/h (2 Bft) 97,36 %
13.07.2018 11:04 20,7 C 22,2 C 26,7 C 66 % 1017,9 hPa 0,0 l/m 2,9 km/h (1 Bft) NW 323 0 min 0,000 mm 2,9 UV-I 398 W/m 14,1 C 20,7 C 4,8 km/h (1 Bft) 100,00 %
13.07.2018 11:05 20,8 C 22,2 C 26,7 C 66 % 1017,9 hPa 0,0 l/m 1,8 km/h (1 Bft) NW 324 0 min 0,000 mm 2,9 UV-I 405 W/m 14,2 C 20,8 C 3,2 km/h (1 Bft) 100,00 %
13.07.2018 11:06 20,8 C 22,2 C 27,2 C 68 % 1017,9 hPa 0,0 l/m 2,2 km/h (1 Bft) NW 324 0 min 0,000 mm 2,9 UV-I 409 W/m 14,7 C 20,8 C 3,2 km/h (1 Bft) 100,00 %
13.07.2018 11:07 20,9 C 22,2 C 27,2 C 67 % 1017,9 hPa 0,0 l/m 2,8 km/h (1 Bft) N 5 0 min 0,000 mm 2,9 UV-I 392 W/m 14,5 C 20,9 C 4,8 km/h (1 Bft) 100,00 %
13.07.2018 11:08 21,1 C 22,2 C 27,2 C 68 % 1017,9 hPa 0,0 l/m 3,0 km/h (1 Bft) N-NO 15 0 min 0,000 mm 2,9 UV-I 386 W/m 15,0 C 21,1 C 4,8 km/h (1 Bft) 97,39 %
13.07.2018 11:09 21,2 C 22,2 C 27,2 C 66 % 1017,9 hPa 0,0 l/m 1,2 km/h (1 Bft) N-NO 15 0 min 0,000 mm 2,9 UV-I 366 W/m 14,6 C 21,2 C 3,2 km/h (1 Bft) 100,00 %
13.07.2018 11:10 21,3 C 22,2 C 27,8 C 67 % 1017,9 hPa 0,0 l/m 2,8 km/h (1 Bft) NW 326 0 min 0,000 mm 2,9 UV-I 418 W/m 14,9 C 21,3 C 4,8 km/h (1 Bft) 100,00 %
13.07.2018 11:11 21,3 C 22,2 C 27,8 C 66 % 1017,9 hPa 0,0 l/m 2,8 km/h (1 Bft) NW 326 0 min 0,000 mm 2,9 UV-I 419 W/m 14,7 C 21,3 C 4,8 km/h (1 Bft) 95,65 %
13.07.2018 11:12 21,3 C 22,2 C 27,8 C 66 % 1017,9 hPa 0,0 l/m 1,3 km/h (1 Bft) W-SW 242 0 min 0,000 mm 3,0 UV-I 417 W/m 14,7 C 21,3 C 6,4 km/h (2 Bft) 100,00 %
13.07.2018 11:13 21,3 C 22,2 C 27,8 C 65 % 1017,9 hPa 0,0 l/m 3,5 km/h (1 Bft) W-SW 251 0 min 0,000 mm 3,2 UV-I 424 W/m 14,4 C 21,3 C 6,4 km/h (2 Bft) 96,15 %
13.07.2018 11:14 21,4 C 22,2 C 28,3 C 67 % 1017,9 hPa 0,0 l/m 1,6 km/h (1 Bft) W-SW 251 0 min 0,000 mm 3,3 UV-I 440 W/m 15,0 C 21,4 C 3,2 km/h (1 Bft) 91,67 %
13.07.2018 11:15 21,6 C 22,2 C 28,3 C 65 % 1017,8 hPa 0,0 l/m 2,3 km/h (1 Bft) W 281 1 min 0,000 mm 2,6 UV-I 454 W/m 14,7 C 21,6 C 4,8 km/h (1 Bft) 93,33 %
13.07.2018 11:16 21,6 C 22,2 C 28,3 C 63 % 1017,8 hPa 0,0 l/m 0,9 km/h (0 Bft) W 281 0 min 0,000 mm 3,1 UV-I 414 W/m 14,2 C 21,6 C 3,2 km/h (1 Bft) 100,00 %
13.07.2018 11:17 21,7 C 22,2 C 28,9 C 63 % 1017,9 hPa 0,0 l/m 2,7 km/h (1 Bft) W-SW 258 0 min 0,000 mm 3,5 UV-I 441 W/m 14,3 C 21,7 C 4,8 km/h (1 Bft) 100,00 %
13.07.2018 11:18 21,8 C 22,2 C 28,9 C 64 % 1017,8 hPa 0,0 l/m 4,5 km/h (1 Bft) W 266 1 min 0,000 mm 2,5 UV-I 479 W/m 14,7 C 21,8 C 6,4 km/h (2 Bft) 100,00 %
13.07.2018 11:19 21,8 C 22,2 C 28,9 C 64 % 1017,8 hPa 0,0 l/m 4,1 km/h (1 Bft) W 266 1 min 0,000 mm 2,9 UV-I 497 W/m 14,7 C 21,8 C 4,8 km/h (1 Bft) 91,67 %
13.07.2018 11:20 21,8 C 22,2 C 29,4 C 63 % 1017,8 hPa 0,0 l/m 3,7 km/h (1 Bft) W 261 1 min 0,000 mm 3,8 UV-I 507 W/m 14,4 C 21,8 C 4,8 km/h (1 Bft) 100,00 %
13.07.2018 11:21 21,9 C 22,2 C 29,4 C 64 % 1017,8 hPa 0,0 l/m 6,3 km/h (2 Bft) W-NW 296 1 min 0,000 mm 3,8 UV-I 501 W/m 14,8 C 21,9 C 12,9 km/h (3 Bft) 92,59 %
13.07.2018 11:22 21,9 C 22,2 C 29,4 C 62 % 1017,8 hPa 0,0 l/m 6,1 km/h (2 Bft) W-NW 296 1 min 0,000 mm 3,6 UV-I 455 W/m 14,3 C 21,9 C 11,3 km/h (2 Bft) 96,15 %
13.07.2018 11:23 21,9 C 22,2 C 28,9 C 62 % 1017,7 hPa 0,0 l/m 4,8 km/h (1 Bft) W-NW 294 0 min 0,000 mm 3,5 UV-I 380 W/m 14,3 C 21,9 C 6,4 km/h (2 Bft) 100,00 %
13.07.2018 11:24 21,9 C 22,8 C 28,9 C 62 % 1017,7 hPa 0,0 l/m 5,3 km/h (1 Bft) NW 309 0 min 0,000 mm 3,5 UV-I 320 W/m 14,3 C 21,9 C 8,0 km/h (2 Bft) 93,10 %
13.07.2018 11:25 21,9 C 22,8 C 28,3 C 63 % 1017,8 hPa 0,0 l/m 4,7 km/h (1 Bft) W 281 0 min 0,000 mm 3,5 UV-I 290 W/m 14,5 C 21,9 C 6,4 km/h (2 Bft) 100,00 %
13.07.2018 11:26 21,9 C 22,8 C 28,3 C 61 % 1017,8 hPa 0,0 l/m 4,2 km/h (1 Bft) W 262 0 min 0,000 mm 3,8 UV-I 427 W/m 14,0 C 21,9 C 6,4 km/h (2 Bft) 96,55 %
13.07.2018 11:27 21,9 C 22,8 C 28,9 C 62 % 1017,8 hPa 0,0 l/m 3,5 km/h (1 Bft) W 273 1 min 0,000 mm 3,9 UV-I 503 W/m 14,3 C 21,9 C 4,8 km/h (1 Bft) 100,00 %
13.07.2018 11:28 22,0 C 22,8 C 29,4 C 63 % 1017,8 hPa 0,0 l/m 3,0 km/h (1 Bft) W 267 1 min 0,000 mm 4,3 UV-I 589 W/m 14,6 C 22,0 C 4,8 km/h (1 Bft) 100,00 %
13.07.2018 11:29 22,2 C 22,8 C 30,6 C 65 % 1017,8 hPa 0,0 l/m 5,3 km/h (1 Bft) W 270 1 min 0,000 mm 5,1 UV-I 589 W/m 15,3 C 22,2 C 6,4 km/h (2 Bft) 96,55 %
13.07.2018 11:30 22,3 C 22,8 C 32,8 C 66 % 1017,7 hPa 0,0 l/m 9,8 km/h (2 Bft) W-SW 249 1 min 0,000 mm 5,9 UV-I 789 W/m 15,6 C 21,2 C 12,9 km/h (3 Bft) 96,15 %
13.07.2018 11:31 22,5 C 22,8 C 34,4 C 62 % 1017,7 hPa 0,0 l/m 11,7 km/h (2 Bft) W 263 1 min 0,000 mm 5,9 UV-I 1088 W/m 14,8 C 21,0 C 16,1 km/h (3 Bft) 100,00 %
13.07.2018 11:32 22,7 C 22,8 C 35,0 C 60 % 1017,7 hPa 0,0 l/m 10,2 km/h (2 Bft) W 259 1 min 0,000 mm 5,9 UV-I 1088 W/m 14,5 C 21,6 C 14,5 km/h (3 Bft) 96,30 %
13.07.2018 11:33 22,8 C 22,8 C 35,6 C 61 % 1017,7 hPa 0,0 l/m 6,2 km/h (2 Bft) W 281 1 min 0,000 mm 5,8 UV-I 1080 W/m 14,9 C 22,8 C 12,9 km/h (3 Bft) 96,15 %
13.07.2018 11:34 22,8 C 22,8 C 35,6 C 61 % 1017,7 hPa 0,0 l/m 6,6 km/h (2 Bft) W-SW 248 1 min 0,000 mm 5,4 UV-I 901 W/m 14,9 C 22,7 C 9,7 km/h (2 Bft) 96,30 %
13.07.2018 11:35 22,9 C 22,8 C 35,0 C 60 % 1017,7 hPa 0,0 l/m 4,4 km/h (1 Bft) W-NW 285 1 min 0,000 mm 5,4 UV-I 892 W/m 14,7 C 22,9 C 6,4 km/h (2 Bft) 100,00 %
13.07.2018 11:36 22,9 C 22,8 C 35,6 C 59 % 1017,7 hPa 0,0 l/m 7,3 km/h (2 Bft) W 278 1 min 0,000 mm 5,6 UV-I 854 W/m 14,5 C 22,6 C 11,3 km/h (2 Bft) 91,67 %
13.07.2018 11:37 23,1 C 22,8 C 36,1 C 60 % 1017,6 hPa 0,0 l/m 7,8 km/h (2 Bft) W 259 1 min 0,000 mm 5,9 UV-I 954 W/m 14,9 C 22,7 C 9,7 km/h (2 Bft) 100,00 %
13.07.2018 11:38 23,2 C 22,8 C 36,7 C 60 % 1017,6 hPa 0,0 l/m 6,6 km/h (2 Bft) W-SW 244 1 min 0,000 mm 5,8 UV-I 998 W/m 15,0 C 23,1 C 9,7 km/h (2 Bft) 91,67 %
13.07.2018 11:39 23,3 C 22,8 C 35,6 C 59 % 1017,7 hPa 0,0 l/m 12,3 km/h (3 Bft) W 269 1 min 0,000 mm 5,3 UV-I 995 W/m 14,8 C 21,8 C 16,1 km/h (3 Bft) 96,15 %
13.07.2018 11:40 23,4 C 22,8 C 35,6 C 60 % 1017,7 hPa 0,0 l/m 7,3 km/h (2 Bft) W-SW 252 1 min 0,000 mm 5,2 UV-I 916 W/m 15,2 C 23,1 C 14,5 km/h (3 Bft) 91,67 %
13.07.2018 11:41 23,4 C 22,8 C 35,6 C 59 % 1017,7 hPa 0,0 l/m 6,3 km/h (2 Bft) W 259 1 min 0,000 mm 5,1 UV-I 731 W/m 14,9 C 23,4 C 11,3 km/h (2 Bft) 93,10 %
13.07.2018 11:42 23,4 C 22,8 C 35,6 C 58 % 1017,7 hPa 0,0 l/m 9,3 km/h (2 Bft) W-SW 247 1 min 0,000 mm 5,6 UV-I 824 W/m 14,7 C 22,6 C 14,5 km/h (3 Bft) 96,30 %
13.07.2018 11:43 23,3 C 22,8 C 36,1 C 59 % 1017,7 hPa 0,0 l/m 11,9 km/h (2 Bft) W 277 1 min 0,000 mm 5,8 UV-I 973 W/m 14,8 C 21,9 C 14,5 km/h (3 Bft) 94,12 %
13.07.2018 11:44 23,3 C 22,8 C 36,1 C 57 % 1017,7 hPa 0,0 l/m 9,9 km/h (2 Bft) SW 236 1 min 0,000 mm 5,8 UV-I 973 W/m 14,3 C 22,3 C 12,9 km/h (3 Bft) 100,00 %
13.07.2018 11:45 23,2 C 22,8 C 35,6 C 57 % 1017,7 hPa 0,0 l/m 14,2 km/h (3 Bft) W-SW 251 1 min 0,000 mm 5,8 UV-I 957 W/m 14,2 C 21,3 C 19,3 km/h (3 Bft) 91,30 %
13.07.2018 11:46 23,2 C 22,8 C 35,6 C 56 % 1017,7 hPa 0,0 l/m 8,2 km/h (2 Bft) W-SW 257 1 min 0,000 mm 5,8 UV-I 942 W/m 13,9 C 22,7 C 11,3 km/h (2 Bft) 100,00 %
13.07.2018 11:47 23,2 C 22,8 C 36,1 C 58 % 1017,7 hPa 0,0 l/m 7,5 km/h (2 Bft) W 261 1 min 0,000 mm 5,8 UV-I 924 W/m 14,5 C 22,9 C 11,3 km/h (2 Bft) 92,31 %
13.07.2018 11:48 23,3 C 22,8 C 36,7 C 58 % 1017,7 hPa 0,0 l/m 5,9 km/h (2 Bft) W-NW 297 1 min 0,000 mm 5,7 UV-I 871 W/m 14,6 C 23,3 C 11,3 km/h (2 Bft) 95,83 %
13.07.2018 11:49 23,4 C 22,8 C 36,7 C 59 % 1017,6 hPa 0,0 l/m 4,8 km/h (1 Bft) S-SW 195 1 min 0,000 mm 5,7 UV-I 868 W/m 14,9 C 23,4 C 6,4 km/h (2 Bft) 86,96 %
13.07.2018 11:50 23,6 C 22,8 C 37,8 C 60 % 1017,6 hPa 0,0 l/m 4,5 km/h (1 Bft) S-SW 205 1 min 0,000 mm 5,6 UV-I 882 W/m 15,4 C 23,6 C 6,4 km/h (2 Bft) 95,83 %
13.07.2018 11:51 23,8 C 22,8 C 37,8 C 60 % 1017,6 hPa 0,0 l/m 6,6 km/h (2 Bft) W 279 1 min 0,000 mm 5,7 UV-I 882 W/m 15,6 C 23,7 C 14,5 km/h (3 Bft) 91,67 %
13.07.2018 11:52 23,9 C 22,8 C 37,2 C 59 % 1017,7 hPa 0,0 l/m 12,3 km/h (3 Bft) SW 230 1 min 0,000 mm 5,7 UV-I 878 W/m 15,4 C 22,5 C 20,9 km/h (4 Bft) 94,29 %
13.07.2018 11:53 23,8 C 22,8 C 36,1 C 53 % 1017,7 hPa 0,0 l/m 12,1 km/h (2 Bft) W 265 1 min 0,000 mm 5,7 UV-I 877 W/m 13,6 C 22,4 C 17,7 km/h (3 Bft) 93,33 %
13.07.2018 11:54 23,8 C 22,8 C 35,0 C 53 % 1017,7 hPa 0,0 l/m 9,0 km/h (2 Bft) W-SW 248 1 min 0,000 mm 5,8 UV-I 878 W/m 13,6 C 23,1 C 14,5 km/h (3 Bft) 96,15 %
13.07.2018 11:55 23,7 C 22,8 C 35,0 C 53 % 1017,7 hPa 0,0 l/m 9,2 km/h (2 Bft) W-NW 285 1 min 0,000 mm 5,8 UV-I 879 W/m 13,5 C 22,9 C 14,5 km/h (3 Bft) 92,31 %
13.07.2018 11:56 23,7 C 22,8 C 35,0 C 53 % 1017,7 hPa 0,0 l/m 10,4 km/h (2 Bft) W-NW 302 1 min 0,000 mm 5,8 UV-I 879 W/m 13,5 C 22,6 C 14,5 km/h (3 Bft) 91,67 %
13.07.2018 11:58 23,7 C 22,8 C 35,6 C 55 % 1017,6 hPa 0,0 l/m 9,2 km/h (2 Bft) W 260 2 min 0,000 mm 5,8 UV-I 874 W/m 14,1 C 22,9 C 17,7 km/h (3 Bft) 92,11 %
13.07.2018 11:59 23,8 C 22,8 C 35,6 C 55 % 1017,6 hPa 0,0 l/m 11,4 km/h (2 Bft) W 268 1 min 0,000 mm 5,8 UV-I 869 W/m 14,2 C 22,5 C 17,7 km/h (3 Bft) 93,33 %
13.07.2018 12:00 23,9 C 22,8 C 36,1 C 56 % 1017,6 hPa 0,0 l/m 8,9 km/h (2 Bft) S-SW 210 1 min 0,432 mm 5,8 UV-I 869 W/m 14,6 C 23,2 C 12,9 km/h (3 Bft) 100,00 %
13.07.2018 12:02 23,9 C 22,8 C 35,6 C 53 % 1017,6 hPa 0,0 l/m 11,7 km/h (2 Bft) S-SW 202 2 min 0,000 mm 5,8 UV-I 862 W/m 13,7 C 22,6 C 17,7 km/h (3 Bft) 94,00 %
13.07.2018 12:03 23,9 C 22,8 C 35,0 C 55 % 1017,6 hPa 0,0 l/m 6,9 km/h (2 Bft) SW 227 1 min 0,000 mm 5,8 UV-I 869 W/m 14,3 C 23,8 C 14,5 km/h (3 Bft) 95,83 %
13.07.2018 12:04 23,9 C 22,8 C 36,1 C 54 % 1017,6 hPa 0,0 l/m 3,2 km/h (1 Bft) SW 232 1 min 0,000 mm 5,9 UV-I 873 W/m 14,0 C 23,9 C 4,8 km/h (1 Bft) 100,00 %
13.07.2018 12:05 23,9 C 22,8 C 36,7 C 54 % 1017,6 hPa 0,0 l/m 11,2 km/h (2 Bft) S-SW 200 1 min 0,000 mm 5,9 UV-I 870 W/m 14,0 C 22,7 C 16,1 km/h (3 Bft) 95,83 %
13.07.2018 12:06 23,9 C 22,8 C 36,7 C 53 % 1017,6 hPa 0,0 l/m 9,7 km/h (2 Bft) SW 227 1 min 0,000 mm 5,9 UV-I 864 W/m 13,7 C 23,0 C 16,1 km/h (3 Bft) 95,65 %
13.07.2018 12:07 24,1 C 22,8 C 36,7 C 55 % 1017,6 hPa 0,0 l/m 11,7 km/h (2 Bft) W-SW 254 1 min 0,000 mm 5,8 UV-I 866 W/m 14,5 C 22,8 C 17,7 km/h (3 Bft) 96,30 %
13.07.2018 12:08 24,1 C 22,8 C 37,2 C 55 % 1017,6 hPa 0,0 l/m 7,3 km/h (2 Bft) W 267 1 min 0,000 mm 5,9 UV-I 870 W/m 14,5 C 23,8 C 11,3 km/h (2 Bft) 95,65 %
13.07.2018 12:09 24,2 C 22,8 C 37,2 C 55 % 1017,6 hPa 0,0 l/m 6,9 km/h (2 Bft) W-NW 284 1 min 0,000 mm 5,9 UV-I 873 W/m 14,6 C 24,1 C 9,7 km/h (2 Bft) 96,30 %
13.07.2018 12:10 24,3 C 22,8 C 37,2 C 54 % 1017,5 hPa 0,0 l/m 7,7 km/h (2 Bft) W 275 1 min 0,000 mm 5,9 UV-I 889 W/m 14,4 C 23,9 C 11,3 km/h (2 Bft) 91,30 %
13.07.2018 12:11 24,3 C 22,8 C 37,2 C 54 % 1017,5 hPa 0,0 l/m 6,8 km/h (2 Bft) NW 324 1 min 0,000 mm 6,0 UV-I 899 W/m 14,4 C 24,2 C 11,3 km/h (2 Bft) 96,30 %
13.07.2018 12:12 24,2 C 22,8 C 37,2 C 53 % 1017,5 hPa 0,0 l/m 9,1 km/h (2 Bft) W 278 1 min 0,000 mm 6,1 UV-I 903 W/m 14,0 C 23,5 C 17,7 km/h (3 Bft) 91,30 %
13.07.2018 12:13 24,1 C 22,8 C 36,7 C 51 % 1017,5 hPa 0,0 l/m 8,2 km/h (2 Bft) W-NW 284 1 min 0,000 mm 5,9 UV-I 902 W/m 13,3 C 23,6 C 14,5 km/h (3 Bft) 97,18 %
13.07.2018 12:14 23,9 C 22,8 C 36,7 C 52 % 1017,5 hPa 0,0 l/m 6,1 km/h (2 Bft) W-SW 254 1 min 0,000 mm 5,1 UV-I 902 W/m 13,4 C 23,9 C 12,9 km/h (3 Bft) 95,24 %
13.07.2018 12:15 23,9 C 22,8 C 36,7 C 54 % 1017,5 hPa 0,0 l/m 10,5 km/h (2 Bft) W-NW 295 1 min 0,000 mm 5,6 UV-I 902 W/m 14,0 C 22,8 C 16,1 km/h (3 Bft) 96,15 %
13.07.2018 12:16 24,0 C 22,8 C 36,7 C 53 % 1017,5 hPa 0,0 l/m 7,5 km/h (2 Bft) NW 317 1 min 0,000 mm 5,8 UV-I 893 W/m 13,8 C 23,7 C 12,9 km/h (3 Bft) 96,30 %
13.07.2018 12:17 24,1 C 22,8 C 36,1 C 51 % 1017,5 hPa 0,0 l/m 6,2 km/h (2 Bft) W 277 1 min 0,000 mm 6,0 UV-I 882 W/m 13,3 C 24,1 C 12,9 km/h (3 Bft) 95,65 %
13.07.2018 12:18 24,0 C 22,8 C 36,1 C 51 % 1017,5 hPa 0,0 l/m 15,3 km/h (3 Bft) W-SW 248 1 min 0,000 mm 6,2 UV-I 888 W/m 13,2 C 22,0 C 19,3 km/h (3 Bft) 100,00 %
13.07.2018 12:19 24,1 C 22,8 C 36,1 C 51 % 1017,5 hPa 0,0 l/m 17,1 km/h (3 Bft) W 261 1 min 0,000 mm 6,1 UV-I 889 W/m 13,3 C 21,9 C 22,5 km/h (4 Bft) 95,65 %
13.07.2018 12:20 24,1 C 22,8 C 36,1 C 49 % 1017,5 hPa 0,0 l/m 12,4 km/h (3 Bft) W-SW 246 1 min 0,000 mm 6,1 UV-I 883 W/m 12,7 C 22,7 C 17,7 km/h (3 Bft) 100,00 %
13.07.2018 12:21 24,1 C 22,8 C 35,6 C 50 % 1017,5 hPa 0,0 l/m 10,7 km/h (2 Bft) W-SW 237 1 min 0,000 mm 6,2 UV-I 886 W/m 13,0 C 23,0 C 16,1 km/h (3 Bft) 95,65 %
13.07.2018 12:23 24,2 C 22,8 C 35,6 C 52 % 1017,5 hPa 0,0 l/m 9,7 km/h (2 Bft) W 275 2 min 0,000 mm 6,2 UV-I 853 W/m 13,7 C 23,3 C 16,1 km/h (3 Bft) 96,23 %
13.07.2018 12:24 24,3 C 22,8 C 36,1 C 49 % 1017,5 hPa 0,0 l/m 7,3 km/h (2 Bft) W-NW 290 1 min 0,000 mm 6,2 UV-I 872 W/m 12,9 C 24,1 C 14,5 km/h (3 Bft) 100,00 %
13.07.2018 12:25 24,3 C 22,8 C 35,6 C 51 % 1017,5 hPa 0,0 l/m 10,3 km/h (2 Bft) W 275 1 min 0,000 mm 6,2 UV-I 887 W/m 13,5 C 23,3 C 12,9 km/h (3 Bft) 96,15 %
13.07.2018 12:26 24,2 C 22,8 C 36,1 C 50 % 1017,5 hPa 0,0 l/m 5,6 km/h (1 Bft) W 274 1 min 0,000 mm 6,2 UV-I 886 W/m 13,1 C 24,2 C 11,3 km/h (2 Bft) 96,30 %
13.07.2018 12:27 24,2 C 22,8 C 36,7 C 48 % 1017,4 hPa 0,0 l/m 9,0 km/h (2 Bft) W 270 1 min 0,000 mm 6,2 UV-I 885 W/m 12,5 C 23,5 C 11,3 km/h (2 Bft) 93,33 %
13.07.2018 12:28 24,3 C 22,8 C 36,7 C 51 % 1017,4 hPa 0,0 l/m 7,4 km/h (2 Bft) W-NW 286 1 min 0,000 mm 6,1 UV-I 877 W/m 13,5 C 24,0 C 9,7 km/h (2 Bft) 93,10 %
13.07.2018 12:29 24,3 C 22,8 C 36,7 C 50 % 1017,4 hPa 0,0 l/m 9,6 km/h (2 Bft) W 271 1 min 0,000 mm 6,1 UV-I 868 W/m 13,2 C 23,5 C 14,5 km/h (3 Bft) 100,00 %
13.07.2018 12:30 24,5 C 22,8 C 36,7 C 50 % 1017,4 hPa 0,0 l/m 7,3 km/h (2 Bft) W 271 1 min 0,000 mm 6,0 UV-I 867 W/m 13,4 C 24,3 C 12,9 km/h (3 Bft) 96,30 %
13.07.2018 12:31 24,7 C 22,8 C 36,7 C 53 % 1017,4 hPa 0,0 l/m 10,6 km/h (2 Bft) W-NW 298 1 min 0,000 mm 6,1 UV-I 872 W/m 14,5 C 23,7 C 14,5 km/h (3 Bft) 100,00 %
13.07.2018 12:32 24,6 C 22,8 C 36,7 C 49 % 1017,4 hPa 0,0 l/m 4,7 km/h (1 Bft) N-NW 332 1 min 0,000 mm 6,1 UV-I 869 W/m 13,2 C 24,6 C 8,0 km/h (2 Bft) 96,15 %
13.07.2018 12:33 24,6 C 22,8 C 36,7 C 50 % 1017,5 hPa 0,0 l/m 1,9 km/h (1 Bft) N-NW 330 1 min 0,000 mm 6,2 UV-I 858 W/m 13,5 C 24,6 C 3,2 km/h (1 Bft) 100,00 %
13.07.2018 12:34 24,6 C 22,8 C 37,2 C 50 % 1017,4 hPa 0,0 l/m 2,7 km/h (1 Bft) N-NW 327 1 min 0,000 mm 6,1 UV-I 873 W/m 13,5 C 24,6 C 8,0 km/h (2 Bft) 95,65 %
13.07.2018 12:35 24,6 C 22,8 C 36,7 C 49 % 1017,4 hPa 0,0 l/m 9,3 km/h (2 Bft) W 261 1 min 0,000 mm 6,1 UV-I 868 W/m 13,2 C 23,9 C 17,7 km/h (3 Bft) 95,83 %
13.07.2018 12:36 24,6 C 22,8 C 36,1 C 48 % 1017,4 hPa 0,0 l/m 17,8 km/h (3 Bft) W 272 1 min 0,000 mm 6,1 UV-I 863 W/m 12,8 C 22,4 C 22,5 km/h (4 Bft) 90,91 %
13.07.2018 12:38 24,6 C 22,8 C 35,0 C 48 % 1017,4 hPa 0,0 l/m 13,9 km/h (3 Bft) W-SW 254 2 min 0,000 mm 6,2 UV-I 871 W/m 12,8 C 23,0 C 20,9 km/h (4 Bft) 98,31 %
13.07.2018 12:39 24,4 C 22,8 C 35,0 C 48 % 1017,4 hPa 0,0 l/m 6,1 km/h (2 Bft) W-SW 240 1 min 0,000 mm 6,2 UV-I 880 W/m 12,7 C 24,4 C 9,7 km/h (2 Bft) 96,30 %
13.07.2018 12:40 24,4 C 22,8 C 35,0 C 49 % 1017,4 hPa 0,0 l/m 13,8 km/h (3 Bft) W-SW 258 1 min 0,000 mm 6,3 UV-I 885 W/m 13,0 C 22,8 C 17,7 km/h (3 Bft) 95,65 %
13.07.2018 12:41 24,5 C 22,8 C 35,6 C 48 % 1017,3 hPa 0,0 l/m 8,0 km/h (2 Bft) SW 228 1 min 0,000 mm 6,3 UV-I 887 W/m 12,8 C 24,1 C 12,9 km/h (3 Bft) 91,67 %
13.07.2018 12:42 24,6 C 22,8 C 36,1 C 49 % 1017,4 hPa 0,0 l/m 10,1 km/h (2 Bft) W-NW 286 1 min 0,000 mm 6,3 UV-I 886 W/m 13,2 C 23,7 C 20,9 km/h (4 Bft) 100,00 %
13.07.2018 12:43 24,7 C 22,8 C 36,1 C 50 % 1017,3 hPa 0,0 l/m 13,2 km/h (3 Bft) W-SW 252 1 min 0,000 mm 6,2 UV-I 882 W/m 13,6 C 23,2 C 20,9 km/h (4 Bft) 100,00 %
13.07.2018 12:44 24,7 C 22,8 C 35,6 C 48 % 1017,4 hPa 0,0 l/m 18,1 km/h (3 Bft) W 269 1 min 0,000 mm 6,2 UV-I 879 W/m 12,9 C 22,5 C 22,5 km/h (4 Bft) 100,00 %
13.07.2018 12:45 24,6 C 22,8 C 35,0 C 48 % 1017,4 hPa 0,0 l/m 15,5 km/h (3 Bft) W 278 1 min 0,000 mm 6,2 UV-I 883 W/m 12,8 C 22,7 C 17,7 km/h (3 Bft) 91,67 %
13.07.2018 12:46 24,6 C 22,8 C 35,0 C 50 % 1017,4 hPa 0,0 l/m 10,3 km/h (2 Bft) W 267 1 min 0,000 mm 6,3 UV-I 892 W/m 13,5 C 23,7 C 14,5 km/h (3 Bft) 94,29 %
13.07.2018 12:48 24,5 C 22,8 C 35,6 C 50 % 1017,3 hPa 0,0 l/m 8,4 km/h (2 Bft) W-SW 248 2 min 0,000 mm 6,3 UV-I 879 W/m 13,4 C 24,0 C 16,1 km/h (3 Bft) 97,62 %
13.07.2018 12:49 24,6 C 22,8 C 36,1 C 49 % 1017,3 hPa 0,0 l/m 8,5 km/h (2 Bft) W 259 1 min 0,000 mm 6,2 UV-I 891 W/m 13,2 C 24,1 C 12,9 km/h (3 Bft) 100,00 %
13.07.2018 12:50 24,5 C 22,8 C 35,6 C 48 % 1017,3 hPa 0,0 l/m 7,0 km/h (2 Bft) W 279 1 min 0,000 mm 6,2 UV-I 893 W/m 12,8 C 24,3 C 12,9 km/h (3 Bft) 95,83 %
13.07.2018 12:51 24,4 C 22,8 C 36,1 C 50 % 1017,3 hPa 0,0 l/m 8,1 km/h (2 Bft) W 267 1 min 0,000 mm 6,2 UV-I 889 W/m 13,3 C 23,9 C 9,7 km/h (2 Bft) 100,00 %
13.07.2018 12:52 24,4 C 22,8 C 36,1 C 48 % 1017,3 hPa 0,0 l/m 8,3 km/h (2 Bft) W 267 1 min 0,000 mm 6,1 UV-I 893 W/m 12,7 C 23,9 C 16,1 km/h (3 Bft) 95,83 %
13.07.2018 12:53 24,3 C 22,8 C 36,1 C 50 % 1017,3 hPa 0,0 l/m 5,4 km/h (1 Bft) W-NW 290 1 min 0,000 mm 6,3 UV-I 857 W/m 13,2 C 24,3 C 6,4 km/h (2 Bft) 100,00 %
13.07.2018 12:54 24,4 C 22,8 C 36,7 C 52 % 1017,3 hPa 0,0 l/m 5,1 km/h (1 Bft) NW 314 1 min 0,000 mm 6,3 UV-I 857 W/m 13,9 C 24,4 C 8,0 km/h (2 Bft) 92,59 %
13.07.2018 12:55 24,5 C 22,8 C 37,2 C 51 % 1017,2 hPa 0,0 l/m 5,4 km/h (1 Bft) W-NW 286 1 min 0,000 mm 6,2 UV-I 903 W/m 13,7 C 24,5 C 9,7 km/h (2 Bft) 100,00 %
13.07.2018 12:56 24,7 C 22,8 C 37,8 C 50 % 1017,3 hPa 0,0 l/m 4,3 km/h (1 Bft) SW 233 1 min 0,000 mm 6,3 UV-I 849 W/m 13,6 C 24,7 C 9,7 km/h (2 Bft) 96,30 %
13.07.2018 12:57 24,7 C 22,8 C 37,8 C 51 % 1017,3 hPa 0,0 l/m 5,4 km/h (1 Bft) S-SW 202 1 min 0,000 mm 6,4 UV-I 913 W/m 13,9 C 24,7 C 8,0 km/h (2 Bft) 100,00 %
13.07.2018 12:58 24,9 C 22,8 C 38,3 C 51 % 1017,3 hPa 0,0 l/m 4,7 km/h (1 Bft) S 190 1 min 0,000 mm 6,4 UV-I 917 W/m 14,1 C 24,9 C 9,7 km/h (2 Bft) 93,33 %
13.07.2018 12:59 25,2 C 22,8 C 38,9 C 50 % 1017,3 hPa 0,0 l/m 9,2 km/h (2 Bft) W-SW 253 1 min 0,000 mm 6,4 UV-I 920 W/m 14,0 C 24,5 C 16,1 km/h (3 Bft) 100,00 %
13.07.2018 13:00 25,3 C 22,8 C 38,3 C 48 % 1017,3 hPa 0,0 l/m 16,8 km/h (3 Bft) SW 231 1 min 0,610 mm 6,5 UV-I 930 W/m 13,5 C 23,4 C 19,3 km/h (3 Bft) 96,30 %
13.07.2018 13:02 25,2 C 22,8 C 37,2 C 46 % 1017,3 hPa 0,0 l/m 10,1 km/h (2 Bft) W 279 2 min 0,000 mm 6,5 UV-I 932 W/m 12,7 C 24,4 C 20,9 km/h (4 Bft) 97,56 %
13.07.2018 13:03 25,2 C 22,8 C 37,8 C 48 % 1017,2 hPa 0,0 l/m 7,8 km/h (2 Bft) S-SW 198 1 min 0,000 mm 6,5 UV-I 928 W/m 13,4 C 24,9 C 9,7 km/h (2 Bft) 96,15 %
13.07.2018 13:04 25,1 C 22,8 C 37,8 C 46 % 1017,3 hPa 0,0 l/m 9,1 km/h (2 Bft) W-SW 246 1 min 0,000 mm 6,4 UV-I 918 W/m 12,7 C 24,5 C 12,9 km/h (3 Bft) 95,83 %
13.07.2018 13:05 25,1 C 23,3 C 37,8 C 46 % 1017,2 hPa 0,0 l/m 7,9 km/h (2 Bft) W-NW 296 1 min 0,000 mm 6,4 UV-I 917 W/m 12,7 C 24,7 C 11,3 km/h (2 Bft) 95,65 %
13.07.2018 13:06 24,9 C 23,3 C 37,8 C 47 % 1017,2 hPa 0,0 l/m 6,0 km/h (2 Bft) W 273 1 min 0,000 mm 6,3 UV-I 909 W/m 12,8 C 24,9 C 11,3 km/h (2 Bft) 100,00 %
13.07.2018 13:08 25,0 C 23,3 C 38,3 C 49 % 1017,2 hPa 0,0 l/m 5,8 km/h (2 Bft) N-NO 20 2 min 0,000 mm 6,4 UV-I 931 W/m 13,5 C 25,0 C 14,5 km/h (3 Bft) 98,00 %
13.07.2018 13:09 25,1 C 23,3 C 37,2 C 51 % 1017,2 hPa 0,0 l/m 8,6 km/h (2 Bft) W 265 1 min 0,000 mm 6,0 UV-I 946 W/m 14,2 C 24,6 C 14,5 km/h (3 Bft) 86,96 %
13.07.2018 13:10 25,2 C 23,3 C 35,6 C 46 % 1017,2 hPa 0,0 l/m 13,4 km/h (3 Bft) W-SW 246 1 min 0,000 mm 5,2 UV-I 709 W/m 12,7 C 23,8 C 16,1 km/h (3 Bft) 100,00 %
13.07.2018 13:11 25,1 C 23,3 C 35,6 C 48 % 1017,2 hPa 0,0 l/m 12,0 km/h (2 Bft) W-SW 252 0 min 0,000 mm 6,3 UV-I 420 W/m 13,3 C 23,9 C 17,7 km/h (3 Bft) 96,30 %
13.07.2018 13:12 25,1 C 23,3 C 36,1 C 48 % 1017,2 hPa 0,0 l/m 12,2 km/h (2 Bft) W 261 1 min 0,000 mm 6,3 UV-I 847 W/m 13,3 C 23,9 C 16,1 km/h (3 Bft) 100,00 %
13.07.2018 13:13 25,2 C 23,3 C 36,7 C 49 % 1017,2 hPa 0,0 l/m 13,8 km/h (3 Bft) W-SW 253 1 min 0,000 mm 6,1 UV-I 976 W/m 13,7 C 23,7 C 17,7 km/h (3 Bft) 93,33 %
13.07.2018 13:14 25,3 C 23,3 C 37,2 C 49 % 1017,1 hPa 0,0 l/m 11,6 km/h (2 Bft) W-SW 246 1 min 0,000 mm 6,0 UV-I 967 W/m 13,8 C 24,2 C 16,1 km/h (3 Bft) 100,00 %
13.07.2018 13:15 25,3 C 23,3 C 37,2 C 48 % 1017,1 hPa 0,0 l/m 9,4 km/h (2 Bft) W-SW 254 1 min 0,000 mm 5,9 UV-I 981 W/m 13,5 C 24,6 C 12,9 km/h (3 Bft) 96,30 %
13.07.2018 13:16 25,3 C 23,3 C 35,6 C 47 % 1017,1 hPa 0,0 l/m 5,9 km/h (2 Bft) SW 235 1 min 0,000 mm 4,5 UV-I 949 W/m 13,2 C 25,3 C 9,7 km/h (2 Bft) 97,15 %
13.07.2018 13:17 25,1 C 23,3 C 33,9 C 47 % 1017,1 hPa 0,0 l/m 7,0 km/h (2 Bft) W 268 0 min 0,000 mm 3,2 UV-I 451 W/m 13,0 C 25,0 C 11,3 km/h (2 Bft) 97,73 %
13.07.2018 13:18 25,0 C 23,3 C 32,2 C 48 % 1017,1 hPa 0,0 l/m 7,6 km/h (2 Bft) SW 234 0 min 0,000 mm 3,3 UV-I 174 W/m 13,2 C 24,7 C 16,1 km/h (3 Bft) 96,15 %
13.07.2018 13:19 24,8 C 23,3 C 31,1 C 47 % 1017,1 hPa 0,0 l/m 6,7 km/h (2 Bft) SW 234 0 min 0,000 mm 3,1 UV-I 158 W/m 12,7 C 24,7 C 16,1 km/h (3 Bft) 100,00 %
13.07.2018 13:20 24,6 C 23,3 C 29,4 C 48 % 1017,1 hPa 0,0 l/m 7,5 km/h (2 Bft) W-SW 257 0 min 0,000 mm 3,3 UV-I 160 W/m 12,8 C 24,3 C 12,9 km/h (3 Bft) 94,12 %
13.07.2018 13:21 24,5 C 23,3 C 29,4 C 49 % 1017,2 hPa 0,0 l/m 11,7 km/h (2 Bft) W 277 0 min 0,000 mm 3,9 UV-I 167 W/m 13,1 C 23,3 C 14,5 km/h (3 Bft) 100,00 %
13.07.2018 13:22 24,4 C 23,3 C 31,1 C 50 % 1017,1 hPa 0,0 l/m 13,7 km/h (3 Bft) W 263 1 min 0,000 mm 6,1 UV-I 643 W/m 13,3 C 22,8 C 19,3 km/h (3 Bft) 96,55 %
13.07.2018 13:23 24,4 C 23,3 C 32,2 C 49 % 1017,1 hPa 0,0 l/m 9,3 km/h (2 Bft) SW 234 1 min 0,000 mm 6,3 UV-I 921 W/m 13,0 C 23,7 C 20,9 km/h (4 Bft) 100,00 %
13.07.2018 13:24 24,5 C 23,3 C 32,8 C 49 % 1017,1 hPa 0,0 l/m 11,8 km/h (2 Bft) W-SW 257 1 min 0,000 mm 6,4 UV-I 919 W/m 13,1 C 23,2 C 14,5 km/h (3 Bft) 100,00 %
13.07.2018 13:25 24,6 C 23,3 C 33,9 C 49 % 1017,1 hPa 0,0 l/m 11,6 km/h (2 Bft) W 277 1 min 0,000 mm 6,3 UV-I 911 W/m 13,2 C 23,4 C 16,1 km/h (3 Bft) 100,00 %
13.07.2018 13:26 24,8 C 23,3 C 34,4 C 50 % 1017,0 hPa 0,0 l/m 12,5 km/h (3 Bft) SW 223 1 min 0,000 mm 6,2 UV-I 890 W/m 13,7 C 23,5 C 19,3 km/h (3 Bft) 100,00 %
13.07.2018 13:27 24,9 C 23,3 C 35,0 C 49 % 1017,0 hPa 0,0 l/m 13,6 km/h (3 Bft) W-SW 250 1 min 0,000 mm 6,2 UV-I 886 W/m 13,4 C 23,4 C 19,3 km/h (3 Bft) 100,00 %
13.07.2018 13:28 25,1 C 23,3 C 35,0 C 48 % 1017,0 hPa 0,0 l/m 15,6 km/h (3 Bft) W 261 1 min 0,000 mm 6,3 UV-I 901 W/m 13,3 C 23,3 C 22,5 km/h (4 Bft) 100,00 %
13.07.2018 13:29 25,1 C 23,3 C 35,6 C 49 % 1017,0 hPa 0,0 l/m 8,0 km/h (2 Bft) W 264 1 min 0,000 mm 6,2 UV-I 909 W/m 13,6 C 24,7 C 12,9 km/h (3 Bft) 100,00 %
13.07.2018 13:30 25,2 C 23,3 C 36,1 C 49 % 1017,0 hPa 0,0 l/m 11,6 km/h (2 Bft) W-NW 286 1 min 0,000 mm 6,3 UV-I 919 W/m 13,7 C 24,1 C 14,5 km/h (3 Bft) 100,00 %
13.07.2018 13:31 25,2 C 23,3 C 36,7 C 47 % 1017,0 hPa 0,0 l/m 8,4 km/h (2 Bft) W 259 1 min 0,000 mm 6,3 UV-I 909 W/m 13,1 C 24,7 C 12,9 km/h (3 Bft) 100,00 %
13.07.2018 13:33 25,2 C 23,3 C 36,7 C 46 % 1016,9 hPa 0,0 l/m 9,1 km/h (2 Bft) NW 326 2 min 0,000 mm 5,8 UV-I 946 W/m 12,7 C 24,6 C 14,5 km/h (3 Bft) 98,11 %
13.07.2018 13:34 25,1 C 23,3 C 35,0 C 47 % 1016,9 hPa 0,0 l/m 6,0 km/h (2 Bft) SW 219 1 min 0,000 mm 4,0 UV-I 949 W/m 13,0 C 25,1 C 9,7 km/h (2 Bft) 100,00 %
13.07.2018 13:35 25,1 C 23,3 C 34,4 C 46 % 1016,9 hPa 0,0 l/m 6,4 km/h (2 Bft) NW 311 1 min 0,000 mm 4,0 UV-I 949 W/m 12,7 C 25,1 C 16,1 km/h (3 Bft) 100,00 %
13.07.2018 13:36 24,9 C 23,3 C 33,3 C 48 % 1016,9 hPa 0,0 l/m 10,9 km/h (2 Bft) W 267 1 min 0,000 mm 3,7 UV-I 895 W/m 13,1 C 23,9 C 17,7 km/h (3 Bft) 100,00 %
13.07.2018 13:37 24,9 C 23,3 C 32,2 C 48 % 1017,0 hPa 0,0 l/m 6,6 km/h (2 Bft) W-NW 284 0 min 0,000 mm 3,1 UV-I 297 W/m 13,1 C 24,9 C 14,5 km/h (3 Bft) 100,00 %
13.07.2018 13:38 24,8 C 23,3 C 31,1 C 47 % 1016,9 hPa 0,0 l/m 5,7 km/h (1 Bft) W 269 0 min 0,000 mm 3,0 UV-I 254 W/m 12,7 C 24,8 C 6,4 km/h (2 Bft) 100,00 %
13.07.2018 13:39 24,7 C 23,3 C 30,0 C 48 % 1016,9 hPa 0,0 l/m 7,1 km/h (2 Bft) W 259 0 min 0,000 mm 2,9 UV-I 162 W/m 12,9 C 24,5 C 12,9 km/h (3 Bft) 100,00 %
13.07.2018 13:40 24,5 C 23,3 C 28,9 C 47 % 1017,0 hPa 0,0 l/m 16,2 km/h (3 Bft) W 277 0 min 0,000 mm 3,0 UV-I 165 W/m 12,4 C 22,5 C 25,7 km/h (4 Bft) 100,00 %
13.07.2018 13:41 24,3 C 23,3 C 27,8 C 49 % 1016,9 hPa 0,0 l/m 13,2 km/h (3 Bft) W-SW 242 0 min 0,000 mm 3,2 UV-I 174 W/m 12,9 C 22,8 C 17,7 km/h (3 Bft) 100,00 %
13.07.2018 13:42 24,3 C 23,3 C 27,2 C 49 % 1017,0 hPa 0,0 l/m 10,2 km/h (2 Bft) W 271 0 min 0,000 mm 3,3 UV-I 179 W/m 12,9 C 23,3 C 17,7 km/h (3 Bft) 100,00 %
13.07.2018 13:43 24,2 C 23,3 C 27,2 C 48 % 1016,9 hPa 0,0 l/m 9,9 km/h (2 Bft) S-SW 200 0 min 0,000 mm 3,8 UV-I 183 W/m 12,5 C 23,3 C 14,5 km/h (3 Bft) 96,30 %
13.07.2018 13:44 24,1 C 23,3 C 28,9 C 50 % 1016,9 hPa 0,0 l/m 8,2 km/h (2 Bft) W 260 0 min 0,000 mm 6,1 UV-I 367 W/m 13,0 C 23,6 C 14,5 km/h (3 Bft) 91,30 %
13.07.2018 13:45 24,2 C 23,3 C 30,6 C 50 % 1016,9 hPa 0,0 l/m 11,9 km/h (2 Bft) W 269 1 min 0,000 mm 6,2 UV-I 915 W/m 13,1 C 22,9 C 17,7 km/h (3 Bft) 100,00 %
13.07.2018 13:46 24,4 C 23,3 C 32,2 C 50 % 1016,9 hPa 0,0 l/m 9,3 km/h (2 Bft) W-SW 238 1 min 0,000 mm 6,3 UV-I 912 W/m 13,3 C 23,7 C 16,1 km/h (3 Bft) 94,29 %
13.07.2018 13:47 24,7 C 23,3 C 32,8 C 49 % 1016,9 hPa 0,0 l/m 13,3 km/h (3 Bft) W-SW 248 1 min 0,000 mm 6,3 UV-I 911 W/m 13,3 C 23,2 C 20,9 km/h (4 Bft) 100,00 %
13.07.2018 13:48 24,9 C 23,3 C 33,9 C 48 % 1017,0 hPa 0,0 l/m 17,6 km/h (3 Bft) W-SW 254 1 min 0,000 mm 6,3 UV-I 905 W/m 13,1 C 22,8 C 24,1 km/h (4 Bft) 100,00 %
13.07.2018 13:49 25,1 C 23,3 C 34,4 C 47 % 1017,0 hPa 0,0 l/m 14,6 km/h (3 Bft) W 275 1 min 0,000 mm 6,2 UV-I 902 W/m 13,0 C 23,5 C 19,3 km/h (3 Bft) 95,83 %
13.07.2018 13:50 25,2 C 23,3 C 35,0 C 48 % 1016,9 hPa 0,0 l/m 12,4 km/h (3 Bft) NW 312 1 min 0,000 mm 6,2 UV-I 896 W/m 13,4 C 24,0 C 17,7 km/h (3 Bft) 92,31 %
13.07.2018 13:51 25,2 C 23,3 C 35,0 C 47 % 1016,9 hPa 0,0 l/m 9,6 km/h (2 Bft) W 262 1 min 0,000 mm 6,2 UV-I 895 W/m 13,1 C 24,5 C 12,9 km/h (3 Bft) 100,00 %
13.07.2018 13:52 25,3 C 23,3 C 35,6 C 46 % 1016,9 hPa 0,0 l/m 12,4 km/h (3 Bft) W-SW 258 1 min 0,000 mm 6,3 UV-I 897 W/m 12,8 C 24,1 C 16,1 km/h (3 Bft) 91,30 %
13.07.2018 13:53 25,2 C 23,3 C 35,6 C 42 % 1016,9 hPa 0,0 l/m 6,4 km/h (2 Bft) W 268 1 min 0,000 mm 6,3 UV-I 898 W/m 11,4 C 25,2 C 12,9 km/h (3 Bft) 100,00 %
13.07.2018 13:54 25,2 C 23,3 C 36,1 C 46 % 1016,9 hPa 0,0 l/m 10,3 km/h (2 Bft) W-NW 285 1 min 0,000 mm 6,3 UV-I 898 W/m 12,7 C 24,3 C 12,9 km/h (3 Bft) 95,65 %
13.07.2018 13:55 25,2 C 23,3 C 36,7 C 46 % 1016,9 hPa 0,0 l/m 6,4 km/h (2 Bft) W 273 1 min 0,000 mm 6,3 UV-I 900 W/m 12,7 C 25,2 C 9,7 km/h (2 Bft) 100,00 %
13.07.2018 13:56 25,2 C 23,3 C 36,7 C 45 % 1016,9 hPa 0,0 l/m 9,7 km/h (2 Bft) W 265 1 min 0,000 mm 6,3 UV-I 906 W/m 12,4 C 24,4 C 12,9 km/h (3 Bft) 96,55 %
13.07.2018 13:58 25,4 C 23,3 C 36,7 C 47 % 1016,9 hPa 0,0 l/m 11,8 km/h (2 Bft) SW 217 2 min 0,000 mm 6,2 UV-I 912 W/m 13,3 C 24,3 C 17,7 km/h (3 Bft) 96,23 %
13.07.2018 13:59 25,5 C 23,3 C 37,2 C 47 % 1016,9 hPa 0,0 l/m 8,2 km/h (2 Bft) SW 232 1 min 0,000 mm 6,2 UV-I 925 W/m 13,3 C 25,1 C 12,9 km/h (3 Bft) 100,00 %
13.07.2018 14:00 25,6 C 23,3 C 36,7 C 46 % 1016,8 hPa 0,0 l/m 11,8 km/h (2 Bft) W-SW 244 1 min 0,000 mm 6,1 UV-I 930 W/m 13,1 C 24,5 C 17,7 km/h (3 Bft) 96,15 %
13.07.2018 14:01 25,6 C 23,3 C 35,0 C 45 % 1016,8 hPa 0,0 l/m 13,2 km/h (3 Bft) W-SW 243 1 min 0,533 mm 3,7 UV-I 717 W/m 12,8 C 24,3 C 19,3 km/h (3 Bft) 95,83 %
13.07.2018 14:02 25,4 C 23,3 C 32,8 C 44 % 1016,8 hPa 0,0 l/m 8,8 km/h (2 Bft) W 281 0 min 0,000 mm 3,5 UV-I 192 W/m 12,2 C 24,8 C 12,9 km/h (3 Bft) 100,00 %
13.07.2018 14:03 25,3 C 23,3 C 31,7 C 45 % 1016,8 hPa 0,0 l/m 4,8 km/h (1 Bft) N-NW 334 0 min 0,000 mm 3,5 UV-I 176 W/m 12,5 C 25,3 C 9,7 km/h (2 Bft) 95,83 %
13.07.2018 14:04 25,1 C 23,3 C 31,7 C 46 % 1016,9 hPa 0,0 l/m 4,9 km/h (1 Bft) W 273 0 min 0,000 mm 4,8 UV-I 174 W/m 12,7 C 25,1 C 11,3 km/h (2 Bft) 100,00 %
13.07.2018 14:05 25,1 C 23,3 C 33,3 C 48 % 1016,9 hPa 0,0 l/m 4,8 km/h (1 Bft) W 277 1 min 0,000 mm 6,1 UV-I 843 W/m 13,3 C 25,1 C 6,4 km/h (2 Bft) 91,30 %
13.07.2018 14:06 25,1 C 23,3 C 34,4 C 46 % 1016,9 hPa 0,0 l/m 7,2 km/h (2 Bft) W-SW 257 1 min 0,000 mm 6,1 UV-I 934 W/m 12,7 C 24,9 C 14,5 km/h (3 Bft) 100,00 %
13.07.2018 14:07 25,3 C 23,3 C 35,0 C 47 % 1016,9 hPa 0,0 l/m 11,1 km/h (2 Bft) NW 314 1 min 0,000 mm 6,2 UV-I 938 W/m 13,2 C 24,3 C 17,7 km/h (3 Bft) 95,65 %
13.07.2018 14:08 25,3 C 23,3 C 34,4 C 45 % 1016,9 hPa 0,0 l/m 6,8 km/h (2 Bft) W-SW 242 1 min 0,000 mm 5,2 UV-I 933 W/m 12,5 C 25,2 C 9,7 km/h (2 Bft) 100,00 %
13.07.2018 14:09 25,2 C 23,3 C 32,8 C 45 % 1016,8 hPa 0,0 l/m 6,0 km/h (2 Bft) N-NW 339 1 min 0,000 mm 3,7 UV-I 488 W/m 12,4 C 25,2 C 11,3 km/h (2 Bft) 96,15 %
13.07.2018 14:10 25,1 C 23,3 C 32,8 C 48 % 1016,9 hPa 0,0 l/m 9,4 km/h (2 Bft) NW 319 0 min 0,000 mm 4,7 UV-I 234 W/m 13,3 C 24,4 C 14,5 km/h (3 Bft) 100,00 %
13.07.2018 14:11 25,1 C 23,3 C 32,2 C 46 % 1016,9 hPa 0,0 l/m 9,3 km/h (2 Bft) W-SW 252 0 min 0,000 mm 4,0 UV-I 232 W/m 12,7 C 24,4 C 12,9 km/h (3 Bft) 96,55 %
13.07.2018 14:12 25,1 C 23,3 C 31,1 C 46 % 1016,8 hPa 0,0 l/m 7,8 km/h (2 Bft) W 276 0 min 0,000 mm 3,4 UV-I 198 W/m 12,7 C 24,8 C 12,9 km/h (3 Bft) 95,83 %
13.07.2018 14:13 25,0 C 23,3 C 30,6 C 46 % 1016,8 hPa 0,0 l/m 6,6 km/h (2 Bft) NW 319 0 min 0,000 mm 3,5 UV-I 209 W/m 12,6 C 25,0 C 9,7 km/h (2 Bft) 100,00 %
13.07.2018 14:14 24,8 C 23,3 C 30,0 C 45 % 1016,8 hPa 0,0 l/m 6,1 km/h (2 Bft) W 261 0 min 0,000 mm 3,4 UV-I 213 W/m 12,0 C 24,8 C 9,7 km/h (2 Bft) 92,59 %
13.07.2018 14:15 24,8 C 23,3 C 29,4 C 46 % 1016,8 hPa 0,0 l/m 7,4 km/h (2 Bft) W 264 0 min 0,000 mm 3,5 UV-I 223 W/m 12,4 C 24,5 C 12,9 km/h (3 Bft) 100,00 %
13.07.2018 14:16 24,7 C 23,3 C 30,0 C 47 % 1016,8 hPa 0,0 l/m 9,9 km/h (2 Bft) W 269 0 min 0,000 mm 4,0 UV-I 244 W/m 12,6 C 23,9 C 12,9 km/h (3 Bft) 100,00 %
13.07.2018 14:17 24,7 C 23,3 C 30,0 C 48 % 1016,8 hPa 0,0 l/m 12,5 km/h (3 Bft) W-NW 285 0 min 0,000 mm 5,3 UV-I 248 W/m 12,9 C 23,4 C 17,7 km/h (3 Bft) 100,00 %
13.07.2018 14:18 24,8 C 23,3 C 31,7 C 48 % 1016,8 hPa 0,0 l/m 10,5 km/h (2 Bft) W 262 0 min 0,000 mm 5,9 UV-I 390 W/m 13,0 C 23,8 C 16,1 km/h (3 Bft) 100,00 %
13.07.2018 14:19 24,9 C 23,3 C 32,8 C 48 % 1016,8 hPa 0,0 l/m 11,7 km/h (2 Bft) NW 319 1 min 0,000 mm 5,9 UV-I 927 W/m 13,1 C 23,7 C 16,1 km/h (3 Bft) 100,00 %
13.07.2018 14:20 25,2 C 23,3 C 33,9 C 50 % 1016,8 hPa 0,0 l/m 8,6 km/h (2 Bft) W-NW 283 1 min 0,000 mm 5,9 UV-I 916 W/m 14,0 C 24,7 C 16,1 km/h (3 Bft) 96,88 %
13.07.2018 14:21 25,3 C 23,3 C 35,0 C 46 % 1016,8 hPa 0,0 l/m 9,2 km/h (2 Bft) NW 315 1 min 0,000 mm 5,8 UV-I 902 W/m 12,8 C 24,7 C 12,9 km/h (3 Bft) 100,00 %
13.07.2018 14:22 25,4 C 23,3 C 35,6 C 46 % 1016,8 hPa 0,0 l/m 10,7 km/h (2 Bft) W-SW 253 1 min 0,000 mm 5,8 UV-I 901 W/m 12,9 C 24,5 C 16,1 km/h (3 Bft) 100,00 %
13.07.2018 14:23 25,4 C 23,3 C 35,6 C 45 % 1016,7 hPa 0,0 l/m 13,0 km/h (3 Bft) W-NW 283 1 min 0,000 mm 5,6 UV-I 885 W/m 12,6 C 24,1 C 16,1 km/h (3 Bft) 97,24 %
13.07.2018 14:24 25,6 C 23,3 C 36,1 C 46 % 1016,8 hPa 0,0 l/m 8,9 km/h (2 Bft) W-NW 285 1 min 0,000 mm 5,7 UV-I 884 W/m 13,1 C 25,0 C 12,9 km/h (3 Bft) 100,00 %
13.07.2018 14:25 25,6 C 23,3 C 36,7 C 46 % 1016,8 hPa 0,0 l/m 8,1 km/h (2 Bft) W 277 1 min 0,000 mm 5,7 UV-I 895 W/m 13,1 C 25,2 C 12,9 km/h (3 Bft) 100,00 %
13.07.2018 14:26 25,7 C 23,3 C 36,7 C 44 % 1016,7 hPa 0,0 l/m 6,7 km/h (2 Bft) NW 319 1 min 0,000 mm 5,7 UV-I 909 W/m 12,5 C 25,6 C 12,9 km/h (3 Bft) 100,00 %
13.07.2018 14:28 25,7 C 23,3 C 36,1 C 44 % 1016,7 hPa 0,0 l/m 9,7 km/h (2 Bft) W-NW 303 2 min 0,000 mm 5,0 UV-I 912 W/m 12,5 C 25,0 C 19,3 km/h (3 Bft) 97,73 %
13.07.2018 14:29 25,6 C 23,3 C 35,6 C 45 % 1016,7 hPa 0,0 l/m 8,7 km/h (2 Bft) W-NW 300 1 min 0,000 mm 5,3 UV-I 912 W/m 12,8 C 25,1 C 11,3 km/h (2 Bft) 100,00 %
13.07.2018 14:30 25,5 C 23,3 C 35,0 C 47 % 1016,8 hPa 0,0 l/m 7,9 km/h (2 Bft) W-SW 246 1 min 0,000 mm 4,1 UV-I 912 W/m 13,3 C 25,1 C 12,9 km/h (3 Bft) 100,00 %
13.07.2018 14:31 25,5 C 23,3 C 35,6 C 46 % 1016,7 hPa 0,0 l/m 10,1 km/h (2 Bft) W-SW 242 1 min 0,000 mm 5,4 UV-I 915 W/m 13,0 C 24,7 C 14,5 km/h (3 Bft) 95,83 %
13.07.2018 14:32 25,6 C 23,3 C 35,6 C 46 % 1016,7 hPa 0,0 l/m 12,6 km/h (3 Bft) W-SW 248 1 min 0,000 mm 5,7 UV-I 924 W/m 13,1 C 24,4 C 16,1 km/h (3 Bft) 100,00 %
13.07.2018 14:33 25,6 C 23,3 C 36,1 C 45 % 1016,8 hPa 0,0 l/m 10,2 km/h (2 Bft) W 264 1 min 0,000 mm 5,7 UV-I 919 W/m 12,8 C 24,8 C 14,5 km/h (3 Bft) 96,30 %
13.07.2018 14:34 25,6 C 23,3 C 36,7 C 48 % 1016,7 hPa 0,0 l/m 8,7 km/h (2 Bft) W 259 1 min 0,000 mm 5,7 UV-I 909 W/m 13,8 C 25,1 C 14,5 km/h (3 Bft) 92,86 %
13.07.2018 14:35 25,7 C 23,3 C 37,2 C 46 % 1016,7 hPa 0,0 l/m 12,0 km/h (2 Bft) W-SW 245 1 min 0,000 mm 5,7 UV-I 912 W/m 13,2 C 24,6 C 14,5 km/h (3 Bft) 96,30 %
13.07.2018 14:36 25,7 C 23,3 C 37,2 C 46 % 1016,7 hPa 0,0 l/m 9,2 km/h (2 Bft) W-SW 257 1 min 0,000 mm 5,7 UV-I 914 W/m 13,2 C 25,1 C 12,9 km/h (3 Bft) 100,00 %
13.07.2018 14:37 25,8 C 23,3 C 37,2 C 46 % 1016,7 hPa 0,0 l/m 9,5 km/h (2 Bft) W 260 1 min 0,000 mm 5,6 UV-I 907 W/m 13,3 C 25,1 C 12,9 km/h (3 Bft) 96,30 %
13.07.2018 14:38 25,8 C 23,3 C 37,2 C 47 % 1016,7 hPa 0,0 l/m 10,2 km/h (2 Bft) W 265 1 min 0,000 mm 5,6 UV-I 906 W/m 13,6 C 25,0 C 12,9 km/h (3 Bft) 100,00 %
13.07.2018 14:39 25,8 C 23,3 C 37,2 C 44 % 1016,7 hPa 0,0 l/m 7,6 km/h (2 Bft) W 265 1 min 0,000 mm 5,6 UV-I 895 W/m 12,6 C 25,5 C 11,3 km/h (2 Bft) 96,15 %
13.07.2018 14:40 25,8 C 23,3 C 37,8 C 45 % 1016,7 hPa 0,0 l/m 6,1 km/h (2 Bft) W-SW 255 1 min 0,000 mm 5,6 UV-I 891 W/m 13,0 C 25,8 C 11,3 km/h (2 Bft) 100,00 %
13.07.2018 14:41 25,9 C 23,3 C 37,8 C 44 % 1016,7 hPa 0,0 l/m 6,8 km/h (2 Bft) SW 227 1 min 0,000 mm 5,4 UV-I 905 W/m 12,7 C 25,8 C 11,3 km/h (2 Bft) 93,33 %
13.07.2018 14:42 25,8 C 23,3 C 36,1 C 44 % 1016,6 hPa 0,0 l/m 3,6 km/h (1 Bft) SW 219 1 min 0,000 mm 3,4 UV-I 905 W/m 12,6 C 25,8 C 4,8 km/h (1 Bft) 96,67 %
13.07.2018 14:43 25,7 C 23,3 C 35,0 C 45 % 1016,6 hPa 0,0 l/m 4,6 km/h (1 Bft) S-SW 193 1 min 0,000 mm 3,8 UV-I 905 W/m 12,9 C 25,7 C 9,7 km/h (2 Bft) 95,65 %
13.07.2018 14:44 25,7 C 23,3 C 35,0 C 43 % 1016,6 hPa 0,0 l/m 7,6 km/h (2 Bft) S-SW 192 1 min 0,000 mm 5,4 UV-I 893 W/m 12,2 C 25,4 C 11,3 km/h (2 Bft) 95,83 %
13.07.2018 14:45 25,6 C 23,3 C 35,6 C 45 % 1016,6 hPa 0,0 l/m 8,6 km/h (2 Bft) SW 226 1 min 0,000 mm 5,5 UV-I 886 W/m 12,8 C 25,1 C 14,5 km/h (3 Bft) 100,00 %
13.07.2018 14:46 25,7 C 23,3 C 36,1 C 46 % 1016,6 hPa 0,0 l/m 6,9 km/h (2 Bft) W-SW 251 1 min 0,000 mm 5,5 UV-I 889 W/m 13,2 C 25,6 C 14,5 km/h (3 Bft) 95,83 %
13.07.2018 14:47 25,8 C 23,3 C 36,7 C 47 % 1016,6 hPa 0,0 l/m 14,8 km/h (3 Bft) W-SW 252 1 min 0,000 mm 5,5 UV-I 877 W/m 13,6 C 24,3 C 19,3 km/h (3 Bft) 92,86 %
13.07.2018 14:48 26,0 C 23,3 C 37,2 C 46 % 1016,6 hPa 0,0 l/m 11,9 km/h (2 Bft) SW 227 1 min 0,000 mm 5,5 UV-I 877 W/m 13,5 C 25,0 C 16,1 km/h (3 Bft) 96,30 %
13.07.2018 14:49 26,1 C 23,3 C 37,2 C 44 % 1016,6 hPa 0,0 l/m 12,4 km/h (3 Bft) W 279 1 min 0,000 mm 5,5 UV-I 867 W/m 12,9 C 25,0 C 16,1 km/h (3 Bft) 100,00 %
13.07.2018 14:50 26,1 C 23,3 C 37,2 C 45 % 1016,6 hPa 0,0 l/m 13,8 km/h (3 Bft) W 265 1 min 0,000 mm 5,5 UV-I 851 W/m 13,2 C 24,8 C 17,7 km/h (3 Bft) 96,30 %
13.07.2018 14:51 26,2 C 23,3 C 37,2 C 46 % 1016,6 hPa 0,0 l/m 9,5 km/h (2 Bft) W-SW 242 1 min 0,000 mm 5,4 UV-I 855 W/m 13,6 C 25,6 C 19,3 km/h (3 Bft) 100,00 %
13.07.2018 14:52 26,3 C 23,3 C 36,7 C 43 % 1016,6 hPa 0,0 l/m 13,5 km/h (3 Bft) SW 229 1 min 0,000 mm 5,4 UV-I 858 W/m 12,7 C 25,1 C 19,3 km/h (3 Bft) 96,30 %
13.07.2018 14:53 26,3 C 23,3 C 36,7 C 44 % 1016,5 hPa 0,0 l/m 10,7 km/h (2 Bft) W 263 1 min 0,000 mm 5,4 UV-I 860 W/m 13,1 C 25,5 C 14,5 km/h (3 Bft) 100,00 %
13.07.2018 14:54 26,3 C 23,3 C 37,2 C 43 % 1016,6 hPa 0,0 l/m 8,8 km/h (2 Bft) W-SW 241 1 min 0,000 mm 5,4 UV-I 861 W/m 12,7 C 25,8 C 12,9 km/h (3 Bft) 95,83 %
13.07.2018 14:55 26,3 C 23,3 C 37,2 C 43 % 1016,5 hPa 0,0 l/m 5,7 km/h (1 Bft) W-SW 250 1 min 0,000 mm 5,3 UV-I 862 W/m 12,7 C 26,3 C 8,0 km/h (2 Bft) 100,00 %
13.07.2018 14:56 26,4 C 23,3 C 37,8 C 44 % 1016,5 hPa 0,0 l/m 6,9 km/h (2 Bft) W-SW 247 1 min 0,000 mm 5,3 UV-I 865 W/m 13,1 C 26,3 C 17,7 km/h (3 Bft) 96,55 %
13.07.2018 14:57 26,3 C 23,3 C 37,8 C 42 % 1016,6 hPa 0,0 l/m 14,3 km/h (3 Bft) W-NW 284 1 min 0,000 mm 5,3 UV-I 868 W/m 12,3 C 25,0 C 17,7 km/h (3 Bft) 100,00 %
13.07.2018 14:58 26,3 C 23,3 C 37,2 C 40 % 1016,6 hPa 0,0 l/m 12,0 km/h (2 Bft) W-SW 253 1 min 0,000 mm 5,3 UV-I 865 W/m 11,6 C 25,3 C 16,1 km/h (3 Bft) 100,00 %
13.07.2018 14:59 26,2 C 23,3 C 37,2 C 41 % 1016,5 hPa 0,0 l/m 6,4 km/h (2 Bft) W-SW 244 1 min 0,000 mm 5,3 UV-I 864 W/m 11,9 C 26,2 C 11,3 km/h (2 Bft) 96,15 %
13.07.2018 15:00 26,3 C 23,3 C 37,2 C 42 % 1016,5 hPa 0,0 l/m 6,9 km/h (2 Bft) W 271 1 min 0,000 mm 5,2 UV-I 854 W/m 12,3 C 26,2 C 9,7 km/h (2 Bft) 100,00 %
13.07.2018 15:01 26,4 C 23,3 C 37,8 C 43 % 1016,6 hPa 0,0 l/m 5,7 km/h (1 Bft) N-NW 341 1 min 0,533 mm 5,1 UV-I 843 W/m 12,8 C 26,4 C 9,7 km/h (2 Bft) 100,00 %
13.07.2018 15:02 26,6 C 23,3 C 37,8 C 42 % 1016,5 hPa 0,0 l/m 2,6 km/h (1 Bft) W 269 1 min 0,000 mm 5,1 UV-I 842 W/m 12,6 C 26,6 C 3,2 km/h (1 Bft) 100,00 %
13.07.2018 15:03 26,7 C 23,3 C 37,8 C 41 % 1016,6 hPa 0,0 l/m 4,2 km/h (1 Bft) S-SW 213 1 min 0,000 mm 5,1 UV-I 855 W/m 12,3 C 26,7 C 8,0 km/h (2 Bft) 100,00 %
13.07.2018 15:04 26,7 C 23,3 C 37,2 C 43 % 1016,6 hPa 0,0 l/m 6,4 km/h (2 Bft) NO 34 1 min 0,000 mm 3,7 UV-I 858 W/m 13,1 C 26,7 C 9,7 km/h (2 Bft) 100,00 %
13.07.2018 15:05 26,6 C 23,3 C 35,0 C 41 % 1016,5 hPa 0,0 l/m 6,1 km/h (2 Bft) W-NW 294 1 min 0,000 mm 3,2 UV-I 648 W/m 12,2 C 26,6 C 11,3 km/h (2 Bft) 100,00 %
13.07.2018 15:06 26,4 C 23,3 C 33,9 C 42 % 1016,6 hPa 0,0 l/m 10,3 km/h (2 Bft) W-SW 248 0 min 0,000 mm 3,5 UV-I 230 W/m 12,4 C 25,7 C 14,5 km/h (3 Bft) 100,00 %
13.07.2018 15:07 26,2 C 23,3 C 33,3 C 42 % 1016,6 hPa 0,0 l/m 11,3 km/h (2 Bft) W-SW 254 0 min 0,000 mm 3,9 UV-I 234 W/m 12,3 C 25,3 C 14,5 km/h (3 Bft) 100,00 %
13.07.2018 15:08 26,1 C 23,3 C 33,9 C 43 % 1016,6 hPa 0,0 l/m 11,9 km/h (2 Bft) W 263 1 min 0,000 mm 5,0 UV-I 677 W/m 12,5 C 25,1 C 17,7 km/h (3 Bft) 100,00 %
13.07.2018 15:09 25,9 C 23,3 C 33,3 C 43 % 1016,6 hPa 0,0 l/m 11,7 km/h (2 Bft) W-SW 244 1 min 0,000 mm 3,7 UV-I 795 W/m 12,3 C 24,9 C 16,1 km/h (3 Bft) 96,30 %
13.07.2018 15:10 25,9 C 23,9 C 33,9 C 44 % 1016,7 hPa 0,0 l/m 8,3 km/h (2 Bft) W 268 1 min 0,000 mm 4,7 UV-I 803 W/m 12,7 C 25,5 C 11,3 km/h (2 Bft) 100,00 %
13.07.2018 15:11 25,9 C 23,9 C 34,4 C 44 % 1016,6 hPa 0,0 l/m 7,9 km/h (2 Bft) W-SW 241 1 min 0,000 mm 4,9 UV-I 856 W/m 12,7 C 25,6 C 12,9 km/h (3 Bft) 100,00 %
13.07.2018 15:13 25,9 C 23,9 C 33,3 C 42 % 1016,5 hPa 0,0 l/m 5,6 km/h (1 Bft) O 86 2 min 0,000 mm 3,9 UV-I 694 W/m 12,0 C 25,9 C 12,9 km/h (3 Bft) 97,56 %
13.07.2018 15:14 25,9 C 23,9 C 32,8 C 44 % 1016,5 hPa 0,0 l/m 5,6 km/h (1 Bft) N-NW 331 0 min 0,000 mm 3,1 UV-I 255 W/m 12,7 C 25,9 C 8,0 km/h (2 Bft) 100,00 %
13.07.2018 15:15 25,9 C 23,9 C 33,3 C 44 % 1016,6 hPa 0,0 l/m 3,2 km/h (1 Bft) S-SW 212 0 min 0,000 mm 4,0 UV-I 269 W/m 12,7 C 25,9 C 6,4 km/h (2 Bft) 93,33 %
13.07.2018 15:16 25,9 C 23,9 C 33,9 C 44 % 1016,5 hPa 0,0 l/m 3,5 km/h (1 Bft) W-NW 290 1 min 0,000 mm 4,3 UV-I 893 W/m 12,7 C 25,9 C 4,8 km/h (1 Bft) 100,00 %
13.07.2018 15:17 25,9 C 23,9 C 32,8 C 42 % 1016,5 hPa 0,0 l/m 5,4 km/h (1 Bft) NW 304 1 min 0,000 mm 3,3 UV-I 714 W/m 12,0 C 25,9 C 8,0 km/h (2 Bft) 96,15 %
13.07.2018 15:18 25,9 C 23,9 C 33,3 C 44 % 1016,6 hPa 0,0 l/m 2,9 km/h (1 Bft) S-SW 199 0 min 0,000 mm 3,2 UV-I 355 W/m 12,7 C 25,9 C 6,4 km/h (2 Bft) 96,55 %
13.07.2018 15:19 25,8 C 23,9 C 32,2 C 45 % 1016,6 hPa 0,0 l/m 6,3 km/h (2 Bft) W-NW 296 0 min 0,000 mm 2,8 UV-I 250 W/m 13,0 C 25,8 C 11,3 km/h (2 Bft) 100,00 %
13.07.2018 15:20 25,8 C 23,9 C 31,1 C 48 % 1016,6 hPa 0,0 l/m 5,2 km/h (1 Bft) W-NW 291 0 min 0,000 mm 2,6 UV-I 141 W/m 13,9 C 25,8 C 8,0 km/h (2 Bft) 100,00 %
13.07.2018 15:21 25,8 C 23,9 C 30,6 C 44 % 1016,6 hPa 0,0 l/m 7,4 km/h (2 Bft) W-SW 254 0 min 0,000 mm 2,6 UV-I 118 W/m 12,6 C 25,6 C 11,3 km/h (2 Bft) 100,00 %
13.07.2018 15:23 25,6 C 23,9 C 28,9 C 45 % 1016,6 hPa 0,0 l/m 7,1 km/h (2 Bft) W-SW 254 0 min 0,000 mm 2,6 UV-I 126 W/m 12,8 C 25,4 C 12,9 km/h (3 Bft) 100,00 %
13.07.2018 15:24 25,4 C 23,9 C 28,3 C 45 % 1016,6 hPa 0,0 l/m 4,5 km/h (1 Bft) W-NW 296 0 min 0,000 mm 2,7 UV-I 170 W/m 12,6 C 25,4 C 6,4 km/h (2 Bft) 100,00 %
13.07.2018 15:25 25,4 C 23,9 C 29,4 C 45 % 1016,6 hPa 0,0 l/m 3,3 km/h (1 Bft) NW 305 0 min 0,000 mm 3,1 UV-I 186 W/m 12,6 C 25,4 C 4,8 km/h (1 Bft) 100,00 %
13.07.2018 15:26 25,5 C 23,9 C 31,7 C 46 % 1016,6 hPa 0,0 l/m 5,0 km/h (1 Bft) W 274 1 min 0,000 mm 4,4 UV-I 730 W/m 13,0 C 25,5 C 6,4 km/h (2 Bft) 100,00 %
13.07.2018 15:28 25,8 C 23,9 C 34,4 C 44 % 1016,6 hPa 0,0 l/m 10,0 km/h (2 Bft) W-SW 253 2 min 0,000 mm 4,4 UV-I 866 W/m 12,6 C 25,0 C 17,7 km/h (3 Bft) 97,73 %
13.07.2018 15:29 25,9 C 23,9 C 35,6 C 43 % 1016,5 hPa 0,0 l/m 9,7 km/h (2 Bft) W-NW 289 1 min 0,000 mm 4,6 UV-I 876 W/m 12,3 C 25,2 C 14,5 km/h (3 Bft) 100,00 %
13.07.2018 15:30 26,0 C 23,9 C 36,1 C 43 % 1016,6 hPa 0,0 l/m 7,0 km/h (2 Bft) N-NW 340 1 min 0,000 mm 4,6 UV-I 876 W/m 12,4 C 25,9 C 12,9 km/h (3 Bft) 93,33 %
13.07.2018 15:31 26,2 C 23,9 C 37,2 C 46 % 1016,5 hPa 0,0 l/m 2,8 km/h (1 Bft) N-NO 28 1 min 0,000 mm 4,5 UV-I 872 W/m 13,6 C 26,2 C 4,8 km/h (1 Bft) 100,00 %
13.07.2018 15:32 26,5 C 23,9 C 37,8 C 43 % 1016,5 hPa 0,0 l/m 2,4 km/h (1 Bft) SW 225 1 min 0,000 mm 4,4 UV-I 878 W/m 12,9 C 26,5 C 3,2 km/h (1 Bft) 96,30 %
13.07.2018 15:33 26,7 C 23,9 C 37,8 C 44 % 1016,5 hPa 0,0 l/m 5,2 km/h (1 Bft) W 262 1 min 0,000 mm 4,4 UV-I 850 W/m 13,4 C 26,7 C 9,7 km/h (2 Bft) 100,00 %
13.07.2018 15:34 26,8 C 23,9 C 37,8 C 43 % 1016,6 hPa 0,0 l/m 15,2 km/h (3 Bft) W-SW 253 1 min 0,000 mm 4,1 UV-I 867 W/m 13,2 C 25,5 C 19,3 km/h (3 Bft) 100,00 %
13.07.2018 15:35 26,8 C 23,9 C 35,6 C 43 % 1016,6 hPa 0,0 l/m 13,6 km/h (3 Bft) W-NW 296 1 min 0,000 mm 3,1 UV-I 619 W/m 13,2 C 25,7 C 22,5 km/h (4 Bft) 100,00 %
13.07.2018 15:36 26,7 C 23,9 C 35,6 C 42 % 1016,5 hPa 0,0 l/m 8,8 km/h (2 Bft) W-SW 244 0 min 0,000 mm 3,4 UV-I 279 W/m 12,7 C 26,2 C 12,9 km/h (3 Bft) 95,83 %
13.07.2018 15:38 26,6 C 23,9 C 36,7 C 43 % 1016,6 hPa 0,0 l/m 9,9 km/h (2 Bft) W 266 2 min 0,000 mm 4,2 UV-I 773 W/m 13,0 C 25,9 C 16,1 km/h (3 Bft) 97,73 %
13.07.2018 15:39 26,5 C 23,9 C 35,0 C 41 % 1016,6 hPa 0,0 l/m 9,8 km/h (2 Bft) SW 233 1 min 0,000 mm 2,9 UV-I 846 W/m 12,2 C 25,9 C 14,5 km/h (3 Bft) 96,15 %
13.07.2018 15:40 26,4 C 23,9 C 33,9 C 41 % 1016,6 hPa 0,0 l/m 11,6 km/h (2 Bft) SW 234 1 min 0,000 mm 2,6 UV-I 716 W/m 12,1 C 25,5 C 17,7 km/h (3 Bft) 95,83 %
13.07.2018 15:41 26,2 C 23,9 C 32,2 C 41 % 1016,6 hPa 0,0 l/m 11,7 km/h (2 Bft) S-SW 211 0 min 0,000 mm 2,4 UV-I 206 W/m 11,9 C 25,2 C 17,7 km/h (3 Bft) 100,00 %
13.07.2018 15:43 25,8 C 23,9 C 30,0 C 41 % 1016,5 hPa 0,0 l/m 8,6 km/h (2 Bft) W-SW 249 0 min 0,000 mm 2,1 UV-I 165 W/m 11,5 C 25,3 C 12,9 km/h (3 Bft) 96,00 %
13.07.2018 15:44 25,7 C 23,9 C 29,4 C 43 % 1016,5 hPa 0,0 l/m 6,4 km/h (2 Bft) W-SW 250 0 min 0,000 mm 2,0 UV-I 115 W/m 12,2 C 25,7 C 8,0 km/h (2 Bft) 89,66 %
13.07.2018 15:45 25,6 C 23,9 C 28,9 C 42 % 1016,6 hPa 0,0 l/m 8,0 km/h (2 Bft) SW 223 0 min 0,000 mm 2,0 UV-I 157 W/m 11,7 C 25,2 C 11,3 km/h (2 Bft) 97,35 %
13.07.2018 15:46 25,6 C 23,9 C 28,9 C 42 % 1016,5 hPa 0,0 l/m 5,4 km/h (1 Bft) W-NW 284 0 min 0,000 mm 1,9 UV-I 175 W/m 11,7 C 25,6 C 8,0 km/h (2 Bft) 89,47 %
13.07.2018 15:47 25,5 C 23,9 C 28,3 C 44 % 1016,6 hPa 0,0 l/m 3,6 km/h (1 Bft) NW 309 0 min 0,000 mm 1,9 UV-I 207 W/m 12,3 C 25,5 C 4,8 km/h (1 Bft) 91,67 %
13.07.2018 15:48 25,4 C 23,9 C 27,8 C 45 % 1016,6 hPa 0,0 l/m 2,2 km/h (1 Bft) NW 321 0 min 0,000 mm 1,9 UV-I 212 W/m 12,6 C 25,4 C 4,8 km/h (1 Bft) 100,00 %
13.07.2018 15:49 25,3 C 23,9 C 27,8 C 45 % 1016,6 hPa 0,0 l/m 0,9 km/h (0 Bft) NW 321 0 min 0,000 mm 1,9 UV-I 226 W/m 12,5 C 25,3 C 1,6 km/h (1 Bft) 91,67 %
13.07.2018 15:50 25,3 C 23,9 C 27,8 C 43 % 1016,6 hPa 0,0 l/m 2,8 km/h (1 Bft) NW 319 0 min 0,000 mm 1,8 UV-I 187 W/m 11,8 C 25,3 C 4,8 km/h (1 Bft) 100,00 %
13.07.2018 15:51 25,3 C 23,9 C 27,8 C 44 % 1016,6 hPa 0,0 l/m 2,2 km/h (1 Bft) N-NO 15 0 min 0,000 mm 1,8 UV-I 186 W/m 12,2 C 25,3 C 3,2 km/h (1 Bft) 86,67 %
13.07.2018 15:52 25,2 C 23,9 C 27,8 C 45 % 1016,6 hPa 0,0 l/m 3,0 km/h (1 Bft) N 5 0 min 0,000 mm 1,8 UV-I 190 W/m 12,4 C 25,2 C 4,8 km/h (1 Bft) 100,00 %
13.07.2018 15:53 25,2 C 23,9 C 27,8 C 46 % 1016,6 hPa 0,0 l/m 2,5 km/h (1 Bft) N 10 0 min 0,000 mm 1,7 UV-I 193 W/m 12,7 C 25,2 C 4,8 km/h (1 Bft) 87,50 %
13.07.2018 15:54 25,2 C 23,9 C 27,2 C 48 % 1016,6 hPa 0,0 l/m 3,1 km/h (1 Bft) N-NO 21 0 min 0,000 mm 1,8 UV-I 211 W/m 13,4 C 25,2 C 4,8 km/h (1 Bft) 96,55 %
13.07.2018 15:55 25,2 C 23,9 C 27,2 C 48 % 1016,6 hPa 0,0 l/m 7,9 km/h (2 Bft) N 9 0 min 0,000 mm 1,8 UV-I 234 W/m 13,4 C 24,8 C 11,3 km/h (2 Bft) 93,33 %
13.07.2018 15:56 25,2 C 23,9 C 27,2 C 47 % 1016,7 hPa 0,0 l/m 8,2 km/h (2 Bft) N-NW 344 0 min 0,000 mm 1,9 UV-I 246 W/m 13,1 C 24,8 C 12,9 km/h (3 Bft) 100,00 %
13.07.2018 15:57 25,2 C 23,9 C 27,2 C 48 % 1016,7 hPa 0,0 l/m 14,2 km/h (3 Bft) N-NW 348 0 min 0,000 mm 2,0 UV-I 269 W/m 13,4 C 23,7 C 16,1 km/h (3 Bft) 95,12 %
13.07.2018 15:58 25,1 C 23,9 C 27,2 C 49 % 1016,6 hPa 0,0 l/m 8,5 km/h (2 Bft) N-NO 22 0 min 0,000 mm 2,1 UV-I 287 W/m 13,6 C 24,6 C 12,9 km/h (3 Bft) 92,31 %
13.07.2018 15:59 24,9 C 23,9 C 28,3 C 50 % 1016,6 hPa 0,0 l/m 7,6 km/h (2 Bft) N-NW 338 0 min 0,000 mm 2,8 UV-I 287 W/m 13,7 C 24,6 C 9,7 km/h (2 Bft) 100,00 %
13.07.2018 16:00 24,9 C 23,9 C 30,0 C 52 % 1016,6 hPa 0,0 l/m 8,3 km/h (2 Bft) N 355 1 min 0,000 mm 3,3 UV-I 608 W/m 14,4 C 24,4 C 12,9 km/h (3 Bft) 91,67 %
13.07.2018 16:01 24,9 C 23,9 C 30,6 C 50 % 1016,6 hPa 0,0 l/m 11,8 km/h (2 Bft) N-NO 14 1 min 0,356 mm 2,7 UV-I 875 W/m 13,7 C 23,7 C 16,1 km/h (3 Bft) 100,00 %
13.07.2018 16:02 25,0 C 23,9 C 29,4 C 52 % 1016,6 hPa 0,0 l/m 8,3 km/h (2 Bft) N-NO 23 0 min 0,000 mm 2,2 UV-I 324 W/m 14,4 C 24,5 C 12,9 km/h (3 Bft) 91,67 %
13.07.2018 16:03 24,9 C 23,9 C 28,9 C 51 % 1016,6 hPa 0,0 l/m 8,0 km/h (2 Bft) N-NO 14 0 min 0,000 mm 2,0 UV-I 225 W/m 14,1 C 24,5 C 12,9 km/h (3 Bft) 95,65 %
13.07.2018 16:04 24,8 C 23,9 C 27,8 C 50 % 1016,6 hPa 0,0 l/m 12,4 km/h (3 Bft) N 10 0 min 0,000 mm 1,8 UV-I 212 W/m 13,7 C 23,5 C 16,1 km/h (3 Bft) 96,30 %
13.07.2018 16:05 24,7 C 23,9 C 27,2 C 51 % 1016,6 hPa 0,0 l/m 13,7 km/h (3 Bft) NO 36 0 min 0,000 mm 1,7 UV-I 213 W/m 13,9 C 23,1 C 19,3 km/h (3 Bft) 95,65 %
13.07.2018 16:06 24,5 C 23,9 C 26,7 C 52 % 1016,6 hPa 0,0 l/m 16,0 km/h (3 Bft) N-NO 13 0 min 0,000 mm 1,6 UV-I 216 W/m 14,0 C 22,6 C 17,7 km/h (3 Bft) 96,30 %
13.07.2018 16:07 24,4 C 23,9 C 26,1 C 52 % 1016,6 hPa 0,0 l/m 13,0 km/h (3 Bft) N 360 0 min 0,000 mm 1,6 UV-I 207 W/m 13,9 C 22,9 C 16,1 km/h (3 Bft) 92,86 %
13.07.2018 16:08 24,3 C 23,9 C 25,6 C 52 % 1016,5 hPa 0,0 l/m 14,7 km/h (3 Bft) N-NO 25 0 min 0,000 mm 1,4 UV-I 207 W/m 13,8 C 22,5 C 17,7 km/h (3 Bft) 92,59 %
13.07.2018 16:09 24,2 C 23,9 C 25,6 C 52 % 1016,6 hPa 0,0 l/m 15,3 km/h (3 Bft) NO 42 0 min 0,000 mm 1,3 UV-I 204 W/m 13,7 C 22,3 C 19,3 km/h (3 Bft) 92,31 %
13.07.2018 16:10 24,1 C 23,9 C 25,0 C 52 % 1016,6 hPa 0,0 l/m 15,3 km/h (3 Bft) N-NO 29 0 min 0,000 mm 1,2 UV-I 191 W/m 13,6 C 22,2 C 19,3 km/h (3 Bft) 91,67 %
13.07.2018 16:11 23,9 C 23,9 C 25,0 C 52 % 1016,6 hPa 0,0 l/m 11,5 km/h (2 Bft) N 355 0 min 0,000 mm 1,1 UV-I 183 W/m 13,4 C 22,6 C 14,5 km/h (3 Bft) 93,33 %
13.07.2018 16:12 23,9 C 23,9 C 24,4 C 53 % 1016,6 hPa 0,0 l/m 12,6 km/h (3 Bft) N-NW 341 0 min 0,000 mm 1,1 UV-I 180 W/m 13,7 C 22,4 C 16,1 km/h (3 Bft) 95,65 %
13.07.2018 16:13 23,8 C 23,9 C 24,4 C 54 % 1016,6 hPa 0,0 l/m 9,9 km/h (2 Bft) NO 39 0 min 0,000 mm 1,0 UV-I 174 W/m 13,9 C 22,9 C 16,1 km/h (3 Bft) 100,00 %
13.07.2018 16:14 23,8 C 23,9 C 24,4 C 54 % 1016,6 hPa 0,0 l/m 13,3 km/h (3 Bft) N-NO 17 0 min 0,000 mm 1,0 UV-I 174 W/m 13,9 C 22,2 C 16,1 km/h (3 Bft) 94,74 %
13.07.2018 16:15 23,8 C 23,9 C 24,4 C 54 % 1016,7 hPa 0,0 l/m 13,7 km/h (3 Bft) N-NO 26 0 min 0,000 mm 1,0 UV-I 178 W/m 13,9 C 22,1 C 16,1 km/h (3 Bft) 95,83 %
13.07.2018 16:16 23,8 C 23,9 C 24,4 C 54 % 1016,6 hPa 0,0 l/m 11,0 km/h (2 Bft) N-NO 30 0 min 0,000 mm 1,0 UV-I 196 W/m 13,9 C 22,6 C 14,5 km/h (3 Bft) 97,23 %
13.07.2018 16:17 23,8 C 23,9 C 25,6 C 54 % 1016,6 hPa 0,0 l/m 7,7 km/h (2 Bft) NO 39 0 min 0,000 mm 1,4 UV-I 214 W/m 13,9 C 23,4 C 9,7 km/h (2 Bft) 92,11 %
13.07.2018 16:18 23,9 C 23,9 C 26,1 C 56 % 1016,6 hPa 0,0 l/m 12,3 km/h (3 Bft) N-NO 19 0 min 0,000 mm 1,6 UV-I 214 W/m 14,6 C 22,5 C 17,7 km/h (3 Bft) 86,96 %
13.07.2018 16:19 24,0 C 23,9 C 27,2 C 55 % 1016,7 hPa 0,0 l/m 11,0 km/h (2 Bft) NO 47 0 min 0,000 mm 1,8 UV-I 214 W/m 14,4 C 22,8 C 16,1 km/h (3 Bft) 96,30 %
13.07.2018 16:20 24,2 C 23,9 C 27,8 C 54 % 1016,7 hPa 0,0 l/m 9,9 km/h (2 Bft) NO 39 1 min 0,000 mm 1,6 UV-I 645 W/m 14,3 C 23,3 C 14,5 km/h (3 Bft) 92,31 %
13.07.2018 16:21 24,3 C 23,9 C 28,9 C 52 % 1016,6 hPa 0,0 l/m 12,5 km/h (3 Bft) N-NO 28 1 min 0,000 mm 1,8 UV-I 705 W/m 13,8 C 22,9 C 14,5 km/h (3 Bft) 96,30 %
13.07.2018 16:22 24,4 C 23,9 C 28,3 C 52 % 1016,6 hPa 0,0 l/m 17,5 km/h (3 Bft) N-NO 14 1 min 0,000 mm 1,6 UV-I 628 W/m 13,9 C 22,2 C 22,5 km/h (4 Bft) 100,00 %
13.07.2018 16:23 24,5 C 23,9 C 29,4 C 50 % 1016,6 hPa 0,0 l/m 15,5 km/h (3 Bft) N-NO 32 1 min 0,000 mm 2,3 UV-I 380 W/m 13,4 C 22,6 C 19,3 km/h (3 Bft) 92,59 %
13.07.2018 16:24 24,6 C 23,9 C 30,0 C 52 % 1016,6 hPa 0,0 l/m 15,8 km/h (3 Bft) N-NO 15 1 min 0,000 mm 2,2 UV-I 380 W/m 14,1 C 22,7 C 20,9 km/h (4 Bft) 96,15 %
13.07.2018 16:25 24,7 C 23,9 C 31,1 C 50 % 1016,6 hPa 0,0 l/m 13,8 km/h (3 Bft) N-NO 22 1 min 0,000 mm 2,3 UV-I 380 W/m 13,6 C 23,1 C 19,3 km/h (3 Bft) 93,33 %
13.07.2018 16:26 24,8 C 23,9 C 32,2 C 49 % 1016,6 hPa 0,0 l/m 13,6 km/h (3 Bft) N 5 1 min 0,000 mm 2,6 UV-I 801 W/m 13,3 C 23,3 C 17,7 km/h (3 Bft) 97,18 %
13.07.2018 16:27 25,0 C 23,9 C 32,8 C 52 % 1016,6 hPa 0,0 l/m 13,9 km/h (3 Bft) NO 44 1 min 0,000 mm 2,8 UV-I 822 W/m 14,4 C 23,5 C 19,3 km/h (3 Bft) 93,18 %
13.07.2018 16:28 25,1 C 23,9 C 33,3 C 48 % 1016,6 hPa 0,0 l/m 11,1 km/h (2 Bft) N-NW 348 1 min 0,000 mm 2,8 UV-I 830 W/m 13,3 C 24,1 C 16,1 km/h (3 Bft) 95,65 %
13.07.2018 16:29 25,3 C 23,9 C 34,4 C 51 % 1016,6 hPa 0,0 l/m 11,1 km/h (2 Bft) NO 38 1 min 0,000 mm 2,4 UV-I 800 W/m 14,4 C 24,3 C 16,1 km/h (3 Bft) 95,83 %
13.07.2018 16:30 25,5 C 23,9 C 34,4 C 50 % 1016,6 hPa 0,0 l/m 13,9 km/h (3 Bft) N 11 1 min 0,000 mm 1,5 UV-I 780 W/m 14,3 C 24,1 C 19,3 km/h (3 Bft) 95,65 %
13.07.2018 16:31 25,5 C 23,9 C 34,4 C 47 % 1016,6 hPa 0,0 l/m 15,0 km/h (3 Bft) N-NO 14 1 min 0,000 mm 1,4 UV-I 832 W/m 13,3 C 23,9 C 17,7 km/h (3 Bft) 91,67 %
13.07.2018 16:32 25,5 C 23,9 C 34,4 C 48 % 1016,6 hPa 0,0 l/m 11,9 km/h (2 Bft) N 5 1 min 0,000 mm 1,5 UV-I 835 W/m 13,7 C 24,4 C 14,5 km/h (3 Bft) 100,00 %
13.07.2018 16:33 25,6 C 23,9 C 34,4 C 49 % 1016,6 hPa 0,0 l/m 14,5 km/h (3 Bft) N-NO 13 1 min 0,000 mm 2,4 UV-I 835 W/m 14,1 C 24,1 C 20,9 km/h (4 Bft) 93,75 %
13.07.2018 16:34 25,7 C 23,9 C 34,4 C 48 % 1016,6 hPa 0,0 l/m 13,5 km/h (3 Bft) N 9 1 min 0,000 mm 2,3 UV-I 835 W/m 13,9 C 24,4 C 17,7 km/h (3 Bft) 96,15 %
13.07.2018 16:35 25,7 C 23,9 C 33,9 C 48 % 1016,6 hPa 0,0 l/m 15,0 km/h (3 Bft) N-NO 33 1 min 0,000 mm 2,3 UV-I 835 W/m 13,9 C 24,2 C 19,3 km/h (3 Bft) 93,33 %
13.07.2018 16:36 25,7 C 23,9 C 33,9 C 47 % 1016,5 hPa 0,0 l/m 14,1 km/h (3 Bft) N 360 1 min 0,000 mm 2,4 UV-I 682 W/m 13,5 C 24,3 C 17,7 km/h (3 Bft) 96,30 %
13.07.2018 16:38 25,6 C 23,9 C 33,3 C 47 % 1016,5 hPa 0,0 l/m 13,6 km/h (3 Bft) N 5 2 min 0,000 mm 2,7 UV-I 634 W/m 13,4 C 24,2 C 17,7 km/h (3 Bft) 98,11 %
13.07.2018 16:39 25,5 C 23,9 C 33,9 C 48 % 1016,5 hPa 0,0 l/m 14,8 km/h (3 Bft) NO 42 1 min 0,000 mm 2,9 UV-I 638 W/m 13,7 C 23,9 C 17,7 km/h (3 Bft) 94,12 %
13.07.2018 16:40 25,5 C 23,9 C 33,9 C 48 % 1016,5 hPa 0,0 l/m 14,4 km/h (3 Bft) N 355 1 min 0,000 mm 3,0 UV-I 710 W/m 13,7 C 24,0 C 17,7 km/h (3 Bft) 96,30 %
13.07.2018 16:41 25,4 C 23,9 C 34,4 C 48 % 1016,5 hPa 0,0 l/m 13,8 km/h (3 Bft) N 10 1 min 0,000 mm 3,0 UV-I 785 W/m 13,6 C 24,0 C 16,1 km/h (3 Bft) 95,65 %
13.07.2018 16:42 25,4 C 23,9 C 33,9 C 49 % 1016,5 hPa 0,0 l/m 12,7 km/h (3 Bft) NO 38 1 min 0,000 mm 2,9 UV-I 767 W/m 13,9 C 24,1 C 16,1 km/h (3 Bft) 100,00 %
13.07.2018 16:43 25,6 C 23,9 C 34,4 C 51 % 1016,5 hPa 0,0 l/m 12,5 km/h (3 Bft) N-NO 22 1 min 0,000 mm 2,9 UV-I 751 W/m 14,7 C 24,4 C 16,1 km/h (3 Bft) 95,65 %
13.07.2018 16:44 25,7 C 23,9 C 34,4 C 49 % 1016,5 hPa 0,0 l/m 11,2 km/h (2 Bft) NO 46 1 min 0,000 mm 2,9 UV-I 738 W/m 14,2 C 24,7 C 16,1 km/h (3 Bft) 100,00 %
13.07.2018 16:45 25,8 C 23,9 C 35,0 C 49 % 1016,5 hPa 0,0 l/m 12,8 km/h (3 Bft) N-NO 12 1 min 0,000 mm 2,8 UV-I 726 W/m 14,3 C 24,6 C 16,1 km/h (3 Bft) 96,15 %
13.07.2018 16:46 25,9 C 23,9 C 35,6 C 49 % 1016,5 hPa 0,0 l/m 11,1 km/h (2 Bft) N 350 1 min 0,000 mm 2,8 UV-I 718 W/m 14,4 C 25,0 C 16,1 km/h (3 Bft) 88,89 %
13.07.2018 16:47 26,0 C 23,9 C 35,6 C 47 % 1016,5 hPa 0,0 l/m 10,4 km/h (2 Bft) N-NO 29 1 min 0,000 mm 2,7 UV-I 712 W/m 13,8 C 25,2 C 12,9 km/h (3 Bft) 93,33 %
13.07.2018 16:48 26,0 C 23,9 C 36,1 C 48 % 1016,5 hPa 0,0 l/m 6,4 km/h (2 Bft) O 92 1 min 0,000 mm 2,7 UV-I 708 W/m 14,1 C 26,0 C 12,9 km/h (3 Bft) 96,15 %
13.07.2018 16:49 26,0 C 23,9 C 36,1 C 49 % 1016,5 hPa 0,0 l/m 9,5 km/h (2 Bft) NO 44 1 min 0,000 mm 2,6 UV-I 698 W/m 14,4 C 25,4 C 14,5 km/h (3 Bft) 100,00 %
13.07.2018 16:50 26,1 C 23,9 C 36,1 C 49 % 1016,5 hPa 0,0 l/m 9,4 km/h (2 Bft) O-NO 67 1 min 0,000 mm 2,6 UV-I 687 W/m 14,5 C 25,5 C 14,5 km/h (3 Bft) 100,00 %
13.07.2018 16:51 26,1 C 23,9 C 36,1 C 48 % 1016,5 hPa 0,0 l/m 13,6 km/h (3 Bft) N-NO 19 1 min 0,000 mm 2,6 UV-I 688 W/m 14,2 C 24,8 C 17,7 km/h (3 Bft) 100,00 %
13.07.2018 16:53 26,3 C 23,9 C 36,1 C 50 % 1016,4 hPa 0,0 l/m 10,9 km/h (2 Bft) NO 48 2 min 0,000 mm 2,6 UV-I 698 W/m 15,0 C 25,5 C 17,7 km/h (3 Bft) 100,00 %
13.07.2018 16:54 26,3 C 23,9 C 36,7 C 48 % 1016,4 hPa 0,0 l/m 6,4 km/h (2 Bft) NO 40 1 min 0,000 mm 2,6 UV-I 698 W/m 14,4 C 26,3 C 8,0 km/h (2 Bft) 92,31 %
13.07.2018 16:55 26,3 C 23,9 C 36,7 C 48 % 1016,4 hPa 0,0 l/m 13,8 km/h (3 Bft) NO 45 1 min 0,000 mm 2,5 UV-I 694 W/m 14,4 C 25,0 C 19,3 km/h (3 Bft) 100,00 %
13.07.2018 16:56 26,3 C 23,9 C 35,6 C 48 % 1016,5 hPa 0,0 l/m 12,7 km/h (3 Bft) NO 46 1 min 0,000 mm 2,5 UV-I 696 W/m 14,4 C 25,2 C 17,7 km/h (3 Bft) 95,65 %
13.07.2018 16:57 26,2 C 23,9 C 35,0 C 46 % 1016,4 hPa 0,0 l/m 14,2 km/h (3 Bft) N-NW 339 1 min 0,000 mm 2,5 UV-I 696 W/m 13,6 C 24,9 C 19,3 km/h (3 Bft) 100,00 %
13.07.2018 16:58 26,2 C 23,9 C 35,0 C 47 % 1016,4 hPa 0,0 l/m 11,9 km/h (2 Bft) N-NO 24 1 min 0,000 mm 2,5 UV-I 693 W/m 14,0 C 25,2 C 16,1 km/h (3 Bft) 100,00 %
13.07.2018 16:59 26,2 C 23,9 C 35,6 C 47 % 1016,4 hPa 0,0 l/m 11,0 km/h (2 Bft) NO 51 1 min 0,000 mm 2,5 UV-I 689 W/m 14,0 C 25,3 C 12,9 km/h (3 Bft) 100,00 %
13.07.2018 17:00 26,2 C 23,9 C 35,6 C 47 % 1016,4 hPa 0,0 l/m 9,6 km/h (2 Bft) N-NO 25 1 min 0,000 mm 2,4 UV-I 687 W/m 14,0 C 25,6 C 16,1 km/h (3 Bft) 100,00 %
13.07.2018 17:02 26,1 C 23,9 C 35,0 C 47 % 1016,4 hPa 0,0 l/m 13,5 km/h (3 Bft) N-NO 23 2 min 0,457 mm 2,4 UV-I 682 W/m 13,9 C 24,8 C 19,3 km/h (3 Bft) 98,11 %
13.07.2018 17:03 25,9 C 23,9 C 34,4 C 46 % 1016,4 hPa 0,0 l/m 13,9 km/h (3 Bft) N-NO 23 1 min 0,000 mm 2,4 UV-I 672 W/m 13,4 C 24,5 C 19,3 km/h (3 Bft) 100,00 %
13.07.2018 17:04 25,9 C 23,9 C 33,9 C 48 % 1016,4 hPa 0,0 l/m 12,6 km/h (3 Bft) N 10 1 min 0,000 mm 2,3 UV-I 668 W/m 14,0 C 24,7 C 19,3 km/h (3 Bft) 100,00 %
13.07.2018 17:05 25,8 C 23,9 C 33,9 C 47 % 1016,4 hPa 0,0 l/m 14,1 km/h (3 Bft) N-NO 15 1 min 0,000 mm 2,2 UV-I 599 W/m 13,6 C 24,4 C 17,7 km/h (3 Bft) 100,00 %
13.07.2018 17:06 25,8 C 23,9 C 32,8 C 47 % 1016,4 hPa 0,0 l/m 15,2 km/h (3 Bft) N 11 1 min 0,000 mm 2,0 UV-I 548 W/m 13,6 C 24,3 C 19,3 km/h (3 Bft) 100,00 %
13.07.2018 17:07 25,6 C 23,9 C 32,2 C 47 % 1016,4 hPa 0,0 l/m 15,2 km/h (3 Bft) N-NO 28 1 min 0,000 mm 2,1 UV-I 548 W/m 13,4 C 24,0 C 17,7 km/h (3 Bft) 100,00 %
13.07.2018 17:08 25,5 C 23,9 C 31,7 C 48 % 1016,5 hPa 0,0 l/m 12,2 km/h (2 Bft) NO 44 1 min 0,000 mm 1,9 UV-I 517 W/m 13,7 C 24,3 C 17,7 km/h (3 Bft) 100,00 %
13.07.2018 17:09 25,3 C 23,9 C 31,7 C 48 % 1016,5 hPa 0,0 l/m 17,6 km/h (3 Bft) NO 39 1 min 0,000 mm 2,0 UV-I 424 W/m 13,5 C 23,3 C 19,3 km/h (3 Bft) 100,00 %
13.07.2018 17:10 25,2 C 23,9 C 30,6 C 49 % 1016,5 hPa 0,0 l/m 13,1 km/h (3 Bft) N-NO 32 1 min 0,000 mm 2,1 UV-I 424 W/m 13,7 C 23,8 C 17,7 km/h (3 Bft) 95,83 %
13.07.2018 17:11 25,1 C 23,9 C 31,1 C 49 % 1016,4 hPa 0,0 l/m 10,3 km/h (2 Bft) NO 36 1 min 0,000 mm 2,0 UV-I 424 W/m 13,6 C 24,2 C 14,5 km/h (3 Bft) 100,00 %
13.07.2018 17:12 25,1 C 23,9 C 31,7 C 51 % 1016,5 hPa 0,0 l/m 12,8 km/h (3 Bft) NO 40 1 min 0,000 mm 2,1 UV-I 531 W/m 14,2 C 23,8 C 17,7 km/h (3 Bft) 100,00 %
13.07.2018 17:13 25,2 C 23,9 C 31,7 C 49 % 1016,5 hPa 0,0 l/m 11,3 km/h (2 Bft) NO 56 1 min 0,000 mm 2,1 UV-I 571 W/m 13,7 C 24,1 C 14,5 km/h (3 Bft) 95,65 %
13.07.2018 17:14 25,2 C 23,9 C 32,2 C 51 % 1016,4 hPa 0,0 l/m 9,5 km/h (2 Bft) O-NO 72 1 min 0,000 mm 2,1 UV-I 627 W/m 14,3 C 24,5 C 12,9 km/h (3 Bft) 100,00 %
13.07.2018 17:15 25,2 C 23,9 C 32,2 C 50 % 1016,4 hPa 0,0 l/m 10,5 km/h (2 Bft) N-NO 24 1 min 0,000 mm 2,0 UV-I 584 W/m 14,0 C 24,3 C 16,1 km/h (3 Bft) 100,00 %
13.07.2018 17:16 25,2 C 23,9 C 32,2 C 50 % 1016,4 hPa 0,0 l/m 9,7 km/h (2 Bft) NO 42 1 min 0,000 mm 1,9 UV-I 584 W/m 14,0 C 24,4 C 16,1 km/h (3 Bft) 100,00 %
13.07.2018 17:17 25,2 C 23,9 C 32,2 C 49 % 1016,4 hPa 0,0 l/m 12,2 km/h (2 Bft) NO 46 1 min 0,000 mm 2,0 UV-I 571 W/m 13,7 C 24,0 C 14,5 km/h (3 Bft) 100,00 %
13.07.2018 17:18 25,2 C 23,9 C 32,2 C 50 % 1016,4 hPa 0,0 l/m 14,8 km/h (3 Bft) NO 36 1 min 0,000 mm 1,9 UV-I 539 W/m 14,0 C 23,6 C 19,3 km/h (3 Bft) 100,00 %
13.07.2018 17:19 25,2 C 23,9 C 32,2 C 50 % 1016,4 hPa 0,0 l/m 12,9 km/h (3 Bft) NO 55 1 min 0,000 mm 1,9 UV-I 541 W/m 14,0 C 23,9 C 14,5 km/h (3 Bft) 100,00 %
13.07.2018 17:20 25,1 C 23,9 C 32,2 C 49 % 1016,3 hPa 0,0 l/m 10,7 km/h (2 Bft) N-NO 32 1 min 0,000 mm 1,9 UV-I 539 W/m 13,6 C 24,1 C 16,1 km/h (3 Bft) 100,00 %
13.07.2018 17:21 25,1 C 23,9 C 32,8 C 50 % 1016,3 hPa 0,0 l/m 10,5 km/h (2 Bft) NO 34 1 min 0,000 mm 1,9 UV-I 529 W/m 13,9 C 24,2 C 12,9 km/h (3 Bft) 100,00 %
13.07.2018 17:22 25,2 C 23,9 C 32,8 C 51 % 1016,3 hPa 0,0 l/m 8,9 km/h (2 Bft) NO 46 1 min 0,000 mm 1,8 UV-I 524 W/m 14,3 C 24,6 C 11,3 km/h (2 Bft) 100,00 %
13.07.2018 17:23 25,2 C 23,9 C 32,8 C 49 % 1016,4 hPa 0,0 l/m 9,6 km/h (2 Bft) N-NO 28 1 min 0,000 mm 1,8 UV-I 520 W/m 13,7 C 24,5 C 12,9 km/h (3 Bft) 100,00 %
13.07.2018 17:24 25,2 C 23,9 C 32,2 C 50 % 1016,4 hPa 0,0 l/m 10,4 km/h (2 Bft) N-NO 33 1 min 0,000 mm 1,6 UV-I 519 W/m 14,0 C 24,3 C 14,5 km/h (3 Bft) 100,00 %
13.07.2018 17:25 25,2 C 23,9 C 31,1 C 49 % 1016,4 hPa 0,0 l/m 8,6 km/h (2 Bft) N-NO 26 0 min 0,000 mm 1,6 UV-I 269 W/m 13,7 C 24,7 C 14,5 km/h (3 Bft) 100,00 %
13.07.2018 17:26 25,1 C 23,9 C 31,7 C 49 % 1016,4 hPa 0,0 l/m 10,2 km/h (2 Bft) NO 42 1 min 0,000 mm 1,7 UV-I 312 W/m 13,6 C 24,2 C 14,5 km/h (3 Bft) 100,00 %
13.07.2018 17:28 25,2 C 23,9 C 32,2 C 50 % 1016,4 hPa 0,0 l/m 10,7 km/h (2 Bft) N-NO 19 2 min 0,000 mm 1,7 UV-I 500 W/m 14,0 C 24,3 C 14,5 km/h (3 Bft) 98,00 %
13.07.2018 17:29 25,2 C 23,9 C 32,2 C 48 % 1016,4 hPa 0,0 l/m 8,1 km/h (2 Bft) NO 36 1 min 0,000 mm 1,7 UV-I 503 W/m 13,4 C 24,8 C 9,7 km/h (2 Bft) 100,00 %
13.07.2018 17:30 25,2 C 23,9 C 32,2 C 48 % 1016,3 hPa 0,0 l/m 7,9 km/h (2 Bft) N-NO 21 1 min 0,000 mm 1,7 UV-I 506 W/m 13,4 C 24,8 C 12,9 km/h (3 Bft) 100,00 %
13.07.2018 17:31 25,2 C 23,9 C 32,2 C 49 % 1016,3 hPa 0,0 l/m 10,3 km/h (2 Bft) N 5 1 min 0,000 mm 1,7 UV-I 494 W/m 13,7 C 24,3 C 12,9 km/h (3 Bft) 100,00 %
13.07.2018 17:32 25,2 C 23,9 C 32,2 C 48 % 1016,3 hPa 0,0 l/m 8,9 km/h (2 Bft) NO 44 1 min 0,000 mm 1,6 UV-I 482 W/m 13,4 C 24,6 C 12,9 km/h (3 Bft) 100,00 %
13.07.2018 17:33 25,2 C 23,9 C 30,6 C 50 % 1016,3 hPa 0,0 l/m 6,4 km/h (2 Bft) NO 46 1 min 0,000 mm 1,4 UV-I 301 W/m 14,0 C 25,2 C 8,0 km/h (2 Bft) 96,30 %
13.07.2018 17:34 25,1 C 23,9 C 29,4 C 47 % 1016,4 hPa 0,0 l/m 8,2 km/h (2 Bft) O-NO 61 0 min 0,000 mm 1,4 UV-I 165 W/m 13,0 C 24,7 C 11,3 km/h (2 Bft) 100,00 %
13.07.2018 17:35 25,0 C 23,9 C 30,0 C 51 % 1016,3 hPa 0,0 l/m 6,0 km/h (2 Bft) O 83 0 min 0,000 mm 1,5 UV-I 171 W/m 14,1 C 25,0 C 11,3 km/h (2 Bft) 100,00 %
13.07.2018 17:36 25,0 C 23,9 C 30,6 C 50 % 1016,3 hPa 0,0 l/m 12,5 km/h (3 Bft) N-NO 20 1 min 0,000 mm 1,5 UV-I 438 W/m 13,8 C 23,7 C 17,7 km/h (3 Bft) 100,00 %
13.07.2018 17:38 25,2 C 23,9 C 31,7 C 51 % 1016,3 hPa 0,0 l/m 9,9 km/h (2 Bft) NO 45 2 min 0,000 mm 1,5 UV-I 450 W/m 14,3 C 24,4 C 14,5 km/h (3 Bft) 96,92 %
13.07.2018 17:39 25,3 C 23,9 C 31,7 C 49 % 1016,3 hPa 0,0 l/m 6,8 km/h (2 Bft) NO 53 1 min 0,000 mm 1,5 UV-I 438 W/m 13,8 C 25,2 C 9,7 km/h (2 Bft) 100,00 %
13.07.2018 17:40 25,3 C 23,9 C 31,7 C 49 % 1016,3 hPa 0,0 l/m 9,6 km/h (2 Bft) NO 52 1 min 0,000 mm 1,5 UV-I 447 W/m 13,8 C 24,6 C 14,5 km/h (3 Bft) 94,12 %
13.07.2018 17:41 25,3 C 23,9 C 31,7 C 49 % 1016,3 hPa 0,0 l/m 7,2 km/h (2 Bft) NO 36 1 min 0,000 mm 1,5 UV-I 446 W/m 13,8 C 25,1 C 9,7 km/h (2 Bft) 96,30 %
13.07.2018 17:42 25,3 C 23,9 C 32,2 C 49 % 1016,3 hPa 0,0 l/m 7,3 km/h (2 Bft) NO 42 1 min 0,000 mm 1,4 UV-I 441 W/m 13,8 C 25,1 C 9,7 km/h (2 Bft) 96,15 %
13.07.2018 17:43 25,3 C 23,9 C 32,2 C 51 % 1016,3 hPa 0,0 l/m 6,8 km/h (2 Bft) O-NO 65 1 min 0,000 mm 1,4 UV-I 438 W/m 14,4 C 25,2 C 9,7 km/h (2 Bft) 95,83 %
13.07.2018 17:44 25,4 C 23,9 C 32,8 C 52 % 1016,3 hPa 0,0 l/m 7,4 km/h (2 Bft) N-NO 30 1 min 0,000 mm 1,4 UV-I 434 W/m 14,8 C 25,2 C 9,7 km/h (2 Bft) 95,65 %
13.07.2018 17:45 25,4 C 23,9 C 32,8 C 50 % 1016,3 hPa 0,0 l/m 9,4 km/h (2 Bft) NO 44 1 min 0,000 mm 1,4 UV-I 429 W/m 14,2 C 24,7 C 11,3 km/h (2 Bft) 100,00 %
13.07.2018 17:46 25,4 C 23,9 C 32,8 C 49 % 1016,3 hPa 0,0 l/m 8,9 km/h (2 Bft) N-NO 20 1 min 0,000 mm 1,4 UV-I 425 W/m 13,9 C 24,8 C 11,3 km/h (2 Bft) 97,30 %
13.07.2018 17:48 25,4 C 23,9 C 32,2 C 49 % 1016,3 hPa 0,0 l/m 6,9 km/h (2 Bft) NO 37 2 min 0,000 mm 1,3 UV-I 418 W/m 13,9 C 25,3 C 9,7 km/h (2 Bft) 95,56 %
13.07.2018 17:49 25,4 C 23,9 C 32,2 C 51 % 1016,3 hPa 0,0 l/m 8,3 km/h (2 Bft) NO 46 1 min 0,000 mm 1,3 UV-I 413 W/m 14,5 C 25,0 C 9,7 km/h (2 Bft) 92,31 %
13.07.2018 17:50 25,4 C 23,9 C 32,2 C 49 % 1016,3 hPa 0,0 l/m 10,4 km/h (2 Bft) NO 34 1 min 0,000 mm 1,3 UV-I 413 W/m 13,9 C 24,5 C 14,5 km/h (3 Bft) 100,00 %
13.07.2018 17:51 25,4 C 23,9 C 31,7 C 49 % 1016,3 hPa 0,0 l/m 8,3 km/h (2 Bft) NO 48 1 min 0,000 mm 1,2 UV-I 386 W/m 13,9 C 25,0 C 11,3 km/h (2 Bft) 95,65 %
13.07.2018 17:52 25,3 C 23,9 C 31,7 C 48 % 1016,2 hPa 0,0 l/m 9,0 km/h (2 Bft) NO 44 1 min 0,000 mm 1,3 UV-I 384 W/m 13,5 C 24,7 C 14,5 km/h (3 Bft) 100,00 %
13.07.2018 17:53 25,2 C 23,9 C 32,2 C 51 % 1016,1 hPa 0,0 l/m 7,2 km/h (2 Bft) NO 40 1 min 0,000 mm 1,3 UV-I 401 W/m 14,3 C 25,0 C 11,3 km/h (2 Bft) 92,31 %
13.07.2018 17:54 25,2 C 23,9 C 32,2 C 48 % 1016,2 hPa 0,0 l/m 4,2 km/h (1 Bft) NO 39 1 min 0,000 mm 1,3 UV-I 401 W/m 13,4 C 25,2 C 6,4 km/h (2 Bft) 100,00 %
13.07.2018 17:55 25,2 C 23,9 C 32,8 C 50 % 1016,1 hPa 0,0 l/m 7,5 km/h (2 Bft) O-NO 75 1 min 0,000 mm 1,3 UV-I 398 W/m 14,0 C 24,9 C 11,3 km/h (2 Bft) 88,46 %
13.07.2018 17:56 25,3 C 23,9 C 33,3 C 49 % 1016,1 hPa 0,0 l/m 10,9 km/h (2 Bft) O-NO 72 1 min 0,000 mm 1,2 UV-I 395 W/m 13,8 C 24,3 C 12,9 km/h (3 Bft) 100,00 %
13.07.2018 17:57 25,3 C 23,9 C 32,8 C 49 % 1016,1 hPa 0,0 l/m 6,2 km/h (2 Bft) N-NO 30 1 min 0,000 mm 1,2 UV-I 391 W/m 13,8 C 25,3 C 12,9 km/h (3 Bft) 94,12 %
13.07.2018 17:58 25,3 C 23,9 C 33,3 C 50 % 1016,1 hPa 0,0 l/m 0,6 km/h (0 Bft) N-NO 30 1 min 0,000 mm 1,2 UV-I 389 W/m 14,1 C 25,3 C 1,6 km/h (1 Bft) 91,67 %
13.07.2018 17:59 25,2 C 23,9 C 33,3 C 49 % 1016,1 hPa 0,0 l/m 1,2 km/h (1 Bft) N-NO 30 1 min 0,000 mm 1,2 UV-I 387 W/m 13,7 C 25,2 C 1,6 km/h (1 Bft) 100,00 %
13.07.2018 18:00 25,2 C 23,9 C 33,9 C 47 % 1016,2 hPa 0,0 l/m 1,4 km/h (1 Bft) SO 144 1 min 0,000 mm 1,2 UV-I 385 W/m 13,1 C 25,2 C 3,2 km/h (1 Bft) 86,67 %
13.07.2018 18:02 25,2 C 23,9 C 34,4 C 50 % 1016,1 hPa 0,0 l/m 4,8 km/h (1 Bft) NO 53 2 min 0,381 mm 1,2 UV-I 381 W/m 14,0 C 25,2 C 8,0 km/h (2 Bft) 95,74 %
13.07.2018 18:03 25,2 C 23,9 C 34,4 C 50 % 1016,2 hPa 0,0 l/m 5,8 km/h (2 Bft) O-NO 71 1 min 0,000 mm 1,2 UV-I 375 W/m 14,0 C 25,2 C 8,0 km/h (2 Bft) 95,65 %
13.07.2018 18:04 25,3 C 23,9 C 34,4 C 49 % 1016,2 hPa 0,0 l/m 5,7 km/h (1 Bft) O-NO 76 1 min 0,000 mm 1,1 UV-I 368 W/m 13,8 C 25,3 C 6,4 km/h (2 Bft) 88,89 %
13.07.2018 18:05 25,3 C 23,9 C 34,4 C 51 % 1016,2 hPa 0,0 l/m 5,8 km/h (2 Bft) O-NO 75 1 min 0,000 mm 1,1 UV-I 366 W/m 14,4 C 25,3 C 6,4 km/h (2 Bft) 96,15 %
13.07.2018 18:06 25,3 C 23,9 C 34,4 C 47 % 1016,2 hPa 0,0 l/m 3,4 km/h (1 Bft) NO 53 1 min 0,000 mm 1,1 UV-I 364 W/m 13,2 C 25,3 C 6,4 km/h (2 Bft) 95,83 %
13.07.2018 18:07 25,3 C 23,9 C 34,4 C 47 % 1016,1 hPa 0,0 l/m 1,0 km/h (0 Bft) O-NO 75 1 min 0,000 mm 1,1 UV-I 361 W/m 13,2 C 25,3 C 3,2 km/h (1 Bft) 95,65 %
13.07.2018 18:08 25,2 C 23,9 C 34,4 C 48 % 1016,1 hPa 0,0 l/m 1,6 km/h (1 Bft) O 93 1 min 0,000 mm 1,1 UV-I 360 W/m 13,4 C 25,2 C 4,8 km/h (1 Bft) 93,33 %
13.07.2018 18:09 25,2 C 23,9 C 35,0 C 48 % 1016,1 hPa 0,0 l/m 5,0 km/h (1 Bft) O-SO 121 1 min 0,000 mm 1,1 UV-I 360 W/m 13,4 C 25,2 C 8,0 km/h (2 Bft) 100,00 %
13.07.2018 18:10 25,2 C 23,9 C 35,0 C 48 % 1016,1 hPa 0,0 l/m 3,4 km/h (1 Bft) SO 125 1 min 0,000 mm 1,1 UV-I 359 W/m 13,4 C 25,2 C 4,8 km/h (1 Bft) 86,96 %
13.07.2018 18:11 25,2 C 23,9 C 35,0 C 49 % 1016,1 hPa 0,0 l/m 4,0 km/h (1 Bft) O-SO 122 1 min 0,000 mm 1,0 UV-I 357 W/m 13,7 C 25,2 C 6,4 km/h (2 Bft) 96,67 %
13.07.2018 18:12 25,3 C 23,9 C 35,0 C 50 % 1016,1 hPa 0,0 l/m 2,9 km/h (1 Bft) O-SO 123 1 min 0,000 mm 1,0 UV-I 351 W/m 14,1 C 25,3 C 4,8 km/h (1 Bft) 100,00 %
13.07.2018 18:13 25,3 C 23,9 C 35,0 C 48 % 1016,1 hPa 0,0 l/m 2,2 km/h (1 Bft) SO 124 1 min 0,000 mm 1,0 UV-I 347 W/m 13,5 C 25,3 C 4,8 km/h (1 Bft) 95,83 %
13.07.2018 18:14 25,4 C 23,9 C 35,0 C 51 % 1016,1 hPa 0,0 l/m 4,7 km/h (1 Bft) NO 40 1 min 0,000 mm 1,0 UV-I 345 W/m 14,5 C 25,4 C 8,0 km/h (2 Bft) 95,65 %
13.07.2018 18:15 25,6 C 23,9 C 35,0 C 50 % 1016,0 hPa 0,0 l/m 8,5 km/h (2 Bft) NO 51 1 min 0,000 mm 1,0 UV-I 344 W/m 14,4 C 25,1 C 11,3 km/h (2 Bft) 100,00 %
13.07.2018 18:16 25,6 C 23,9 C 34,4 C 50 % 1016,0 hPa 0,0 l/m 7,8 km/h (2 Bft) NO 49 1 min 0,000 mm 1,0 UV-I 343 W/m 14,4 C 25,3 C 9,7 km/h (2 Bft) 100,00 %
13.07.2018 18:17 25,6 C 23,9 C 34,4 C 50 % 1016,0 hPa 0,0 l/m 7,4 km/h (2 Bft) N-NO 25 1 min 0,000 mm 0,9 UV-I 329 W/m 14,4 C 25,4 C 9,7 km/h (2 Bft) 100,00 %
13.07.2018 18:18 25,6 C 23,9 C 33,9 C 47 % 1016,0 hPa 0,0 l/m 3,1 km/h (1 Bft) N-NO 25 1 min 0,000 mm 0,9 UV-I 331 W/m 13,4 C 25,6 C 6,4 km/h (2 Bft) 100,00 %
13.07.2018 18:19 25,5 C 23,9 C 33,9 C 47 % 1016,0 hPa 0,0 l/m 2,7 km/h (1 Bft) NO 39 1 min 0,000 mm 0,9 UV-I 317 W/m 13,3 C 25,5 C 6,4 km/h (2 Bft) 100,00 %
13.07.2018 18:20 25,4 C 23,9 C 33,3 C 49 % 1016,0 hPa 0,0 l/m 5,9 km/h (2 Bft) NO 40 1 min 0,000 mm 0,9 UV-I 323 W/m 13,9 C 25,4 C 8,0 km/h (2 Bft) 100,00 %
13.07.2018 18:21 25,4 C 23,9 C 32,8 C 51 % 1016,0 hPa 0,0 l/m 7,1 km/h (2 Bft) NO 39 1 min 0,000 mm 0,9 UV-I 324 W/m 14,5 C 25,2 C 8,0 km/h (2 Bft) 92,59 %
13.07.2018 18:22 25,5 C 23,9 C 32,8 C 48 % 1016,0 hPa 0,0 l/m 5,1 km/h (1 Bft) NO 39 1 min 0,000 mm 0,9 UV-I 327 W/m 13,7 C 25,5 C 6,4 km/h (2 Bft) 100,00 %
13.07.2018 18:23 25,5 C 23,9 C 32,8 C 49 % 1015,9 hPa 0,0 l/m 5,5 km/h (1 Bft) N-NO 32 1 min 0,000 mm 0,9 UV-I 323 W/m 14,0 C 25,5 C 6,4 km/h (2 Bft) 93,33 %
13.07.2018 18:24 25,5 C 23,9 C 32,8 C 48 % 1016,0 hPa 0,0 l/m 4,5 km/h (1 Bft) N 11 1 min 0,000 mm 0,9 UV-I 319 W/m 13,7 C 25,5 C 6,4 km/h (2 Bft) 100,00 %
13.07.2018 18:25 25,6 C 23,9 C 32,8 C 51 % 1015,9 hPa 0,0 l/m 4,5 km/h (1 Bft) NO 43 1 min 0,000 mm 0,9 UV-I 309 W/m 14,7 C 25,6 C 6,4 km/h (2 Bft) 100,00 %
13.07.2018 18:26 25,7 C 23,9 C 32,8 C 49 % 1015,9 hPa 0,0 l/m 3,9 km/h (1 Bft) O-NO 69 1 min 0,000 mm 0,8 UV-I 298 W/m 14,2 C 25,7 C 6,4 km/h (2 Bft) 100,00 %
13.07.2018 18:27 25,6 C 23,9 C 32,8 C 49 % 1015,9 hPa 0,0 l/m 3,7 km/h (1 Bft) NO 40 1 min 0,000 mm 0,8 UV-I 302 W/m 14,1 C 25,6 C 6,4 km/h (2 Bft) 100,00 %
13.07.2018 18:28 25,7 C 23,9 C 33,3 C 49 % 1015,9 hPa 0,0 l/m 2,1 km/h (1 Bft) NO 40 1 min 0,000 mm 0,8 UV-I 304 W/m 14,2 C 25,7 C 3,2 km/h (1 Bft) 100,00 %
13.07.2018 18:29 25,7 C 23,9 C 33,3 C 50 % 1015,9 hPa 0,0 l/m 3,5 km/h (1 Bft) O-NO 65 1 min 0,000 mm 0,8 UV-I 302 W/m 14,5 C 25,7 C 6,4 km/h (2 Bft) 100,00 %
13.07.2018 18:30 25,7 C 23,9 C 33,9 C 52 % 1015,9 hPa 0,0 l/m 5,4 km/h (1 Bft) N-NO 32 1 min 0,000 mm 0,8 UV-I 302 W/m 15,1 C 25,7 C 6,4 km/h (2 Bft) 100,00 %
13.07.2018 18:31 25,8 C 23,9 C 33,9 C 51 % 1015,9 hPa 0,0 l/m 5,0 km/h (1 Bft) O 90 1 min 0,000 mm 0,8 UV-I 302 W/m 14,9 C 25,8 C 6,4 km/h (2 Bft) 100,00 %
13.07.2018 18:32 25,8 C 23,9 C 34,4 C 49 % 1015,9 hPa 0,0 l/m 4,3 km/h (1 Bft) N-NO 26 1 min 0,000 mm 0,8 UV-I 299 W/m 14,3 C 25,8 C 6,4 km/h (2 Bft) 100,00 %
13.07.2018 18:33 25,8 C 23,9 C 33,9 C 49 % 1015,9 hPa 0,0 l/m 6,4 km/h (2 Bft) N 9 1 min 0,000 mm 0,8 UV-I 295 W/m 14,3 C 25,8 C 8,0 km/h (2 Bft) 100,00 %
13.07.2018 18:34 25,8 C 23,9 C 33,9 C 49 % 1015,9 hPa 0,0 l/m 5,5 km/h (1 Bft) NO 36 1 min 0,000 mm 0,7 UV-I 289 W/m 14,3 C 25,8 C 8,0 km/h (2 Bft) 100,00 %
13.07.2018 18:35 25,7 C 23,9 C 33,3 C 49 % 1015,9 hPa 0,0 l/m 4,1 km/h (1 Bft) NO 40 1 min 0,000 mm 0,7 UV-I 283 W/m 14,2 C 25,7 C 6,4 km/h (2 Bft) 95,65 %
13.07.2018 18:36 25,7 C 23,9 C 32,8 C 52 % 1015,9 hPa 0,0 l/m 6,7 km/h (2 Bft) N-NO 15 1 min 0,000 mm 0,7 UV-I 278 W/m 15,1 C 25,6 C 8,0 km/h (2 Bft) 100,00 %
13.07.2018 18:37 25,6 C 23,9 C 32,8 C 51 % 1015,9 hPa 0,0 l/m 6,4 km/h (2 Bft) N-NO 28 1 min 0,000 mm 0,7 UV-I 275 W/m 14,7 C 25,6 C 8,0 km/h (2 Bft) 100,00 %
13.07.2018 18:38 25,5 C 23,9 C 32,2 C 50 % 1015,9 hPa 0,0 l/m 6,7 km/h (2 Bft) N-NO 14 1 min 0,000 mm 0,7 UV-I 269 W/m 14,3 C 25,4 C 11,3 km/h (2 Bft) 100,00 %
13.07.2018 18:39 25,6 C 23,9 C 32,2 C 50 % 1015,9 hPa 0,0 l/m 6,0 km/h (2 Bft) NO 34 1 min 0,000 mm 0,7 UV-I 263 W/m 14,4 C 25,6 C 8,0 km/h (2 Bft) 100,00 %
13.07.2018 18:40 25,6 C 23,9 C 31,7 C 50 % 1015,9 hPa 0,0 l/m 6,9 km/h (2 Bft) NO 36 1 min 0,000 mm 0,7 UV-I 259 W/m 14,4 C 25,5 C 9,7 km/h (2 Bft) 100,00 %
13.07.2018 18:41 25,5 C 23,9 C 31,7 C 50 % 1015,9 hPa 0,0 l/m 7,3 km/h (2 Bft) N-NO 33 1 min 0,000 mm 0,7 UV-I 257 W/m 14,3 C 25,3 C 9,7 km/h (2 Bft) 100,00 %
13.07.2018 18:42 25,4 C 23,9 C 31,1 C 50 % 1015,9 hPa 0,0 l/m 6,8 km/h (2 Bft) N-NO 21 1 min 0,000 mm 0,6 UV-I 252 W/m 14,2 C 25,3 C 8,0 km/h (2 Bft) 100,00 %
13.07.2018 18:43 25,4 C 23,9 C 31,1 C 50 % 1015,9 hPa 0,0 l/m 7,3 km/h (2 Bft) NO 37 1 min 0,000 mm 0,6 UV-I 249 W/m 14,2 C 25,2 C 8,0 km/h (2 Bft) 100,00 %
13.07.2018 18:44 25,4 C 23,9 C 31,1 C 50 % 1016,0 hPa 0,0 l/m 4,6 km/h (1 Bft) NO 46 1 min 0,000 mm 0,6 UV-I 247 W/m 14,2 C 25,4 C 6,4 km/h (2 Bft) 100,00 %
13.07.2018 18:45 25,4 C 23,9 C 31,1 C 51 % 1016,0 hPa 0,0 l/m 6,5 km/h (2 Bft) NO 47 1 min 0,000 mm 0,6 UV-I 245 W/m 14,5 C 25,4 C 8,0 km/h (2 Bft) 100,00 %
13.07.2018 18:46 25,4 C 23,9 C 31,7 C 51 % 1015,9 hPa 0,0 l/m 6,5 km/h (2 Bft) NO 48 1 min 0,000 mm 0,6 UV-I 240 W/m 14,5 C 25,4 C 8,0 km/h (2 Bft) 100,00 %
13.07.2018 18:47 25,3 C 23,9 C 31,7 C 52 % 1016,0 hPa 0,0 l/m 6,2 km/h (2 Bft) NO 48 1 min 0,000 mm 0,6 UV-I 236 W/m 14,7 C 25,3 C 8,0 km/h (2 Bft) 100,00 %
13.07.2018 18:48 25,3 C 23,9 C 31,7 C 50 % 1016,0 hPa 0,0 l/m 5,7 km/h (1 Bft) NO 46 1 min 0,000 mm 0,6 UV-I 231 W/m 14,1 C 25,3 C 6,4 km/h (2 Bft) 100,00 %
13.07.2018 18:49 25,3 C 23,9 C 31,1 C 50 % 1016,0 hPa 0,0 l/m 6,6 km/h (2 Bft) NO 51 1 min 0,000 mm 0,6 UV-I 230 W/m 14,1 C 25,3 C 8,0 km/h (2 Bft) 96,67 %
13.07.2018 18:50 25,2 C 23,9 C 31,1 C 49 % 1015,9 hPa 0,0 l/m 7,0 km/h (2 Bft) O-NO 57 1 min 0,000 mm 0,6 UV-I 228 W/m 13,7 C 25,1 C 8,0 km/h (2 Bft) 100,00 %
13.07.2018 18:51 25,2 C 23,9 C 31,1 C 52 % 1015,9 hPa 0,0 l/m 4,6 km/h (1 Bft) O-NO 59 1 min 0,000 mm 0,5 UV-I 225 W/m 14,6 C 25,2 C 6,4 km/h (2 Bft) 100,00 %
13.07.2018 18:52 25,2 C 23,9 C 31,7 C 52 % 1015,9 hPa 0,0 l/m 5,4 km/h (1 Bft) NO 40 1 min 0,000 mm 0,5 UV-I 225 W/m 14,6 C 25,2 C 6,4 km/h (2 Bft) 92,86 %
13.07.2018 18:53 25,2 C 23,9 C 31,7 C 51 % 1015,9 hPa 0,0 l/m 5,4 km/h (1 Bft) N-NO 33 1 min 0,000 mm 0,5 UV-I 225 W/m 14,3 C 25,2 C 6,4 km/h (2 Bft) 100,00 %
13.07.2018 18:54 25,2 C 23,9 C 31,7 C 52 % 1016,0 hPa 0,0 l/m 5,9 km/h (2 Bft) NO 50 1 min 0,000 mm 0,5 UV-I 225 W/m 14,6 C 25,2 C 8,0 km/h (2 Bft) 100,00 %
13.07.2018 18:55 25,2 C 23,9 C 31,7 C 51 % 1015,9 hPa 0,0 l/m 5,1 km/h (1 Bft) NO 50 1 min 0,000 mm 0,5 UV-I 224 W/m 14,3 C 25,2 C 8,0 km/h (2 Bft) 100,00 %
13.07.2018 18:56 25,1 C 23,9 C 31,1 C 51 % 1016,0 hPa 0,0 l/m 5,8 km/h (2 Bft) NO 42 1 min 0,000 mm 0,5 UV-I 223 W/m 14,2 C 25,1 C 6,4 km/h (2 Bft) 100,00 %
13.07.2018 18:57 25,2 C 23,9 C 31,1 C 50 % 1016,0 hPa 0,0 l/m 5,5 km/h (1 Bft) NO 42 1 min 0,000 mm 0,5 UV-I 222 W/m 14,0 C 25,2 C 6,4 km/h (2 Bft) 100,00 %
13.07.2018 18:58 25,2 C 23,9 C 31,1 C 50 % 1016,0 hPa 0,0 l/m 5,2 km/h (1 Bft) NO 46 1 min 0,000 mm 0,5 UV-I 220 W/m 14,0 C 25,2 C 6,4 km/h (2 Bft) 95,65 %
13.07.2018 18:59 25,2 C 23,9 C 30,6 C 51 % 1016,0 hPa 0,0 l/m 5,4 km/h (1 Bft) NO 46 1 min 0,000 mm 0,5 UV-I 215 W/m 14,3 C 25,2 C 6,4 km/h (2 Bft) 100,00 %
13.07.2018 19:00 25,2 C 23,9 C 30,6 C 50 % 1016,0 hPa 0,0 l/m 5,9 km/h (2 Bft) NO 34 1 min 0,000 mm 0,5 UV-I 210 W/m 14,0 C 25,2 C 6,4 km/h (2 Bft) 100,00 %
13.07.2018 19:02 25,1 C 23,9 C 30,6 C 50 % 1016,0 hPa 0,0 l/m 5,5 km/h (1 Bft) NO 44 2 min 0,229 mm 0,5 UV-I 190 W/m 13,9 C 25,1 C 6,4 km/h (2 Bft) 100,00 %
13.07.2018 19:03 25,1 C 23,9 C 30,0 C 50 % 1016,0 hPa 0,0 l/m 5,5 km/h (1 Bft) NO 45 1 min 0,000 mm 0,2 UV-I 179 W/m 13,9 C 25,1 C 8,0 km/h (2 Bft) 100,00 %
13.07.2018 19:04 25,1 C 23,9 C 29,4 C 49 % 1016,0 hPa 0,0 l/m 3,9 km/h (1 Bft) NO 45 1 min 0,000 mm 0,0 UV-I 178 W/m 13,6 C 25,1 C 4,8 km/h (1 Bft) 100,00 %
13.07.2018 19:05 25,0 C 23,9 C 28,9 C 49 % 1016,0 hPa 0,0 l/m 3,2 km/h (1 Bft) NO 45 0 min 0,000 mm 0,0 UV-I 89 W/m 13,5 C 25,0 C 4,8 km/h (1 Bft) 100,00 %
13.07.2018 19:06 25,0 C 23,9 C 28,3 C 50 % 1016,0 hPa 0,0 l/m 3,6 km/h (1 Bft) NO 45 0 min 0,000 mm 0,0 UV-I 87 W/m 13,8 C 25,0 C 4,8 km/h (1 Bft) 100,00 %
13.07.2018 19:08 24,9 C 23,9 C 28,9 C 50 % 1016,0 hPa 0,0 l/m 3,5 km/h (1 Bft) NO 45 2 min 0,000 mm 0,0 UV-I 158 W/m 13,7 C 24,9 C 4,8 km/h (1 Bft) 97,87 %
13.07.2018 19:09 24,9 C 23,9 C 28,9 C 50 % 1016,0 hPa 0,0 l/m 2,8 km/h (1 Bft) NO 45 1 min 0,000 mm 0,0 UV-I 176 W/m 13,7 C 24,9 C 4,8 km/h (1 Bft) 100,00 %
13.07.2018 19:10 24,8 C 23,9 C 28,9 C 50 % 1016,0 hPa 0,0 l/m 3,6 km/h (1 Bft) NO 45 1 min 0,000 mm 0,0 UV-I 179 W/m 13,7 C 24,8 C 4,8 km/h (1 Bft) 100,00 %
13.07.2018 19:11 24,8 C 23,9 C 29,4 C 50 % 1015,9 hPa 0,0 l/m 3,6 km/h (1 Bft) NO 45 1 min 0,000 mm 0,0 UV-I 181 W/m 13,7 C 24,8 C 4,8 km/h (1 Bft) 100,00 %
13.07.2018 19:12 24,9 C 23,9 C 29,4 C 51 % 1015,9 hPa 0,0 l/m 3,5 km/h (1 Bft) NO 45 1 min 0,000 mm 0,0 UV-I 179 W/m 14,1 C 24,9 C 4,8 km/h (1 Bft) 96,30 %
13.07.2018 19:13 24,9 C 23,9 C 29,4 C 50 % 1016,0 hPa 0,0 l/m 3,6 km/h (1 Bft) NO 45 1 min 0,000 mm 0,0 UV-I 179 W/m 13,7 C 24,9 C 4,8 km/h (1 Bft) 100,00 %
13.07.2018 19:14 25,0 C 23,9 C 30,0 C 51 % 1015,9 hPa 0,0 l/m 3,5 km/h (1 Bft) NO 45 1 min 0,000 mm 0,0 UV-I 178 W/m 14,1 C 25,0 C 4,8 km/h (1 Bft) 100,00 %
13.07.2018 19:15 25,0 C 23,9 C 30,0 C 50 % 1015,9 hPa 0,0 l/m 3,8 km/h (1 Bft) NO 45 1 min 0,000 mm 0,0 UV-I 176 W/m 13,8 C 25,0 C 4,8 km/h (1 Bft) 100,00 %
13.07.2018 19:16 25,0 C 23,9 C 30,6 C 50 % 1015,9 hPa 0,0 l/m 3,2 km/h (1 Bft) NO 45 1 min 0,000 mm 0,0 UV-I 174 W/m 13,8 C 25,0 C 4,8 km/h (1 Bft) 100,00 %
13.07.2018 19:18 24,9 C 23,9 C 31,1 C 51 % 1015,8 hPa 0,0 l/m 3,3 km/h (1 Bft) NO 45 2 min 0,000 mm 0,0 UV-I 171 W/m 14,1 C 24,9 C 4,8 km/h (1 Bft) 98,31 %
13.07.2018 19:19 25,0 C 23,9 C 31,1 C 50 % 1015,8 hPa 0,0 l/m 2,7 km/h (1 Bft) NO 45 1 min 0,000 mm 0,0 UV-I 168 W/m 13,8 C 25,0 C 3,2 km/h (1 Bft) 100,00 %
13.07.2018 19:20 25,1 C 23,9 C 30,6 C 50 % 1015,8 hPa 0,0 l/m 3,8 km/h (1 Bft) NO 45 1 min 0,000 mm 0,0 UV-I 164 W/m 13,9 C 25,1 C 4,8 km/h (1 Bft) 100,00 %
13.07.2018 19:21 25,1 C 23,9 C 30,6 C 49 % 1015,8 hPa 0,0 l/m 3,6 km/h (1 Bft) NO 45 1 min 0,000 mm 0,0 UV-I 162 W/m 13,6 C 25,1 C 4,8 km/h (1 Bft) 100,00 %
13.07.2018 19:22 25,1 C 23,9 C 30,6 C 50 % 1015,9 hPa 0,0 l/m 2,9 km/h (1 Bft) NO 45 1 min 0,000 mm 0,0 UV-I 158 W/m 13,9 C 25,1 C 4,8 km/h (1 Bft) 96,55 %
13.07.2018 19:23 25,1 C 23,9 C 30,6 C 50 % 1015,8 hPa 0,0 l/m 3,0 km/h (1 Bft) NO 45 1 min 0,000 mm 0,0 UV-I 156 W/m 13,9 C 25,1 C 4,8 km/h (1 Bft) 100,00 %
13.07.2018 19:24 25,1 C 23,9 C 30,6 C 49 % 1015,9 hPa 0,0 l/m 2,1 km/h (1 Bft) NO 45 1 min 0,000 mm 0,0 UV-I 155 W/m 13,6 C 25,1 C 3,2 km/h (1 Bft) 95,65 %
13.07.2018 19:25 25,0 C 23,9 C 30,6 C 50 % 1015,9 hPa 0,0 l/m 2,2 km/h (1 Bft) NO 45 1 min 0,000 mm 0,0 UV-I 155 W/m 13,8 C 25,0 C 3,2 km/h (1 Bft) 100,00 %
13.07.2018 19:26 24,9 C 23,9 C 30,6 C 51 % 1015,9 hPa 0,0 l/m 2,4 km/h (1 Bft) NO 45 1 min 0,000 mm 0,0 UV-I 153 W/m 14,1 C 24,9 C 3,2 km/h (1 Bft) 96,15 %
13.07.2018 19:27 24,9 C 23,9 C 30,6 C 52 % 1015,8 hPa 0,0 l/m 3,3 km/h (1 Bft) NO 45 1 min 0,000 mm 0,0 UV-I 151 W/m 14,4 C 24,9 C 4,8 km/h (1 Bft) 100,00 %
13.07.2018 19:28 24,9 C 23,9 C 31,1 C 51 % 1015,9 hPa 0,0 l/m 2,9 km/h (1 Bft) NO 45 1 min 0,000 mm 0,0 UV-I 151 W/m 14,1 C 24,9 C 3,2 km/h (1 Bft) 91,30 %
13.07.2018 19:29 24,9 C 23,9 C 31,1 C 53 % 1015,8 hPa 0,0 l/m 2,3 km/h (1 Bft) NO 45 1 min 0,000 mm 0,0 UV-I 147 W/m 14,6 C 24,9 C 3,2 km/h (1 Bft) 100,00 %
13.07.2018 19:30 24,9 C 23,9 C 31,1 C 53 % 1015,8 hPa 0,0 l/m 2,0 km/h (1 Bft) NO 45 1 min 0,000 mm 0,0 UV-I 143 W/m 14,6 C 24,9 C 3,2 km/h (1 Bft) 90,91 %
13.07.2018 19:31 24,9 C 23,9 C 31,1 C 53 % 1015,8 hPa 0,0 l/m 1,2 km/h (1 Bft) NO 45 1 min 0,000 mm 0,0 UV-I 132 W/m 14,6 C 24,9 C 3,2 km/h (1 Bft) 90,00 %
13.07.2018 19:32 25,0 C 23,9 C 31,1 C 52 % 1015,8 hPa 0,0 l/m 2,9 km/h (1 Bft) NO 52 1 min 0,000 mm 0,0 UV-I 124 W/m 14,4 C 25,0 C 3,2 km/h (1 Bft) 96,55 %
13.07.2018 19:33 24,9 C 23,9 C 31,1 C 52 % 1015,8 hPa 0,0 l/m 1,3 km/h (1 Bft) NO 52 1 min 0,000 mm 0,0 UV-I 132 W/m 14,4 C 24,9 C 3,2 km/h (1 Bft) 91,67 %
13.07.2018 19:34 24,9 C 23,9 C 31,1 C 50 % 1015,8 hPa 0,0 l/m 0,8 km/h (0 Bft) NO 52 1 min 0,000 mm 0,0 UV-I 128 W/m 13,7 C 24,9 C 1,6 km/h (1 Bft) 97,32 %
13.07.2018 19:35 24,9 C 23,9 C 31,1 C 50 % 1015,8 hPa 0,0 l/m 1,4 km/h (1 Bft) NO 52 1 min 0,000 mm 0,0 UV-I 130 W/m 13,7 C 24,9 C 3,2 km/h (1 Bft) 95,12 %
13.07.2018 19:36 24,9 C 23,9 C 30,6 C 53 % 1015,8 hPa 0,0 l/m 1,5 km/h (1 Bft) NO 54 1 min 0,000 mm 0,0 UV-I 129 W/m 14,6 C 24,9 C 3,2 km/h (1 Bft) 92,31 %
13.07.2018 19:37 24,9 C 23,9 C 30,6 C 53 % 1015,8 hPa 0,0 l/m 1,4 km/h (1 Bft) NO 54 1 min 0,000 mm 0,0 UV-I 128 W/m 14,6 C 24,9 C 3,2 km/h (1 Bft) 92,59 %
13.07.2018 19:38 24,9 C 23,9 C 30,6 C 54 % 1015,8 hPa 0,0 l/m 1,4 km/h (1 Bft) NO 54 1 min 0,000 mm 0,0 UV-I 124 W/m 14,9 C 24,9 C 3,2 km/h (1 Bft) 91,30 %
13.07.2018 19:39 24,8 C 23,9 C 30,6 C 54 % 1015,8 hPa 0,0 l/m 1,9 km/h (1 Bft) NO 54 1 min 0,000 mm 0,0 UV-I 121 W/m 14,8 C 24,8 C 3,2 km/h (1 Bft) 100,00 %
13.07.2018 19:40 24,8 C 23,9 C 30,6 C 54 % 1015,8 hPa 0,0 l/m 3,4 km/h (1 Bft) O-NO 67 1 min 0,000 mm 0,0 UV-I 120 W/m 14,8 C 24,8 C 4,8 km/h (1 Bft) 90,62 %
13.07.2018 19:41 24,7 C 23,9 C 30,0 C 54 % 1015,8 hPa 0,0 l/m 2,5 km/h (1 Bft) O-NO 67 1 min 0,000 mm 0,0 UV-I 117 W/m 14,8 C 24,7 C 3,2 km/h (1 Bft) 93,33 %
13.07.2018 19:42 24,7 C 23,9 C 30,0 C 53 % 1015,8 hPa 0,0 l/m 3,4 km/h (1 Bft) O-NO 67 1 min 0,000 mm 0,0 UV-I 115 W/m 14,5 C 24,7 C 4,8 km/h (1 Bft) 92,59 %
13.07.2018 19:43 24,7 C 23,9 C 30,0 C 52 % 1015,8 hPa 0,0 l/m 3,3 km/h (1 Bft) O-NO 67 1 min 0,000 mm 0,0 UV-I 114 W/m 14,2 C 24,7 C 4,8 km/h (1 Bft) 91,30 %
13.07.2018 19:44 24,7 C 23,9 C 30,0 C 52 % 1015,8 hPa 0,0 l/m 3,0 km/h (1 Bft) O-NO 67 1 min 0,000 mm 0,0 UV-I 113 W/m 14,2 C 24,7 C 4,8 km/h (1 Bft) 92,59 %
13.07.2018 19:45 24,7 C 23,9 C 30,0 C 53 % 1015,8 hPa 0,0 l/m 3,4 km/h (1 Bft) O 88 1 min 0,000 mm 0,0 UV-I 111 W/m 14,5 C 24,7 C 4,8 km/h (1 Bft) 94,12 %
13.07.2018 19:46 24,7 C 23,9 C 30,0 C 52 % 1015,8 hPa 0,0 l/m 3,2 km/h (1 Bft) O 88 1 min 0,000 mm 0,0 UV-I 110 W/m 14,2 C 24,7 C 3,2 km/h (1 Bft) 93,33 %
13.07.2018 19:47 24,7 C 23,9 C 30,0 C 53 % 1015,8 hPa 0,0 l/m 3,6 km/h (1 Bft) O 90 1 min 0,000 mm 0,0 UV-I 106 W/m 14,5 C 24,7 C 4,8 km/h (1 Bft) 80,77 %
13.07.2018 19:48 24,6 C 23,9 C 29,4 C 51 % 1015,8 hPa 0,0 l/m 3,6 km/h (1 Bft) O 90 1 min 0,000 mm 0,0 UV-I 105 W/m 13,8 C 24,6 C 4,8 km/h (1 Bft) 96,30 %
13.07.2018 19:49 24,6 C 23,9 C 29,4 C 51 % 1015,8 hPa 0,0 l/m 3,3 km/h (1 Bft) O 90 1 min 0,000 mm 0,0 UV-I 104 W/m 13,8 C 24,6 C 4,8 km/h (1 Bft) 90,91 %
13.07.2018 19:50 24,6 C 23,9 C 29,4 C 52 % 1015,8 hPa 0,0 l/m 3,0 km/h (1 Bft) O 90 1 min 0,000 mm 0,0 UV-I 102 W/m 14,1 C 24,6 C 4,8 km/h (1 Bft) 96,67 %
13.07.2018 19:51 24,6 C 23,9 C 28,9 C 53 % 1015,8 hPa 0,0 l/m 3,2 km/h (1 Bft) O 90 1 min 0,000 mm 0,0 UV-I 97 W/m 14,4 C 24,6 C 4,8 km/h (1 Bft) 86,96 %
13.07.2018 19:52 24,5 C 23,9 C 28,9 C 54 % 1015,8 hPa 0,0 l/m 2,7 km/h (1 Bft) O 90 1 min 0,000 mm 0,0 UV-I 89 W/m 14,6 C 24,5 C 3,2 km/h (1 Bft) 96,30 %
13.07.2018 19:53 24,4 C 23,9 C 28,3 C 54 % 1015,8 hPa 0,0 l/m 2,9 km/h (1 Bft) O 90 1 min 0,000 mm 0,0 UV-I 91 W/m 14,5 C 24,4 C 3,2 km/h (1 Bft) 91,30 %
13.07.2018 19:54 24,4 C 23,9 C 28,3 C 55 % 1015,8 hPa 0,0 l/m 1,7 km/h (1 Bft) O 90 1 min 0,000 mm 0,0 UV-I 90 W/m 14,8 C 24,4 C 3,2 km/h (1 Bft) 100,00 %
13.07.2018 19:55 24,4 C 23,9 C 28,3 C 54 % 1015,8 hPa 0,0 l/m 1,1 km/h (1 Bft) O 90 1 min 0,000 mm 0,0 UV-I 89 W/m 14,5 C 24,4 C 1,6 km/h (1 Bft) 92,59 %
13.07.2018 19:56 24,4 C 23,9 C 28,3 C 57 % 1015,8 hPa 0,0 l/m 1,5 km/h (1 Bft) O 90 1 min 0,000 mm 0,0 UV-I 86 W/m 15,3 C 24,4 C 1,6 km/h (1 Bft) 95,65 %
13.07.2018 19:57 24,3 C 23,9 C 28,3 C 57 % 1015,8 hPa 0,0 l/m 2,0 km/h (1 Bft) O 90 1 min 0,000 mm 0,0 UV-I 84 W/m 15,2 C 24,3 C 3,2 km/h (1 Bft) 91,67 %
13.07.2018 19:58 24,3 C 23,9 C 27,8 C 57 % 1015,8 hPa 0,0 l/m 1,4 km/h (1 Bft) O 90 1 min 0,000 mm 0,0 UV-I 84 W/m 15,2 C 24,3 C 3,2 km/h (1 Bft) 92,68 %
13.07.2018 19:59 24,2 C 23,9 C 27,8 C 57 % 1015,8 hPa 0,0 l/m 1,1 km/h (1 Bft) O 90 1 min 0,000 mm 0,0 UV-I 82 W/m 15,1 C 24,2 C 1,6 km/h (1 Bft) 100,00 %
13.07.2018 20:00 24,2 C 23,9 C 27,8 C 57 % 1015,8 hPa 0,0 l/m 2,0 km/h (1 Bft) O 91 1 min 0,000 mm 0,0 UV-I 79 W/m 15,1 C 24,2 C 3,2 km/h (1 Bft) 72,73 %
13.07.2018 20:02 24,0 C 23,9 C 27,2 C 58 % 1015,8 hPa 0,0 l/m 3,3 km/h (1 Bft) O-SO 109 0 min 0,127 mm 0,0 UV-I 71 W/m 15,2 C 24,0 C 4,8 km/h (1 Bft) 96,43 %
13.07.2018 20:03 23,9 C 23,9 C 26,7 C 59 % 1015,8 hPa 0,0 l/m 2,9 km/h (1 Bft) O-SO 123 1 min 0,000 mm 0,0 UV-I 72 W/m 15,4 C 23,9 C 4,8 km/h (1 Bft) 100,00 %
13.07.2018 20:04 23,8 C 23,9 C 26,7 C 61 % 1015,8 hPa 0,0 l/m 2,8 km/h (1 Bft) O-SO 123 1 min 0,000 mm 0,0 UV-I 71 W/m 15,8 C 23,8 C 3,2 km/h (1 Bft) 91,30 %
13.07.2018 20:05 23,7 C 23,9 C 26,1 C 61 % 1015,8 hPa 0,0 l/m 2,5 km/h (1 Bft) O-SO 123 0 min 0,000 mm 0,0 UV-I 68 W/m 15,7 C 23,7 C 3,2 km/h (1 Bft) 91,67 %
13.07.2018 20:06 23,7 C 23,9 C 26,1 C 60 % 1015,8 hPa 0,0 l/m 2,2 km/h (1 Bft) O-SO 123 0 min 0,000 mm 0,0 UV-I 67 W/m 15,5 C 23,7 C 3,2 km/h (1 Bft) 100,00 %
13.07.2018 20:08 23,5 C 23,9 C 25,6 C 59 % 1015,8 hPa 0,0 l/m 3,5 km/h (1 Bft) SO 140 2 min 0,000 mm 0,0 UV-I 67 W/m 15,0 C 23,5 C 4,8 km/h (1 Bft) 97,87 %
13.07.2018 20:09 23,5 C 23,9 C 25,6 C 58 % 1015,8 hPa 0,0 l/m 2,8 km/h (1 Bft) SO 140 0 min 0,000 mm 0,0 UV-I 63 W/m 14,7 C 23,5 C 4,8 km/h (1 Bft) 91,67 %
13.07.2018 20:10 23,4 C 23,9 C 25,0 C 60 % 1015,9 hPa 0,0 l/m 3,6 km/h (1 Bft) SO 140 0 min 0,000 mm 0,0 UV-I 61 W/m 15,2 C 23,4 C 4,8 km/h (1 Bft) 100,00 %
13.07.2018 20:11 23,4 C 23,9 C 25,0 C 59 % 1015,9 hPa 0,0 l/m 4,8 km/h (1 Bft) SO 139 0 min 0,000 mm 0,0 UV-I 53 W/m 14,9 C 23,4 C 6,4 km/h (2 Bft) 95,83 %
13.07.2018 20:12 23,4 C 23,9 C 24,4 C 58 % 1015,9 hPa 0,0 l/m 3,6 km/h (1 Bft) SO 139 0 min 0,000 mm 0,0 UV-I 45 W/m 14,7 C 23,4 C 4,8 km/h (1 Bft) 100,00 %
13.07.2018 20:13 23,4 C 23,9 C 23,9 C 58 % 1015,8 hPa 0,0 l/m 2,1 km/h (1 Bft) SO 139 0 min 0,000 mm 0,0 UV-I 43 W/m 14,7 C 23,4 C 3,2 km/h (1 Bft) 96,15 %
13.07.2018 20:14 23,4 C 23,9 C 23,9 C 59 % 1015,8 hPa 0,0 l/m 2,6 km/h (1 Bft) SO 139 0 min 0,000 mm 0,0 UV-I 46 W/m 14,9 C 23,4 C 4,8 km/h (1 Bft) 100,00 %
13.07.2018 20:15 23,4 C 23,9 C 23,3 C 58 % 1015,8 hPa 0,0 l/m 2,8 km/h (1 Bft) SO 139 0 min 0,000 mm 0,0 UV-I 51 W/m 14,7 C 23,4 C 3,2 km/h (1 Bft) 92,31 %
13.07.2018 20:16 23,4 C 23,9 C 23,3 C 59 % 1015,9 hPa 0,0 l/m 2,7 km/h (1 Bft) SO 139 0 min 0,000 mm 0,0 UV-I 51 W/m 14,9 C 23,4 C 3,2 km/h (1 Bft) 96,30 %
13.07.2018 20:17 23,3 C 23,9 C 23,3 C 59 % 1015,9 hPa 0,0 l/m 2,2 km/h (1 Bft) SO 139 1 min 0,000 mm 0,0 UV-I 52 W/m 14,8 C 23,3 C 3,2 km/h (1 Bft) 95,65 %
13.07.2018 20:18 23,3 C 23,9 C 23,3 C 59 % 1015,9 hPa 0,0 l/m 1,2 km/h (1 Bft) SO 139 1 min 0,000 mm 0,0 UV-I 53 W/m 14,8 C 23,3 C 1,6 km/h (1 Bft) 100,00 %
13.07.2018 20:19 23,3 C 23,9 C 23,3 C 60 % 1015,9 hPa 0,0 l/m 0,7 km/h (0 Bft) SO 139 1 min 0,000 mm 0,0 UV-I 52 W/m 15,1 C 23,3 C 1,6 km/h (1 Bft) 96,15 %
13.07.2018 20:20 23,2 C 23,9 C 23,3 C 61 % 1015,9 hPa 0,0 l/m 1,8 km/h (1 Bft) SO 140 0 min 0,000 mm 0,0 UV-I 47 W/m 15,3 C 23,2 C 3,2 km/h (1 Bft) 96,30 %
13.07.2018 20:21 23,2 C 23,9 C 23,3 C 61 % 1015,9 hPa 0,0 l/m 3,0 km/h (1 Bft) SO 140 0 min 0,000 mm 0,0 UV-I 46 W/m 15,3 C 23,2 C 4,8 km/h (1 Bft) 100,00 %
13.07.2018 20:22 23,1 C 23,9 C 22,8 C 62 % 1015,9 hPa 0,0 l/m 3,4 km/h (1 Bft) S-SO 152 0 min 0,000 mm 0,0 UV-I 44 W/m 15,4 C 23,1 C 4,8 km/h (1 Bft) 93,33 %
13.07.2018 20:23 23,0 C 23,9 C 22,8 C 62 % 1015,9 hPa 0,0 l/m 4,0 km/h (1 Bft) S-SO 152 1 min 0,000 mm 0,0 UV-I 44 W/m 15,3 C 23,0 C 6,4 km/h (2 Bft) 100,00 %
13.07.2018 20:24 22,8 C 23,9 C 22,2 C 62 % 1015,9 hPa 0,0 l/m 4,7 km/h (1 Bft) S-SO 150 1 min 0,000 mm 0,0 UV-I 43 W/m 15,1 C 22,8 C 8,0 km/h (2 Bft) 96,30 %
13.07.2018 20:25 22,8 C 23,9 C 22,2 C 63 % 1015,9 hPa 0,0 l/m 4,5 km/h (1 Bft) S-SO 150 1 min 0,000 mm 0,0 UV-I 42 W/m 15,4 C 22,8 C 4,8 km/h (1 Bft) 100,00 %
13.07.2018 20:26 22,7 C 23,9 C 22,2 C 63 % 1015,9 hPa 0,0 l/m 4,4 km/h (1 Bft) S-SO 150 1 min 0,000 mm 0,0 UV-I 40 W/m 15,3 C 22,7 C 4,8 km/h (1 Bft) 95,83 %
13.07.2018 20:28 22,5 C 23,9 C 21,7 C 63 % 1015,9 hPa 0,0 l/m 3,7 km/h (1 Bft) S-SO 150 2 min 0,000 mm 0,0 UV-I 39 W/m 15,1 C 22,5 C 4,8 km/h (1 Bft) 98,00 %
13.07.2018 20:29 22,5 C 23,9 C 21,7 C 63 % 1015,9 hPa 0,0 l/m 2,8 km/h (1 Bft) S-SO 150 1 min 0,000 mm 0,0 UV-I 37 W/m 15,1 C 22,5 C 4,8 km/h (1 Bft) 95,65 %
13.07.2018 20:30 22,4 C 23,9 C 21,7 C 64 % 1015,9 hPa 0,0 l/m 4,1 km/h (1 Bft) S-SO 150 1 min 0,000 mm 0,0 UV-I 36 W/m 15,2 C 22,4 C 6,4 km/h (2 Bft) 100,00 %
13.07.2018 20:31 22,3 C 23,9 C 21,1 C 64 % 1015,9 hPa 0,0 l/m 4,2 km/h (1 Bft) S-SO 156 1 min 0,000 mm 0,0 UV-I 35 W/m 15,2 C 22,3 C 6,4 km/h (2 Bft) 96,15 %
13.07.2018 20:32 22,3 C 23,9 C 21,1 C 64 % 1015,9 hPa 0,0 l/m 2,9 km/h (1 Bft) S-SO 157 1 min 0,000 mm 0,0 UV-I 33 W/m 15,2 C 22,3 C 4,8 km/h (1 Bft) 100,00 %
13.07.2018 20:33 22,3 C 23,9 C 21,1 C 65 % 1016,0 hPa 0,0 l/m 3,1 km/h (1 Bft) S-SO 159 1 min 0,000 mm 0,0 UV-I 33 W/m 15,4 C 22,3 C 6,4 km/h (2 Bft) 93,33 %
13.07.2018 20:34 22,3 C 23,9 C 21,1 C 64 % 1015,9 hPa 0,0 l/m 3,9 km/h (1 Bft) S-SO 159 1 min 0,000 mm 0,0 UV-I 32 W/m 15,2 C 22,3 C 6,4 km/h (2 Bft) 95,65 %
13.07.2018 20:35 22,2 C 23,9 C 21,1 C 65 % 1016,0 hPa 0,0 l/m 3,6 km/h (1 Bft) S-SO 161 1 min 0,000 mm 0,0 UV-I 31 W/m 15,3 C 22,2 C 6,4 km/h (2 Bft) 96,30 %
13.07.2018 20:36 22,1 C 23,9 C 21,1 C 66 % 1015,9 hPa 0,0 l/m 2,3 km/h (1 Bft) S-SO 161 1 min 0,000 mm 0,0 UV-I 29 W/m 15,4 C 22,1 C 6,4 km/h (2 Bft) 100,00 %
13.07.2018 20:37 21,9 C 23,9 C 20,6 C 66 % 1015,9 hPa 0,0 l/m 1,7 km/h (1 Bft) S-SO 161 1 min 0,000 mm 0,0 UV-I 26 W/m 15,3 C 21,9 C 3,2 km/h (1 Bft) 95,83 %
13.07.2018 20:38 21,7 C 23,9 C 20,6 C 68 % 1015,9 hPa 0,0 l/m 2,5 km/h (1 Bft) S-SO 161 1 min 0,000 mm 0,0 UV-I 23 W/m 15,5 C 21,7 C 3,2 km/h (1 Bft) 96,15 %
13.07.2018 20:39 21,6 C 23,9 C 20,6 C 68 % 1015,9 hPa 0,0 l/m 2,0 km/h (1 Bft) S-SO 161 1 min 0,000 mm 0,0 UV-I 23 W/m 15,4 C 21,6 C 3,2 km/h (1 Bft) 100,00 %
13.07.2018 20:40 21,5 C 23,9 C 20,0 C 68 % 1016,0 hPa 0,0 l/m 2,8 km/h (1 Bft) S-SO 161 1 min 0,000 mm 0,0 UV-I 22 W/m 15,3 C 21,5 C 3,2 km/h (1 Bft) 96,55 %
13.07.2018 20:41 21,4 C 23,9 C 20,0 C 69 % 1015,9 hPa 0,0 l/m 2,0 km/h (1 Bft) S-SO 161 1 min 0,000 mm 0,0 UV-I 21 W/m 15,5 C 21,4 C 3,2 km/h (1 Bft) 100,00 %
13.07.2018 20:42 21,3 C 23,9 C 20,0 C 70 % 1016,0 hPa 0,0 l/m 2,7 km/h (1 Bft) S-SO 161 1 min 0,000 mm 0,0 UV-I 20 W/m 15,6 C 21,3 C 3,2 km/h (1 Bft) 91,30 %
13.07.2018 20:43 21,2 C 23,9 C 20,0 C 69 % 1016,0 hPa 0,0 l/m 2,7 km/h (1 Bft) S-SO 161 1 min 0,000 mm 0,0 UV-I 19 W/m 15,3 C 21,2 C 3,2 km/h (1 Bft) 100,00 %
13.07.2018 20:44 21,2 C 23,9 C 19,4 C 70 % 1016,0 hPa 0,0 l/m 3,1 km/h (1 Bft) S-SO 161 1 min 0,000 mm 0,0 UV-I 19 W/m 15,5 C 21,2 C 6,4 km/h (2 Bft) 92,86 %
13.07.2018 20:45 21,2 C 23,9 C 19,4 C 69 % 1016,0 hPa 0,0 l/m 4,0 km/h (1 Bft) S-SO 161 1 min 0,000 mm 0,0 UV-I 19 W/m 15,3 C 21,2 C 6,4 km/h (2 Bft) 100,00 %
13.07.2018 20:46 21,2 C 23,9 C 19,4 C 68 % 1015,9 hPa 0,0 l/m 4,0 km/h (1 Bft) S-SO 161 1 min 0,000 mm 0,0 UV-I 18 W/m 15,1 C 21,2 C 6,4 km/h (2 Bft) 100,00 %
13.07.2018 20:47 21,1 C 23,9 C 19,4 C 69 % 1015,9 hPa 0,0 l/m 5,8 km/h (2 Bft) S-SO 161 1 min 0,000 mm 0,0 UV-I 18 W/m 15,2 C 21,1 C 8,0 km/h (2 Bft) 100,00 %
13.07.2018 20:48 21,1 C 23,9 C 19,4 C 70 % 1015,9 hPa 0,0 l/m 5,9 km/h (2 Bft) S-SO 161 1 min 0,000 mm 0,0 UV-I 18 W/m 15,4 C 21,1 C 6,4 km/h (2 Bft) 100,00 %
13.07.2018 20:49 21,1 C 23,9 C 18,9 C 70 % 1016,0 hPa 0,0 l/m 6,0 km/h (2 Bft) S-SO 161 1 min 0,000 mm 0,0 UV-I 16 W/m 15,4 C 21,1 C 8,0 km/h (2 Bft) 100,00 %
13.07.2018 20:50 21,1 C 23,9 C 18,9 C 70 % 1016,0 hPa 0,0 l/m 4,8 km/h (1 Bft) S-SO 159 0 min 0,000 mm 0,0 UV-I 16 W/m 15,4 C 21,1 C 8,0 km/h (2 Bft) 100,00 %
13.07.2018 20:51 21,1 C 23,9 C 18,9 C 70 % 1016,0 hPa 0,0 l/m 5,6 km/h (1 Bft) S-SO 159 0 min 0,000 mm 0,0 UV-I 13 W/m 15,4 C 21,1 C 8,0 km/h (2 Bft) 100,00 %
13.07.2018 20:53 21,1 C 23,9 C 18,9 C 70 % 1016,0 hPa 0,0 l/m 4,2 km/h (1 Bft) S-SO 159 0 min 0,000 mm 0,0 UV-I 12 W/m 15,4 C 21,1 C 6,4 km/h (2 Bft) 100,00 %
13.07.2018 20:54 21,0 C 23,9 C 19,4 C 70 % 1016,0 hPa 0,0 l/m 3,6 km/h (1 Bft) S-SO 159 0 min 0,000 mm 0,0 UV-I 12 W/m 15,3 C 21,0 C 6,4 km/h (2 Bft) 93,33 %
13.07.2018 20:55 21,0 C 23,9 C 19,4 C 70 % 1016,0 hPa 0,0 l/m 3,8 km/h (1 Bft) S-SO 159 0 min 0,000 mm 0,0 UV-I 11 W/m 15,3 C 21,0 C 6,4 km/h (2 Bft) 100,00 %
13.07.2018 20:56 21,0 C 23,9 C 19,4 C 70 % 1016,0 hPa 0,0 l/m 3,5 km/h (1 Bft) S-SO 159 0 min 0,000 mm 0,0 UV-I 11 W/m 15,3 C 21,0 C 6,4 km/h (2 Bft) 100,00 %
13.07.2018 20:57 20,9 C 23,9 C 19,4 C 70 % 1016,0 hPa 0,0 l/m 4,2 km/h (1 Bft) S-SO 160 0 min 0,000 mm 0,0 UV-I 10 W/m 15,2 C 20,9 C 6,4 km/h (2 Bft) 91,30 %
13.07.2018 20:58 20,9 C 23,9 C 19,4 C 70 % 1016,0 hPa 0,0 l/m 4,6 km/h (1 Bft) S-SO 160 0 min 0,000 mm 0,0 UV-I 9 W/m 15,2 C 20,9 C 6,4 km/h (2 Bft) 100,00 %
13.07.2018 20:59 20,8 C 23,9 C 18,9 C 71 % 1016,1 hPa 0,0 l/m 4,3 km/h (1 Bft) S-SO 160 0 min 0,000 mm 0,0 UV-I 9 W/m 15,3 C 20,8 C 8,0 km/h (2 Bft) 100,00 %
13.07.2018 21:00 20,8 C 23,9 C 18,9 C 70 % 1016,1 hPa 0,0 l/m 3,2 km/h (1 Bft) S-SO 161 0 min 0,000 mm 0,0 UV-I 9 W/m 15,1 C 20,8 C 6,4 km/h (2 Bft) 96,30 %
13.07.2018 21:02 20,8 C 23,9 C 18,9 C 69 % 1016,1 hPa 0,0 l/m 3,7 km/h (1 Bft) S-SO 161 0 min 0,051 mm 0,0 UV-I 8 W/m 14,9 C 20,8 C 6,4 km/h (2 Bft) 97,87 %
13.07.2018 21:03 20,9 C 23,9 C 18,9 C 69 % 1016,1 hPa 0,0 l/m 3,0 km/h (1 Bft) S-SO 161 0 min 0,000 mm 0,0 UV-I 7 W/m 15,0 C 20,9 C 6,4 km/h (2 Bft) 95,65 %
13.07.2018 21:04 20,9 C 23,9 C 18,9 C 69 % 1016,2 hPa 0,0 l/m 2,9 km/h (1 Bft) S-SO 161 0 min 0,000 mm 0,0 UV-I 7 W/m 15,0 C 20,9 C 6,4 km/h (2 Bft) 100,00 %
13.07.2018 21:05 21,0 C 23,9 C 18,9 C 68 % 1016,2 hPa 0,0 l/m 2,6 km/h (1 Bft) S-SO 161 0 min 0,000 mm 0,0 UV-I 7 W/m 14,9 C 21,0 C 3,2 km/h (1 Bft) 96,15 %
13.07.2018 21:06 20,9 C 23,9 C 18,9 C 69 % 1016,2 hPa 0,0 l/m 2,0 km/h (1 Bft) S-SO 161 0 min 0,000 mm 0,0 UV-I 7 W/m 15,0 C 20,9 C 3,2 km/h (1 Bft) 100,00 %
13.07.2018 21:07 20,9 C 23,9 C 18,9 C 68 % 1016,2 hPa 0,0 l/m 2,2 km/h (1 Bft) S-SO 161 0 min 0,000 mm 0,0 UV-I 7 W/m 14,8 C 20,9 C 3,2 km/h (1 Bft) 96,15 %
13.07.2018 21:08 20,8 C 23,9 C 18,9 C 69 % 1016,2 hPa 0,0 l/m 1,9 km/h (1 Bft) S-SO 161 0 min 0,000 mm 0,0 UV-I 7 W/m 14,9 C 20,8 C 3,2 km/h (1 Bft) 100,00 %
13.07.2018 21:09 20,8 C 23,9 C 18,3 C 69 % 1016,2 hPa 0,0 l/m 1,7 km/h (1 Bft) S-SO 161 0 min 0,000 mm 0,0 UV-I 7 W/m 14,9 C 20,8 C 3,2 km/h (1 Bft) 91,30 %
13.07.2018 21:10 20,7 C 23,9 C 18,3 C 69 % 1016,2 hPa 0,0 l/m 1,2 km/h (1 Bft) S-SO 161 0 min 0,000 mm 0,0 UV-I 6 W/m 14,8 C 20,7 C 1,6 km/h (1 Bft) 100,00 %
13.07.2018 21:11 20,7 C 23,9 C 18,3 C 70 % 1016,3 hPa 0,0 l/m 1,7 km/h (1 Bft) S-SO 161 0 min 0,000 mm 0,0 UV-I 5 W/m 15,0 C 20,7 C 3,2 km/h (1 Bft) 95,83 %
13.07.2018 21:12 20,6 C 23,9 C 18,3 C 70 % 1016,3 hPa 0,0 l/m 0,8 km/h (0 Bft) S-SO 161 0 min 0,000 mm 0,0 UV-I 5 W/m 14,9 C 20,6 C 1,6 km/h (1 Bft) 95,65 %
13.07.2018 21:13 20,6 C 23,9 C 18,3 C 70 % 1016,3 hPa 0,0 l/m 0,1 km/h (0 Bft) S-SO 161 0 min 0,000 mm 0,0 UV-I 5 W/m 14,9 C 20,6 C 1,6 km/h (1 Bft) 95,83 %
13.07.2018 21:14 20,6 C 23,9 C 17,8 C 70 % 1016,3 hPa 0,0 l/m 0,9 km/h (0 Bft) S-SO 161 0 min 0,000 mm 0,0 UV-I 5 W/m 14,9 C 20,6 C 3,2 km/h (1 Bft) 95,65 %
13.07.2018 21:15 20,5 C 23,9 C 17,8 C 70 % 1016,3 hPa 0,0 l/m 0,1 km/h (0 Bft) S-SO 161 0 min 0,000 mm 0,0 UV-I 5 W/m 14,8 C 20,5 C 1,6 km/h (1 Bft) 100,00 %
13.07.2018 21:16 20,4 C 23,9 C 17,8 C 71 % 1016,3 hPa 0,0 l/m 0,0 km/h (0 Bft) S-SO 161 0 min 0,000 mm 0,0 UV-I 5 W/m 15,0 C 20,4 C 0,0 km/h (0 Bft) 95,65 %
13.07.2018 21:17 20,4 C 23,9 C 17,8 C 70 % 1016,3 hPa 0,0 l/m 0,0 km/h (0 Bft) S-SO 161 0 min 0,000 mm 0,0 UV-I 5 W/m 14,7 C 20,4 C 0,0 km/h (0 Bft) 100,00 %
13.07.2018 21:18 20,4 C 23,9 C 17,2 C 70 % 1016,3 hPa 0,0 l/m 0,0 km/h (0 Bft) S-SO 161 0 min 0,000 mm 0,0 UV-I 5 W/m 14,7 C 20,4 C 0,0 km/h (0 Bft) 95,65 %
13.07.2018 21:19 20,4 C 23,9 C 17,2 C 70 % 1016,3 hPa 0,0 l/m 0,0 km/h (0 Bft) S-SO 161 0 min 0,000 mm 0,0 UV-I 4 W/m 14,7 C 20,4 C 0,0 km/h (0 Bft) 100,00 %
13.07.2018 21:20 20,3 C 23,9 C 17,2 C 70 % 1016,3 hPa 0,0 l/m 0,0 km/h (0 Bft) S-SO 161 0 min 0,000 mm 0,0 UV-I 0 W/m 14,6 C 20,3 C 0,0 km/h (0 Bft) 95,65 %
13.07.2018 21:21 20,3 C 23,9 C 17,2 C 70 % 1016,3 hPa 0,0 l/m 0,0 km/h (0 Bft) S-SO 161 0 min 0,000 mm 0,0 UV-I 0 W/m 14,6 C 20,3 C 0,0 km/h (0 Bft) 100,00 %
13.07.2018 21:22 20,3 C 23,9 C 17,2 C 70 % 1016,4 hPa 0,0 l/m 0,0 km/h (0 Bft) S-SO 161 0 min 0,000 mm 0,0 UV-I 0 W/m 14,6 C 20,3 C 0,0 km/h (0 Bft) 93,33 %
13.07.2018 21:23 20,3 C 23,9 C 17,2 C 70 % 1016,4 hPa 0,0 l/m 1,1 km/h (1 Bft) S-SO 161 0 min 0,000 mm 0,0 UV-I 0 W/m 14,6 C 20,3 C 3,2 km/h (1 Bft) 100,00 %
13.07.2018 21:24 20,3 C 23,9 C 16,7 C 70 % 1016,4 hPa 0,0 l/m 1,7 km/h (1 Bft) S-SO 161 0 min 0,000 mm 0,0 UV-I 0 W/m 14,6 C 20,3 C 3,2 km/h (1 Bft) 100,00 %
13.07.2018 21:25 20,3 C 23,9 C 16,7 C 70 % 1016,4 hPa 0,0 l/m 1,9 km/h (1 Bft) S-SO 161 0 min 0,000 mm 0,0 UV-I 0 W/m 14,6 C 20,3 C 3,2 km/h (1 Bft) 100,00 %
13.07.2018 21:26 20,2 C 23,9 C 16,7 C 71 % 1016,4 hPa 0,0 l/m 0,9 km/h (0 Bft) S-SO 161 0 min 0,000 mm 0,0 UV-I 0 W/m 14,8 C 20,2 C 1,6 km/h (1 Bft) 100,00 %
13.07.2018 21:27 20,2 C 23,9 C 16,7 C 71 % 1016,4 hPa 0,0 l/m 0,0 km/h (0 Bft) S-SO 161 0 min 0,000 mm 0,0 UV-I 0 W/m 14,8 C 20,2 C 0,0 km/h (0 Bft) 100,00 %
13.07.2018 21:28 20,2 C 23,9 C 16,7 C 71 % 1016,5 hPa 0,0 l/m 0,0 km/h (0 Bft) S-SO 161 0 min 0,000 mm 0,0 UV-I 0 W/m 14,8 C 20,2 C 0,0 km/h (0 Bft) 95,83 %
13.07.2018 21:29 20,1 C 23,9 C 16,7 C 72 % 1016,5 hPa 0,0 l/m 0,0 km/h (0 Bft) S-SO 161 0 min 0,000 mm 0,0 UV-I 0 W/m 14,9 C 20,1 C 0,0 km/h (0 Bft) 100,00 %
13.07.2018 21:30 20,0 C 23,9 C 16,7 C 73 % 1016,5 hPa 0,0 l/m 0,0 km/h (0 Bft) S-SO 161 0 min 0,000 mm 0,0 UV-I 0 W/m 15,0 C 20,0 C 0,0 km/h (0 Bft) 100,00 %
13.07.2018 21:31 20,0 C 23,9 C 16,7 C 73 % 1016,5 hPa 0,0 l/m 0,0 km/h (0 Bft) S-SO 161 0 min 0,000 mm 0,0 UV-I 0 W/m 15,0 C 20,0 C 0,0 km/h (0 Bft) 96,30 %
13.07.2018 21:32 19,9 C 23,9 C 16,7 C 74 % 1016,5 hPa 0,0 l/m 0,0 km/h (0 Bft) S-SO 161 0 min 0,000 mm 0,0 UV-I 0 W/m 15,1 C 19,9 C 0,0 km/h (0 Bft) 100,00 %
13.07.2018 21:33 19,9 C 23,9 C 16,7 C 74 % 1016,5 hPa 0,0 l/m 0,0 km/h (0 Bft) S-SO 161 0 min 0,000 mm 0,0 UV-I 0 W/m 15,1 C 19,9 C 0,0 km/h (0 Bft) 95,83 %
13.07.2018 21:34 19,9 C 23,9 C 16,7 C 73 % 1016,5 hPa 0,0 l/m 0,4 km/h (0 Bft) S-SO 161 0 min 0,000 mm 0,0 UV-I 0 W/m 14,9 C 19,9 C 3,2 km/h (1 Bft) 100,00 %
13.07.2018 21:35 20,0 C 23,9 C 16,7 C 73 % 1016,6 hPa 0,0 l/m 1,9 km/h (1 Bft) S-SO 161 0 min 0,000 mm 0,0 UV-I 0 W/m 15,0 C 20,0 C 3,2 km/h (1 Bft) 96,15 %
13.07.2018 21:36 20,1 C 23,9 C 16,7 C 73 % 1016,6 hPa 0,0 l/m 1,7 km/h (1 Bft) S-SO 161 0 min 0,000 mm 0,0 UV-I 0 W/m 15,1 C 20,1 C 3,2 km/h (1 Bft) 100,00 %
13.07.2018 21:37 20,1 C 23,9 C 16,7 C 73 % 1016,6 hPa 0,0 l/m 2,4 km/h (1 Bft) S-SO 161 0 min 0,000 mm 0,0 UV-I 0 W/m 15,1 C 20,1 C 3,2 km/h (1 Bft) 96,15 %
13.07.2018 21:38 20,1 C 23,9 C 16,7 C 73 % 1016,6 hPa 0,0 l/m 2,3 km/h (1 Bft) S-SO 161 0 min 0,000 mm 0,0 UV-I 0 W/m 15,1 C 20,1 C 3,2 km/h (1 Bft) 96,30 %
13.07.2018 21:39 19,9 C 23,9 C 16,7 C 74 % 1016,6 hPa 0,0 l/m 2,3 km/h (1 Bft) S-SO 161 0 min 0,000 mm 0,0 UV-I 0 W/m 15,1 C 19,9 C 3,2 km/h (1 Bft) 100,00 %
13.07.2018 21:40 19,8 C 23,9 C 16,7 C 75 % 1016,6 hPa 0,0 l/m 2,8 km/h (1 Bft) S-SO 161 0 min 0,000 mm 0,0 UV-I 0 W/m 15,2 C 19,8 C 3,2 km/h (1 Bft) 100,00 %
13.07.2018 21:41 19,8 C 23,9 C 16,7 C 75 % 1016,6 hPa 0,0 l/m 2,3 km/h (1 Bft) S-SO 161 0 min 0,000 mm 0,0 UV-I 0 W/m 15,2 C 19,8 C 3,2 km/h (1 Bft) 95,65 %
13.07.2018 21:42 19,8 C 23,9 C 16,7 C 75 % 1016,6 hPa 0,0 l/m 2,5 km/h (1 Bft) S-SO 161 0 min 0,000 mm 0,0 UV-I 0 W/m 15,2 C 19,8 C 3,2 km/h (1 Bft) 95,83 %
13.07.2018 21:43 19,8 C 23,9 C 16,7 C 75 % 1016,7 hPa 0,0 l/m 2,8 km/h (1 Bft) S-SO 161 0 min 0,000 mm 0,0 UV-I 0 W/m 15,2 C 19,8 C 3,2 km/h (1 Bft) 100,00 %
13.07.2018 21:44 19,8 C 23,9 C 16,7 C 75 % 1016,7 hPa 0,0 l/m 3,1 km/h (1 Bft) S-SO 161 0 min 0,000 mm 0,0 UV-I 0 W/m 15,2 C 19,8 C 3,2 km/h (1 Bft) 95,83 %
13.07.2018 21:45 19,8 C 23,9 C 16,7 C 75 % 1016,7 hPa 0,0 l/m 3,0 km/h (1 Bft) S-SO 161 0 min 0,000 mm 0,0 UV-I 0 W/m 15,2 C 19,8 C 6,4 km/h (2 Bft) 100,00 %
13.07.2018 21:46 19,8 C 23,9 C 16,7 C 74 % 1016,7 hPa 0,0 l/m 3,1 km/h (1 Bft) S-SO 161 0 min 0,000 mm 0,0 UV-I 0 W/m 15,0 C 19,8 C 3,2 km/h (1 Bft) 96,15 %
13.07.2018 21:47 19,9 C 23,9 C 16,7 C 74 % 1016,6 hPa 0,0 l/m 3,0 km/h (1 Bft) S-SO 161 0 min 0,000 mm 0,0 UV-I 0 W/m 15,1 C 19,9 C 3,2 km/h (1 Bft) 100,00 %
13.07.2018 21:48 19,9 C 23,9 C 16,7 C 74 % 1016,6 hPa 0,0 l/m 2,9 km/h (1 Bft) S-SO 161 0 min 0,000 mm 0,0 UV-I 0 W/m 15,1 C 19,9 C 3,2 km/h (1 Bft) 95,65 %
13.07.2018 21:49 19,8 C 23,9 C 16,7 C 74 % 1016,7 hPa 0,0 l/m 3,3 km/h (1 Bft) S-SO 161 0 min 0,000 mm 0,0 UV-I 0 W/m 15,0 C 19,8 C 6,4 km/h (2 Bft) 100,00 %
13.07.2018 21:50 19,8 C 23,9 C 16,1 C 74 % 1016,7 hPa 0,0 l/m 3,5 km/h (1 Bft) S-SO 162 0 min 0,000 mm 0,0 UV-I 0 W/m 15,0 C 19,8 C 6,4 km/h (2 Bft) 95,65 %
13.07.2018 21:51 19,8 C 23,9 C 16,1 C 74 % 1016,7 hPa 0,0 l/m 2,8 km/h (1 Bft) S-SO 162 0 min 0,000 mm 0,0 UV-I 0 W/m 15,0 C 19,8 C 3,2 km/h (1 Bft) 93,33 %
13.07.2018 21:53 19,8 C 23,9 C 16,7 C 74 % 1016,7 hPa 0,0 l/m 4,7 km/h (1 Bft) S-SO 167 0 min 0,000 mm 0,0 UV-I 0 W/m 15,0 C 19,8 C 6,4 km/h (2 Bft) 97,87 %
13.07.2018 21:54 19,7 C 23,9 C 16,7 C 75 % 1016,7 hPa 0,0 l/m 3,7 km/h (1 Bft) S-SO 167 0 min 0,000 mm 0,0 UV-I 0 W/m 15,1 C 19,7 C 4,8 km/h (1 Bft) 95,65 %
13.07.2018 21:55 19,6 C 23,9 C 16,7 C 75 % 1016,8 hPa 0,0 l/m 3,5 km/h (1 Bft) S-SO 167 0 min 0,000 mm 0,0 UV-I 0 W/m 15,0 C 19,6 C 4,8 km/h (1 Bft) 95,83 %
13.07.2018 21:56 19,6 C 23,9 C 16,7 C 76 % 1016,7 hPa 0,0 l/m 2,6 km/h (1 Bft) S-SO 167 0 min 0,000 mm 0,0 UV-I 0 W/m 15,2 C 19,6 C 4,8 km/h (1 Bft) 96,15 %
13.07.2018 21:57 19,6 C 23,9 C 16,1 C 76 % 1016,7 hPa 0,0 l/m 0,1 km/h (0 Bft) S-SO 167 0 min 0,000 mm 0,0 UV-I 0 W/m 15,2 C 19,6 C 1,6 km/h (1 Bft) 100,00 %
13.07.2018 21:58 19,6 C 23,9 C 16,1 C 75 % 1016,8 hPa 0,0 l/m 0,0 km/h (0 Bft) S-SO 167 0 min 0,000 mm 0,0 UV-I 0 W/m 15,0 C 19,6 C 0,0 km/h (0 Bft) 96,15 %
13.07.2018 21:59 19,7 C 23,9 C 16,1 C 75 % 1016,8 hPa 0,0 l/m 0,0 km/h (0 Bft) S-SO 167 0 min 0,000 mm 0,0 UV-I 0 W/m 15,1 C 19,7 C 0,0 km/h (0 Bft) 100,00 %
13.07.2018 22:00 19,6 C 23,9 C 16,1 C 75 % 1016,8 hPa 0,0 l/m 0,0 km/h (0 Bft) S-SO 167 0 min 0,000 mm 0,0 UV-I 0 W/m 15,0 C 19,6 C 0,0 km/h (0 Bft) 96,15 %
13.07.2018 22:02 19,5 C 23,9 C 16,1 C 75 % 1016,8 hPa 0,0 l/m 0,4 km/h (0 Bft) S-SO 167 0 min 0,025 mm 0,0 UV-I 0 W/m 14,9 C 19,5 C 1,6 km/h (1 Bft) 98,00 %
13.07.2018 22:03 19,4 C 23,9 C 16,1 C 75 % 1016,8 hPa 0,0 l/m 1,8 km/h (1 Bft) S-SO 167 0 min 0,000 mm 0,0 UV-I 0 W/m 14,8 C 19,4 C 4,8 km/h (1 Bft) 100,00 %
13.07.2018 22:04 19,5 C 23,9 C 16,1 C 75 % 1016,8 hPa 0,0 l/m 1,5 km/h (1 Bft) S-SO 167 0 min 0,000 mm 0,0 UV-I 0 W/m 14,9 C 19,5 C 1,6 km/h (1 Bft) 96,55 %
13.07.2018 22:05 19,5 C 23,9 C 16,1 C 75 % 1016,8 hPa 0,0 l/m 1,3 km/h (1 Bft) S-SO 167 0 min 0,000 mm 0,0 UV-I 0 W/m 14,9 C 19,5 C 1,6 km/h (1 Bft) 95,83 %
13.07.2018 22:06 19,5 C 23,9 C 16,1 C 75 % 1016,8 hPa 0,0 l/m 2,0 km/h (1 Bft) S-SO 167 0 min 0,000 mm 0,0 UV-I 0 W/m 14,9 C 19,5 C 4,8 km/h (1 Bft) 100,00 %
13.07.2018 22:07 19,4 C 23,9 C 16,1 C 74 % 1016,8 hPa 0,0 l/m 3,4 km/h (1 Bft) S-SO 167 0 min 0,000 mm 0,0 UV-I 0 W/m 14,6 C 19,4 C 4,8 km/h (1 Bft) 100,00 %
13.07.2018 22:08 19,4 C 23,9 C 16,1 C 75 % 1016,8 hPa 0,0 l/m 3,5 km/h (1 Bft) S-SO 167 0 min 0,000 mm 0,0 UV-I 0 W/m 14,8 C 19,4 C 4,8 km/h (1 Bft) 100,00 %
13.07.2018 22:09 19,3 C 23,9 C 16,1 C 74 % 1016,8 hPa 0,0 l/m 2,5 km/h (1 Bft) S-SO 167 0 min 0,000 mm 0,0 UV-I 0 W/m 14,5 C 19,3 C 4,8 km/h (1 Bft) 100,00 %
13.07.2018 22:10 19,3 C 23,9 C 16,1 C 74 % 1016,8 hPa 0,0 l/m 2,7 km/h (1 Bft) S-SO 167 0 min 0,000 mm 0,0 UV-I 0 W/m 14,5 C 19,3 C 4,8 km/h (1 Bft) 100,00 %
13.07.2018 22:11 19,1 C 23,9 C 16,1 C 74 % 1016,8 hPa 0,0 l/m 2,4 km/h (1 Bft) S-SO 167 0 min 0,000 mm 0,0 UV-I 0 W/m 14,4 C 19,1 C 4,8 km/h (1 Bft) 100,00 %
13.07.2018 22:12 19,1 C 23,9 C 16,1 C 74 % 1016,8 hPa 0,0 l/m 2,4 km/h (1 Bft) S-SO 167 0 min 0,000 mm 0,0 UV-I 0 W/m 14,4 C 19,1 C 4,8 km/h (1 Bft) 100,00 %
13.07.2018 22:13 19,0 C 23,9 C 16,1 C 75 % 1016,8 hPa 0,0 l/m 1,3 km/h (1 Bft) S-SO 167 0 min 0,000 mm 0,0 UV-I 0 W/m 14,5 C 19,0 C 1,6 km/h (1 Bft) 96,15 %
13.07.2018 22:14 18,9 C 23,9 C 16,1 C 75 % 1016,8 hPa 0,0 l/m 1,6 km/h (1 Bft) S-SO 167 0 min 0,000 mm 0,0 UV-I 0 W/m 14,4 C 18,9 C 1,6 km/h (1 Bft) 95,83 %
13.07.2018 22:15 18,9 C 23,9 C 16,1 C 75 % 1016,8 hPa 0,0 l/m 1,3 km/h (1 Bft) S-SO 167 0 min 0,000 mm 0,0 UV-I 0 W/m 14,4 C 18,9 C 1,6 km/h (1 Bft) 100,00 %
13.07.2018 22:16 18,8 C 23,9 C 16,1 C 76 % 1016,8 hPa 0,0 l/m 0,7 km/h (0 Bft) S-SO 167 0 min 0,000 mm 0,0 UV-I 0 W/m 14,5 C 18,8 C 1,6 km/h (1 Bft) 95,83 %
13.07.2018 22:17 18,7 C 23,9 C 16,1 C 76 % 1016,9 hPa 0,0 l/m 1,7 km/h (1 Bft) S-SO 167 0 min 0,000 mm 0,0 UV-I 0 W/m 14,4 C 18,7 C 4,8 km/h (1 Bft) 100,00 %
13.07.2018 22:18 18,7 C 23,9 C 16,1 C 76 % 1016,8 hPa 0,0 l/m 1,9 km/h (1 Bft) S-SO 167 0 min 0,000 mm 0,0 UV-I 0 W/m 14,4 C 18,7 C 4,8 km/h (1 Bft) 100,00 %
13.07.2018 22:19 18,7 C 23,9 C 16,1 C 76 % 1016,8 hPa 0,0 l/m 1,3 km/h (1 Bft) S-SO 167 0 min 0,000 mm 0,0 UV-I 0 W/m 14,4 C 18,7 C 1,6 km/h (1 Bft) 100,00 %
13.07.2018 22:20 18,6 C 23,9 C 16,1 C 77 % 1016,9 hPa 0,0 l/m 1,6 km/h (1 Bft) S-SO 167 0 min 0,000 mm 0,0 UV-I 0 W/m 14,5 C 18,6 C 4,8 km/h (1 Bft) 100,00 %
13.07.2018 22:21 18,5 C 23,9 C 16,1 C 77 % 1016,8 hPa 0,0 l/m 1,9 km/h (1 Bft) S-SO 167 0 min 0,000 mm 0,0 UV-I 0 W/m 14,4 C 18,5 C 4,8 km/h (1 Bft) 100,00 %
13.07.2018 22:22 18,4 C 23,9 C 16,1 C 77 % 1016,8 hPa 0,0 l/m 2,4 km/h (1 Bft) S-SO 167 0 min 0,000 mm 0,0 UV-I 0 W/m 14,3 C 18,4 C 4,8 km/h (1 Bft) 100,00 %
13.07.2018 22:23 18,4 C 23,9 C 16,7 C 76 % 1016,8 hPa 0,0 l/m 3,0 km/h (1 Bft) S-SO 167 0 min 0,000 mm 0,0 UV-I 0 W/m 14,1 C 18,4 C 4,8 km/h (1 Bft) 100,00 %
13.07.2018 22:24 18,5 C 23,9 C 16,7 C 76 % 1016,9 hPa 0,0 l/m 2,0 km/h (1 Bft) S-SO 167 0 min 0,000 mm 0,0 UV-I 0 W/m 14,2 C 18,5 C 4,8 km/h (1 Bft) 100,00 %
13.07.2018 22:25 18,4 C 23,9 C 16,1 C 76 % 1016,8 hPa 0,0 l/m 1,0 km/h (0 Bft) S-SO 167 0 min 0,000 mm 0,0 UV-I 0 W/m 14,1 C 18,4 C 1,6 km/h (1 Bft) 100,00 %
13.07.2018 22:26 18,4 C 23,9 C 16,1 C 76 % 1016,9 hPa 0,0 l/m 1,4 km/h (1 Bft) S-SO 167 0 min 0,000 mm 0,0 UV-I 0 W/m 14,1 C 18,4 C 1,6 km/h (1 Bft) 100,00 %
13.07.2018 22:27 18,3 C 23,9 C 16,1 C 77 % 1016,9 hPa 0,0 l/m 1,6 km/h (1 Bft) S-SO 167 0 min 0,000 mm 0,0 UV-I 0 W/m 14,2 C 18,3 C 4,8 km/h (1 Bft) 95,65 %
13.07.2018 22:28 18,2 C 23,9 C 16,1 C 78 % 1016,9 hPa 0,0 l/m 1,9 km/h (1 Bft) S-SO 167 0 min 0,000 mm 0,0 UV-I 0 W/m 14,3 C 18,2 C 4,8 km/h (1 Bft) 100,00 %
13.07.2018 22:29 18,1 C 23,9 C 16,1 C 78 % 1016,9 hPa 0,0 l/m 2,2 km/h (1 Bft) S-SO 167 0 min 0,000 mm 0,0 UV-I 0 W/m 14,2 C 18,1 C 4,8 km/h (1 Bft) 96,15 %
13.07.2018 22:30 18,1 C 23,9 C 16,1 C 79 % 1016,9 hPa 0,0 l/m 2,8 km/h (1 Bft) S-SO 167 0 min 0,000 mm 0,0 UV-I 0 W/m 14,4 C 18,1 C 4,8 km/h (1 Bft) 91,67 %
13.07.2018 22:31 18,0 C 23,9 C 16,1 C 79 % 1016,9 hPa 0,0 l/m 0,9 km/h (0 Bft) S-SO 167 0 min 0,000 mm 0,0 UV-I 0 W/m 14,3 C 18,0 C 1,6 km/h (1 Bft) 95,83 %
13.07.2018 22:32 17,9 C 23,9 C 16,1 C 79 % 1016,9 hPa 0,0 l/m 0,3 km/h (0 Bft) S-SO 167 0 min 0,000 mm 0,0 UV-I 0 W/m 14,2 C 17,9 C 1,6 km/h (1 Bft) 100,00 %
13.07.2018 22:33 18,0 C 23,9 C 16,1 C 79 % 1016,9 hPa 0,0 l/m 0,0 km/h (0 Bft) S-SO 167 0 min 0,000 mm 0,0 UV-I 0 W/m 14,3 C 18,0 C 0,0 km/h (0 Bft) 95,83 %
13.07.2018 22:34 18,1 C 23,9 C 15,6 C 79 % 1016,9 hPa 0,0 l/m 0,0 km/h (0 Bft) S-SO 167 0 min 0,000 mm 0,0 UV-I 0 W/m 14,4 C 18,1 C 0,0 km/h (0 Bft) 100,00 %
13.07.2018 22:35 18,2 C 23,9 C 15,6 C 79 % 1016,9 hPa 0,0 l/m 0,0 km/h (0 Bft) S-SO 167 0 min 0,000 mm 0,0 UV-I 0 W/m 14,5 C 18,2 C 0,0 km/h (0 Bft) 95,83 %
13.07.2018 22:36 18,2 C 23,9 C 15,6 C 79 % 1016,9 hPa 0,0 l/m 1,7 km/h (1 Bft) S-SO 167 0 min 0,000 mm 0,0 UV-I 0 W/m 14,5 C 18,2 C 4,8 km/h (1 Bft) 95,65 %
13.07.2018 22:37 18,2 C 23,9 C 15,6 C 79 % 1016,9 hPa 0,0 l/m 1,0 km/h (0 Bft) S-SO 167 0 min 0,000 mm 0,0 UV-I 0 W/m 14,5 C 18,2 C 4,8 km/h (1 Bft) 96,30 %
13.07.2018 22:38 18,3 C 23,9 C 15,6 C 79 % 1016,9 hPa 0,0 l/m 0,0 km/h (0 Bft) S-SO 167 0 min 0,000 mm 0,0 UV-I 0 W/m 14,6 C 18,3 C 0,0 km/h (0 Bft) 100,00 %
13.07.2018 22:39 18,3 C 23,9 C 15,6 C 78 % 1016,9 hPa 0,0 l/m 0,0 km/h (0 Bft) S-SO 167 0 min 0,000 mm 0,0 UV-I 0 W/m 14,4 C 18,3 C 0,0 km/h (0 Bft) 95,65 %
13.07.2018 22:40 18,3 C 23,9 C 15,6 C 78 % 1016,9 hPa 0,0 l/m 0,0 km/h (0 Bft) S-SO 167 0 min 0,000 mm 0,0 UV-I 0 W/m 14,4 C 18,3 C 0,0 km/h (0 Bft) 96,15 %
13.07.2018 22:41 18,3 C 23,9 C 15,6 C 78 % 1016,9 hPa 0,0 l/m 0,0 km/h (0 Bft) S-SO 167 0 min 0,000 mm 0,0 UV-I 0 W/m 14,4 C 18,3 C 0,0 km/h (0 Bft) 96,67 %
13.07.2018 22:43 18,3 C 23,9 C 15,0 C 78 % 1016,9 hPa 0,0 l/m 1,0 km/h (0 Bft) S-SO 167 0 min 0,000 mm 0,0 UV-I 0 W/m 14,4 C 18,3 C 4,8 km/h (1 Bft) 96,00 %
13.07.2018 22:44 18,4 C 23,9 C 15,0 C 78 % 1016,9 hPa 0,0 l/m 1,6 km/h (1 Bft) S-SO 167 0 min 0,000 mm 0,0 UV-I 0 W/m 14,5 C 18,4 C 1,6 km/h (1 Bft) 93,33 %
13.07.2018 22:45 18,4 C 23,9 C 15,0 C 78 % 1016,8 hPa 0,0 l/m 4,2 km/h (1 Bft) S-SO 167 0 min 0,000 mm 0,0 UV-I 0 W/m 14,5 C 18,4 C 6,4 km/h (2 Bft) 100,00 %
13.07.2018 22:46 18,4 C 23,9 C 15,0 C 78 % 1016,9 hPa 0,0 l/m 2,4 km/h (1 Bft) S-SO 167 0 min 0,000 mm 0,0 UV-I 0 W/m 14,5 C 18,4 C 4,8 km/h (1 Bft) 95,83 %
13.07.2018 22:47 18,4 C 23,9 C 15,0 C 78 % 1016,9 hPa 0,0 l/m 2,6 km/h (1 Bft) S-SO 167 0 min 0,000 mm 0,0 UV-I 0 W/m 14,5 C 18,4 C 4,8 km/h (1 Bft) 100,00 %
13.07.2018 22:48 18,4 C 23,9 C 15,0 C 78 % 1016,9 hPa 0,0 l/m 1,3 km/h (1 Bft) S-SO 167 0 min 0,000 mm 0,0 UV-I 0 W/m 14,5 C 18,4 C 4,8 km/h (1 Bft) 93,33 %
13.07.2018 22:49 18,4 C 23,9 C 15,0 C 79 % 1016,9 hPa 0,0 l/m 3,4 km/h (1 Bft) S-SO 167 0 min 0,000 mm 0,0 UV-I 0 W/m 14,7 C 18,4 C 6,4 km/h (2 Bft) 100,00 %
13.07.2018 22:50 18,4 C 23,9 C 15,0 C 78 % 1016,9 hPa 0,0 l/m 2,2 km/h (1 Bft) S-SO 167 0 min 0,000 mm 0,0 UV-I 0 W/m 14,5 C 18,4 C 4,8 km/h (1 Bft) 95,83 %
13.07.2018 22:51 18,4 C 23,9 C 15,0 C 79 % 1016,9 hPa 0,0 l/m 1,9 km/h (1 Bft) S-SO 167 0 min 0,000 mm 0,0 UV-I 0 W/m 14,7 C 18,4 C 4,8 km/h (1 Bft) 96,15 %
13.07.2018 22:52 18,4 C 23,9 C 15,0 C 79 % 1016,9 hPa 0,0 l/m 3,6 km/h (1 Bft) S-SO 167 0 min 0,000 mm 0,0 UV-I 0 W/m 14,7 C 18,4 C 6,4 km/h (2 Bft) 100,00 %
13.07.2018 22:53 18,4 C 23,9 C 15,0 C 79 % 1016,9 hPa 0,0 l/m 3,1 km/h (1 Bft) S-SO 167 0 min 0,000 mm 0,0 UV-I 0 W/m 14,7 C 18,4 C 4,8 km/h (1 Bft) 100,00 %
13.07.2018 22:54 18,3 C 23,9 C 15,0 C 79 % 1016,9 hPa 0,0 l/m 4,5 km/h (1 Bft) S 174 0 min 0,000 mm 0,0 UV-I 0 W/m 14,6 C 18,3 C 6,4 km/h (2 Bft) 100,00 %
13.07.2018 22:55 18,2 C 23,9 C 15,0 C 78 % 1016,9 hPa 0,0 l/m 2,6 km/h (1 Bft) S 174 0 min 0,000 mm 0,0 UV-I 0 W/m 14,3 C 18,2 C 3,2 km/h (1 Bft) 93,10 %
13.07.2018 22:56 18,2 C 23,9 C 15,0 C 77 % 1016,9 hPa 0,0 l/m 3,4 km/h (1 Bft) S 174 0 min 0,000 mm 0,0 UV-I 0 W/m 14,1 C 18,2 C 4,8 km/h (1 Bft) 100,00 %
13.07.2018 22:57 18,2 C 23,9 C 15,0 C 77 % 1016,8 hPa 0,0 l/m 3,3 km/h (1 Bft) S 174 0 min 0,000 mm 0,0 UV-I 0 W/m 14,1 C 18,2 C 4,8 km/h (1 Bft) 100,00 %
13.07.2018 23:00 18,3 C 23,9 C 15,0 C 76 % 1016,8 hPa 0,0 l/m 3,2 km/h (1 Bft) S 180 0 min 0,000 mm 0,0 UV-I 0 W/m 14,0 C 18,3 C 4,8 km/h (1 Bft) 98,25 %
13.07.2018 23:05 18,5 C 23,9 C 15,0 C 75 % 1016,9 hPa 0,0 l/m 3,2 km/h (1 Bft) S 180 0 min 0,000 mm 0,0 UV-I 0 W/m 14,0 C 18,5 C 4,8 km/h (1 Bft) 99,12 %
13.07.2018 23:10 18,6 C 23,9 C 15,0 C 76 % 1016,8 hPa 0,0 l/m 3,2 km/h (1 Bft) S 180 0 min 0,000 mm 0,0 UV-I 0 W/m 14,3 C 18,6 C 4,8 km/h (1 Bft) 100,00 %
13.07.2018 23:13 18,3 C 23,9 C 15,0 C 77 % 1016,8 hPa 0,0 l/m 2,7 km/h (1 Bft) S 175 0 min 0,000 mm 0,0 UV-I 0 W/m 14,2 C 18,3 C 3,2 km/h (1 Bft) 98,66 %
13.07.2018 23:14 18,3 C 23,9 C 15,0 C 77 % 1016,9 hPa 0,0 l/m 3,3 km/h (1 Bft) S 175 0 min 0,000 mm 0,0 UV-I 0 W/m 14,2 C 18,3 C 4,8 km/h (1 Bft) 95,65 %
13.07.2018 23:15 18,2 C 23,9 C 15,0 C 78 % 1016,9 hPa 0,0 l/m 2,9 km/h (1 Bft) S 175 0 min 0,000 mm 0,0 UV-I 0 W/m 14,3 C 18,2 C 4,8 km/h (1 Bft) 100,00 %
13.07.2018 23:16 18,2 C 23,9 C 15,0 C 77 % 1016,9 hPa 0,0 l/m 3,1 km/h (1 Bft) S 185 0 min 0,000 mm 0,0 UV-I 0 W/m 14,1 C 18,2 C 4,8 km/h (1 Bft) 95,65 %
13.07.2018 23:18 18,2 C 23,9 C 15,0 C 77 % 1016,9 hPa 0,0 l/m 2,7 km/h (1 Bft) S 190 0 min 0,000 mm 0,0 UV-I 0 W/m 14,1 C 18,2 C 4,8 km/h (1 Bft) 100,00 %
13.07.2018 23:19 18,2 C 23,9 C 15,0 C 78 % 1016,9 hPa 0,0 l/m 3,9 km/h (1 Bft) S-SW 192 0 min 0,000 mm 0,0 UV-I 0 W/m 14,3 C 18,2 C 4,8 km/h (1 Bft) 100,00 %
13.07.2018 23:20 18,2 C 23,9 C 15,0 C 78 % 1016,9 hPa 0,0 l/m 3,7 km/h (1 Bft) S-SW 210 0 min 0,000 mm 0,0 UV-I 0 W/m 14,3 C 18,2 C 4,8 km/h (1 Bft) 95,65 %
13.07.2018 23:21 18,2 C 23,9 C 15,0 C 78 % 1016,9 hPa 0,0 l/m 3,1 km/h (1 Bft) S-SW 210 0 min 0,000 mm 0,0 UV-I 0 W/m 14,3 C 18,2 C 4,8 km/h (1 Bft) 100,00 %
13.07.2018 23:23 18,1 C 23,9 C 15,0 C 78 % 1016,9 hPa 0,0 l/m 3,6 km/h (1 Bft) SW 224 0 min 0,000 mm 0,0 UV-I 0 W/m 14,2 C 18,1 C 8,0 km/h (2 Bft) 100,00 %
13.07.2018 23:24 18,1 C 23,9 C 15,6 C 79 % 1016,9 hPa 0,0 l/m 5,0 km/h (1 Bft) SW 214 0 min 0,000 mm 0,0 UV-I 0 W/m 14,4 C 18,1 C 6,4 km/h (2 Bft) 100,00 %
13.07.2018 23:25 18,1 C 23,9 C 15,6 C 79 % 1016,9 hPa 0,0 l/m 4,3 km/h (1 Bft) SW 215 0 min 0,000 mm 0,0 UV-I 0 W/m 14,4 C 18,1 C 6,4 km/h (2 Bft) 92,31 %
13.07.2018 23:26 17,9 C 23,9 C 15,6 C 79 % 1016,9 hPa 0,0 l/m 5,1 km/h (1 Bft) SW 225 0 min 0,000 mm 0,0 UV-I 0 W/m 14,2 C 17,9 C 6,4 km/h (2 Bft) 96,55 %
13.07.2018 23:27 17,9 C 23,9 C 15,6 C 79 % 1016,9 hPa 0,0 l/m 4,8 km/h (1 Bft) SW 223 0 min 0,000 mm 0,0 UV-I 0 W/m 14,2 C 17,9 C 6,4 km/h (2 Bft) 100,00 %
13.07.2018 23:28 17,8 C 23,9 C 15,6 C 79 % 1016,9 hPa 0,0 l/m 4,2 km/h (1 Bft) SW 223 0 min 0,000 mm 0,0 UV-I 0 W/m 14,1 C 17,8 C 6,4 km/h (2 Bft) 100,00 %
13.07.2018 23:29 17,7 C 23,9 C 16,1 C 80 % 1016,9 hPa 0,0 l/m 4,3 km/h (1 Bft) SW 223 0 min 0,000 mm 0,0 UV-I 0 W/m 14,2 C 17,7 C 4,8 km/h (1 Bft) 97,14 %
13.07.2018 23:30 17,7 C 23,9 C 16,1 C 80 % 1016,9 hPa 0,0 l/m 4,1 km/h (1 Bft) SW 223 0 min 0,000 mm 0,0 UV-I 0 W/m 14,2 C 17,7 C 4,8 km/h (1 Bft) 93,33 %
13.07.2018 23:31 17,7 C 23,9 C 16,1 C 79 % 1016,9 hPa 0,0 l/m 3,8 km/h (1 Bft) SW 233 0 min 0,000 mm 0,0 UV-I 0 W/m 14,0 C 17,7 C 4,8 km/h (1 Bft) 96,15 %
13.07.2018 23:32 17,8 C 23,9 C 16,1 C 79 % 1016,9 hPa 0,0 l/m 5,4 km/h (1 Bft) SW 225 0 min 0,000 mm 0,0 UV-I 0 W/m 14,1 C 17,8 C 6,4 km/h (2 Bft) 95,83 %
13.07.2018 23:33 17,9 C 23,9 C 16,1 C 79 % 1016,9 hPa 0,0 l/m 5,8 km/h (2 Bft) SW 227 0 min 0,000 mm 0,0 UV-I 0 W/m 14,2 C 17,9 C 8,0 km/h (2 Bft) 100,00 %
13.07.2018 23:34 18,0 C 23,9 C 16,1 C 78 % 1016,9 hPa 0,0 l/m 5,6 km/h (1 Bft) SW 219 0 min 0,000 mm 0,0 UV-I 0 W/m 14,1 C 18,0 C 6,4 km/h (2 Bft) 95,83 %
13.07.2018 23:35 18,1 C 23,3 C 16,1 C 78 % 1016,9 hPa 0,0 l/m 6,5 km/h (2 Bft) SW 227 0 min 0,000 mm 0,0 UV-I 0 W/m 14,2 C 18,1 C 8,0 km/h (2 Bft) 95,65 %
13.07.2018 23:36 18,1 C 23,3 C 16,1 C 77 % 1016,9 hPa 0,0 l/m 5,5 km/h (1 Bft) SW 228 0 min 0,000 mm 0,0 UV-I 0 W/m 14,0 C 18,1 C 6,4 km/h (2 Bft) 95,83 %
13.07.2018 23:37 18,2 C 23,9 C 16,1 C 77 % 1016,9 hPa 0,0 l/m 5,5 km/h (1 Bft) SW 225 0 min 0,000 mm 0,0 UV-I 0 W/m 14,1 C 18,2 C 6,4 km/h (2 Bft) 100,00 %
13.07.2018 23:38 18,2 C 23,9 C 16,1 C 77 % 1016,9 hPa 0,0 l/m 5,0 km/h (1 Bft) SW 227 0 min 0,000 mm 0,0 UV-I 0 W/m 14,1 C 18,2 C 6,4 km/h (2 Bft) 96,30 %
13.07.2018 23:39 18,3 C 23,3 C 16,1 C 76 % 1016,9 hPa 0,0 l/m 4,8 km/h (1 Bft) SW 227 0 min 0,000 mm 0,0 UV-I 0 W/m 14,0 C 18,3 C 6,4 km/h (2 Bft) 100,00 %
13.07.2018 23:40 18,3 C 23,3 C 16,1 C 76 % 1016,9 hPa 0,0 l/m 4,8 km/h (1 Bft) SW 228 0 min 0,000 mm 0,0 UV-I 0 W/m 14,0 C 18,3 C 6,4 km/h (2 Bft) 95,83 %
13.07.2018 23:41 18,3 C 23,3 C 16,1 C 76 % 1016,9 hPa 0,0 l/m 4,2 km/h (1 Bft) SW 228 0 min 0,000 mm 0,0 UV-I 0 W/m 14,0 C 18,3 C 6,4 km/h (2 Bft) 91,67 %
13.07.2018 23:43 18,2 C 23,3 C 16,1 C 77 % 1016,9 hPa 0,0 l/m 3,4 km/h (1 Bft) SW 228 0 min 0,000 mm 0,0 UV-I 0 W/m 14,1 C 18,2 C 4,8 km/h (1 Bft) 94,00 %
13.07.2018 23:44 18,1 C 23,9 C 15,6 C 77 % 1016,9 hPa 0,0 l/m 3,8 km/h (1 Bft) SW 229 0 min 0,000 mm 0,0 UV-I 0 W/m 14,0 C 18,1 C 4,8 km/h (1 Bft) 95,65 %
13.07.2018 23:45 17,9 C 23,3 C 15,6 C 78 % 1016,9 hPa 0,0 l/m 3,5 km/h (1 Bft) SW 229 0 min 0,000 mm 0,0 UV-I 0 W/m 14,0 C 17,9 C 4,8 km/h (1 Bft) 93,33 %
13.07.2018 23:46 17,7 C 23,3 C 15,6 C 79 % 1017,0 hPa 0,0 l/m 3,8 km/h (1 Bft) W-NW 291 0 min 0,000 mm 0,0 UV-I 0 W/m 14,0 C 17,7 C 4,8 km/h (1 Bft) 97,37 %
13.07.2018 23:47 17,3 C 23,3 C 15,6 C 80 % 1017,0 hPa 0,0 l/m 3,1 km/h (1 Bft) W-NW 291 0 min 0,000 mm 0,0 UV-I 0 W/m 13,8 C 17,3 C 4,8 km/h (1 Bft) 91,67 %
13.07.2018 23:48 17,1 C 23,3 C 15,6 C 82 % 1017,0 hPa 0,0 l/m 2,4 km/h (1 Bft) W-NW 291 0 min 0,000 mm 0,0 UV-I 0 W/m 14,0 C 17,1 C 4,8 km/h (1 Bft) 96,15 %
13.07.2018 23:49 16,9 C 23,3 C 15,6 C 83 % 1017,0 hPa 0,0 l/m 2,5 km/h (1 Bft) W-NW 292 0 min 0,000 mm 0,0 UV-I 0 W/m 14,0 C 16,9 C 3,2 km/h (1 Bft) 91,67 %
13.07.2018 23:50 16,9 C 23,3 C 15,0 C 83 % 1017,0 hPa 0,0 l/m 2,7 km/h (1 Bft) W-NW 301 0 min 0,000 mm 0,0 UV-I 0 W/m 14,0 C 16,9 C 6,4 km/h (2 Bft) 91,30 %
13.07.2018 23:51 17,1 C 23,3 C 15,0 C 82 % 1017,0 hPa 0,0 l/m 3,3 km/h (1 Bft) NW 308 0 min 0,000 mm 0,0 UV-I 0 W/m 14,0 C 17,1 C 4,8 km/h (1 Bft) 91,67 %
13.07.2018 23:52 17,2 C 23,3 C 15,0 C 82 % 1017,0 hPa 0,0 l/m 3,6 km/h (1 Bft) NW 308 0 min 0,000 mm 0,0 UV-I 0 W/m 14,1 C 17,2 C 4,8 km/h (1 Bft) 96,55 %
13.07.2018 23:53 17,3 C 23,3 C 15,0 C 81 % 1017,0 hPa 0,0 l/m 3,5 km/h (1 Bft) NW 308 0 min 0,000 mm 0,0 UV-I 0 W/m 14,0 C 17,3 C 4,8 km/h (1 Bft) 96,30 %
13.07.2018 23:54 17,4 C 23,3 C 15,0 C 81 % 1017,0 hPa 0,0 l/m 3,9 km/h (1 Bft) NW 307 0 min 0,000 mm 0,0 UV-I 0 W/m 14,1 C 17,4 C 4,8 km/h (1 Bft) 92,86 %
13.07.2018 23:55 17,5 C 23,3 C 15,6 C 80 % 1017,0 hPa 0,0 l/m 4,4 km/h (1 Bft) W-SW 251 0 min 0,000 mm 0,0 UV-I 0 W/m 14,0 C 17,5 C 6,4 km/h (2 Bft) 91,67 %
13.07.2018 23:56 17,5 C 23,3 C 15,6 C 80 % 1017,0 hPa 0,0 l/m 5,6 km/h (1 Bft) W-SW 248 0 min 0,000 mm 0,0 UV-I 0 W/m 14,0 C 17,5 C 6,4 km/h (2 Bft) 95,65 %
13.07.2018 23:57 17,5 C 23,3 C 15,6 C 80 % 1017,0 hPa 0,0 l/m 5,7 km/h (1 Bft) SW 231 0 min 0,000 mm 0,0 UV-I 0 W/m 14,0 C 17,5 C 6,4 km/h (2 Bft) 88,89 %
13.07.2018 23:58 17,4 C 23,3 C 15,6 C 81 % 1017,0 hPa 0,0 l/m 5,4 km/h (1 Bft) SW 230 0 min 0,000 mm 0,0 UV-I 0 W/m 14,1 C 17,4 C 6,4 km/h (2 Bft) 96,30 %
13.07.2018 23:59 17,4 C 23,3 C 15,6 C 81 % 1016,9 hPa 0,0 l/m 5,2 km/h (1 Bft) SW 230 0 min 0,000 mm 0,0 UV-I 0 W/m 14,1 C 17,4 C 8,0 km/h (2 Bft) 91,30 %
_ Min-Zeit 05:37 04:16 04:39 14:58 19:18 - 21:16 - - - - - - 04:28 05:59 21:16 20:00
Minimum _ 12,3 C 22,2 C 10,6 C 40 % 1015,8 hPa - 0,0 km/h (0 Bft) - - - - - - 10,9 C 11,1 C 0,0 km/h (0 Bft) 72,73 %
_ Max-Zeit 15:34 15:10 12:59 05:36 10:38 00:00 12:44 - - 08:08 13:00 13:00 11:31 20:04 15:04 13:40 00:02
Maximum _ 26,8 C 23,9 C 38,9 C 92 % 1017,9 hPa 0,0 l/m 18,1 km/h
W (3 Bft)
- - 2 min 0,610 mm 6,5 UV-I 1088 W/m 15,8 C 26,7 C 25,7 km/h
W (4 Bft)
100,00 %
Durchschnitt _ 19,8 C 23,1 C 22,8 C 68 % 1016,9 hPa #0,0 l/m 6,4 km/h (2 Bft) SW - #10:52 h #4,826 mm 3,0 UV-I 398 W/m 13,3 C 19,4 C 9,2 km/h (2 Bft) 97,27 %